<?xml version="1.0" encoding="UTF-8"?>
<gpx version="1.1" creator="https://www.youtrack.es" xsi:schemaLocation="http://www.topografix.com/GPX/1/1 http://www.topografix.com/GPX/1/1/gpx.xsd http://www.garmin.com/xmlschemas/GpxExtensions/v3 http://www.garmin.com/xmlschemas/GpxExtensionsv3.xsd http://www.garmin.com/xmlschemas/TrackPointExtension/v1 http://www.garmin.com/xmlschemas/TrackPointExtensionv1.xsd" xmlns:gpxtpx="http://www.garmin.com/xmlschemas/TrackPointExtension/v1" xmlns:gpxx="http://www.garmin.com/xmlschemas/GpxExtensions/v3" xmlns:xsi="http://www.w3.org/2001/XMLSchema-instance">
  <metadata>
    <link href="https://www.youtrack.es">
      <text>YouTrack.es</text>
    </link>
    <time>2026-05-08T00:33:36Z</time>
  </metadata>
  <trk>
    <src>https://www.youtrack.es</src>
    <link href="https://www.youtrack.es/ruta/24690-pico-perdiguero--3222m--desde-literola">
      <text>YouTrack.es</text>
    </link>
    <trkseg>
      <trkpt lat="42.6660986244678497314453125" lon="0.57816783897578716278076171875">
        <ele>1609.5999755859375</ele>
        <time>2021-08-09T05:50:57.000Z</time>
      </trkpt>
      <trkpt lat="42.666099630296230316162109375" lon="0.57816096581518650054931640625">
        <ele>1610</ele>
        <time>2021-08-09T05:50:58.000Z</time>
      </trkpt>
      <trkpt lat="42.6662322320044040679931640625" lon="0.578077733516693115234375">
        <ele>1615.199951171875</ele>
        <time>2021-08-09T05:51:14.000Z</time>
      </trkpt>
      <trkpt lat="42.6662426255643367767333984375" lon="0.57807412929832935333251953125">
        <ele>1615.199951171875</ele>
        <time>2021-08-09T05:51:15.000Z</time>
      </trkpt>
      <trkpt lat="42.66625058837234973907470703125" lon="0.5780708603560924530029296875">
        <ele>1615.199951171875</ele>
        <time>2021-08-09T05:51:16.000Z</time>
      </trkpt>
      <trkpt lat="42.66643314622342586517333984375" lon="0.578078739345073699951171875">
        <ele>1613</ele>
        <time>2021-08-09T05:51:34.000Z</time>
      </trkpt>
      <trkpt lat="42.66661436296999454498291015625" lon="0.57807999663054943084716796875">
        <ele>1610.4000244140625</ele>
        <time>2021-08-09T05:51:50.000Z</time>
      </trkpt>
      <trkpt lat="42.66668560914695262908935546875" lon="0.5780886299908161163330078125">
        <ele>1609</ele>
        <time>2021-08-09T05:51:56.000Z</time>
      </trkpt>
      <trkpt lat="42.66677680425345897674560546875" lon="0.5780926533043384552001953125">
        <ele>1608.800048828125</ele>
        <time>2021-08-09T05:52:04.000Z</time>
      </trkpt>
      <trkpt lat="42.66688275150954723358154296875" lon="0.57808452285826206207275390625">
        <ele>1609.4000244140625</ele>
        <time>2021-08-09T05:52:12.000Z</time>
      </trkpt>
      <trkpt lat="42.666967324912548065185546875" lon="0.578103549778461456298828125">
        <ele>1609.199951171875</ele>
        <time>2021-08-09T05:52:19.000Z</time>
      </trkpt>
      <trkpt lat="42.66703446395695209503173828125" lon="0.57814654894173145294189453125">
        <ele>1609.4000244140625</ele>
        <time>2021-08-09T05:52:25.000Z</time>
      </trkpt>
      <trkpt lat="42.66715549863874912261962890625" lon="0.578200779855251312255859375">
        <ele>1611.800048828125</ele>
        <time>2021-08-09T05:52:35.000Z</time>
      </trkpt>
      <trkpt lat="42.66729312948882579803466796875" lon="0.57833053171634674072265625">
        <ele>1613.199951171875</ele>
        <time>2021-08-09T05:52:47.000Z</time>
      </trkpt>
      <trkpt lat="42.66731458716094493865966796875" lon="0.57834520004689693450927734375">
        <ele>1614</ele>
        <time>2021-08-09T05:52:49.000Z</time>
      </trkpt>
      <trkpt lat="42.6673860847949981689453125" lon="0.5783856846392154693603515625">
        <ele>1616.4000244140625</ele>
        <time>2021-08-09T05:52:55.000Z</time>
      </trkpt>
      <trkpt lat="42.6674965582787990570068359375" lon="0.578479729592800140380859375">
        <ele>1617.800048828125</ele>
        <time>2021-08-09T05:53:04.000Z</time>
      </trkpt>
      <trkpt lat="42.6676269806921482086181640625" lon="0.5785697512328624725341796875">
        <ele>1620</ele>
        <time>2021-08-09T05:53:15.000Z</time>
      </trkpt>
      <trkpt lat="42.66774474643170833587646484375" lon="0.5786927975714206695556640625">
        <ele>1619.5999755859375</ele>
        <time>2021-08-09T05:53:26.000Z</time>
      </trkpt>
      <trkpt lat="42.66776469536125659942626953125" lon="0.5787145905196666717529296875">
        <ele>1619.5999755859375</ele>
        <time>2021-08-09T05:53:28.000Z</time>
      </trkpt>
      <trkpt lat="42.6678827963769435882568359375" lon="0.57884643785655498504638671875">
        <ele>1618.5999755859375</ele>
        <time>2021-08-09T05:53:41.000Z</time>
      </trkpt>
      <trkpt lat="42.667955048382282257080078125" lon="0.57892371900379657745361328125">
        <ele>1617.800048828125</ele>
        <time>2021-08-09T05:53:48.000Z</time>
      </trkpt>
      <trkpt lat="42.66796116717159748077392578125" lon="0.5789405666291713714599609375">
        <ele>1617.5999755859375</ele>
        <time>2021-08-09T05:53:49.000Z</time>
      </trkpt>
      <trkpt lat="42.66800223849713802337646484375" lon="0.5789534747600555419921875">
        <ele>1619</ele>
        <time>2021-08-09T05:53:53.000Z</time>
      </trkpt>
      <trkpt lat="42.66806007362902164459228515625" lon="0.57893813587725162506103515625">
        <ele>1621.5999755859375</ele>
        <time>2021-08-09T05:53:59.000Z</time>
      </trkpt>
      <trkpt lat="42.66806744970381259918212890625" lon="0.57889019139111042022705078125">
        <ele>1623.5999755859375</ele>
        <time>2021-08-09T05:54:08.000Z</time>
      </trkpt>
      <trkpt lat="42.66806677915155887603759765625" lon="0.578890107572078704833984375">
        <ele>1623.5999755859375</ele>
        <time>2021-08-09T05:54:10.000Z</time>
      </trkpt>
      <trkpt lat="42.6680638454854488372802734375" lon="0.5788946337997913360595703125">
        <ele>1623.199951171875</ele>
        <time>2021-08-09T05:54:11.000Z</time>
      </trkpt>
      <trkpt lat="42.66807432286441326141357421875" lon="0.57887895964086055755615234375">
        <ele>1624.4000244140625</ele>
        <time>2021-08-09T05:54:24.000Z</time>
      </trkpt>
      <trkpt lat="42.66807231120765209197998046875" lon="0.57887946255505084991455078125">
        <ele>1624.4000244140625</ele>
        <time>2021-08-09T05:54:25.000Z</time>
      </trkpt>
      <trkpt lat="42.66802956350147724151611328125" lon="0.57879094965755939483642578125">
        <ele>1627.199951171875</ele>
        <time>2021-08-09T05:54:42.000Z</time>
      </trkpt>
      <trkpt lat="42.6679599098861217498779296875" lon="0.578667819499969482421875">
        <ele>1630.5999755859375</ele>
        <time>2021-08-09T05:54:56.000Z</time>
      </trkpt>
      <trkpt lat="42.6679444871842861175537109375" lon="0.57865281589329242706298828125">
        <ele>1630.800048828125</ele>
        <time>2021-08-09T05:54:58.000Z</time>
      </trkpt>
      <trkpt lat="42.66786930151283740997314453125" lon="0.5785818211734294891357421875">
        <ele>1632</ele>
        <time>2021-08-09T05:55:08.000Z</time>
      </trkpt>
      <trkpt lat="42.66779621131718158721923828125" lon="0.57853681035339832305908203125">
        <ele>1631.5999755859375</ele>
        <time>2021-08-09T05:55:18.000Z</time>
      </trkpt>
      <trkpt lat="42.6676698960363864898681640625" lon="0.57835844345390796661376953125">
        <ele>1635.4000244140625</ele>
        <time>2021-08-09T05:55:34.000Z</time>
      </trkpt>
      <trkpt lat="42.66764600761234760284423828125" lon="0.57830714620649814605712890625">
        <ele>1635.800048828125</ele>
        <time>2021-08-09T05:55:41.000Z</time>
      </trkpt>
      <trkpt lat="42.6675890944898128509521484375" lon="0.57807865552604198455810546875">
        <ele>1640.4000244140625</ele>
        <time>2021-08-09T05:56:06.000Z</time>
      </trkpt>
      <trkpt lat="42.66752229072153568267822265625" lon="0.57790347374975681304931640625">
        <ele>1641.199951171875</ele>
        <time>2021-08-09T05:56:29.000Z</time>
      </trkpt>
      <trkpt lat="42.66754559241235256195068359375" lon="0.57766911573708057403564453125">
        <ele>1649.5999755859375</ele>
        <time>2021-08-09T05:56:53.000Z</time>
      </trkpt>
      <trkpt lat="42.6675012521445751190185546875" lon="0.57754556648433208465576171875">
        <ele>1651.4000244140625</ele>
        <time>2021-08-09T05:57:02.000Z</time>
      </trkpt>
      <trkpt lat="42.66734962351620197296142578125" lon="0.57744406163692474365234375">
        <ele>1646.5999755859375</ele>
        <time>2021-08-09T05:57:20.000Z</time>
      </trkpt>
      <trkpt lat="42.66730964183807373046875" lon="0.57737298309803009033203125">
        <ele>1647.4000244140625</ele>
        <time>2021-08-09T05:57:28.000Z</time>
      </trkpt>
      <trkpt lat="42.667326070368289947509765625" lon="0.57732797227799892425537109375">
        <ele>1650.5999755859375</ele>
        <time>2021-08-09T05:57:33.000Z</time>
      </trkpt>
      <trkpt lat="42.66738197766244411468505859375" lon="0.5773084424436092376708984375">
        <ele>1654.5999755859375</ele>
        <time>2021-08-09T05:57:42.000Z</time>
      </trkpt>
      <trkpt lat="42.6674181036651134490966796875" lon="0.57732981629669666290283203125">
        <ele>1655.5999755859375</ele>
        <time>2021-08-09T05:57:51.000Z</time>
      </trkpt>
      <trkpt lat="42.66739924438297748565673828125" lon="0.57732562534511089324951171875">
        <ele>1654.800048828125</ele>
        <time>2021-08-09T05:57:54.000Z</time>
      </trkpt>
      <trkpt lat="42.66736797988414764404296875" lon="0.577123872935771942138671875">
        <ele>1662.4000244140625</ele>
        <time>2021-08-09T05:58:13.000Z</time>
      </trkpt>
      <trkpt lat="42.66734207980334758758544921875" lon="0.5770831368863582611083984375">
        <ele>1663</ele>
        <time>2021-08-09T05:58:18.000Z</time>
      </trkpt>
      <trkpt lat="42.66723630018532276153564453125" lon="0.5770088732242584228515625">
        <ele>1661.5999755859375</ele>
        <time>2021-08-09T05:58:34.000Z</time>
      </trkpt>
      <trkpt lat="42.6672343723475933074951171875" lon="0.57700644247233867645263671875">
        <ele>1661.5999755859375</ele>
        <time>2021-08-09T05:58:35.000Z</time>
      </trkpt>
      <trkpt lat="42.66724719665944576263427734375" lon="0.57699185796082019805908203125">
        <ele>1662.800048828125</ele>
        <time>2021-08-09T05:58:41.000Z</time>
      </trkpt>
      <trkpt lat="42.66731726936995983123779296875" lon="0.57697199285030364990234375">
        <ele>1667.4000244140625</ele>
        <time>2021-08-09T05:58:50.000Z</time>
      </trkpt>
      <trkpt lat="42.6674284972250461578369140625" lon="0.5769828893244266510009765625">
        <ele>1672.800048828125</ele>
        <time>2021-08-09T05:59:11.000Z</time>
      </trkpt>
      <trkpt lat="42.66743025742471218109130859375" lon="0.57697107084095478057861328125">
        <ele>1673.4000244140625</ele>
        <time>2021-08-09T05:59:13.000Z</time>
      </trkpt>
      <trkpt lat="42.66742698848247528076171875" lon="0.576967634260654449462890625">
        <ele>1673.4000244140625</ele>
        <time>2021-08-09T05:59:14.000Z</time>
      </trkpt>
      <trkpt lat="42.66735364682972431182861328125" lon="0.57693033479154109954833984375">
        <ele>1671</ele>
        <time>2021-08-09T05:59:23.000Z</time>
      </trkpt>
      <trkpt lat="42.6673332788050174713134765625" lon="0.57682690210640430450439453125">
        <ele>1674</ele>
        <time>2021-08-09T05:59:33.000Z</time>
      </trkpt>
      <trkpt lat="42.6673624478280544281005859375" lon="0.57671626098453998565673828125">
        <ele>1679.4000244140625</ele>
        <time>2021-08-09T05:59:46.000Z</time>
      </trkpt>
      <trkpt lat="42.66738600097596645355224609375" lon="0.57669530622661113739013671875">
        <ele>1681.199951171875</ele>
        <time>2021-08-09T05:59:49.000Z</time>
      </trkpt>
      <trkpt lat="42.6674160920083522796630859375" lon="0.57666948996484279632568359375">
        <ele>1683.199951171875</ele>
        <time>2021-08-09T05:59:57.000Z</time>
      </trkpt>
      <trkpt lat="42.66743847168982028961181640625" lon="0.576636381447315216064453125">
        <ele>1685</ele>
        <time>2021-08-09T06:00:03.000Z</time>
      </trkpt>
      <trkpt lat="42.6674476079642772674560546875" lon="0.5766348727047443389892578125">
        <ele>1685.5999755859375</ele>
        <time>2021-08-09T06:00:10.000Z</time>
      </trkpt>
      <trkpt lat="42.66746998764574527740478515625" lon="0.57663545943796634674072265625">
        <ele>1686.5999755859375</ele>
        <time>2021-08-09T06:00:30.000Z</time>
      </trkpt>
      <trkpt lat="42.66745909117162227630615234375" lon="0.5766362138092517852783203125">
        <ele>1686</ele>
        <time>2021-08-09T06:00:35.000Z</time>
      </trkpt>
      <trkpt lat="42.66743444837629795074462890625" lon="0.576643757522106170654296875">
        <ele>1684.800048828125</ele>
        <time>2021-08-09T06:00:51.000Z</time>
      </trkpt>
      <trkpt lat="42.6674184389412403106689453125" lon="0.57665004394948482513427734375">
        <ele>1683.800048828125</ele>
        <time>2021-08-09T06:01:06.000Z</time>
      </trkpt>
      <trkpt lat="42.66738030128180980682373046875" lon="0.57659447193145751953125">
        <ele>1683.199951171875</ele>
        <time>2021-08-09T06:01:26.000Z</time>
      </trkpt>
      <trkpt lat="42.66742455773055553436279296875" lon="0.5765141732990741729736328125">
        <ele>1686.800048828125</ele>
        <time>2021-08-09T06:01:45.000Z</time>
      </trkpt>
      <trkpt lat="42.66744970344007015228271484375" lon="0.57648844085633754730224609375">
        <ele>1688.4000244140625</ele>
        <time>2021-08-09T06:01:49.000Z</time>
      </trkpt>
      <trkpt lat="42.6674623601138591766357421875" lon="0.57646027766168117523193359375">
        <ele>1689.4000244140625</ele>
        <time>2021-08-09T06:01:53.000Z</time>
      </trkpt>
      <trkpt lat="42.66739136539399623870849609375" lon="0.5763948149979114532470703125">
        <ele>1687.5999755859375</ele>
        <time>2021-08-09T06:02:07.000Z</time>
      </trkpt>
      <trkpt lat="42.66738231293857097625732421875" lon="0.57639129459857940673828125">
        <ele>1687.199951171875</ele>
        <time>2021-08-09T06:02:08.000Z</time>
      </trkpt>
      <trkpt lat="42.66728675924241542816162109375" lon="0.5762097425758838653564453125">
        <ele>1686.4000244140625</ele>
        <time>2021-08-09T06:02:28.000Z</time>
      </trkpt>
      <trkpt lat="42.6672826521098613739013671875" lon="0.5761721916496753692626953125">
        <ele>1686.800048828125</ele>
        <time>2021-08-09T06:02:38.000Z</time>
      </trkpt>
      <trkpt lat="42.6672910340130329132080078125" lon="0.57619540952146053314208984375">
        <ele>1686.800048828125</ele>
        <time>2021-08-09T06:02:42.000Z</time>
      </trkpt>
      <trkpt lat="42.667309977114200592041015625" lon="0.57617940008640289306640625">
        <ele>1688</ele>
        <time>2021-08-09T06:02:44.000Z</time>
      </trkpt>
      <trkpt lat="42.66731031239032745361328125" lon="0.5761517398059368133544921875">
        <ele>1688.5999755859375</ele>
        <time>2021-08-09T06:02:54.000Z</time>
      </trkpt>
      <trkpt lat="42.66728977672755718231201171875" lon="0.5760984309017658233642578125">
        <ele>1688.800048828125</ele>
        <time>2021-08-09T06:02:59.000Z</time>
      </trkpt>
      <trkpt lat="42.6672739349305629730224609375" lon="0.576079823076725006103515625">
        <ele>1688.4000244140625</ele>
        <time>2021-08-09T06:03:01.000Z</time>
      </trkpt>
      <trkpt lat="42.66726337373256683349609375" lon="0.57607605122029781341552734375">
        <ele>1688.199951171875</ele>
        <time>2021-08-09T06:03:02.000Z</time>
      </trkpt>
      <trkpt lat="42.6672269962728023529052734375" lon="0.57601888664066791534423828125">
        <ele>1688.800048828125</ele>
        <time>2021-08-09T06:03:07.000Z</time>
      </trkpt>
      <trkpt lat="42.6671297661960124969482421875" lon="0.5758090876042842864990234375">
        <ele>1691.4000244140625</ele>
        <time>2021-08-09T06:03:27.000Z</time>
      </trkpt>
      <trkpt lat="42.66712079755961894989013671875" lon="0.5757822655141353607177734375">
        <ele>1691.5999755859375</ele>
        <time>2021-08-09T06:03:29.000Z</time>
      </trkpt>
      <trkpt lat="42.6670895330607891082763671875" lon="0.57575116865336894989013671875">
        <ele>1691.5999755859375</ele>
        <time>2021-08-09T06:03:33.000Z</time>
      </trkpt>
      <trkpt lat="42.66709229908883571624755859375" lon="0.5756823532283306121826171875">
        <ele>1692.4000244140625</ele>
        <time>2021-08-09T06:03:46.000Z</time>
      </trkpt>
      <trkpt lat="42.66710202209651470184326171875" lon="0.57561957277357578277587890625">
        <ele>1693.199951171875</ele>
        <time>2021-08-09T06:03:55.000Z</time>
      </trkpt>
      <trkpt lat="42.66716505400836467742919921875" lon="0.575570203363895416259765625">
        <ele>1694.5999755859375</ele>
        <time>2021-08-09T06:04:08.000Z</time>
      </trkpt>
      <trkpt lat="42.6672756113111972808837890625" lon="0.5756226740777492523193359375">
        <ele>1695.800048828125</ele>
        <time>2021-08-09T06:04:25.000Z</time>
      </trkpt>
      <trkpt lat="42.66748809255659580230712890625" lon="0.5754647590219974517822265625">
        <ele>1707.199951171875</ele>
        <time>2021-08-09T06:04:37.000Z</time>
      </trkpt>
      <trkpt lat="42.6675277389585971832275390625" lon="0.57548948563635349273681640625">
        <ele>1709</ele>
        <time>2021-08-09T06:04:42.000Z</time>
      </trkpt>
      <trkpt lat="42.6675609312951564788818359375" lon="0.57550675235688686370849609375">
        <ele>1710.5999755859375</ele>
        <time>2021-08-09T06:04:46.000Z</time>
      </trkpt>
      <trkpt lat="42.66759554855525493621826171875" lon="0.575497448444366455078125">
        <ele>1712.5999755859375</ele>
        <time>2021-08-09T06:04:50.000Z</time>
      </trkpt>
      <trkpt lat="42.66760879196226596832275390625" lon="0.5754734762012958526611328125">
        <ele>1713.5999755859375</ele>
        <time>2021-08-09T06:04:53.000Z</time>
      </trkpt>
      <trkpt lat="42.6676159165799617767333984375" lon="0.57545947842299938201904296875">
        <ele>1714.199951171875</ele>
        <time>2021-08-09T06:04:55.000Z</time>
      </trkpt>
      <trkpt lat="42.66766310669481754302978515625" lon="0.57526619173586368560791015625">
        <ele>1718.4000244140625</ele>
        <time>2021-08-09T06:05:10.000Z</time>
      </trkpt>
      <trkpt lat="42.6676789484918117523193359375" lon="0.5751214362680912017822265625">
        <ele>1719.800048828125</ele>
        <time>2021-08-09T06:05:20.000Z</time>
      </trkpt>
      <trkpt lat="42.66765455715358257293701171875" lon="0.57505027391016483306884765625">
        <ele>1718.800048828125</ele>
        <time>2021-08-09T06:05:25.000Z</time>
      </trkpt>
      <trkpt lat="42.66765086911618709564208984375" lon="0.57503619231283664703369140625">
        <ele>1718.5999755859375</ele>
        <time>2021-08-09T06:05:26.000Z</time>
      </trkpt>
      <trkpt lat="42.6676462590694427490234375" lon="0.57502328418195247650146484375">
        <ele>1718.4000244140625</ele>
        <time>2021-08-09T06:05:27.000Z</time>
      </trkpt>
      <trkpt lat="42.6676457561552524566650390625" lon="0.57498808018863201141357421875">
        <ele>1718.4000244140625</ele>
        <time>2021-08-09T06:05:29.000Z</time>
      </trkpt>
      <trkpt lat="42.6676625199615955352783203125" lon="0.5747392214834690093994140625">
        <ele>1719.4000244140625</ele>
        <time>2021-08-09T06:05:46.000Z</time>
      </trkpt>
      <trkpt lat="42.66766704618930816650390625" lon="0.574730336666107177734375">
        <ele>1719.800048828125</ele>
        <time>2021-08-09T06:05:47.000Z</time>
      </trkpt>
      <trkpt lat="42.66769093461334705352783203125" lon="0.57460553012788295745849609375">
        <ele>1723.5999755859375</ele>
        <time>2021-08-09T06:05:58.000Z</time>
      </trkpt>
      <trkpt lat="42.6677426509559154510498046875" lon="0.5744019336998462677001953125">
        <ele>1727</ele>
        <time>2021-08-09T06:06:20.000Z</time>
      </trkpt>
      <trkpt lat="42.667720355093479156494140625" lon="0.5743000097572803497314453125">
        <ele>1727.5999755859375</ele>
        <time>2021-08-09T06:06:29.000Z</time>
      </trkpt>
      <trkpt lat="42.6677278988063335418701171875" lon="0.57428852654993534088134765625">
        <ele>1728</ele>
        <time>2021-08-09T06:06:30.000Z</time>
      </trkpt>
      <trkpt lat="42.6677349396049976348876953125" lon="0.5742621235549449920654296875">
        <ele>1728.800048828125</ele>
        <time>2021-08-09T06:06:33.000Z</time>
      </trkpt>
      <trkpt lat="42.66773669980466365814208984375" lon="0.5742269195616245269775390625">
        <ele>1729.199951171875</ele>
        <time>2021-08-09T06:06:37.000Z</time>
      </trkpt>
      <trkpt lat="42.6677795313298702239990234375" lon="0.57420018129050731658935546875">
        <ele>1731.199951171875</ele>
        <time>2021-08-09T06:06:44.000Z</time>
      </trkpt>
      <trkpt lat="42.66775631345808506011962890625" lon="0.57412843219935894012451171875">
        <ele>1731.800048828125</ele>
        <time>2021-08-09T06:06:51.000Z</time>
      </trkpt>
      <trkpt lat="42.66772110946476459503173828125" lon="0.573887117207050323486328125">
        <ele>1735</ele>
        <time>2021-08-09T06:07:09.000Z</time>
      </trkpt>
      <trkpt lat="42.66770518384873867034912109375" lon="0.5738339759409427642822265625">
        <ele>1735.4000244140625</ele>
        <time>2021-08-09T06:07:14.000Z</time>
      </trkpt>
      <trkpt lat="42.667654640972614288330078125" lon="0.57368754409253597259521484375">
        <ele>1736.4000244140625</ele>
        <time>2021-08-09T06:07:25.000Z</time>
      </trkpt>
      <trkpt lat="42.66765388660132884979248046875" lon="0.5736395157873630523681640625">
        <ele>1737.4000244140625</ele>
        <time>2021-08-09T06:07:29.000Z</time>
      </trkpt>
      <trkpt lat="42.66765221022069454193115234375" lon="0.573583357036113739013671875">
        <ele>1738.4000244140625</ele>
        <time>2021-08-09T06:07:33.000Z</time>
      </trkpt>
      <trkpt lat="42.66764148138463497161865234375" lon="0.57351353578269481658935546875">
        <ele>1739.5999755859375</ele>
        <time>2021-08-09T06:07:38.000Z</time>
      </trkpt>
      <trkpt lat="42.66763075254857540130615234375" lon="0.57345561683177947998046875">
        <ele>1740.5999755859375</ele>
        <time>2021-08-09T06:07:42.000Z</time>
      </trkpt>
      <trkpt lat="42.66763008199632167816162109375" lon="0.57343960739672183990478515625">
        <ele>1740.800048828125</ele>
        <time>2021-08-09T06:07:43.000Z</time>
      </trkpt>
      <trkpt lat="42.667636871337890625" lon="0.5733179859817028045654296875">
        <ele>1743.199951171875</ele>
        <time>2021-08-09T06:07:52.000Z</time>
      </trkpt>
      <trkpt lat="42.6676846481859683990478515625" lon="0.5731171555817127227783203125">
        <ele>1747.4000244140625</ele>
        <time>2021-08-09T06:08:08.000Z</time>
      </trkpt>
      <trkpt lat="42.66768540255725383758544921875" lon="0.5730551294982433319091796875">
        <ele>1748.199951171875</ele>
        <time>2021-08-09T06:08:12.000Z</time>
      </trkpt>
      <trkpt lat="42.6677024178206920623779296875" lon="0.57295027188956737518310546875">
        <ele>1750.199951171875</ele>
        <time>2021-08-09T06:08:21.000Z</time>
      </trkpt>
      <trkpt lat="42.66770057380199432373046875" lon="0.5727895908057689666748046875">
        <ele>1752.5999755859375</ele>
        <time>2021-08-09T06:08:32.000Z</time>
      </trkpt>
      <trkpt lat="42.66772546805441379547119140625" lon="0.57273066602647304534912109375">
        <ele>1754.199951171875</ele>
        <time>2021-08-09T06:08:37.000Z</time>
      </trkpt>
      <trkpt lat="42.66773267649114131927490234375" lon="0.57259194552898406982421875">
        <ele>1755</ele>
        <time>2021-08-09T06:08:47.000Z</time>
      </trkpt>
      <trkpt lat="42.66773804090917110443115234375" lon="0.5724625289440155029296875">
        <ele>1756.4000244140625</ele>
        <time>2021-08-09T06:08:56.000Z</time>
      </trkpt>
      <trkpt lat="42.66773141920566558837890625" lon="0.57234090752899646759033203125">
        <ele>1758</ele>
        <time>2021-08-09T06:09:04.000Z</time>
      </trkpt>
      <trkpt lat="42.66772915609180927276611328125" lon="0.572301261126995086669921875">
        <ele>1758.4000244140625</ele>
        <time>2021-08-09T06:09:07.000Z</time>
      </trkpt>
      <trkpt lat="42.66774910502135753631591796875" lon="0.57223521173000335693359375">
        <ele>1759.4000244140625</ele>
        <time>2021-08-09T06:09:13.000Z</time>
      </trkpt>
      <trkpt lat="42.6677486859261989593505859375" lon="0.5722109042108058929443359375">
        <ele>1759.800048828125</ele>
        <time>2021-08-09T06:09:15.000Z</time>
      </trkpt>
      <trkpt lat="42.66774927265942096710205078125" lon="0.57219053618609905242919921875">
        <ele>1760.4000244140625</ele>
        <time>2021-08-09T06:09:17.000Z</time>
      </trkpt>
      <trkpt lat="42.66775421798229217529296875" lon="0.57215382345020771026611328125">
        <ele>1761</ele>
        <time>2021-08-09T06:09:20.000Z</time>
      </trkpt>
      <trkpt lat="42.667753212153911590576171875" lon="0.572114177048206329345703125">
        <ele>1761.5999755859375</ele>
        <time>2021-08-09T06:09:23.000Z</time>
      </trkpt>
      <trkpt lat="42.66773150302469730377197265625" lon="0.57191560976207256317138671875">
        <ele>1764.800048828125</ele>
        <time>2021-08-09T06:09:39.000Z</time>
      </trkpt>
      <trkpt lat="42.66775798983871936798095703125" lon="0.57171159423887729644775390625">
        <ele>1769.800048828125</ele>
        <time>2021-08-09T06:10:00.000Z</time>
      </trkpt>
      <trkpt lat="42.66772546805441379547119140625" lon="0.57164571247994899749755859375">
        <ele>1771.199951171875</ele>
        <time>2021-08-09T06:10:06.000Z</time>
      </trkpt>
      <trkpt lat="42.6677232049405574798583984375" lon="0.571597851812839508056640625">
        <ele>1772.199951171875</ele>
        <time>2021-08-09T06:10:10.000Z</time>
      </trkpt>
      <trkpt lat="42.66773879528045654296875" lon="0.57153909467160701751708984375">
        <ele>1773.5999755859375</ele>
        <time>2021-08-09T06:10:16.000Z</time>
      </trkpt>
      <trkpt lat="42.66774139367043972015380859375" lon="0.5714937485754489898681640625">
        <ele>1774.5999755859375</ele>
        <time>2021-08-09T06:10:21.000Z</time>
      </trkpt>
      <trkpt lat="42.66773284412920475006103515625" lon="0.57143063284456729888916015625">
        <ele>1775.800048828125</ele>
        <time>2021-08-09T06:10:27.000Z</time>
      </trkpt>
      <trkpt lat="42.66775363124907016754150390625" lon="0.5712620727717876434326171875">
        <ele>1779.199951171875</ele>
        <time>2021-08-09T06:10:44.000Z</time>
      </trkpt>
      <trkpt lat="42.6677590794861316680908203125" lon="0.57114866562187671661376953125">
        <ele>1781.5999755859375</ele>
        <time>2021-08-09T06:10:54.000Z</time>
      </trkpt>
      <trkpt lat="42.667829655110836029052734375" lon="0.5710474960505962371826171875">
        <ele>1784.5999755859375</ele>
        <time>2021-08-09T06:11:10.000Z</time>
      </trkpt>
      <trkpt lat="42.667785398662090301513671875" lon="0.570903830230236053466796875">
        <ele>1786.5999755859375</ele>
        <time>2021-08-09T06:11:31.000Z</time>
      </trkpt>
      <trkpt lat="42.667784728109836578369140625" lon="0.57090491987764835357666015625">
        <ele>1786.4000244140625</ele>
        <time>2021-08-09T06:11:32.000Z</time>
      </trkpt>
      <trkpt lat="42.66778313554823398590087890625" lon="0.57090592570602893829345703125">
        <ele>1786.4000244140625</ele>
        <time>2021-08-09T06:11:33.000Z</time>
      </trkpt>
      <trkpt lat="42.6677734963595867156982421875" lon="0.57091380469501018524169921875">
        <ele>1786.199951171875</ele>
        <time>2021-08-09T06:11:38.000Z</time>
      </trkpt>
      <trkpt lat="42.66778397373855113983154296875" lon="0.57090709917247295379638671875">
        <ele>1786.4000244140625</ele>
        <time>2021-08-09T06:11:49.000Z</time>
      </trkpt>
      <trkpt lat="42.6677865721285343170166015625" lon="0.57090408168733119964599609375">
        <ele>1786.5999755859375</ele>
        <time>2021-08-09T06:11:50.000Z</time>
      </trkpt>
      <trkpt lat="42.667788080871105194091796875" lon="0.57090022601187229156494140625">
        <ele>1786.5999755859375</ele>
        <time>2021-08-09T06:11:52.000Z</time>
      </trkpt>
      <trkpt lat="42.667778022587299346923828125" lon="0.57090106420218944549560546875">
        <ele>1786.4000244140625</ele>
        <time>2021-08-09T06:12:03.000Z</time>
      </trkpt>
      <trkpt lat="42.66777877695858478546142578125" lon="0.57090207003057003021240234375">
        <ele>1786.4000244140625</ele>
        <time>2021-08-09T06:12:05.000Z</time>
      </trkpt>
      <trkpt lat="42.6677802018821239471435546875" lon="0.57089821435511112213134765625">
        <ele>1786.5999755859375</ele>
        <time>2021-08-09T06:12:06.000Z</time>
      </trkpt>
      <trkpt lat="42.66778280027210712432861328125" lon="0.57089720852673053741455078125">
        <ele>1786.5999755859375</ele>
        <time>2021-08-09T06:12:09.000Z</time>
      </trkpt>
      <trkpt lat="42.66778514720499515533447265625" lon="0.57090927846729755401611328125">
        <ele>1786.4000244140625</ele>
        <time>2021-08-09T06:12:27.000Z</time>
      </trkpt>
      <trkpt lat="42.667783387005329132080078125" lon="0.57091095484793186187744140625">
        <ele>1786.4000244140625</ele>
        <time>2021-08-09T06:12:30.000Z</time>
      </trkpt>
      <trkpt lat="42.6677671261131763458251953125" lon="0.5709056742489337921142578125">
        <ele>1786.199951171875</ele>
        <time>2021-08-09T06:12:37.000Z</time>
      </trkpt>
      <trkpt lat="42.66776352189481258392333984375" lon="0.570911876857280731201171875">
        <ele>1786</ele>
        <time>2021-08-09T06:12:40.000Z</time>
      </trkpt>
      <trkpt lat="42.66776067204773426055908203125" lon="0.5709187500178813934326171875">
        <ele>1785.800048828125</ele>
        <time>2021-08-09T06:12:42.000Z</time>
      </trkpt>
      <trkpt lat="42.6677577383816242218017578125" lon="0.57091950438916683197021484375">
        <ele>1785.800048828125</ele>
        <time>2021-08-09T06:12:46.000Z</time>
      </trkpt>
      <trkpt lat="42.6677791960537433624267578125" lon="0.5709019862115383148193359375">
        <ele>1786.4000244140625</ele>
        <time>2021-08-09T06:13:38.000Z</time>
      </trkpt>
      <trkpt lat="42.6677667908370494842529296875" lon="0.570921599864959716796875">
        <ele>1786</ele>
        <time>2021-08-09T06:13:57.000Z</time>
      </trkpt>
      <trkpt lat="42.66777324490249156951904296875" lon="0.5709197558462619781494140625">
        <ele>1786</ele>
        <time>2021-08-09T06:14:02.000Z</time>
      </trkpt>
      <trkpt lat="42.66777299344539642333984375" lon="0.5709274671971797943115234375">
        <ele>1786</ele>
        <time>2021-08-09T06:14:10.000Z</time>
      </trkpt>
      <trkpt lat="42.6677667908370494842529296875" lon="0.5709283053874969482421875">
        <ele>1785.800048828125</ele>
        <time>2021-08-09T06:14:14.000Z</time>
      </trkpt>
      <trkpt lat="42.66776720993220806121826171875" lon="0.57091958820819854736328125">
        <ele>1786</ele>
        <time>2021-08-09T06:14:21.000Z</time>
      </trkpt>
      <trkpt lat="42.66776025295257568359375" lon="0.5709214322268962860107421875">
        <ele>1785.800048828125</ele>
        <time>2021-08-09T06:14:33.000Z</time>
      </trkpt>
      <trkpt lat="42.6677508652210235595703125" lon="0.5707638524472713470458984375">
        <ele>1788.800048828125</ele>
        <time>2021-08-09T06:14:47.000Z</time>
      </trkpt>
      <trkpt lat="42.667734436690807342529296875" lon="0.57062144391238689422607421875">
        <ele>1790.5999755859375</ele>
        <time>2021-08-09T06:14:58.000Z</time>
      </trkpt>
      <trkpt lat="42.6677077822387218475341796875" lon="0.57057383470237255096435546875">
        <ele>1791.199951171875</ele>
        <time>2021-08-09T06:15:03.000Z</time>
      </trkpt>
      <trkpt lat="42.66766562126576900482177734375" lon="0.57046704925596714019775390625">
        <ele>1792.4000244140625</ele>
        <time>2021-08-09T06:15:13.000Z</time>
      </trkpt>
      <trkpt lat="42.667660005390644073486328125" lon="0.5704238824546337127685546875">
        <ele>1793</ele>
        <time>2021-08-09T06:15:16.000Z</time>
      </trkpt>
      <trkpt lat="42.667647264897823333740234375" lon="0.57034383527934551239013671875">
        <ele>1794</ele>
        <time>2021-08-09T06:15:22.000Z</time>
      </trkpt>
      <trkpt lat="42.66766260378062725067138671875" lon="0.570101179182529449462890625">
        <ele>1798.199951171875</ele>
        <time>2021-08-09T06:15:43.000Z</time>
      </trkpt>
      <trkpt lat="42.66777659766376018524169921875" lon="0.56993278674781322479248046875">
        <ele>1800.5999755859375</ele>
        <time>2021-08-09T06:16:09.000Z</time>
      </trkpt>
      <trkpt lat="42.66785790212452411651611328125" lon="0.5698163621127605438232421875">
        <ele>1803.199951171875</ele>
        <time>2021-08-09T06:16:29.000Z</time>
      </trkpt>
      <trkpt lat="42.66786192543804645538330078125" lon="0.5698200501501560211181640625">
        <ele>1803.199951171875</ele>
        <time>2021-08-09T06:16:30.000Z</time>
      </trkpt>
      <trkpt lat="42.6680360175669193267822265625" lon="0.5697731114923954010009765625">
        <ele>1805.199951171875</ele>
        <time>2021-08-09T06:16:55.000Z</time>
      </trkpt>
      <trkpt lat="42.66805998980998992919921875" lon="0.56976623833179473876953125">
        <ele>1805.4000244140625</ele>
        <time>2021-08-09T06:17:01.000Z</time>
      </trkpt>
      <trkpt lat="42.668190412223339080810546875" lon="0.5697654001414775848388671875">
        <ele>1808.4000244140625</ele>
        <time>2021-08-09T06:17:15.000Z</time>
      </trkpt>
      <trkpt lat="42.66820239834487438201904296875" lon="0.5697570182383060455322265625">
        <ele>1808.800048828125</ele>
        <time>2021-08-09T06:17:20.000Z</time>
      </trkpt>
      <trkpt lat="42.66824279911816120147705078125" lon="0.569727011024951934814453125">
        <ele>1810.199951171875</ele>
        <time>2021-08-09T06:17:25.000Z</time>
      </trkpt>
      <trkpt lat="42.6683049090206623077392578125" lon="0.56971770711243152618408203125">
        <ele>1812.199951171875</ele>
        <time>2021-08-09T06:17:32.000Z</time>
      </trkpt>
      <trkpt lat="42.668310105800628662109375" lon="0.56971435435116291046142578125">
        <ele>1812.4000244140625</ele>
        <time>2021-08-09T06:17:33.000Z</time>
      </trkpt>
      <trkpt lat="42.6683106087148189544677734375" lon="0.56970580480992794036865234375">
        <ele>1812.5999755859375</ele>
        <time>2021-08-09T06:17:34.000Z</time>
      </trkpt>
      <trkpt lat="42.668385542929172515869140625" lon="0.56963455863296985626220703125">
        <ele>1815.4000244140625</ele>
        <time>2021-08-09T06:17:47.000Z</time>
      </trkpt>
      <trkpt lat="42.66841395758092403411865234375" lon="0.56961628608405590057373046875">
        <ele>1817</ele>
        <time>2021-08-09T06:17:52.000Z</time>
      </trkpt>
      <trkpt lat="42.668449580669403076171875" lon="0.5696064792573451995849609375">
        <ele>1819</ele>
        <time>2021-08-09T06:17:57.000Z</time>
      </trkpt>
      <trkpt lat="42.66846039332449436187744140625" lon="0.56958678178489208221435546875">
        <ele>1819.800048828125</ele>
        <time>2021-08-09T06:18:01.000Z</time>
      </trkpt>
      <trkpt lat="42.6684601418673992156982421875" lon="0.56957446038722991943359375">
        <ele>1819.800048828125</ele>
        <time>2021-08-09T06:18:02.000Z</time>
      </trkpt>
      <trkpt lat="42.6684748940169811248779296875" lon="0.5695498175919055938720703125">
        <ele>1820.800048828125</ele>
        <time>2021-08-09T06:18:05.000Z</time>
      </trkpt>
      <trkpt lat="42.66848704777657985687255859375" lon="0.56954051367938518524169921875">
        <ele>1821.4000244140625</ele>
        <time>2021-08-09T06:18:07.000Z</time>
      </trkpt>
      <trkpt lat="42.66862719319760799407958984375" lon="0.56952727027237415313720703125">
        <ele>1828.199951171875</ele>
        <time>2021-08-09T06:18:31.000Z</time>
      </trkpt>
      <trkpt lat="42.66866927035152912139892578125" lon="0.56949608959257602691650390625">
        <ele>1830.4000244140625</ele>
        <time>2021-08-09T06:18:43.000Z</time>
      </trkpt>
      <trkpt lat="42.668710760772228240966796875" lon="0.5694784037768840789794921875">
        <ele>1832.199951171875</ele>
        <time>2021-08-09T06:18:50.000Z</time>
      </trkpt>
      <trkpt lat="42.668742276728153228759765625" lon="0.569511093199253082275390625">
        <ele>1833.5999755859375</ele>
        <time>2021-08-09T06:18:57.000Z</time>
      </trkpt>
      <trkpt lat="42.66875895671546459197998046875" lon="0.5694745481014251708984375">
        <ele>1834.4000244140625</ele>
        <time>2021-08-09T06:19:02.000Z</time>
      </trkpt>
      <trkpt lat="42.6688158698379993438720703125" lon="0.5693902261555194854736328125">
        <ele>1837.5999755859375</ele>
        <time>2021-08-09T06:19:16.000Z</time>
      </trkpt>
      <trkpt lat="42.66884093172848224639892578125" lon="0.569379664957523345947265625">
        <ele>1838.800048828125</ele>
        <time>2021-08-09T06:19:21.000Z</time>
      </trkpt>
      <trkpt lat="42.66889759339392185211181640625" lon="0.56947312317788600921630859375">
        <ele>1840.4000244140625</ele>
        <time>2021-08-09T06:19:37.000Z</time>
      </trkpt>
      <trkpt lat="42.66897873021662235260009765625" lon="0.56952961720526218414306640625">
        <ele>1843.5999755859375</ele>
        <time>2021-08-09T06:19:57.000Z</time>
      </trkpt>
      <trkpt lat="42.6690948195755481719970703125" lon="0.5693935789167881011962890625">
        <ele>1847.4000244140625</ele>
        <time>2021-08-09T06:20:28.000Z</time>
      </trkpt>
      <trkpt lat="42.66915500164031982421875" lon="0.5693248473107814788818359375">
        <ele>1849.5999755859375</ele>
        <time>2021-08-09T06:20:42.000Z</time>
      </trkpt>
      <trkpt lat="42.66921509988605976104736328125" lon="0.5691714584827423095703125">
        <ele>1852.199951171875</ele>
        <time>2021-08-09T06:21:06.000Z</time>
      </trkpt>
      <trkpt lat="42.66920587979257106781005859375" lon="0.56900775991380214691162109375">
        <ele>1853.5999755859375</ele>
        <time>2021-08-09T06:21:26.000Z</time>
      </trkpt>
      <trkpt lat="42.6691670715808868408203125" lon="0.5687987990677356719970703125">
        <ele>1855</ele>
        <time>2021-08-09T06:21:54.000Z</time>
      </trkpt>
      <trkpt lat="42.66914804466068744659423828125" lon="0.56867063976824283599853515625">
        <ele>1856.199951171875</ele>
        <time>2021-08-09T06:22:13.000Z</time>
      </trkpt>
      <trkpt lat="42.66911183483898639678955078125" lon="0.568595118820667266845703125">
        <ele>1856.800048828125</ele>
        <time>2021-08-09T06:22:24.000Z</time>
      </trkpt>
      <trkpt lat="42.66911669634282588958740234375" lon="0.56856251321732997894287109375">
        <ele>1857.800048828125</ele>
        <time>2021-08-09T06:22:27.000Z</time>
      </trkpt>
      <trkpt lat="42.669123150408267974853515625" lon="0.56846779771149158477783203125">
        <ele>1860.199951171875</ele>
        <time>2021-08-09T06:22:47.000Z</time>
      </trkpt>
      <trkpt lat="42.6691268384456634521484375" lon="0.5684276483952999114990234375">
        <ele>1861.199951171875</ele>
        <time>2021-08-09T06:22:52.000Z</time>
      </trkpt>
      <trkpt lat="42.66913681291043758392333984375" lon="0.56839638389647006988525390625">
        <ele>1862.199951171875</ele>
        <time>2021-08-09T06:22:56.000Z</time>
      </trkpt>
      <trkpt lat="42.66915240325033664703369140625" lon="0.5683109723031520843505859375">
        <ele>1864.800048828125</ele>
        <time>2021-08-09T06:23:07.000Z</time>
      </trkpt>
      <trkpt lat="42.669135220348834991455078125" lon="0.56819320656359195709228515625">
        <ele>1868.199951171875</ele>
        <time>2021-08-09T06:23:20.000Z</time>
      </trkpt>
      <trkpt lat="42.66915240325033664703369140625" lon="0.5680927075445652008056640625">
        <ele>1871.800048828125</ele>
        <time>2021-08-09T06:23:33.000Z</time>
      </trkpt>
      <trkpt lat="42.66915701329708099365234375" lon="0.56803529150784015655517578125">
        <ele>1873.800048828125</ele>
        <time>2021-08-09T06:23:42.000Z</time>
      </trkpt>
      <trkpt lat="42.6691709272563457489013671875" lon="0.56800008751451969146728515625">
        <ele>1875.4000244140625</ele>
        <time>2021-08-09T06:23:46.000Z</time>
      </trkpt>
      <trkpt lat="42.669169418513774871826171875" lon="0.5678519792854785919189453125">
        <ele>1880.800048828125</ele>
        <time>2021-08-09T06:23:59.000Z</time>
      </trkpt>
      <trkpt lat="42.669166736304759979248046875" lon="0.567812584340572357177734375">
        <ele>1882</ele>
        <time>2021-08-09T06:24:02.000Z</time>
      </trkpt>
      <trkpt lat="42.66916313208639621734619140625" lon="0.5677916295826435089111328125">
        <ele>1882.800048828125</ele>
        <time>2021-08-09T06:24:04.000Z</time>
      </trkpt>
      <trkpt lat="42.66917319037020206451416015625" lon="0.56772566400468349456787109375">
        <ele>1885</ele>
        <time>2021-08-09T06:24:12.000Z</time>
      </trkpt>
      <trkpt lat="42.66912507824599742889404296875" lon="0.56749197654426097869873046875">
        <ele>1890</ele>
        <time>2021-08-09T06:24:31.000Z</time>
      </trkpt>
      <trkpt lat="42.6690710149705410003662109375" lon="0.56741788052022457122802734375">
        <ele>1891</ele>
        <time>2021-08-09T06:24:39.000Z</time>
      </trkpt>
      <trkpt lat="42.6690093241631984710693359375" lon="0.56728829629719257354736328125">
        <ele>1893</ele>
        <time>2021-08-09T06:24:52.000Z</time>
      </trkpt>
      <trkpt lat="42.6690143533051013946533203125" lon="0.56728812865912914276123046875">
        <ele>1893.199951171875</ele>
        <time>2021-08-09T06:24:53.000Z</time>
      </trkpt>
      <trkpt lat="42.6690187118947505950927734375" lon="0.56728745810687541961669921875">
        <ele>1893.199951171875</ele>
        <time>2021-08-09T06:24:55.000Z</time>
      </trkpt>
      <trkpt lat="42.66902583651244640350341796875" lon="0.5672590434551239013671875">
        <ele>1894</ele>
        <time>2021-08-09T06:25:01.000Z</time>
      </trkpt>
      <trkpt lat="42.66903229057788848876953125" lon="0.56718804873526096343994140625">
        <ele>1895.4000244140625</ele>
        <time>2021-08-09T06:25:06.000Z</time>
      </trkpt>
      <trkpt lat="42.66904461197555065155029296875" lon="0.56706097908318042755126953125">
        <ele>1898</ele>
        <time>2021-08-09T06:25:15.000Z</time>
      </trkpt>
      <trkpt lat="42.66905014403164386749267578125" lon="0.56694664992392063140869140625">
        <ele>1901</ele>
        <time>2021-08-09T06:25:23.000Z</time>
      </trkpt>
      <trkpt lat="42.66904930584132671356201171875" lon="0.56690306402742862701416015625">
        <ele>1901.199951171875</ele>
        <time>2021-08-09T06:25:26.000Z</time>
      </trkpt>
      <trkpt lat="42.6690928079187870025634765625" lon="0.56671388447284698486328125">
        <ele>1904.199951171875</ele>
        <time>2021-08-09T06:25:40.000Z</time>
      </trkpt>
      <trkpt lat="42.66909398138523101806640625" lon="0.56670357473194599151611328125">
        <ele>1904.4000244140625</ele>
        <time>2021-08-09T06:25:41.000Z</time>
      </trkpt>
      <trkpt lat="42.669097669422626495361328125" lon="0.56661137379705905914306640625">
        <ele>1906.5999755859375</ele>
        <time>2021-08-09T06:25:47.000Z</time>
      </trkpt>
      <trkpt lat="42.669103033840656280517578125" lon="0.5665692128241062164306640625">
        <ele>1907.5999755859375</ele>
        <time>2021-08-09T06:25:51.000Z</time>
      </trkpt>
      <trkpt lat="42.66909842379391193389892578125" lon="0.566484220325946807861328125">
        <ele>1909.199951171875</ele>
        <time>2021-08-09T06:25:58.000Z</time>
      </trkpt>
      <trkpt lat="42.6691176183521747589111328125" lon="0.56640484370291233062744140625">
        <ele>1911</ele>
        <time>2021-08-09T06:26:05.000Z</time>
      </trkpt>
      <trkpt lat="42.66911501996219158172607421875" lon="0.566399395465850830078125">
        <ele>1911.199951171875</ele>
        <time>2021-08-09T06:26:06.000Z</time>
      </trkpt>
      <trkpt lat="42.66911803744733333587646484375" lon="0.56634969078004360198974609375">
        <ele>1913</ele>
        <time>2021-08-09T06:26:12.000Z</time>
      </trkpt>
      <trkpt lat="42.66911535523831844329833984375" lon="0.5663321726024150848388671875">
        <ele>1913.5999755859375</ele>
        <time>2021-08-09T06:26:14.000Z</time>
      </trkpt>
      <trkpt lat="42.66912239603698253631591796875" lon="0.56623234413564205169677734375">
        <ele>1916.4000244140625</ele>
        <time>2021-08-09T06:26:24.000Z</time>
      </trkpt>
      <trkpt lat="42.6691239885985851287841796875" lon="0.5662044323980808258056640625">
        <ele>1917.199951171875</ele>
        <time>2021-08-09T06:26:27.000Z</time>
      </trkpt>
      <trkpt lat="42.6691223122179508209228515625" lon="0.5661819688975811004638671875">
        <ele>1917.5999755859375</ele>
        <time>2021-08-09T06:26:30.000Z</time>
      </trkpt>
      <trkpt lat="42.66911887563765048980712890625" lon="0.566086582839488983154296875">
        <ele>1921.4000244140625</ele>
        <time>2021-08-09T06:26:40.000Z</time>
      </trkpt>
      <trkpt lat="42.669115774333477020263671875" lon="0.56606688536703586578369140625">
        <ele>1922.5999755859375</ele>
        <time>2021-08-09T06:26:42.000Z</time>
      </trkpt>
      <trkpt lat="42.6691340468823909759521484375" lon="0.5658289231359958648681640625">
        <ele>1929.5999755859375</ele>
        <time>2021-08-09T06:27:05.000Z</time>
      </trkpt>
      <trkpt lat="42.66913597472012042999267578125" lon="0.56558978743851184844970703125">
        <ele>1940.800048828125</ele>
        <time>2021-08-09T06:27:32.000Z</time>
      </trkpt>
      <trkpt lat="42.66915055923163890838623046875" lon="0.5654470436275005340576171875">
        <ele>1945.4000244140625</ele>
        <time>2021-08-09T06:27:47.000Z</time>
      </trkpt>
      <trkpt lat="42.66912692226469516754150390625" lon="0.5652837641537189483642578125">
        <ele>1951</ele>
        <time>2021-08-09T06:28:04.000Z</time>
      </trkpt>
      <trkpt lat="42.6691300235688686370849609375" lon="0.56521176360547542572021484375">
        <ele>1952.199951171875</ele>
        <time>2021-08-09T06:28:12.000Z</time>
      </trkpt>
      <trkpt lat="42.66915525309741497039794921875" lon="0.56515283882617950439453125">
        <ele>1953.5999755859375</ele>
        <time>2021-08-09T06:28:23.000Z</time>
      </trkpt>
      <trkpt lat="42.66910278238356113433837890625" lon="0.56492149829864501953125">
        <ele>1957.5999755859375</ele>
        <time>2021-08-09T06:28:50.000Z</time>
      </trkpt>
      <trkpt lat="42.66903270967304706573486328125" lon="0.56471035815775394439697265625">
        <ele>1959</ele>
        <time>2021-08-09T06:29:16.000Z</time>
      </trkpt>
      <trkpt lat="42.66896179877221584320068359375" lon="0.564544983208179473876953125">
        <ele>1961</ele>
        <time>2021-08-09T06:29:47.000Z</time>
      </trkpt>
      <trkpt lat="42.66891737468540668487548828125" lon="0.5645082704722881317138671875">
        <ele>1961.800048828125</ele>
        <time>2021-08-09T06:29:56.000Z</time>
      </trkpt>
      <trkpt lat="42.66888468526303768157958984375" lon="0.56444046087563037872314453125">
        <ele>1962.800048828125</ele>
        <time>2021-08-09T06:30:03.000Z</time>
      </trkpt>
      <trkpt lat="42.66887512989342212677001953125" lon="0.5643869005143642425537109375">
        <ele>1963.5999755859375</ele>
        <time>2021-08-09T06:30:09.000Z</time>
      </trkpt>
      <trkpt lat="42.668786533176898956298828125" lon="0.5645387805998325347900390625">
        <ele>1963.4000244140625</ele>
        <time>2021-08-09T06:30:31.000Z</time>
      </trkpt>
      <trkpt lat="42.66873992979526519775390625" lon="0.56450433097779750823974609375">
        <ele>1964.4000244140625</ele>
        <time>2021-08-09T06:30:38.000Z</time>
      </trkpt>
      <trkpt lat="42.66873531974852085113525390625" lon="0.56449837982654571533203125">
        <ele>1964.4000244140625</ele>
        <time>2021-08-09T06:30:39.000Z</time>
      </trkpt>
      <trkpt lat="42.66868737526237964630126953125" lon="0.56431104429066181182861328125">
        <ele>1966.5999755859375</ele>
        <time>2021-08-09T06:31:05.000Z</time>
      </trkpt>
      <trkpt lat="42.668633647263050079345703125" lon="0.5641542188823223114013671875">
        <ele>1968</ele>
        <time>2021-08-09T06:31:25.000Z</time>
      </trkpt>
      <trkpt lat="42.66873196698725223541259765625" lon="0.5640734173357486724853515625">
        <ele>1969</ele>
        <time>2021-08-09T06:31:39.000Z</time>
      </trkpt>
      <trkpt lat="42.668716125190258026123046875" lon="0.56401289999485015869140625">
        <ele>1969.5999755859375</ele>
        <time>2021-08-09T06:31:46.000Z</time>
      </trkpt>
      <trkpt lat="42.66870313324034214019775390625" lon="0.56398683227598667144775390625">
        <ele>1970</ele>
        <time>2021-08-09T06:31:49.000Z</time>
      </trkpt>
      <trkpt lat="42.6687072403728961944580078125" lon="0.56386328302323818206787109375">
        <ele>1971.5999755859375</ele>
        <time>2021-08-09T06:31:59.000Z</time>
      </trkpt>
      <trkpt lat="42.6686706952750682830810546875" lon="0.5637646280229091644287109375">
        <ele>1972.5999755859375</ele>
        <time>2021-08-09T06:32:08.000Z</time>
      </trkpt>
      <trkpt lat="42.668658457696437835693359375" lon="0.56373252533376216888427734375">
        <ele>1972.800048828125</ele>
        <time>2021-08-09T06:32:11.000Z</time>
      </trkpt>
      <trkpt lat="42.6686556078493595123291015625" lon="0.56370134465396404266357421875">
        <ele>1973.199951171875</ele>
        <time>2021-08-09T06:32:14.000Z</time>
      </trkpt>
      <trkpt lat="42.668643034994602203369140625" lon="0.56366312317550182342529296875">
        <ele>1973.4000244140625</ele>
        <time>2021-08-09T06:32:18.000Z</time>
      </trkpt>
      <trkpt lat="42.66861713491380214691162109375" lon="0.563614256680011749267578125">
        <ele>1973.5999755859375</ele>
        <time>2021-08-09T06:32:23.000Z</time>
      </trkpt>
      <trkpt lat="42.668515630066394805908203125" lon="0.56343127973377704620361328125">
        <ele>1974</ele>
        <time>2021-08-09T06:32:43.000Z</time>
      </trkpt>
      <trkpt lat="42.668516300618648529052734375" lon="0.56341719813644886016845703125">
        <ele>1974.199951171875</ele>
        <time>2021-08-09T06:32:44.000Z</time>
      </trkpt>
      <trkpt lat="42.66851856373250484466552734375" lon="0.56334159336984157562255859375">
        <ele>1975</ele>
        <time>2021-08-09T06:32:50.000Z</time>
      </trkpt>
      <trkpt lat="42.66856919042766094207763671875" lon="0.5633270926773548126220703125">
        <ele>1975.800048828125</ele>
        <time>2021-08-09T06:32:57.000Z</time>
      </trkpt>
      <trkpt lat="42.6685955934226512908935546875" lon="0.5633220635354518890380859375">
        <ele>1976.4000244140625</ele>
        <time>2021-08-09T06:33:01.000Z</time>
      </trkpt>
      <trkpt lat="42.668622918426990509033203125" lon="0.5633146874606609344482421875">
        <ele>1976.800048828125</ele>
        <time>2021-08-09T06:33:05.000Z</time>
      </trkpt>
      <trkpt lat="42.6686482317745685577392578125" lon="0.5632947385311126708984375">
        <ele>1977.5999755859375</ele>
        <time>2021-08-09T06:33:09.000Z</time>
      </trkpt>
      <trkpt lat="42.668661810457706451416015625" lon="0.56327872909605503082275390625">
        <ele>1978.199951171875</ele>
        <time>2021-08-09T06:33:12.000Z</time>
      </trkpt>
      <trkpt lat="42.66868134029209613800048828125" lon="0.56326112709939479827880859375">
        <ele>1978.800048828125</ele>
        <time>2021-08-09T06:33:15.000Z</time>
      </trkpt>
      <trkpt lat="42.668744288384914398193359375" lon="0.5632566846907138824462890625">
        <ele>1980.5999755859375</ele>
        <time>2021-08-09T06:33:23.000Z</time>
      </trkpt>
      <trkpt lat="42.66881075687706470489501953125" lon="0.563158281147480010986328125">
        <ele>1983.4000244140625</ele>
        <time>2021-08-09T06:33:39.000Z</time>
      </trkpt>
      <trkpt lat="42.6688074879348278045654296875" lon="0.5631433613598346710205078125">
        <ele>1983.4000244140625</ele>
        <time>2021-08-09T06:33:41.000Z</time>
      </trkpt>
      <trkpt lat="42.668803632259368896484375" lon="0.5631364881992340087890625">
        <ele>1983.4000244140625</ele>
        <time>2021-08-09T06:33:43.000Z</time>
      </trkpt>
      <trkpt lat="42.66880019567906856536865234375" lon="0.56312349624931812286376953125">
        <ele>1983.5999755859375</ele>
        <time>2021-08-09T06:33:45.000Z</time>
      </trkpt>
      <trkpt lat="42.66880472190678119659423828125" lon="0.563089214265346527099609375">
        <ele>1984</ele>
        <time>2021-08-09T06:33:48.000Z</time>
      </trkpt>
      <trkpt lat="42.66877077519893646240234375" lon="0.56294328533113002777099609375">
        <ele>1984.800048828125</ele>
        <time>2021-08-09T06:34:03.000Z</time>
      </trkpt>
      <trkpt lat="42.66872827894985675811767578125" lon="0.5627797544002532958984375">
        <ele>1985.800048828125</ele>
        <time>2021-08-09T06:34:17.000Z</time>
      </trkpt>
      <trkpt lat="42.66872651875019073486328125" lon="0.56269383989274501800537109375">
        <ele>1986.4000244140625</ele>
        <time>2021-08-09T06:34:23.000Z</time>
      </trkpt>
      <trkpt lat="42.66876809298992156982421875" lon="0.562574565410614013671875">
        <ele>1988.5999755859375</ele>
        <time>2021-08-09T06:34:35.000Z</time>
      </trkpt>
      <trkpt lat="42.66878041438758373260498046875" lon="0.56241421960294246673583984375">
        <ele>1989.5999755859375</ele>
        <time>2021-08-09T06:34:46.000Z</time>
      </trkpt>
      <trkpt lat="42.66879064030945301055908203125" lon="0.5623500980436801910400390625">
        <ele>1990</ele>
        <time>2021-08-09T06:34:50.000Z</time>
      </trkpt>
      <trkpt lat="42.6687974296510219573974609375" lon="0.562317073345184326171875">
        <ele>1990.5999755859375</ele>
        <time>2021-08-09T06:34:52.000Z</time>
      </trkpt>
      <trkpt lat="42.6687996089458465576171875" lon="0.56220509111881256103515625">
        <ele>1991.5999755859375</ele>
        <time>2021-08-09T06:35:00.000Z</time>
      </trkpt>
      <trkpt lat="42.66880120150744915008544921875" lon="0.56219109334051609039306640625">
        <ele>1991.5999755859375</ele>
        <time>2021-08-09T06:35:01.000Z</time>
      </trkpt>
      <trkpt lat="42.6688416860997676849365234375" lon="0.5620195157825946807861328125">
        <ele>1993.800048828125</ele>
        <time>2021-08-09T06:35:12.000Z</time>
      </trkpt>
      <trkpt lat="42.66885199584066867828369140625" lon="0.56198707781732082366943359375">
        <ele>1994.199951171875</ele>
        <time>2021-08-09T06:35:15.000Z</time>
      </trkpt>
      <trkpt lat="42.668804638087749481201171875" lon="0.56186570785939693450927734375">
        <ele>1991.5999755859375</ele>
        <time>2021-08-09T06:35:27.000Z</time>
      </trkpt>
      <trkpt lat="42.6688049733638763427734375" lon="0.56185112334787845611572265625">
        <ele>1991.5999755859375</ele>
        <time>2021-08-09T06:35:28.000Z</time>
      </trkpt>
      <trkpt lat="42.66881779767572879791259765625" lon="0.56177367456257343292236328125">
        <ele>1991.5999755859375</ele>
        <time>2021-08-09T06:35:33.000Z</time>
      </trkpt>
      <trkpt lat="42.668846882879734039306640625" lon="0.56172229349613189697265625">
        <ele>1992.4000244140625</ele>
        <time>2021-08-09T06:35:40.000Z</time>
      </trkpt>
      <trkpt lat="42.6688839308917522430419921875" lon="0.56161257438361644744873046875">
        <ele>1993</ele>
        <time>2021-08-09T06:35:49.000Z</time>
      </trkpt>
      <trkpt lat="42.66891553066670894622802734375" lon="0.5615809746086597442626953125">
        <ele>1994</ele>
        <time>2021-08-09T06:35:53.000Z</time>
      </trkpt>
      <trkpt lat="42.66894101165235042572021484375" lon="0.56154535152018070220947265625">
        <ele>1994.800048828125</ele>
        <time>2021-08-09T06:35:56.000Z</time>
      </trkpt>
      <trkpt lat="42.66896925866603851318359375" lon="0.56151215918362140655517578125">
        <ele>1995.5999755859375</ele>
        <time>2021-08-09T06:36:00.000Z</time>
      </trkpt>
      <trkpt lat="42.66900555230677127838134765625" lon="0.56142347864806652069091796875">
        <ele>1996.199951171875</ele>
        <time>2021-08-09T06:36:08.000Z</time>
      </trkpt>
      <trkpt lat="42.6690088212490081787109375" lon="0.56141073815524578094482421875">
        <ele>1996.199951171875</ele>
        <time>2021-08-09T06:36:09.000Z</time>
      </trkpt>
      <trkpt lat="42.66902583651244640350341796875" lon="0.5613204650580883026123046875">
        <ele>1995.5999755859375</ele>
        <time>2021-08-09T06:36:17.000Z</time>
      </trkpt>
      <trkpt lat="42.6690435223281383514404296875" lon="0.56124159134924411773681640625">
        <ele>1995.199951171875</ele>
        <time>2021-08-09T06:36:23.000Z</time>
      </trkpt>
      <trkpt lat="42.66904964111745357513427734375" lon="0.5612160265445709228515625">
        <ele>1995.4000244140625</ele>
        <time>2021-08-09T06:36:25.000Z</time>
      </trkpt>
      <trkpt lat="42.66904008574783802032470703125" lon="0.5610093288123607635498046875">
        <ele>1994.199951171875</ele>
        <time>2021-08-09T06:36:42.000Z</time>
      </trkpt>
      <trkpt lat="42.6690348051488399505615234375" lon="0.560980997979640960693359375">
        <ele>1993.800048828125</ele>
        <time>2021-08-09T06:36:44.000Z</time>
      </trkpt>
      <trkpt lat="42.66901812516152858734130859375" lon="0.5608349852263927459716796875">
        <ele>1991.5999755859375</ele>
        <time>2021-08-09T06:36:53.000Z</time>
      </trkpt>
      <trkpt lat="42.66902265138924121856689453125" lon="0.56074756197631359100341796875">
        <ele>1991.800048828125</ele>
        <time>2021-08-09T06:36:58.000Z</time>
      </trkpt>
      <trkpt lat="42.66902633942663669586181640625" lon="0.560730211436748504638671875">
        <ele>1992</ele>
        <time>2021-08-09T06:36:59.000Z</time>
      </trkpt>
      <trkpt lat="42.66902700997889041900634765625" lon="0.56067631579935550689697265625">
        <ele>1992</ele>
        <time>2021-08-09T06:37:03.000Z</time>
      </trkpt>
      <trkpt lat="42.66904997639358043670654296875" lon="0.56057305075228214263916015625">
        <ele>1993.4000244140625</ele>
        <time>2021-08-09T06:37:10.000Z</time>
      </trkpt>
      <trkpt lat="42.6690720207989215850830078125" lon="0.56048043072223663330078125">
        <ele>1994.4000244140625</ele>
        <time>2021-08-09T06:37:17.000Z</time>
      </trkpt>
      <trkpt lat="42.66909222118556499481201171875" lon="0.5604185722768306732177734375">
        <ele>1995.4000244140625</ele>
        <time>2021-08-09T06:37:21.000Z</time>
      </trkpt>
      <trkpt lat="42.6691129244863986968994140625" lon="0.5603367649018764495849609375">
        <ele>1996.199951171875</ele>
        <time>2021-08-09T06:37:26.000Z</time>
      </trkpt>
      <trkpt lat="42.66914226114749908447265625" lon="0.56028136052191257476806640625">
        <ele>1997.800048828125</ele>
        <time>2021-08-09T06:37:31.000Z</time>
      </trkpt>
      <trkpt lat="42.66918090172111988067626953125" lon="0.56012964807450771331787109375">
        <ele>1999.199951171875</ele>
        <time>2021-08-09T06:37:41.000Z</time>
      </trkpt>
      <trkpt lat="42.66922415234148502349853515625" lon="0.559920184314250946044921875">
        <ele>2000</ele>
        <time>2021-08-09T06:37:53.000Z</time>
      </trkpt>
      <trkpt lat="42.6692716777324676513671875" lon="0.5597711540758609771728515625">
        <ele>2001.4000244140625</ele>
        <time>2021-08-09T06:38:03.000Z</time>
      </trkpt>
      <trkpt lat="42.66928953118622303009033203125" lon="0.559730418026447296142578125">
        <ele>2002.199951171875</ele>
        <time>2021-08-09T06:38:06.000Z</time>
      </trkpt>
      <trkpt lat="42.66932071186602115631103515625" lon="0.55968356318771839141845703125">
        <ele>2003.199951171875</ele>
        <time>2021-08-09T06:38:10.000Z</time>
      </trkpt>
      <trkpt lat="42.66941894777119159698486328125" lon="0.5594752728939056396484375">
        <ele>2006.5999755859375</ele>
        <time>2021-08-09T06:38:25.000Z</time>
      </trkpt>
      <trkpt lat="42.6694723404943943023681640625" lon="0.55936471559107303619384765625">
        <ele>2008.5999755859375</ele>
        <time>2021-08-09T06:38:33.000Z</time>
      </trkpt>
      <trkpt lat="42.66947996802628040313720703125" lon="0.55935465730726718902587890625">
        <ele>2009</ele>
        <time>2021-08-09T06:38:34.000Z</time>
      </trkpt>
      <trkpt lat="42.66955188475549221038818359375" lon="0.55919975973665714263916015625">
        <ele>2011.199951171875</ele>
        <time>2021-08-09T06:38:44.000Z</time>
      </trkpt>
      <trkpt lat="42.66958323307335376739501953125" lon="0.55915131233632564544677734375">
        <ele>2011.800048828125</ele>
        <time>2021-08-09T06:38:48.000Z</time>
      </trkpt>
      <trkpt lat="42.66965456306934356689453125" lon="0.55894612334668636322021484375">
        <ele>2014.4000244140625</ele>
        <time>2021-08-09T06:39:02.000Z</time>
      </trkpt>
      <trkpt lat="42.66969756223261356353759765625" lon="0.55885635316371917724609375">
        <ele>2016.4000244140625</ele>
        <time>2021-08-09T06:39:10.000Z</time>
      </trkpt>
      <trkpt lat="42.66979864798486232757568359375" lon="0.55863934569060802459716796875">
        <ele>2018.5999755859375</ele>
        <time>2021-08-09T06:39:27.000Z</time>
      </trkpt>
      <trkpt lat="42.66991071403026580810546875" lon="0.5584307201206684112548828125">
        <ele>2018.5999755859375</ele>
        <time>2021-08-09T06:39:43.000Z</time>
      </trkpt>
      <trkpt lat="42.6699467562139034271240234375" lon="0.55829971097409725189208984375">
        <ele>2018.800048828125</ele>
        <time>2021-08-09T06:39:51.000Z</time>
      </trkpt>
      <trkpt lat="42.67000936903059482574462890625" lon="0.558069460093975067138671875">
        <ele>2019.4000244140625</ele>
        <time>2021-08-09T06:40:07.000Z</time>
      </trkpt>
      <trkpt lat="42.67001909203827381134033203125" lon="0.5580478347837924957275390625">
        <ele>2019.5999755859375</ele>
        <time>2021-08-09T06:40:09.000Z</time>
      </trkpt>
      <trkpt lat="42.6700376160442829132080078125" lon="0.55799863301217555999755859375">
        <ele>2019.5999755859375</ele>
        <time>2021-08-09T06:40:12.000Z</time>
      </trkpt>
      <trkpt lat="42.6700540445744991302490234375" lon="0.55797365494072437286376953125">
        <ele>2019.800048828125</ele>
        <time>2021-08-09T06:40:14.000Z</time>
      </trkpt>
      <trkpt lat="42.67007458023726940155029296875" lon="0.55790844373404979705810546875">
        <ele>2019.5999755859375</ele>
        <time>2021-08-09T06:40:18.000Z</time>
      </trkpt>
      <trkpt lat="42.6700736582279205322265625" lon="0.557891763746738433837890625">
        <ele>2019.4000244140625</ele>
        <time>2021-08-09T06:40:19.000Z</time>
      </trkpt>
      <trkpt lat="42.6700897514820098876953125" lon="0.55782428942620754241943359375">
        <ele>2019</ele>
        <time>2021-08-09T06:40:23.000Z</time>
      </trkpt>
      <trkpt lat="42.6701472513377666473388671875" lon="0.55776092223823070526123046875">
        <ele>2021.5999755859375</ele>
        <time>2021-08-09T06:40:31.000Z</time>
      </trkpt>
      <trkpt lat="42.67017231322824954986572265625" lon="0.55765883065760135650634765625">
        <ele>2023.4000244140625</ele>
        <time>2021-08-09T06:40:38.000Z</time>
      </trkpt>
      <trkpt lat="42.6702280528843402862548828125" lon="0.55751013569533824920654296875">
        <ele>2025.5999755859375</ele>
        <time>2021-08-09T06:40:50.000Z</time>
      </trkpt>
      <trkpt lat="42.67022780142724514007568359375" lon="0.55750980041921138763427734375">
        <ele>2025.5999755859375</ele>
        <time>2021-08-09T06:40:51.000Z</time>
      </trkpt>
      <trkpt lat="42.67023584805428981781005859375" lon="0.55739547125995159149169921875">
        <ele>2026.199951171875</ele>
        <time>2021-08-09T06:41:00.000Z</time>
      </trkpt>
      <trkpt lat="42.670255713164806365966796875" lon="0.5571734346449375152587890625">
        <ele>2027.5999755859375</ele>
        <time>2021-08-09T06:41:15.000Z</time>
      </trkpt>
      <trkpt lat="42.67024372704327106475830078125" lon="0.557106547057628631591796875">
        <ele>2027.199951171875</ele>
        <time>2021-08-09T06:41:19.000Z</time>
      </trkpt>
      <trkpt lat="42.67024557106196880340576171875" lon="0.55709053762257099151611328125">
        <ele>2027.4000244140625</ele>
        <time>2021-08-09T06:41:20.000Z</time>
      </trkpt>
      <trkpt lat="42.6702528633177280426025390625" lon="0.55707628838717937469482421875">
        <ele>2027.800048828125</ele>
        <time>2021-08-09T06:41:21.000Z</time>
      </trkpt>
      <trkpt lat="42.67026082612574100494384765625" lon="0.55703504942357540130615234375">
        <ele>2028.199951171875</ele>
        <time>2021-08-09T06:41:24.000Z</time>
      </trkpt>
      <trkpt lat="42.67029225826263427734375" lon="0.5569628812372684478759765625">
        <ele>2029.5999755859375</ele>
        <time>2021-08-09T06:41:30.000Z</time>
      </trkpt>
      <trkpt lat="42.67030893824994564056396484375" lon="0.556932874023914337158203125">
        <ele>2030.4000244140625</ele>
        <time>2021-08-09T06:41:32.000Z</time>
      </trkpt>
      <trkpt lat="42.67032888717949390411376953125" lon="0.556907393038272857666015625">
        <ele>2031.4000244140625</ele>
        <time>2021-08-09T06:41:35.000Z</time>
      </trkpt>
      <trkpt lat="42.67037280835211277008056640625" lon="0.55682281963527202606201171875">
        <ele>2033</ele>
        <time>2021-08-09T06:41:42.000Z</time>
      </trkpt>
      <trkpt lat="42.67038705758750438690185546875" lon="0.5567952431738376617431640625">
        <ele>2033.5999755859375</ele>
        <time>2021-08-09T06:41:45.000Z</time>
      </trkpt>
      <trkpt lat="42.67046098597347736358642578125" lon="0.55664730258285999298095703125">
        <ele>2036.199951171875</ele>
        <time>2021-08-09T06:41:57.000Z</time>
      </trkpt>
      <trkpt lat="42.6705039851367473602294921875" lon="0.55657605640590190887451171875">
        <ele>2037</ele>
        <time>2021-08-09T06:42:03.000Z</time>
      </trkpt>
      <trkpt lat="42.6705304719507694244384765625" lon="0.5564908124506473541259765625">
        <ele>2038.199951171875</ele>
        <time>2021-08-09T06:42:10.000Z</time>
      </trkpt>
      <trkpt lat="42.6705767400562763214111328125" lon="0.55642518214881420135498046875">
        <ele>2040</ele>
        <time>2021-08-09T06:42:17.000Z</time>
      </trkpt>
      <trkpt lat="42.6706498302519321441650390625" lon="0.556258298456668853759765625">
        <ele>2040.199951171875</ele>
        <time>2021-08-09T06:42:32.000Z</time>
      </trkpt>
      <trkpt lat="42.670789472758769989013671875" lon="0.55612158961594104766845703125">
        <ele>2043.4000244140625</ele>
        <time>2021-08-09T06:42:56.000Z</time>
      </trkpt>
      <trkpt lat="42.6708144508302211761474609375" lon="0.55610851384699344635009765625">
        <ele>2044</ele>
        <time>2021-08-09T06:42:59.000Z</time>
      </trkpt>
      <trkpt lat="42.67090690322220325469970703125" lon="0.55602452717721462249755859375">
        <ele>2045.5999755859375</ele>
        <time>2021-08-09T06:43:15.000Z</time>
      </trkpt>
      <trkpt lat="42.6710607111454010009765625" lon="0.55591086857020854949951171875">
        <ele>2049.60009765625</ele>
        <time>2021-08-09T06:43:55.000Z</time>
      </trkpt>
      <trkpt lat="42.67121301032602787017822265625" lon="0.55578463710844516754150390625">
        <ele>2055.800048828125</ele>
        <time>2021-08-09T06:44:20.000Z</time>
      </trkpt>
      <trkpt lat="42.67125726677477359771728515625" lon="0.555702745914459228515625">
        <ele>2057.800048828125</ele>
        <time>2021-08-09T06:44:30.000Z</time>
      </trkpt>
      <trkpt lat="42.67136849462985992431640625" lon="0.55554273538291454315185546875">
        <ele>2062</ele>
        <time>2021-08-09T06:44:52.000Z</time>
      </trkpt>
      <trkpt lat="42.67144200392067432403564453125" lon="0.555375516414642333984375">
        <ele>2065.199951171875</ele>
        <time>2021-08-09T06:45:08.000Z</time>
      </trkpt>
      <trkpt lat="42.6714806444942951202392578125" lon="0.55523947812616825103759765625">
        <ele>2067.199951171875</ele>
        <time>2021-08-09T06:45:20.000Z</time>
      </trkpt>
      <trkpt lat="42.671485505998134613037109375" lon="0.5552073754370212554931640625">
        <ele>2067.800048828125</ele>
        <time>2021-08-09T06:45:22.000Z</time>
      </trkpt>
      <trkpt lat="42.67148508690297603607177734375" lon="0.5551942996680736541748046875">
        <ele>2067.800048828125</ele>
        <time>2021-08-09T06:45:23.000Z</time>
      </trkpt>
      <trkpt lat="42.67150134779512882232666015625" lon="0.5550980754196643829345703125">
        <ele>2069.199951171875</ele>
        <time>2021-08-09T06:45:30.000Z</time>
      </trkpt>
      <trkpt lat="42.671547196805477142333984375" lon="0.5550005100667476654052734375">
        <ele>2072.60009765625</ele>
        <time>2021-08-09T06:45:40.000Z</time>
      </trkpt>
      <trkpt lat="42.67162506468594074249267578125" lon="0.5548720993101596832275390625">
        <ele>2077.800048828125</ele>
        <time>2021-08-09T06:45:54.000Z</time>
      </trkpt>
      <trkpt lat="42.67173386178910732269287109375" lon="0.55468023754656314849853515625">
        <ele>2084.800048828125</ele>
        <time>2021-08-09T06:46:16.000Z</time>
      </trkpt>
      <trkpt lat="42.6717446744441986083984375" lon="0.5546648986637592315673828125">
        <ele>2085.39990234375</ele>
        <time>2021-08-09T06:46:18.000Z</time>
      </trkpt>
      <trkpt lat="42.6717813871800899505615234375" lon="0.55462382733821868896484375">
        <ele>2086.800048828125</ele>
        <time>2021-08-09T06:46:24.000Z</time>
      </trkpt>
      <trkpt lat="42.67182178795337677001953125" lon="0.55458786897361278533935546875">
        <ele>2088.60009765625</ele>
        <time>2021-08-09T06:46:33.000Z</time>
      </trkpt>
      <trkpt lat="42.6719168387353420257568359375" lon="0.55439089424908161163330078125">
        <ele>2093</ele>
        <time>2021-08-09T06:47:03.000Z</time>
      </trkpt>
      <trkpt lat="42.67194123007357120513916015625" lon="0.55423046462237834930419921875">
        <ele>2094.800048828125</ele>
        <time>2021-08-09T06:47:21.000Z</time>
      </trkpt>
      <trkpt lat="42.6719778589904308319091796875" lon="0.5541495792567729949951171875">
        <ele>2097</ele>
        <time>2021-08-09T06:47:31.000Z</time>
      </trkpt>
      <trkpt lat="42.67199789173901081085205078125" lon="0.5540925823152065277099609375">
        <ele>2097.39990234375</ele>
        <time>2021-08-09T06:47:37.000Z</time>
      </trkpt>
      <trkpt lat="42.672068886458873748779296875" lon="0.55391932837665081024169921875">
        <ele>2099.60009765625</ele>
        <time>2021-08-09T06:48:01.000Z</time>
      </trkpt>
      <trkpt lat="42.6720895059406757354736328125" lon="0.55387373082339763641357421875">
        <ele>2100</ele>
        <time>2021-08-09T06:48:10.000Z</time>
      </trkpt>
      <trkpt lat="42.6721872389316558837890625" lon="0.55368245579302310943603515625">
        <ele>2103.800048828125</ele>
        <time>2021-08-09T06:48:43.000Z</time>
      </trkpt>
      <trkpt lat="42.67226091586053371429443359375" lon="0.553477518260478973388671875">
        <ele>2106.39990234375</ele>
        <time>2021-08-09T06:49:14.000Z</time>
      </trkpt>
      <trkpt lat="42.67229377292096614837646484375" lon="0.553421862423419952392578125">
        <ele>2107.60009765625</ele>
        <time>2021-08-09T06:49:22.000Z</time>
      </trkpt>
      <trkpt lat="42.672327719628810882568359375" lon="0.55339830927550792694091796875">
        <ele>2109.199951171875</ele>
        <time>2021-08-09T06:49:27.000Z</time>
      </trkpt>
      <trkpt lat="42.6723723113536834716796875" lon="0.5534066073596477508544921875">
        <ele>2112</ele>
        <time>2021-08-09T06:49:49.000Z</time>
      </trkpt>
      <trkpt lat="42.6723976247012615203857421875" lon="0.5532912723720073699951171875">
        <ele>2112</ele>
        <time>2021-08-09T06:50:07.000Z</time>
      </trkpt>
      <trkpt lat="42.6724874787032604217529296875" lon="0.5532466806471347808837890625">
        <ele>2116.60009765625</ele>
        <time>2021-08-09T06:50:25.000Z</time>
      </trkpt>
      <trkpt lat="42.6725144684314727783203125" lon="0.55320569314062595367431640625">
        <ele>2117.60009765625</ele>
        <time>2021-08-09T06:50:35.000Z</time>
      </trkpt>
      <trkpt lat="42.67254690639674663543701171875" lon="0.55312925018370151519775390625">
        <ele>2118</ele>
        <time>2021-08-09T06:50:45.000Z</time>
      </trkpt>
      <trkpt lat="42.6726029813289642333984375" lon="0.5529523082077503204345703125">
        <ele>2117</ele>
        <time>2021-08-09T06:51:15.000Z</time>
      </trkpt>
      <trkpt lat="42.67261999659240245819091796875" lon="0.5528958141803741455078125">
        <ele>2116.800048828125</ele>
        <time>2021-08-09T06:51:21.000Z</time>
      </trkpt>
      <trkpt lat="42.672627456486225128173828125" lon="0.55287527851760387420654296875">
        <ele>2116.60009765625</ele>
        <time>2021-08-09T06:51:23.000Z</time>
      </trkpt>
      <trkpt lat="42.67265754751861095428466796875" lon="0.55279548279941082000732421875">
        <ele>2117.199951171875</ele>
        <time>2021-08-09T06:51:31.000Z</time>
      </trkpt>
      <trkpt lat="42.672801800072193145751953125" lon="0.5526597797870635986328125">
        <ele>2123.39990234375</ele>
        <time>2021-08-09T06:51:52.000Z</time>
      </trkpt>
      <trkpt lat="42.6729015447199344635009765625" lon="0.55252424441277980804443359375">
        <ele>2128.800048828125</ele>
        <time>2021-08-09T06:52:12.000Z</time>
      </trkpt>
      <trkpt lat="42.67301000654697418212890625" lon="0.5523325502872467041015625">
        <ele>2132.60009765625</ele>
        <time>2021-08-09T06:52:28.000Z</time>
      </trkpt>
      <trkpt lat="42.6730296202003955841064453125" lon="0.55230497382581233978271484375">
        <ele>2133</ele>
        <time>2021-08-09T06:52:31.000Z</time>
      </trkpt>
      <trkpt lat="42.67307697795331478118896484375" lon="0.55221252143383026123046875">
        <ele>2134</ele>
        <time>2021-08-09T06:52:40.000Z</time>
      </trkpt>
      <trkpt lat="42.6730980165302753448486328125" lon="0.55213733576238155364990234375">
        <ele>2133.800048828125</ele>
        <time>2021-08-09T06:52:46.000Z</time>
      </trkpt>
      <trkpt lat="42.6731131039559841156005859375" lon="0.552108921110630035400390625">
        <ele>2134.39990234375</ele>
        <time>2021-08-09T06:52:48.000Z</time>
      </trkpt>
      <trkpt lat="42.6731285266578197479248046875" lon="0.55207346566021442413330078125">
        <ele>2135.199951171875</ele>
        <time>2021-08-09T06:52:51.000Z</time>
      </trkpt>
      <trkpt lat="42.67313481308519840240478515625" lon="0.55201546289026737213134765625">
        <ele>2135</ele>
        <time>2021-08-09T06:52:55.000Z</time>
      </trkpt>
      <trkpt lat="42.673133723437786102294921875" lon="0.5519984476268291473388671875">
        <ele>2134.800048828125</ele>
        <time>2021-08-09T06:52:56.000Z</time>
      </trkpt>
      <trkpt lat="42.67313632182776927947998046875" lon="0.551982186734676361083984375">
        <ele>2134.60009765625</ele>
        <time>2021-08-09T06:52:57.000Z</time>
      </trkpt>
      <trkpt lat="42.67316289246082305908203125" lon="0.551945306360721588134765625">
        <ele>2135.800048828125</ele>
        <time>2021-08-09T06:53:01.000Z</time>
      </trkpt>
      <trkpt lat="42.67318074591457843780517578125" lon="0.5518953502178192138671875">
        <ele>2137.199951171875</ele>
        <time>2021-08-09T06:53:05.000Z</time>
      </trkpt>
      <trkpt lat="42.67318594269454479217529296875" lon="0.551888309419155120849609375">
        <ele>2137.60009765625</ele>
        <time>2021-08-09T06:53:06.000Z</time>
      </trkpt>
      <trkpt lat="42.67326339147984981536865234375" lon="0.55168689228594303131103515625">
        <ele>2139.800048828125</ele>
        <time>2021-08-09T06:53:24.000Z</time>
      </trkpt>
      <trkpt lat="42.67331309616565704345703125" lon="0.5515699647367000579833984375">
        <ele>2142.199951171875</ele>
        <time>2021-08-09T06:53:35.000Z</time>
      </trkpt>
      <trkpt lat="42.6733705960214138031005859375" lon="0.5514299869537353515625">
        <ele>2142</ele>
        <time>2021-08-09T06:53:46.000Z</time>
      </trkpt>
      <trkpt lat="42.6734624616801738739013671875" lon="0.5512776039540767669677734375">
        <ele>2146.39990234375</ele>
        <time>2021-08-09T06:54:02.000Z</time>
      </trkpt>
      <trkpt lat="42.673559524118900299072265625" lon="0.551101081073284149169921875">
        <ele>2148.60009765625</ele>
        <time>2021-08-09T06:54:22.000Z</time>
      </trkpt>
      <trkpt lat="42.67369086854159832000732421875" lon="0.5509393103420734405517578125">
        <ele>2153.800048828125</ele>
        <time>2021-08-09T06:54:45.000Z</time>
      </trkpt>
      <trkpt lat="42.67372238449752330780029296875" lon="0.55085666477680206298828125">
        <ele>2155.800048828125</ele>
        <time>2021-08-09T06:54:54.000Z</time>
      </trkpt>
      <trkpt lat="42.67372355796396732330322265625" lon="0.550756752490997314453125">
        <ele>2157.800048828125</ele>
        <time>2021-08-09T06:55:03.000Z</time>
      </trkpt>
      <trkpt lat="42.673733197152614593505859375" lon="0.5506764538586139678955078125">
        <ele>2160.199951171875</ele>
        <time>2021-08-09T06:55:11.000Z</time>
      </trkpt>
      <trkpt lat="42.673745937645435333251953125" lon="0.550620295107364654541015625">
        <ele>2162</ele>
        <time>2021-08-09T06:55:18.000Z</time>
      </trkpt>
      <trkpt lat="42.67384224571287631988525390625" lon="0.55056505836546421051025390625">
        <ele>2168.199951171875</ele>
        <time>2021-08-09T06:55:32.000Z</time>
      </trkpt>
      <trkpt lat="42.6739978976547718048095703125" lon="0.55043279193341732025146484375">
        <ele>2178.60009765625</ele>
        <time>2021-08-09T06:55:58.000Z</time>
      </trkpt>
      <trkpt lat="42.67404793761670589447021484375" lon="0.55038166232407093048095703125">
        <ele>2181.800048828125</ele>
        <time>2021-08-09T06:56:17.000Z</time>
      </trkpt>
      <trkpt lat="42.67409001477062702178955078125" lon="0.550211258232593536376953125">
        <ele>2183.39990234375</ele>
        <time>2021-08-09T06:56:46.000Z</time>
      </trkpt>
      <trkpt lat="42.67409437336027622222900390625" lon="0.55013322271406650543212890625">
        <ele>2183.800048828125</ele>
        <time>2021-08-09T06:56:53.000Z</time>
      </trkpt>
      <trkpt lat="42.674077861011028289794921875" lon="0.54993691854178905487060546875">
        <ele>2183.39990234375</ele>
        <time>2021-08-09T06:57:11.000Z</time>
      </trkpt>
      <trkpt lat="42.6741071976721286773681640625" lon="0.54990523494780063629150390625">
        <ele>2184.800048828125</ele>
        <time>2021-08-09T06:57:17.000Z</time>
      </trkpt>
      <trkpt lat="42.67415388487279415130615234375" lon="0.54991646669805049896240234375">
        <ele>2186.60009765625</ele>
        <time>2021-08-09T06:57:22.000Z</time>
      </trkpt>
      <trkpt lat="42.67418255098164081573486328125" lon="0.54994429461658000946044921875">
        <ele>2187.800048828125</ele>
        <time>2021-08-09T06:57:26.000Z</time>
      </trkpt>
      <trkpt lat="42.67430811189115047454833984375" lon="0.5498520098626613616943359375">
        <ele>2193</ele>
        <time>2021-08-09T06:57:56.000Z</time>
      </trkpt>
      <trkpt lat="42.67445932142436504364013671875" lon="0.5497604794800281524658203125">
        <ele>2200.39990234375</ele>
        <time>2021-08-09T06:58:21.000Z</time>
      </trkpt>
      <trkpt lat="42.67452319152653217315673828125" lon="0.5497249402105808258056640625">
        <ele>2202.800048828125</ele>
        <time>2021-08-09T06:58:32.000Z</time>
      </trkpt>
      <trkpt lat="42.67454833723604679107666015625" lon="0.54971479810774326324462890625">
        <ele>2203.60009765625</ele>
        <time>2021-08-09T06:58:36.000Z</time>
      </trkpt>
      <trkpt lat="42.67471882514655590057373046875" lon="0.5496878921985626220703125">
        <ele>2208.60009765625</ele>
        <time>2021-08-09T06:59:13.000Z</time>
      </trkpt>
      <trkpt lat="42.6747827790677547454833984375" lon="0.5497199110686779022216796875">
        <ele>2210.39990234375</ele>
        <time>2021-08-09T06:59:26.000Z</time>
      </trkpt>
      <trkpt lat="42.67495184205472469329833984375" lon="0.54970691911876201629638671875">
        <ele>2216.60009765625</ele>
        <time>2021-08-09T06:59:50.000Z</time>
      </trkpt>
      <trkpt lat="42.67498536966741085052490234375" lon="0.54967389442026615142822265625">
        <ele>2217.800048828125</ele>
        <time>2021-08-09T06:59:58.000Z</time>
      </trkpt>
      <trkpt lat="42.6750526763498783111572265625" lon="0.5495901592075824737548828125">
        <ele>2220.199951171875</ele>
        <time>2021-08-09T07:00:18.000Z</time>
      </trkpt>
      <trkpt lat="42.67509634606540203094482421875" lon="0.5495790950953960418701171875">
        <ele>2222.199951171875</ele>
        <time>2021-08-09T07:00:30.000Z</time>
      </trkpt>
      <trkpt lat="42.675185613334178924560546875" lon="0.5496303923428058624267578125">
        <ele>2226.39990234375</ele>
        <time>2021-08-09T07:00:55.000Z</time>
      </trkpt>
      <trkpt lat="42.67527756281197071075439453125" lon="0.5496203340590000152587890625">
        <ele>2231</ele>
        <time>2021-08-09T07:01:19.000Z</time>
      </trkpt>
      <trkpt lat="42.67536632716655731201171875" lon="0.5496334098279476165771484375">
        <ele>2235.199951171875</ele>
        <time>2021-08-09T07:01:49.000Z</time>
      </trkpt>
      <trkpt lat="42.67550923861563205718994140625" lon="0.549548082053661346435546875">
        <ele>2242.199951171875</ele>
        <time>2021-08-09T07:02:22.000Z</time>
      </trkpt>
      <trkpt lat="42.67558450810611248016357421875" lon="0.5494925938546657562255859375">
        <ele>2246</ele>
        <time>2021-08-09T07:02:37.000Z</time>
      </trkpt>
      <trkpt lat="42.67565122805535793304443359375" lon="0.5494379438459873199462890625">
        <ele>2249.39990234375</ele>
        <time>2021-08-09T07:02:53.000Z</time>
      </trkpt>
      <trkpt lat="42.67581216059625148773193359375" lon="0.5494265444576740264892578125">
        <ele>2257.60009765625</ele>
        <time>2021-08-09T07:03:25.000Z</time>
      </trkpt>
      <trkpt lat="42.67585356719791889190673828125" lon="0.54942478425800800323486328125">
        <ele>2259.60009765625</ele>
        <time>2021-08-09T07:03:33.000Z</time>
      </trkpt>
      <trkpt lat="42.67585180699825286865234375" lon="0.54941288195550441741943359375">
        <ele>2259.60009765625</ele>
        <time>2021-08-09T07:03:35.000Z</time>
      </trkpt>
      <trkpt lat="42.67584485001862049102783203125" lon="0.5493444018065929412841796875">
        <ele>2259.60009765625</ele>
        <time>2021-08-09T07:03:43.000Z</time>
      </trkpt>
      <trkpt lat="42.6759066246449947357177734375" lon="0.54930031299591064453125">
        <ele>2263</ele>
        <time>2021-08-09T07:04:02.000Z</time>
      </trkpt>
      <trkpt lat="42.6759190298616886138916015625" lon="0.54929159581661224365234375">
        <ele>2263.800048828125</ele>
        <time>2021-08-09T07:04:05.000Z</time>
      </trkpt>
      <trkpt lat="42.67597426660358905792236328125" lon="0.5492480099201202392578125">
        <ele>2267.199951171875</ele>
        <time>2021-08-09T07:04:17.000Z</time>
      </trkpt>
      <trkpt lat="42.67600159160792827606201171875" lon="0.54924859665334224700927734375">
        <ele>2268.60009765625</ele>
        <time>2021-08-09T07:04:22.000Z</time>
      </trkpt>
      <trkpt lat="42.67603411339223384857177734375" lon="0.549198724329471588134765625">
        <ele>2270.199951171875</ele>
        <time>2021-08-09T07:04:36.000Z</time>
      </trkpt>
      <trkpt lat="42.67609982751309871673583984375" lon="0.54919294081628322601318359375">
        <ele>2273.800048828125</ele>
        <time>2021-08-09T07:04:51.000Z</time>
      </trkpt>
      <trkpt lat="42.6761044375598430633544921875" lon="0.54920383729040622711181640625">
        <ele>2274</ele>
        <time>2021-08-09T07:04:52.000Z</time>
      </trkpt>
      <trkpt lat="42.6761507056653499603271484375" lon="0.549208112061023712158203125">
        <ele>2276.60009765625</ele>
        <time>2021-08-09T07:05:01.000Z</time>
      </trkpt>
      <trkpt lat="42.67617492936551570892333984375" lon="0.54923434741795063018798828125">
        <ele>2277.800048828125</ele>
        <time>2021-08-09T07:05:07.000Z</time>
      </trkpt>
      <trkpt lat="42.676244415342807769775390625" lon="0.5491053499281406402587890625">
        <ele>2280</ele>
        <time>2021-08-09T07:05:24.000Z</time>
      </trkpt>
      <trkpt lat="42.676307447254657745361328125" lon="0.54900862276554107666015625">
        <ele>2282.199951171875</ele>
        <time>2021-08-09T07:05:36.000Z</time>
      </trkpt>
      <trkpt lat="42.67634172923862934112548828125" lon="0.54897836409509181976318359375">
        <ele>2283.199951171875</ele>
        <time>2021-08-09T07:05:41.000Z</time>
      </trkpt>
      <trkpt lat="42.67634625546634197235107421875" lon="0.54895757697522640228271484375">
        <ele>2283.199951171875</ele>
        <time>2021-08-09T07:05:43.000Z</time>
      </trkpt>
      <trkpt lat="42.67636000178754329681396484375" lon="0.54891801439225673675537109375">
        <ele>2283.60009765625</ele>
        <time>2021-08-09T07:05:47.000Z</time>
      </trkpt>
      <trkpt lat="42.67637928016483783721923828125" lon="0.5488890968263149261474609375">
        <ele>2284.199951171875</ele>
        <time>2021-08-09T07:05:50.000Z</time>
      </trkpt>
      <trkpt lat="42.6764142327010631561279296875" lon="0.548843331634998321533203125">
        <ele>2285.60009765625</ele>
        <time>2021-08-09T07:05:56.000Z</time>
      </trkpt>
      <trkpt lat="42.67642454244196414947509765625" lon="0.5488341115415096282958984375">
        <ele>2285.800048828125</ele>
        <time>2021-08-09T07:05:58.000Z</time>
      </trkpt>
      <trkpt lat="42.676427476108074188232421875" lon="0.54882581345736980438232421875">
        <ele>2285.800048828125</ele>
        <time>2021-08-09T07:05:59.000Z</time>
      </trkpt>
      <trkpt lat="42.6764836348593235015869140625" lon="0.54872422479093074798583984375">
        <ele>2287.199951171875</ele>
        <time>2021-08-09T07:06:13.000Z</time>
      </trkpt>
      <trkpt lat="42.676487825810909271240234375" lon="0.5487261526286602020263671875">
        <ele>2287.199951171875</ele>
        <time>2021-08-09T07:06:17.000Z</time>
      </trkpt>
      <trkpt lat="42.67649813555181026458740234375" lon="0.54874585010111331939697265625">
        <ele>2287.60009765625</ele>
        <time>2021-08-09T07:06:27.000Z</time>
      </trkpt>
      <trkpt lat="42.67659720964729785919189453125" lon="0.54871081374585628509521484375">
        <ele>2289.199951171875</ele>
        <time>2021-08-09T07:06:43.000Z</time>
      </trkpt>
      <trkpt lat="42.676634006202220916748046875" lon="0.54870477877557277679443359375">
        <ele>2289.60009765625</ele>
        <time>2021-08-09T07:06:47.000Z</time>
      </trkpt>
      <trkpt lat="42.6766700483858585357666015625" lon="0.5486855842173099517822265625">
        <ele>2290</ele>
        <time>2021-08-09T07:06:51.000Z</time>
      </trkpt>
      <trkpt lat="42.676694691181182861328125" lon="0.54864996112883090972900390625">
        <ele>2290</ele>
        <time>2021-08-09T07:06:55.000Z</time>
      </trkpt>
      <trkpt lat="42.67672746442258358001708984375" lon="0.5486284196376800537109375">
        <ele>2290.199951171875</ele>
        <time>2021-08-09T07:06:59.000Z</time>
      </trkpt>
      <trkpt lat="42.67674590460956096649169921875" lon="0.54859966970980167388916015625">
        <ele>2290.800048828125</ele>
        <time>2021-08-09T07:07:02.000Z</time>
      </trkpt>
      <trkpt lat="42.67675696872174739837646484375" lon="0.54859195835888385772705078125">
        <ele>2291.199951171875</ele>
        <time>2021-08-09T07:07:03.000Z</time>
      </trkpt>
      <trkpt lat="42.67679326236248016357421875" lon="0.54856161586940288543701171875">
        <ele>2292.199951171875</ele>
        <time>2021-08-09T07:07:08.000Z</time>
      </trkpt>
      <trkpt lat="42.67681547440588474273681640625" lon="0.54852540604770183563232421875">
        <ele>2292.800048828125</ele>
        <time>2021-08-09T07:07:12.000Z</time>
      </trkpt>
      <trkpt lat="42.6768236048519611358642578125" lon="0.54851769469678401947021484375">
        <ele>2293</ele>
        <time>2021-08-09T07:07:13.000Z</time>
      </trkpt>
      <trkpt lat="42.67682754434645175933837890625" lon="0.54850813932716846466064453125">
        <ele>2293.199951171875</ele>
        <time>2021-08-09T07:07:14.000Z</time>
      </trkpt>
      <trkpt lat="42.67685051076114177703857421875" lon="0.548469834029674530029296875">
        <ele>2294</ele>
        <time>2021-08-09T07:07:18.000Z</time>
      </trkpt>
      <trkpt lat="42.677006833255290985107421875" lon="0.54834544658660888671875">
        <ele>2297.39990234375</ele>
        <time>2021-08-09T07:07:43.000Z</time>
      </trkpt>
      <trkpt lat="42.677093334496021270751953125" lon="0.54814117960631847381591796875">
        <ele>2302.39990234375</ele>
        <time>2021-08-09T07:08:08.000Z</time>
      </trkpt>
      <trkpt lat="42.67709693871438503265380859375" lon="0.548124499619007110595703125">
        <ele>2302.800048828125</ele>
        <time>2021-08-09T07:08:10.000Z</time>
      </trkpt>
      <trkpt lat="42.67712451517581939697265625" lon="0.548061467707157135009765625">
        <ele>2304.39990234375</ele>
        <time>2021-08-09T07:08:17.000Z</time>
      </trkpt>
      <trkpt lat="42.67713096924126148223876953125" lon="0.5479955859482288360595703125">
        <ele>2306</ele>
        <time>2021-08-09T07:08:24.000Z</time>
      </trkpt>
      <trkpt lat="42.67713214270770549774169921875" lon="0.547987036406993865966796875">
        <ele>2306.199951171875</ele>
        <time>2021-08-09T07:08:25.000Z</time>
      </trkpt>
      <trkpt lat="42.67715628258883953094482421875" lon="0.5479471385478973388671875">
        <ele>2307.60009765625</ele>
        <time>2021-08-09T07:08:30.000Z</time>
      </trkpt>
      <trkpt lat="42.67723339609801769256591796875" lon="0.54793431423604488372802734375">
        <ele>2309.199951171875</ele>
        <time>2021-08-09T07:08:42.000Z</time>
      </trkpt>
      <trkpt lat="42.67724496312439441680908203125" lon="0.54793037474155426025390625">
        <ele>2309.60009765625</ele>
        <time>2021-08-09T07:08:45.000Z</time>
      </trkpt>
      <trkpt lat="42.6773141138255596160888671875" lon="0.54788670502603054046630859375">
        <ele>2312.60009765625</ele>
        <time>2021-08-09T07:08:57.000Z</time>
      </trkpt>
      <trkpt lat="42.67732844687998294830322265625" lon="0.5478745512664318084716796875">
        <ele>2313.39990234375</ele>
        <time>2021-08-09T07:09:01.000Z</time>
      </trkpt>
      <trkpt lat="42.677338756620883941650390625" lon="0.5478410236537456512451171875">
        <ele>2314.39990234375</ele>
        <time>2021-08-09T07:09:06.000Z</time>
      </trkpt>
      <trkpt lat="42.6774255931377410888671875" lon="0.54776214994490146636962890625">
        <ele>2318.60009765625</ele>
        <time>2021-08-09T07:09:27.000Z</time>
      </trkpt>
      <trkpt lat="42.677440010011196136474609375" lon="0.54774857126176357269287109375">
        <ele>2319.199951171875</ele>
        <time>2021-08-09T07:09:38.000Z</time>
      </trkpt>
      <trkpt lat="42.6774509064853191375732421875" lon="0.54770372807979583740234375">
        <ele>2320.39990234375</ele>
        <time>2021-08-09T07:09:43.000Z</time>
      </trkpt>
      <trkpt lat="42.677558697760105133056640625" lon="0.5476145446300506591796875">
        <ele>2324.199951171875</ele>
        <time>2021-08-09T07:10:11.000Z</time>
      </trkpt>
      <trkpt lat="42.6775689236819744110107421875" lon="0.54761261679232120513916015625">
        <ele>2324.800048828125</ele>
        <time>2021-08-09T07:10:13.000Z</time>
      </trkpt>
      <trkpt lat="42.67757671885192394256591796875" lon="0.5476038157939910888671875">
        <ele>2325.199951171875</ele>
        <time>2021-08-09T07:10:15.000Z</time>
      </trkpt>
      <trkpt lat="42.67759934999048709869384765625" lon="0.54757355712354183197021484375">
        <ele>2326.39990234375</ele>
        <time>2021-08-09T07:10:24.000Z</time>
      </trkpt>
      <trkpt lat="42.6776192151010036468505859375" lon="0.547551847994327545166015625">
        <ele>2327.39990234375</ele>
        <time>2021-08-09T07:10:31.000Z</time>
      </trkpt>
      <trkpt lat="42.67762147821485996246337890625" lon="0.54754681885242462158203125">
        <ele>2327.39990234375</ele>
        <time>2021-08-09T07:10:32.000Z</time>
      </trkpt>
      <trkpt lat="42.6776039600372314453125" lon="0.54749627597630023956298828125">
        <ele>2326.60009765625</ele>
        <time>2021-08-09T07:10:38.000Z</time>
      </trkpt>
      <trkpt lat="42.6776098273694515228271484375" lon="0.54746844805777072906494140625">
        <ele>2327.199951171875</ele>
        <time>2021-08-09T07:10:41.000Z</time>
      </trkpt>
      <trkpt lat="42.6776108331978321075439453125" lon="0.5474603176116943359375">
        <ele>2327.199951171875</ele>
        <time>2021-08-09T07:10:42.000Z</time>
      </trkpt>
      <trkpt lat="42.6776393316686153411865234375" lon="0.547420084476470947265625">
        <ele>2328.800048828125</ele>
        <time>2021-08-09T07:10:50.000Z</time>
      </trkpt>
      <trkpt lat="42.67762935720384120941162109375" lon="0.54739384911954402923583984375">
        <ele>2328.60009765625</ele>
        <time>2021-08-09T07:10:56.000Z</time>
      </trkpt>
      <trkpt lat="42.67764058895409107208251953125" lon="0.54738429374992847442626953125">
        <ele>2329.199951171875</ele>
        <time>2021-08-09T07:10:59.000Z</time>
      </trkpt>
      <trkpt lat="42.67766690813004970550537109375" lon="0.5473367683589458465576171875">
        <ele>2330.800048828125</ele>
        <time>2021-08-09T07:11:12.000Z</time>
      </trkpt>
      <trkpt lat="42.67767361365258693695068359375" lon="0.547331906855106353759765625">
        <ele>2331</ele>
        <time>2021-08-09T07:11:16.000Z</time>
      </trkpt>
      <trkpt lat="42.6777047105133533477783203125" lon="0.547301061451435089111328125">
        <ele>2332.39990234375</ele>
        <time>2021-08-09T07:11:24.000Z</time>
      </trkpt>
      <trkpt lat="42.67772574909031391143798828125" lon="0.547274909913539886474609375">
        <ele>2333.39990234375</ele>
        <time>2021-08-09T07:11:31.000Z</time>
      </trkpt>
      <trkpt lat="42.67772876657545566558837890625" lon="0.54725504480302333831787109375">
        <ele>2333.60009765625</ele>
        <time>2021-08-09T07:11:34.000Z</time>
      </trkpt>
      <trkpt lat="42.6777365617454051971435546875" lon="0.5472443997859954833984375">
        <ele>2334</ele>
        <time>2021-08-09T07:11:36.000Z</time>
      </trkpt>
      <trkpt lat="42.67776799388229846954345703125" lon="0.5471929349005222320556640625">
        <ele>2336.60009765625</ele>
        <time>2021-08-09T07:11:47.000Z</time>
      </trkpt>
      <trkpt lat="42.67778090201318264007568359375" lon="0.547168962657451629638671875">
        <ele>2337.39990234375</ele>
        <time>2021-08-09T07:11:51.000Z</time>
      </trkpt>
      <trkpt lat="42.677804119884967803955078125" lon="0.5471154861152172088623046875">
        <ele>2338.199951171875</ele>
        <time>2021-08-09T07:12:02.000Z</time>
      </trkpt>
      <trkpt lat="42.67783873714506626129150390625" lon="0.5469867400825023651123046875">
        <ele>2340.39990234375</ele>
        <time>2021-08-09T07:12:21.000Z</time>
      </trkpt>
      <trkpt lat="42.67791442573070526123046875" lon="0.54689780808985233306884765625">
        <ele>2345.60009765625</ele>
        <time>2021-08-09T07:12:42.000Z</time>
      </trkpt>
      <trkpt lat="42.677938900887966156005859375" lon="0.54685346782207489013671875">
        <ele>2347.800048828125</ele>
        <time>2021-08-09T07:12:57.000Z</time>
      </trkpt>
      <trkpt lat="42.6779974065721035003662109375" lon="0.54678599350154399871826171875">
        <ele>2352.800048828125</ele>
        <time>2021-08-09T07:13:08.000Z</time>
      </trkpt>
      <trkpt lat="42.67800788395106792449951171875" lon="0.54677970707416534423828125">
        <ele>2353.60009765625</ele>
        <time>2021-08-09T07:13:10.000Z</time>
      </trkpt>
      <trkpt lat="42.67801928333938121795654296875" lon="0.54677459411323070526123046875">
        <ele>2354.39990234375</ele>
        <time>2021-08-09T07:13:12.000Z</time>
      </trkpt>
      <trkpt lat="42.67803956754505634307861328125" lon="0.54676252417266368865966796875">
        <ele>2355.800048828125</ele>
        <time>2021-08-09T07:13:15.000Z</time>
      </trkpt>
      <trkpt lat="42.6780684851109981536865234375" lon="0.54673142731189727783203125">
        <ele>2358.39990234375</ele>
        <time>2021-08-09T07:13:23.000Z</time>
      </trkpt>
      <trkpt lat="42.67807192169129848480224609375" lon="0.54671491496264934539794921875">
        <ele>2359</ele>
        <time>2021-08-09T07:13:26.000Z</time>
      </trkpt>
      <trkpt lat="42.6780728437006473541259765625" lon="0.54671131074428558349609375">
        <ele>2359.199951171875</ele>
        <time>2021-08-09T07:13:27.000Z</time>
      </trkpt>
      <trkpt lat="42.678075022995471954345703125" lon="0.5467081256210803985595703125">
        <ele>2359.39990234375</ele>
        <time>2021-08-09T07:13:28.000Z</time>
      </trkpt>
      <trkpt lat="42.67810888588428497314453125" lon="0.54662170819938182830810546875">
        <ele>2363.800048828125</ele>
        <time>2021-08-09T07:13:42.000Z</time>
      </trkpt>
      <trkpt lat="42.67815792001783847808837890625" lon="0.5465659685432910919189453125">
        <ele>2369.199951171875</ele>
        <time>2021-08-09T07:14:17.000Z</time>
      </trkpt>
      <trkpt lat="42.6781529746949672698974609375" lon="0.5465629510581493377685546875">
        <ele>2369</ele>
        <time>2021-08-09T07:14:22.000Z</time>
      </trkpt>
      <trkpt lat="42.67815322615206241607666015625" lon="0.546561777591705322265625">
        <ele>2369</ele>
        <time>2021-08-09T07:14:23.000Z</time>
      </trkpt>
      <trkpt lat="42.67815037630498409271240234375" lon="0.546563453972339630126953125">
        <ele>2368.60009765625</ele>
        <time>2021-08-09T07:14:27.000Z</time>
      </trkpt>
      <trkpt lat="42.67814115621149539947509765625" lon="0.54656135849654674530029296875">
        <ele>2368</ele>
        <time>2021-08-09T07:14:35.000Z</time>
      </trkpt>
      <trkpt lat="42.67814048565924167633056640625" lon="0.5465606041252613067626953125">
        <ele>2368</ele>
        <time>2021-08-09T07:14:36.000Z</time>
      </trkpt>
      <trkpt lat="42.678140066564083099365234375" lon="0.54655817337334156036376953125">
        <ele>2368</ele>
        <time>2021-08-09T07:14:37.000Z</time>
      </trkpt>
      <trkpt lat="42.6781415753066539764404296875" lon="0.5465522222220897674560546875">
        <ele>2368.199951171875</ele>
        <time>2021-08-09T07:14:38.000Z</time>
      </trkpt>
      <trkpt lat="42.67814618535339832305908203125" lon="0.54654593579471111297607421875">
        <ele>2368.800048828125</ele>
        <time>2021-08-09T07:14:39.000Z</time>
      </trkpt>
      <trkpt lat="42.67816521227359771728515625" lon="0.54655767045915126800537109375">
        <ele>2370</ele>
        <time>2021-08-09T07:14:43.000Z</time>
      </trkpt>
      <trkpt lat="42.67819832079112529754638671875" lon="0.5465304292738437652587890625">
        <ele>2373.39990234375</ele>
        <time>2021-08-09T07:14:52.000Z</time>
      </trkpt>
      <trkpt lat="42.67822279594838619232177734375" lon="0.54646362550556659698486328125">
        <ele>2377</ele>
        <time>2021-08-09T07:15:02.000Z</time>
      </trkpt>
      <trkpt lat="42.6782220415771007537841796875" lon="0.5463852547109127044677734375">
        <ele>2378.60009765625</ele>
        <time>2021-08-09T07:15:13.000Z</time>
      </trkpt>
      <trkpt lat="42.67824894748628139495849609375" lon="0.5463168583810329437255859375">
        <ele>2382.60009765625</ele>
        <time>2021-08-09T07:15:28.000Z</time>
      </trkpt>
      <trkpt lat="42.678256072103977203369140625" lon="0.5462863482534885406494140625">
        <ele>2383.800048828125</ele>
        <time>2021-08-09T07:15:35.000Z</time>
      </trkpt>
      <trkpt lat="42.67828867770731449127197265625" lon="0.5462803132832050323486328125">
        <ele>2386.199951171875</ele>
        <time>2021-08-09T07:15:46.000Z</time>
      </trkpt>
      <trkpt lat="42.67829739488661289215087890625" lon="0.5462648905813694000244140625">
        <ele>2387</ele>
        <time>2021-08-09T07:15:52.000Z</time>
      </trkpt>
      <trkpt lat="42.678314745426177978515625" lon="0.5462035350501537322998046875">
        <ele>2388.800048828125</ele>
        <time>2021-08-09T07:16:11.000Z</time>
      </trkpt>
      <trkpt lat="42.67836109735071659088134765625" lon="0.54615718312561511993408203125">
        <ele>2392.199951171875</ele>
        <time>2021-08-09T07:16:23.000Z</time>
      </trkpt>
      <trkpt lat="42.67837886698544025421142578125" lon="0.54614846594631671905517578125">
        <ele>2393.39990234375</ele>
        <time>2021-08-09T07:16:26.000Z</time>
      </trkpt>
      <trkpt lat="42.67840082757174968719482421875" lon="0.54612901993095874786376953125">
        <ele>2395</ele>
        <time>2021-08-09T07:16:32.000Z</time>
      </trkpt>
      <trkpt lat="42.67840317450463771820068359375" lon="0.54611393250524997711181640625">
        <ele>2395.39990234375</ele>
        <time>2021-08-09T07:16:37.000Z</time>
      </trkpt>
      <trkpt lat="42.67840392887592315673828125" lon="0.5461046285927295684814453125">
        <ele>2395.60009765625</ele>
        <time>2021-08-09T07:16:38.000Z</time>
      </trkpt>
      <trkpt lat="42.67841205932199954986572265625" lon="0.54605123586952686309814453125">
        <ele>2396.60009765625</ele>
        <time>2021-08-09T07:16:52.000Z</time>
      </trkpt>
      <trkpt lat="42.67844013869762420654296875" lon="0.546022318303585052490234375">
        <ele>2398.800048828125</ele>
        <time>2021-08-09T07:17:00.000Z</time>
      </trkpt>
      <trkpt lat="42.67844407819211483001708984375" lon="0.5460221506655216217041015625">
        <ele>2399</ele>
        <time>2021-08-09T07:17:01.000Z</time>
      </trkpt>
      <trkpt lat="42.67838808707892894744873046875" lon="0.54592215456068515777587890625">
        <ele>2396.60009765625</ele>
        <time>2021-08-09T07:17:33.000Z</time>
      </trkpt>
      <trkpt lat="42.67839127220213413238525390625" lon="0.545868761837482452392578125">
        <ele>2397.199951171875</ele>
        <time>2021-08-09T07:17:44.000Z</time>
      </trkpt>
      <trkpt lat="42.67839395441114902496337890625" lon="0.5458551831543445587158203125">
        <ele>2397.60009765625</ele>
        <time>2021-08-09T07:17:46.000Z</time>
      </trkpt>
      <trkpt lat="42.6783943735063076019287109375" lon="0.5458323843777179718017578125">
        <ele>2398</ele>
        <time>2021-08-09T07:17:52.000Z</time>
      </trkpt>
      <trkpt lat="42.67840954475104808807373046875" lon="0.5458253435790538787841796875">
        <ele>2399.199951171875</ele>
        <time>2021-08-09T07:17:55.000Z</time>
      </trkpt>
      <trkpt lat="42.67842329107224941253662109375" lon="0.54580883122980594635009765625">
        <ele>2400.39990234375</ele>
        <time>2021-08-09T07:18:01.000Z</time>
      </trkpt>
      <trkpt lat="42.678421698510646820068359375" lon="0.54579894058406352996826171875">
        <ele>2400.60009765625</ele>
        <time>2021-08-09T07:18:03.000Z</time>
      </trkpt>
      <trkpt lat="42.67842781729996204376220703125" lon="0.5457354895770549774169921875">
        <ele>2402.199951171875</ele>
        <time>2021-08-09T07:18:20.000Z</time>
      </trkpt>
      <trkpt lat="42.67843066714704036712646484375" lon="0.54568846710026264190673828125">
        <ele>2403.39990234375</ele>
        <time>2021-08-09T07:18:32.000Z</time>
      </trkpt>
      <trkpt lat="42.678409628570079803466796875" lon="0.54566164501011371612548828125">
        <ele>2402.800048828125</ele>
        <time>2021-08-09T07:18:41.000Z</time>
      </trkpt>
      <trkpt lat="42.67841591499745845794677734375" lon="0.54557614959776401519775390625">
        <ele>2404.60009765625</ele>
        <time>2021-08-09T07:18:59.000Z</time>
      </trkpt>
      <trkpt lat="42.67842530272901058197021484375" lon="0.54556391201913356781005859375">
        <ele>2405.199951171875</ele>
        <time>2021-08-09T07:19:03.000Z</time>
      </trkpt>
      <trkpt lat="42.6784262247383594512939453125" lon="0.5455608107149600982666015625">
        <ele>2405.39990234375</ele>
        <time>2021-08-09T07:19:04.000Z</time>
      </trkpt>
      <trkpt lat="42.6784470118582248687744140625" lon="0.54555393755435943603515625">
        <ele>2406.60009765625</ele>
        <time>2021-08-09T07:19:11.000Z</time>
      </trkpt>
      <trkpt lat="42.67844910733401775360107421875" lon="0.54552501998841762542724609375">
        <ele>2407.60009765625</ele>
        <time>2021-08-09T07:19:21.000Z</time>
      </trkpt>
      <trkpt lat="42.6784540526568889617919921875" lon="0.54550322704017162322998046875">
        <ele>2408.39990234375</ele>
        <time>2021-08-09T07:19:24.000Z</time>
      </trkpt>
      <trkpt lat="42.6784724928438663482666015625" lon="0.545424520969390869140625">
        <ele>2411.60009765625</ele>
        <time>2021-08-09T07:19:43.000Z</time>
      </trkpt>
      <trkpt lat="42.67852328717708587646484375" lon="0.545379929244518280029296875">
        <ele>2414.199951171875</ele>
        <time>2021-08-09T07:19:59.000Z</time>
      </trkpt>
      <trkpt lat="42.6785670407116413116455078125" lon="0.5452409572899341583251953125">
        <ele>2416.800048828125</ele>
        <time>2021-08-09T07:20:29.000Z</time>
      </trkpt>
      <trkpt lat="42.67857735045254230499267578125" lon="0.5452312342822551727294921875">
        <ele>2417.199951171875</ele>
        <time>2021-08-09T07:20:33.000Z</time>
      </trkpt>
      <trkpt lat="42.67858053557574748992919921875" lon="0.5451517738401889801025390625">
        <ele>2418.800048828125</ele>
        <time>2021-08-09T07:20:49.000Z</time>
      </trkpt>
      <trkpt lat="42.67863786779344081878662109375" lon="0.545008443295955657958984375">
        <ele>2422.60009765625</ele>
        <time>2021-08-09T07:21:40.000Z</time>
      </trkpt>
      <trkpt lat="42.67866837792098522186279296875" lon="0.54485295899212360382080078125">
        <ele>2428.60009765625</ele>
        <time>2021-08-09T07:22:17.000Z</time>
      </trkpt>
      <trkpt lat="42.67870567739009857177734375" lon="0.54472723044455051422119140625">
        <ele>2434</ele>
        <time>2021-08-09T07:22:43.000Z</time>
      </trkpt>
      <trkpt lat="42.6787004806101322174072265625" lon="0.54467090405523777008056640625">
        <ele>2434.800048828125</ele>
        <time>2021-08-09T07:23:04.000Z</time>
      </trkpt>
      <trkpt lat="42.67870157025754451751708984375" lon="0.544683225452899932861328125">
        <ele>2434.60009765625</ele>
        <time>2021-08-09T07:23:13.000Z</time>
      </trkpt>
      <trkpt lat="42.67870525829493999481201171875" lon="0.54466604255139827728271484375">
        <ele>2435.199951171875</ele>
        <time>2021-08-09T07:23:28.000Z</time>
      </trkpt>
      <trkpt lat="42.67869302071630954742431640625" lon="0.54467090405523777008056640625">
        <ele>2434.60009765625</ele>
        <time>2021-08-09T07:23:35.000Z</time>
      </trkpt>
      <trkpt lat="42.67869201488792896270751953125" lon="0.54467258043587207794189453125">
        <ele>2434.39990234375</ele>
        <time>2021-08-09T07:23:42.000Z</time>
      </trkpt>
      <trkpt lat="42.67869067378342151641845703125" lon="0.54468892514705657958984375">
        <ele>2434.199951171875</ele>
        <time>2021-08-09T07:23:49.000Z</time>
      </trkpt>
      <trkpt lat="42.67868212424218654632568359375" lon="0.54469370283186435699462890625">
        <ele>2433.60009765625</ele>
        <time>2021-08-09T07:24:14.000Z</time>
      </trkpt>
      <trkpt lat="42.67868899740278720855712890625" lon="0.5446877516806125640869140625">
        <ele>2434</ele>
        <time>2021-08-09T07:24:34.000Z</time>
      </trkpt>
      <trkpt lat="42.678687907755374908447265625" lon="0.54466302506625652313232421875">
        <ele>2434.39990234375</ele>
        <time>2021-08-09T07:24:40.000Z</time>
      </trkpt>
      <trkpt lat="42.678679861128330230712890625" lon="0.54467241279780864715576171875">
        <ele>2434</ele>
        <time>2021-08-09T07:24:53.000Z</time>
      </trkpt>
      <trkpt lat="42.67867214977741241455078125" lon="0.544672496616840362548828125">
        <ele>2433.60009765625</ele>
        <time>2021-08-09T07:25:01.000Z</time>
      </trkpt>
      <trkpt lat="42.67867038957774639129638671875" lon="0.54467408917844295501708984375">
        <ele>2433.60009765625</ele>
        <time>2021-08-09T07:25:02.000Z</time>
      </trkpt>
      <trkpt lat="42.67866904847323894500732421875" lon="0.54467291571199893951416015625">
        <ele>2433.39990234375</ele>
        <time>2021-08-09T07:25:03.000Z</time>
      </trkpt>
      <trkpt lat="42.67866351641714572906494140625" lon="0.544670484960079193115234375">
        <ele>2433.199951171875</ele>
        <time>2021-08-09T07:25:07.000Z</time>
      </trkpt>
      <trkpt lat="42.67866452224552631378173828125" lon="0.5446719937026500701904296875">
        <ele>2433.199951171875</ele>
        <time>2021-08-09T07:25:14.000Z</time>
      </trkpt>
      <trkpt lat="42.67867290414869785308837890625" lon="0.5445995740592479705810546875">
        <ele>2435</ele>
        <time>2021-08-09T07:25:39.000Z</time>
      </trkpt>
      <trkpt lat="42.67871238291263580322265625" lon="0.54442749358713626861572265625">
        <ele>2439.60009765625</ele>
        <time>2021-08-09T07:25:59.000Z</time>
      </trkpt>
      <trkpt lat="42.67871481366455554962158203125" lon="0.5444067902863025665283203125">
        <ele>2439.800048828125</ele>
        <time>2021-08-09T07:26:02.000Z</time>
      </trkpt>
      <trkpt lat="42.67870324663817882537841796875" lon="0.544323809444904327392578125">
        <ele>2440.199951171875</ele>
        <time>2021-08-09T07:26:12.000Z</time>
      </trkpt>
      <trkpt lat="42.67873191274702548980712890625" lon="0.54424962960183620452880859375">
        <ele>2442.39990234375</ele>
        <time>2021-08-09T07:26:21.000Z</time>
      </trkpt>
      <trkpt lat="42.67877985723316669464111328125" lon="0.5441633798182010650634765625">
        <ele>2444.800048828125</ele>
        <time>2021-08-09T07:26:34.000Z</time>
      </trkpt>
      <trkpt lat="42.6787881553173065185546875" lon="0.54412524215877056121826171875">
        <ele>2445.39990234375</ele>
        <time>2021-08-09T07:26:38.000Z</time>
      </trkpt>
      <trkpt lat="42.67881606705486774444580078125" lon="0.5441033653914928436279296875">
        <ele>2446.60009765625</ele>
        <time>2021-08-09T07:26:43.000Z</time>
      </trkpt>
      <trkpt lat="42.67882294021546840667724609375" lon="0.54405617527663707733154296875">
        <ele>2447.199951171875</ele>
        <time>2021-08-09T07:26:55.000Z</time>
      </trkpt>
      <trkpt lat="42.6788416318595409393310546875" lon="0.5439038760960102081298828125">
        <ele>2447.800048828125</ele>
        <time>2021-08-09T07:27:13.000Z</time>
      </trkpt>
      <trkpt lat="42.67885764129459857940673828125" lon="0.54388669319450855255126953125">
        <ele>2448.199951171875</ele>
        <time>2021-08-09T07:27:15.000Z</time>
      </trkpt>
      <trkpt lat="42.67897792160511016845703125" lon="0.5438192188739776611328125">
        <ele>2452</ele>
        <time>2021-08-09T07:27:31.000Z</time>
      </trkpt>
      <trkpt lat="42.6790099404752254486083984375" lon="0.5437456257641315460205078125">
        <ele>2452.60009765625</ele>
        <time>2021-08-09T07:27:37.000Z</time>
      </trkpt>
      <trkpt lat="42.6790454797446727752685546875" lon="0.543610341846942901611328125">
        <ele>2453.800048828125</ele>
        <time>2021-08-09T07:27:47.000Z</time>
      </trkpt>
      <trkpt lat="42.6791145466268062591552734375" lon="0.54344446398317813873291015625">
        <ele>2454.800048828125</ele>
        <time>2021-08-09T07:28:03.000Z</time>
      </trkpt>
      <trkpt lat="42.6791306398808956146240234375" lon="0.54335720837116241455078125">
        <ele>2454.60009765625</ele>
        <time>2021-08-09T07:28:11.000Z</time>
      </trkpt>
      <trkpt lat="42.67915486358106136322021484375" lon="0.54328923113644123077392578125">
        <ele>2454.199951171875</ele>
        <time>2021-08-09T07:28:16.000Z</time>
      </trkpt>
      <trkpt lat="42.679180093109607696533203125" lon="0.5432591401040554046630859375">
        <ele>2454.60009765625</ele>
        <time>2021-08-09T07:28:20.000Z</time>
      </trkpt>
      <trkpt lat="42.67919811420142650604248046875" lon="0.54312192834913730621337890625">
        <ele>2450.800048828125</ele>
        <time>2021-08-09T07:28:34.000Z</time>
      </trkpt>
      <trkpt lat="42.6791976951062679290771484375" lon="0.543084628880023956298828125">
        <ele>2449.39990234375</ele>
        <time>2021-08-09T07:28:38.000Z</time>
      </trkpt>
      <trkpt lat="42.67923449166119098663330078125" lon="0.54295144043862819671630859375">
        <ele>2450.199951171875</ele>
        <time>2021-08-09T07:28:54.000Z</time>
      </trkpt>
      <trkpt lat="42.67931059934198856353759765625" lon="0.54273166693747043609619140625">
        <ele>2454.39990234375</ele>
        <time>2021-08-09T07:29:13.000Z</time>
      </trkpt>
      <trkpt lat="42.67947387881577014923095703125" lon="0.5425973050296306610107421875">
        <ele>2465.800048828125</ele>
        <time>2021-08-09T07:29:30.000Z</time>
      </trkpt>
      <trkpt lat="42.67955266870558261871337890625" lon="0.5424595065414905548095703125">
        <ele>2471.199951171875</ele>
        <time>2021-08-09T07:29:44.000Z</time>
      </trkpt>
      <trkpt lat="42.67957814969122409820556640625" lon="0.5423589237034320831298828125">
        <ele>2473</ele>
        <time>2021-08-09T07:29:55.000Z</time>
      </trkpt>
      <trkpt lat="42.6795842684805393218994140625" lon="0.5423532240092754364013671875">
        <ele>2473.39990234375</ele>
        <time>2021-08-09T07:29:56.000Z</time>
      </trkpt>
      <trkpt lat="42.6796928979456424713134765625" lon="0.54219773970544338226318359375">
        <ele>2476</ele>
        <time>2021-08-09T07:30:26.000Z</time>
      </trkpt>
      <trkpt lat="42.67973287962377071380615234375" lon="0.5421004258096218109130859375">
        <ele>2476</ele>
        <time>2021-08-09T07:30:42.000Z</time>
      </trkpt>
      <trkpt lat="42.6797743700444698333740234375" lon="0.541959442198276519775390625">
        <ele>2475.199951171875</ele>
        <time>2021-08-09T07:30:56.000Z</time>
      </trkpt>
      <trkpt lat="42.6798020303249359130859375" lon="0.54190185852348804473876953125">
        <ele>2476.199951171875</ele>
        <time>2021-08-09T07:31:03.000Z</time>
      </trkpt>
      <trkpt lat="42.67986179329454898834228515625" lon="0.541810579597949981689453125">
        <ele>2479</ele>
        <time>2021-08-09T07:31:15.000Z</time>
      </trkpt>
      <trkpt lat="42.67990537919104099273681640625" lon="0.5416910536587238311767578125">
        <ele>2480.199951171875</ele>
        <time>2021-08-09T07:31:30.000Z</time>
      </trkpt>
      <trkpt lat="42.67991309054195880889892578125" lon="0.54166498593986034393310546875">
        <ele>2481</ele>
        <time>2021-08-09T07:31:32.000Z</time>
      </trkpt>
      <trkpt lat="42.67996371723711490631103515625" lon="0.54157488048076629638671875">
        <ele>2486.60009765625</ele>
        <time>2021-08-09T07:31:44.000Z</time>
      </trkpt>
      <trkpt lat="42.680077292025089263916015625" lon="0.54141721688210964202880859375">
        <ele>2489.800048828125</ele>
        <time>2021-08-09T07:32:07.000Z</time>
      </trkpt>
      <trkpt lat="42.68011006526648998260498046875" lon="0.54138419218361377716064453125">
        <ele>2491</ele>
        <time>2021-08-09T07:32:13.000Z</time>
      </trkpt>
      <trkpt lat="42.68012179993093013763427734375" lon="0.54136541672050952911376953125">
        <ele>2491.800048828125</ele>
        <time>2021-08-09T07:32:16.000Z</time>
      </trkpt>
      <trkpt lat="42.680224478244781494140625" lon="0.54118470288813114166259765625">
        <ele>2496</ele>
        <time>2021-08-09T07:32:49.000Z</time>
      </trkpt>
      <trkpt lat="42.68016882240772247314453125" lon="0.5410892330110073089599609375">
        <ele>2497.800048828125</ele>
        <time>2021-08-09T07:32:52.000Z</time>
      </trkpt>
      <trkpt lat="42.68005290068686008453369140625" lon="0.5408900789916515350341796875">
        <ele>2507.800048828125</ele>
        <time>2021-08-09T07:32:58.000Z</time>
      </trkpt>
      <trkpt lat="42.68000629730522632598876953125" lon="0.5407167412340641021728515625">
        <ele>2516.39990234375</ele>
        <time>2021-08-09T07:33:10.000Z</time>
      </trkpt>
      <trkpt lat="42.67999171279370784759521484375" lon="0.5406332574784755706787109375">
        <ele>2520.60009765625</ele>
        <time>2021-08-09T07:33:27.000Z</time>
      </trkpt>
      <trkpt lat="42.6800043694674968719482421875" lon="0.54064013063907623291015625">
        <ele>2520</ele>
        <time>2021-08-09T07:33:29.000Z</time>
      </trkpt>
      <trkpt lat="42.68001099117100238800048828125" lon="0.54062671959400177001953125">
        <ele>2520.60009765625</ele>
        <time>2021-08-09T07:33:31.000Z</time>
      </trkpt>
      <trkpt lat="42.68000411801040172576904296875" lon="0.5406138114631175994873046875">
        <ele>2521.199951171875</ele>
        <time>2021-08-09T07:33:32.000Z</time>
      </trkpt>
      <trkpt lat="42.67999447882175445556640625" lon="0.54059922695159912109375">
        <ele>2522</ele>
        <time>2021-08-09T07:33:33.000Z</time>
      </trkpt>
      <trkpt lat="42.6799379847943782806396484375" lon="0.5405219458043575286865234375">
        <ele>2525.60009765625</ele>
        <time>2021-08-09T07:33:40.000Z</time>
      </trkpt>
      <trkpt lat="42.67992616631090641021728515625" lon="0.54051130078732967376708984375">
        <ele>2526</ele>
        <time>2021-08-09T07:33:43.000Z</time>
      </trkpt>
      <trkpt lat="42.6798860169947147369384765625" lon="0.5404679663479328155517578125">
        <ele>2527.60009765625</ele>
        <time>2021-08-09T07:33:47.000Z</time>
      </trkpt>
      <trkpt lat="42.67985106445848941802978515625" lon="0.54039713926613330841064453125">
        <ele>2530</ele>
        <time>2021-08-09T07:33:54.000Z</time>
      </trkpt>
      <trkpt lat="42.67985709942877292633056640625" lon="0.5403779447078704833984375">
        <ele>2530.60009765625</ele>
        <time>2021-08-09T07:33:57.000Z</time>
      </trkpt>
      <trkpt lat="42.6798783056437969207763671875" lon="0.54036344401538372039794921875">
        <ele>2531.199951171875</ele>
        <time>2021-08-09T07:34:00.000Z</time>
      </trkpt>
      <trkpt lat="42.67987755127251148223876953125" lon="0.54031047038733959197998046875">
        <ele>2533.39990234375</ele>
        <time>2021-08-09T07:34:07.000Z</time>
      </trkpt>
      <trkpt lat="42.68013252876698970794677734375" lon="0.54055069573223590850830078125">
        <ele>2517.199951171875</ele>
        <time>2021-08-09T07:34:15.000Z</time>
      </trkpt>
      <trkpt lat="42.68030385486781597137451171875" lon="0.5407226085662841796875">
        <ele>2499.60009765625</ele>
        <time>2021-08-09T07:34:19.000Z</time>
      </trkpt>
      <trkpt lat="42.6803285814821720123291015625" lon="0.5407365225255489349365234375">
        <ele>2497.39990234375</ele>
        <time>2021-08-09T07:34:20.000Z</time>
      </trkpt>
      <trkpt lat="42.68044953234493732452392578125" lon="0.54084238596260547637939453125">
        <ele>2490.60009765625</ele>
        <time>2021-08-09T07:34:25.000Z</time>
      </trkpt>
      <trkpt lat="42.68049026839435100555419921875" lon="0.54091103374958038330078125">
        <ele>2491.800048828125</ele>
        <time>2021-08-09T07:34:27.000Z</time>
      </trkpt>
      <trkpt lat="42.68052530474960803985595703125" lon="0.54096794687211513519287109375">
        <ele>2492.800048828125</ele>
        <time>2021-08-09T07:34:30.000Z</time>
      </trkpt>
      <trkpt lat="42.68055581487715244293212890625" lon="0.5409839563071727752685546875">
        <ele>2492.39990234375</ele>
        <time>2021-08-09T07:34:34.000Z</time>
      </trkpt>
      <trkpt lat="42.6806591637432575225830078125" lon="0.5409906618297100067138671875">
        <ele>2492.800048828125</ele>
        <time>2021-08-09T07:34:44.000Z</time>
      </trkpt>
      <trkpt lat="42.68069897778332233428955078125" lon="0.54099619388580322265625">
        <ele>2494.60009765625</ele>
        <time>2021-08-09T07:34:48.000Z</time>
      </trkpt>
      <trkpt lat="42.68073719926178455352783203125" lon="0.5409980379045009613037109375">
        <ele>2496.199951171875</ele>
        <time>2021-08-09T07:34:53.000Z</time>
      </trkpt>
      <trkpt lat="42.6807895861566066741943359375" lon="0.54098806343972682952880859375">
        <ele>2497.39990234375</ele>
        <time>2021-08-09T07:35:00.000Z</time>
      </trkpt>
      <trkpt lat="42.68085144460201263427734375" lon="0.54098554886877536773681640625">
        <ele>2498.800048828125</ele>
        <time>2021-08-09T07:35:07.000Z</time>
      </trkpt>
      <trkpt lat="42.68097356893122196197509765625" lon="0.540835596621036529541015625">
        <ele>2496.39990234375</ele>
        <time>2021-08-09T07:35:31.000Z</time>
      </trkpt>
      <trkpt lat="42.68104112707078456878662109375" lon="0.540806762874126434326171875">
        <ele>2498.60009765625</ele>
        <time>2021-08-09T07:35:38.000Z</time>
      </trkpt>
      <trkpt lat="42.68113785423338413238525390625" lon="0.54071196354925632476806640625">
        <ele>2499</ele>
        <time>2021-08-09T07:35:50.000Z</time>
      </trkpt>
      <trkpt lat="42.6811667717993259429931640625" lon="0.5406748317182064056396484375">
        <ele>2498.800048828125</ele>
        <time>2021-08-09T07:35:54.000Z</time>
      </trkpt>
      <trkpt lat="42.6812450587749481201171875" lon="0.540575422346591949462890625">
        <ele>2497.39990234375</ele>
        <time>2021-08-09T07:36:11.000Z</time>
      </trkpt>
      <trkpt lat="42.68126626498997211456298828125" lon="0.54057131521403789520263671875">
        <ele>2498.199951171875</ele>
        <time>2021-08-09T07:36:14.000Z</time>
      </trkpt>
      <trkpt lat="42.681272886693477630615234375" lon="0.540568716824054718017578125">
        <ele>2498.39990234375</ele>
        <time>2021-08-09T07:36:15.000Z</time>
      </trkpt>
      <trkpt lat="42.681279592216014862060546875" lon="0.54056293331086635589599609375">
        <ele>2498.39990234375</ele>
        <time>2021-08-09T07:36:17.000Z</time>
      </trkpt>
      <trkpt lat="42.68128872849047183990478515625" lon="0.5405564792454242706298828125">
        <ele>2498.60009765625</ele>
        <time>2021-08-09T07:36:20.000Z</time>
      </trkpt>
      <trkpt lat="42.6813300512731075286865234375" lon="0.54045815952122211456298828125">
        <ele>2497</ele>
        <time>2021-08-09T07:36:43.000Z</time>
      </trkpt>
      <trkpt lat="42.68132217228412628173828125" lon="0.540446676313877105712890625">
        <ele>2496.199951171875</ele>
        <time>2021-08-09T07:36:45.000Z</time>
      </trkpt>
      <trkpt lat="42.68129325471818447113037109375" lon="0.54040049202740192413330078125">
        <ele>2492.800048828125</ele>
        <time>2021-08-09T07:36:49.000Z</time>
      </trkpt>
      <trkpt lat="42.68128436990082263946533203125" lon="0.54038238711655139923095703125">
        <ele>2491.60009765625</ele>
        <time>2021-08-09T07:36:51.000Z</time>
      </trkpt>
      <trkpt lat="42.68128839321434497833251953125" lon="0.54038221947848796844482421875">
        <ele>2491.60009765625</ele>
        <time>2021-08-09T07:36:54.000Z</time>
      </trkpt>
      <trkpt lat="42.68134765326976776123046875" lon="0.5404666252434253692626953125">
        <ele>2498</ele>
        <time>2021-08-09T07:37:09.000Z</time>
      </trkpt>
      <trkpt lat="42.68137757666409015655517578125" lon="0.54052705876529216766357421875">
        <ele>2501.60009765625</ele>
        <time>2021-08-09T07:37:14.000Z</time>
      </trkpt>
      <trkpt lat="42.68140724860131740570068359375" lon="0.54055220447480678558349609375">
        <ele>2504</ele>
        <time>2021-08-09T07:37:18.000Z</time>
      </trkpt>
      <trkpt lat="42.68133851699531078338623046875" lon="0.54043100215494632720947265625">
        <ele>2495.800048828125</ele>
        <time>2021-08-09T07:37:22.000Z</time>
      </trkpt>
      <trkpt lat="42.68134304322302341461181640625" lon="0.5403955467045307159423828125">
        <ele>2494</ele>
        <time>2021-08-09T07:37:28.000Z</time>
      </trkpt>
      <trkpt lat="42.68134606070816516876220703125" lon="0.54038993082940578460693359375">
        <ele>2493.800048828125</ele>
        <time>2021-08-09T07:37:29.000Z</time>
      </trkpt>
      <trkpt lat="42.68134362995624542236328125" lon="0.540381968021392822265625">
        <ele>2493.199951171875</ele>
        <time>2021-08-09T07:37:30.000Z</time>
      </trkpt>
      <trkpt lat="42.681352011859416961669921875" lon="0.54037601687014102935791015625">
        <ele>2493.199951171875</ele>
        <time>2021-08-09T07:37:32.000Z</time>
      </trkpt>
      <trkpt lat="42.68133633770048618316650390625" lon="0.54031583480536937713623046875">
        <ele>2489.39990234375</ele>
        <time>2021-08-09T07:37:39.000Z</time>
      </trkpt>
      <trkpt lat="42.68139484338462352752685546875" lon="0.54033746011555194854736328125">
        <ele>2492.39990234375</ele>
        <time>2021-08-09T07:37:44.000Z</time>
      </trkpt>
      <trkpt lat="42.68142133019864559173583984375" lon="0.540400408208370208740234375">
        <ele>2496.39990234375</ele>
        <time>2021-08-09T07:38:05.000Z</time>
      </trkpt>
      <trkpt lat="42.681421749293804168701171875" lon="0.54040082730352878570556640625">
        <ele>2496.60009765625</ele>
        <time>2021-08-09T07:38:06.000Z</time>
      </trkpt>
      <trkpt lat="42.6814182288944721221923828125" lon="0.5403968878090381622314453125">
        <ele>2496.199951171875</ele>
        <time>2021-08-09T07:38:09.000Z</time>
      </trkpt>
      <trkpt lat="42.6814145408570766448974609375" lon="0.54039345122873783111572265625">
        <ele>2496</ele>
        <time>2021-08-09T07:38:12.000Z</time>
      </trkpt>
      <trkpt lat="42.68140800297260284423828125" lon="0.5403848178684711456298828125">
        <ele>2495.199951171875</ele>
        <time>2021-08-09T07:38:13.000Z</time>
      </trkpt>
      <trkpt lat="42.6814031414687633514404296875" lon="0.5403821356594562530517578125">
        <ele>2495</ele>
        <time>2021-08-09T07:38:14.000Z</time>
      </trkpt>
      <trkpt lat="42.681402303278446197509765625" lon="0.54038289003074169158935546875">
        <ele>2495</ele>
        <time>2021-08-09T07:38:15.000Z</time>
      </trkpt>
      <trkpt lat="42.68138830550014972686767578125" lon="0.5403673835098743438720703125">
        <ele>2493.800048828125</ele>
        <time>2021-08-09T07:38:28.000Z</time>
      </trkpt>
      <trkpt lat="42.68138914369046688079833984375" lon="0.5403538048267364501953125">
        <ele>2493</ele>
        <time>2021-08-09T07:38:30.000Z</time>
      </trkpt>
      <trkpt lat="42.68147346563637256622314453125" lon="0.540408454835414886474609375">
        <ele>2498</ele>
        <time>2021-08-09T07:38:40.000Z</time>
      </trkpt>
      <trkpt lat="42.68147564493119716644287109375" lon="0.54037819616496562957763671875">
        <ele>2496.39990234375</ele>
        <time>2021-08-09T07:38:46.000Z</time>
      </trkpt>
      <trkpt lat="42.6814864575862884521484375" lon="0.54038322530686855316162109375">
        <ele>2497</ele>
        <time>2021-08-09T07:38:47.000Z</time>
      </trkpt>
      <trkpt lat="42.6814998686313629150390625" lon="0.54039537906646728515625">
        <ele>2497.800048828125</ele>
        <time>2021-08-09T07:38:49.000Z</time>
      </trkpt>
      <trkpt lat="42.681500874459743499755859375" lon="0.540383644402027130126953125">
        <ele>2497.199951171875</ele>
        <time>2021-08-09T07:38:52.000Z</time>
      </trkpt>
      <trkpt lat="42.6814916543662548065185546875" lon="0.54038071073591709136962890625">
        <ele>2496.800048828125</ele>
        <time>2021-08-09T07:38:56.000Z</time>
      </trkpt>
      <trkpt lat="42.68149341456592082977294921875" lon="0.54038791917264461517333984375">
        <ele>2497.39990234375</ele>
        <time>2021-08-09T07:39:02.000Z</time>
      </trkpt>
      <trkpt lat="42.68151252530515193939208984375" lon="0.54040501825511455535888671875">
        <ele>2498.60009765625</ele>
        <time>2021-08-09T07:39:05.000Z</time>
      </trkpt>
      <trkpt lat="42.68151260912418365478515625" lon="0.54041423834860324859619140625">
        <ele>2499</ele>
        <time>2021-08-09T07:39:10.000Z</time>
      </trkpt>
      <trkpt lat="42.6815064065158367156982421875" lon="0.54041507653892040252685546875">
        <ele>2499</ele>
        <time>2021-08-09T07:39:11.000Z</time>
      </trkpt>
      <trkpt lat="42.6815211586654186248779296875" lon="0.54042421281337738037109375">
        <ele>2499.800048828125</ele>
        <time>2021-08-09T07:39:24.000Z</time>
      </trkpt>
      <trkpt lat="42.68152141012251377105712890625" lon="0.5404404737055301666259765625">
        <ele>2500.60009765625</ele>
        <time>2021-08-09T07:39:34.000Z</time>
      </trkpt>
      <trkpt lat="42.68152476288378238677978515625" lon="0.54044391028583049774169921875">
        <ele>2501</ele>
        <time>2021-08-09T07:39:36.000Z</time>
      </trkpt>
      <trkpt lat="42.68152979202568531036376953125" lon="0.54044240154325962066650390625">
        <ele>2501</ele>
        <time>2021-08-09T07:39:37.000Z</time>
      </trkpt>
      <trkpt lat="42.681598775088787078857421875" lon="0.54030376486480236053466796875">
        <ele>2496.199951171875</ele>
        <time>2021-08-09T07:39:54.000Z</time>
      </trkpt>
      <trkpt lat="42.68160439096391201019287109375" lon="0.540253221988677978515625">
        <ele>2494.800048828125</ele>
        <time>2021-08-09T07:40:02.000Z</time>
      </trkpt>
      <trkpt lat="42.68162257969379425048828125" lon="0.53997100330889225006103515625">
        <ele>2486</ele>
        <time>2021-08-09T07:40:31.000Z</time>
      </trkpt>
      <trkpt lat="42.6816733740270137786865234375" lon="0.53991191089153289794921875">
        <ele>2484.800048828125</ele>
        <time>2021-08-09T07:40:36.000Z</time>
      </trkpt>
      <trkpt lat="42.68170832656323909759521484375" lon="0.53988047875463962554931640625">
        <ele>2483.800048828125</ele>
        <time>2021-08-09T07:40:40.000Z</time>
      </trkpt>
      <trkpt lat="42.68172584474086761474609375" lon="0.5398463644087314605712890625">
        <ele>2482.800048828125</ele>
        <time>2021-08-09T07:40:43.000Z</time>
      </trkpt>
      <trkpt lat="42.68175727687776088714599609375" lon="0.5398128367960453033447265625">
        <ele>2482.800048828125</ele>
        <time>2021-08-09T07:40:48.000Z</time>
      </trkpt>
      <trkpt lat="42.68176146782934665679931640625" lon="0.53980319760739803314208984375">
        <ele>2482.60009765625</ele>
        <time>2021-08-09T07:40:49.000Z</time>
      </trkpt>
      <trkpt lat="42.68181544728577136993408203125" lon="0.53978450596332550048828125">
        <ele>2484.60009765625</ele>
        <time>2021-08-09T07:40:54.000Z</time>
      </trkpt>
      <trkpt lat="42.68189348280429840087890625" lon="0.53968752734363079071044921875">
        <ele>2487</ele>
        <time>2021-08-09T07:41:05.000Z</time>
      </trkpt>
      <trkpt lat="42.6819432713091373443603515625" lon="0.5396348051726818084716796875">
        <ele>2488.39990234375</ele>
        <time>2021-08-09T07:41:12.000Z</time>
      </trkpt>
      <trkpt lat="42.68201644532382488250732421875" lon="0.5393270216882228851318359375">
        <ele>2484.60009765625</ele>
        <time>2021-08-09T07:41:47.000Z</time>
      </trkpt>
      <trkpt lat="42.6820237375795841217041015625" lon="0.5392820946872234344482421875">
        <ele>2484</ele>
        <time>2021-08-09T07:41:52.000Z</time>
      </trkpt>
      <trkpt lat="42.68202348612248897552490234375" lon="0.5392240919172763824462890625">
        <ele>2483</ele>
        <time>2021-08-09T07:41:59.000Z</time>
      </trkpt>
      <trkpt lat="42.68202834762632846832275390625" lon="0.5391721241176128387451171875">
        <ele>2482.199951171875</ele>
        <time>2021-08-09T07:42:03.000Z</time>
      </trkpt>
      <trkpt lat="42.68204444088041782379150390625" lon="0.5391253530979156494140625">
        <ele>2482.199951171875</ele>
        <time>2021-08-09T07:42:07.000Z</time>
      </trkpt>
      <trkpt lat="42.68205584026873111724853515625" lon="0.5390346609055995941162109375">
        <ele>2481.60009765625</ele>
        <time>2021-08-09T07:42:17.000Z</time>
      </trkpt>
      <trkpt lat="42.682080902159214019775390625" lon="0.53887523710727691650390625">
        <ele>2480.199951171875</ele>
        <time>2021-08-09T07:42:34.000Z</time>
      </trkpt>
      <trkpt lat="42.68216044642031192779541015625" lon="0.53865353576838970184326171875">
        <ele>2479.800048828125</ele>
        <time>2021-08-09T07:42:58.000Z</time>
      </trkpt>
      <trkpt lat="42.68216161988675594329833984375" lon="0.538618750870227813720703125">
        <ele>2479.199951171875</ele>
        <time>2021-08-09T07:43:02.000Z</time>
      </trkpt>
      <trkpt lat="42.68216975033283233642578125" lon="0.53856141865253448486328125">
        <ele>2480</ele>
        <time>2021-08-09T07:43:06.000Z</time>
      </trkpt>
      <trkpt lat="42.68221199512481689453125" lon="0.5384563095867633819580078125">
        <ele>2478.800048828125</ele>
        <time>2021-08-09T07:43:16.000Z</time>
      </trkpt>
      <trkpt lat="42.68223001621663570404052734375" lon="0.538388080894947052001953125">
        <ele>2477.39990234375</ele>
        <time>2021-08-09T07:43:21.000Z</time>
      </trkpt>
      <trkpt lat="42.6823549903929233551025390625" lon="0.53827014751732349395751953125">
        <ele>2478.199951171875</ele>
        <time>2021-08-09T07:43:36.000Z</time>
      </trkpt>
      <trkpt lat="42.68242732621729373931884765625" lon="0.53823460824787616729736328125">
        <ele>2479.800048828125</ele>
        <time>2021-08-09T07:43:47.000Z</time>
      </trkpt>
      <trkpt lat="42.68243839032948017120361328125" lon="0.538211725652217864990234375">
        <ele>2480</ele>
        <time>2021-08-09T07:43:50.000Z</time>
      </trkpt>
      <trkpt lat="42.6825484447181224822998046875" lon="0.53813000209629535675048828125">
        <ele>2479.199951171875</ele>
        <time>2021-08-09T07:44:07.000Z</time>
      </trkpt>
      <trkpt lat="42.68256478942930698394775390625" lon="0.5381035991013050079345703125">
        <ele>2479.60009765625</ele>
        <time>2021-08-09T07:44:11.000Z</time>
      </trkpt>
      <trkpt lat="42.68265380524098873138427734375" lon="0.53796789608895778656005859375">
        <ele>2483.39990234375</ele>
        <time>2021-08-09T07:44:32.000Z</time>
      </trkpt>
      <trkpt lat="42.6826738379895687103271484375" lon="0.5379540659487247467041015625">
        <ele>2484</ele>
        <time>2021-08-09T07:44:35.000Z</time>
      </trkpt>
      <trkpt lat="42.68278121016919612884521484375" lon="0.537793636322021484375">
        <ele>2486.800048828125</ele>
        <time>2021-08-09T07:44:59.000Z</time>
      </trkpt>
      <trkpt lat="42.68288363702595233917236328125" lon="0.53770235739648342132568359375">
        <ele>2489</ele>
        <time>2021-08-09T07:45:19.000Z</time>
      </trkpt>
      <trkpt lat="42.68293686211109161376953125" lon="0.537647791206836700439453125">
        <ele>2490.39990234375</ele>
        <time>2021-08-09T07:45:33.000Z</time>
      </trkpt>
      <trkpt lat="42.68304423429071903228759765625" lon="0.537495911121368408203125">
        <ele>2491.800048828125</ele>
        <time>2021-08-09T07:46:08.000Z</time>
      </trkpt>
      <trkpt lat="42.683048509061336517333984375" lon="0.53749968297779560089111328125">
        <ele>2491.60009765625</ele>
        <time>2021-08-09T07:46:15.000Z</time>
      </trkpt>
      <trkpt lat="42.68306116573512554168701171875" lon="0.5374984256923198699951171875">
        <ele>2491.60009765625</ele>
        <time>2021-08-09T07:46:23.000Z</time>
      </trkpt>
      <trkpt lat="42.68309385515749454498291015625" lon="0.53751091472804546356201171875">
        <ele>2491</ele>
        <time>2021-08-09T07:46:38.000Z</time>
      </trkpt>
      <trkpt lat="42.683095447719097137451171875" lon="0.5375088192522525787353515625">
        <ele>2491.199951171875</ele>
        <time>2021-08-09T07:46:41.000Z</time>
      </trkpt>
      <trkpt lat="42.6831226050853729248046875" lon="0.53751535713672637939453125">
        <ele>2491</ele>
        <time>2021-08-09T07:46:50.000Z</time>
      </trkpt>
      <trkpt lat="42.6831365190446376800537109375" lon="0.537478141486644744873046875">
        <ele>2491.39990234375</ele>
        <time>2021-08-09T07:46:54.000Z</time>
      </trkpt>
      <trkpt lat="42.68316124565899372100830078125" lon="0.5374462902545928955078125">
        <ele>2492</ele>
        <time>2021-08-09T07:46:59.000Z</time>
      </trkpt>
      <trkpt lat="42.683164514601230621337890625" lon="0.5374501459300518035888671875">
        <ele>2491.800048828125</ele>
        <time>2021-08-09T07:47:01.000Z</time>
      </trkpt>
      <trkpt lat="42.6832461543381214141845703125" lon="0.53744788281619548797607421875">
        <ele>2491.60009765625</ele>
        <time>2021-08-09T07:47:15.000Z</time>
      </trkpt>
      <trkpt lat="42.68326099030673503875732421875" lon="0.53746263496577739715576171875">
        <ele>2491.39990234375</ele>
        <time>2021-08-09T07:47:19.000Z</time>
      </trkpt>
      <trkpt lat="42.68337682820856571197509765625" lon="0.53741552866995334625244140625">
        <ele>2491.800048828125</ele>
        <time>2021-08-09T07:47:37.000Z</time>
      </trkpt>
      <trkpt lat="42.68338453955948352813720703125" lon="0.53740270435810089111328125">
        <ele>2492</ele>
        <time>2021-08-09T07:47:39.000Z</time>
      </trkpt>
      <trkpt lat="42.68345377407968044281005859375" lon="0.5373012833297252655029296875">
        <ele>2495.199951171875</ele>
        <time>2021-08-09T07:47:58.000Z</time>
      </trkpt>
      <trkpt lat="42.68349031917750835418701171875" lon="0.5371939949691295623779296875">
        <ele>2498</ele>
        <time>2021-08-09T07:48:17.000Z</time>
      </trkpt>
      <trkpt lat="42.68355050124228000640869140625" lon="0.53712668828666210174560546875">
        <ele>2500.39990234375</ele>
        <time>2021-08-09T07:48:35.000Z</time>
      </trkpt>
      <trkpt lat="42.68358671106398105621337890625" lon="0.53707505576312541961669921875">
        <ele>2503</ele>
        <time>2021-08-09T07:48:45.000Z</time>
      </trkpt>
      <trkpt lat="42.683605067431926727294921875" lon="0.537079833447933197021484375">
        <ele>2503.60009765625</ele>
        <time>2021-08-09T07:48:48.000Z</time>
      </trkpt>
      <trkpt lat="42.6837597973644733428955078125" lon="0.53716708905994892120361328125">
        <ele>2507.39990234375</ele>
        <time>2021-08-09T07:49:20.000Z</time>
      </trkpt>
      <trkpt lat="42.683784775435924530029296875" lon="0.53717345930635929107666015625">
        <ele>2508.39990234375</ele>
        <time>2021-08-09T07:49:25.000Z</time>
      </trkpt>
      <trkpt lat="42.683814279735088348388671875" lon="0.53718033246695995330810546875">
        <ele>2509.60009765625</ele>
        <time>2021-08-09T07:49:32.000Z</time>
      </trkpt>
      <trkpt lat="42.683904133737087249755859375" lon="0.5370441265404224395751953125">
        <ele>2514.39990234375</ele>
        <time>2021-08-09T07:50:04.000Z</time>
      </trkpt>
      <trkpt lat="42.683918215334415435791015625" lon="0.5369599722325801849365234375">
        <ele>2515.39990234375</ele>
        <time>2021-08-09T07:50:22.000Z</time>
      </trkpt>
      <trkpt lat="42.6839227415621280670166015625" lon="0.5368419550359249114990234375">
        <ele>2517</ele>
        <time>2021-08-09T07:50:54.000Z</time>
      </trkpt>
      <trkpt lat="42.68394093029201030731201171875" lon="0.53681370802223682403564453125">
        <ele>2517.60009765625</ele>
        <time>2021-08-09T07:51:00.000Z</time>
      </trkpt>
      <trkpt lat="42.68396222032606601715087890625" lon="0.53679510019719600677490234375">
        <ele>2518.39990234375</ele>
        <time>2021-08-09T07:51:04.000Z</time>
      </trkpt>
      <trkpt lat="42.683969847857952117919921875" lon="0.53678051568567752838134765625">
        <ele>2518.800048828125</ele>
        <time>2021-08-09T07:51:09.000Z</time>
      </trkpt>
      <trkpt lat="42.68397085368633270263671875" lon="0.53672770969569683074951171875">
        <ele>2519.39990234375</ele>
        <time>2021-08-09T07:51:16.000Z</time>
      </trkpt>
      <trkpt lat="42.68399423919618129730224609375" lon="0.53657750599086284637451171875">
        <ele>2521.39990234375</ele>
        <time>2021-08-09T07:51:42.000Z</time>
      </trkpt>
      <trkpt lat="42.68396054394543170928955078125" lon="0.53649435751140117645263671875">
        <ele>2522.60009765625</ele>
        <time>2021-08-09T07:51:59.000Z</time>
      </trkpt>
      <trkpt lat="42.68404922448098659515380859375" lon="0.53630341775715351104736328125">
        <ele>2526.800048828125</ele>
        <time>2021-08-09T07:52:38.000Z</time>
      </trkpt>
      <trkpt lat="42.68411879427731037139892578125" lon="0.536276511847972869873046875">
        <ele>2528.39990234375</ele>
        <time>2021-08-09T07:53:00.000Z</time>
      </trkpt>
      <trkpt lat="42.68416875042021274566650390625" lon="0.5362857319414615631103515625">
        <ele>2529.199951171875</ele>
        <time>2021-08-09T07:53:18.000Z</time>
      </trkpt>
      <trkpt lat="42.684214599430561065673828125" lon="0.53631582297384738922119140625">
        <ele>2529.39990234375</ele>
        <time>2021-08-09T07:53:34.000Z</time>
      </trkpt>
      <trkpt lat="42.68424578011035919189453125" lon="0.53634214214980602264404296875">
        <ele>2530</ele>
        <time>2021-08-09T07:53:52.000Z</time>
      </trkpt>
      <trkpt lat="42.68425256945192813873291015625" lon="0.5363465845584869384765625">
        <ele>2530.199951171875</ele>
        <time>2021-08-09T07:53:54.000Z</time>
      </trkpt>
      <trkpt lat="42.684267573058605194091796875" lon="0.53634080104529857635498046875">
        <ele>2531</ele>
        <time>2021-08-09T07:54:02.000Z</time>
      </trkpt>
      <trkpt lat="42.68430084921419620513916015625" lon="0.53630023263394832611083984375">
        <ele>2533.800048828125</ele>
        <time>2021-08-09T07:54:19.000Z</time>
      </trkpt>
      <trkpt lat="42.684301435947418212890625" lon="0.5363031663000583648681640625">
        <ele>2533.60009765625</ele>
        <time>2021-08-09T07:54:21.000Z</time>
      </trkpt>
      <trkpt lat="42.6843079738318920135498046875" lon="0.53626385517418384552001953125">
        <ele>2535.199951171875</ele>
        <time>2021-08-09T07:54:35.000Z</time>
      </trkpt>
      <trkpt lat="42.68432716839015483856201171875" lon="0.536264441907405853271484375">
        <ele>2536</ele>
        <time>2021-08-09T07:54:40.000Z</time>
      </trkpt>
      <trkpt lat="42.68438148312270641326904296875" lon="0.53627642802894115447998046875">
        <ele>2538.39990234375</ele>
        <time>2021-08-09T07:54:52.000Z</time>
      </trkpt>
      <trkpt lat="42.6844296790659427642822265625" lon="0.53627743385732173919677734375">
        <ele>2541.60009765625</ele>
        <time>2021-08-09T07:55:01.000Z</time>
      </trkpt>
      <trkpt lat="42.6844440959393978118896484375" lon="0.5362924374639987945556640625">
        <ele>2541.800048828125</ele>
        <time>2021-08-09T07:55:15.000Z</time>
      </trkpt>
      <trkpt lat="42.68444233573973178863525390625" lon="0.53628598339855670928955078125">
        <ele>2542</ele>
        <time>2021-08-09T07:55:17.000Z</time>
      </trkpt>
      <trkpt lat="42.68444350920617580413818359375" lon="0.53627726621925830841064453125">
        <ele>2542.60009765625</ele>
        <time>2021-08-09T07:55:18.000Z</time>
      </trkpt>
      <trkpt lat="42.68444753251969814300537109375" lon="0.53627307526767253875732421875">
        <ele>2543</ele>
        <time>2021-08-09T07:55:19.000Z</time>
      </trkpt>
      <trkpt lat="42.68453168682754039764404296875" lon="0.5362741649150848388671875">
        <ele>2548.39990234375</ele>
        <time>2021-08-09T07:55:34.000Z</time>
      </trkpt>
      <trkpt lat="42.6845373027026653289794921875" lon="0.53627173416316509246826171875">
        <ele>2548.800048828125</ele>
        <time>2021-08-09T07:55:35.000Z</time>
      </trkpt>
      <trkpt lat="42.68454425968229770660400390625" lon="0.536275170743465423583984375">
        <ele>2549</ele>
        <time>2021-08-09T07:55:38.000Z</time>
      </trkpt>
      <trkpt lat="42.68454476259648799896240234375" lon="0.5363155715167522430419921875">
        <ele>2547</ele>
        <time>2021-08-09T07:56:01.000Z</time>
      </trkpt>
      <trkpt lat="42.6845416612923145294189453125" lon="0.5363170802593231201171875">
        <ele>2546.800048828125</ele>
        <time>2021-08-09T07:56:06.000Z</time>
      </trkpt>
      <trkpt lat="42.68453973345458507537841796875" lon="0.5363266356289386749267578125">
        <ele>2546.199951171875</ele>
        <time>2021-08-09T07:56:10.000Z</time>
      </trkpt>
      <trkpt lat="42.6845396496355533599853515625" lon="0.536334849894046783447265625">
        <ele>2545.800048828125</ele>
        <time>2021-08-09T07:56:18.000Z</time>
      </trkpt>
      <trkpt lat="42.68456538207828998565673828125" lon="0.53634063340723514556884765625">
        <ele>2547</ele>
        <time>2021-08-09T07:56:39.000Z</time>
      </trkpt>
      <trkpt lat="42.684568651020526885986328125" lon="0.5363420583307743072509765625">
        <ele>2547</ele>
        <time>2021-08-09T07:56:42.000Z</time>
      </trkpt>
      <trkpt lat="42.684576027095317840576171875" lon="0.53633979521691799163818359375">
        <ele>2547.60009765625</ele>
        <time>2021-08-09T07:56:47.000Z</time>
      </trkpt>
      <trkpt lat="42.68458516336977481842041015625" lon="0.53634163923561573028564453125">
        <ele>2548</ele>
        <time>2021-08-09T07:56:50.000Z</time>
      </trkpt>
      <trkpt lat="42.68460787832736968994140625" lon="0.5363410525023937225341796875">
        <ele>2549.39990234375</ele>
        <time>2021-08-09T07:56:55.000Z</time>
      </trkpt>
      <trkpt lat="42.68463863991200923919677734375" lon="0.53633979521691799163818359375">
        <ele>2551.199951171875</ele>
        <time>2021-08-09T07:57:03.000Z</time>
      </trkpt>
      <trkpt lat="42.68467652611434459686279296875" lon="0.53629704751074314117431640625">
        <ele>2555.60009765625</ele>
        <time>2021-08-09T07:57:18.000Z</time>
      </trkpt>
      <trkpt lat="42.68470200709998607635498046875" lon="0.53615857847034931182861328125">
        <ele>2564</ele>
        <time>2021-08-09T07:57:49.000Z</time>
      </trkpt>
      <trkpt lat="42.68470904789865016937255859375" lon="0.53614097647368907928466796875">
        <ele>2565.199951171875</ele>
        <time>2021-08-09T07:57:52.000Z</time>
      </trkpt>
      <trkpt lat="42.68470603041350841522216796875" lon="0.5360989831387996673583984375">
        <ele>2567.199951171875</ele>
        <time>2021-08-09T07:57:58.000Z</time>
      </trkpt>
      <trkpt lat="42.68471114337444305419921875" lon="0.53607911802828311920166015625">
        <ele>2568.60009765625</ele>
        <time>2021-08-09T07:58:00.000Z</time>
      </trkpt>
      <trkpt lat="42.68476185388863086700439453125" lon="0.5360610969364643096923828125">
        <ele>2572</ele>
        <time>2021-08-09T07:58:17.000Z</time>
      </trkpt>
      <trkpt lat="42.68476746976375579833984375" lon="0.5360735021531581878662109375">
        <ele>2571.800048828125</ele>
        <time>2021-08-09T07:58:18.000Z</time>
      </trkpt>
      <trkpt lat="42.68477694131433963775634765625" lon="0.53610987961292266845703125">
        <ele>2570.60009765625</ele>
        <time>2021-08-09T07:58:23.000Z</time>
      </trkpt>
      <trkpt lat="42.6848043501377105712890625" lon="0.5361331813037395477294921875">
        <ele>2571</ele>
        <time>2021-08-09T07:58:30.000Z</time>
      </trkpt>
      <trkpt lat="42.68481683917343616485595703125" lon="0.53616193123161792755126953125">
        <ele>2570.199951171875</ele>
        <time>2021-08-09T07:58:37.000Z</time>
      </trkpt>
      <trkpt lat="42.68483058549463748931884765625" lon="0.53617048077285289764404296875">
        <ele>2570.60009765625</ele>
        <time>2021-08-09T07:58:44.000Z</time>
      </trkpt>
      <trkpt lat="42.6847884245216846466064453125" lon="0.53612597286701202392578125">
        <ele>2570.60009765625</ele>
        <time>2021-08-09T07:58:58.000Z</time>
      </trkpt>
      <trkpt lat="42.68478582613170146942138671875" lon="0.53611733950674533843994140625">
        <ele>2570.800048828125</ele>
        <time>2021-08-09T07:59:00.000Z</time>
      </trkpt>
      <trkpt lat="42.6847582496702671051025390625" lon="0.53610208444297313690185546875">
        <ele>2570</ele>
        <time>2021-08-09T07:59:05.000Z</time>
      </trkpt>
      <trkpt lat="42.6846975646913051605224609375" lon="0.53604844026267528533935546875">
        <ele>2569.199951171875</ele>
        <time>2021-08-09T07:59:15.000Z</time>
      </trkpt>
      <trkpt lat="42.68468641676008701324462890625" lon="0.53602580912411212921142578125">
        <ele>2569.800048828125</ele>
        <time>2021-08-09T07:59:18.000Z</time>
      </trkpt>
      <trkpt lat="42.6846844889223575592041015625" lon="0.53602932952344417572021484375">
        <ele>2569.39990234375</ele>
        <time>2021-08-09T07:59:21.000Z</time>
      </trkpt>
      <trkpt lat="42.684704773128032684326171875" lon="0.5359950475394725799560546875">
        <ele>2572</ele>
        <time>2021-08-09T07:59:44.000Z</time>
      </trkpt>
      <trkpt lat="42.68470737151801586151123046875" lon="0.53597308695316314697265625">
        <ele>2573</ele>
        <time>2021-08-09T07:59:49.000Z</time>
      </trkpt>
      <trkpt lat="42.6847009174525737762451171875" lon="0.5359514616429805755615234375">
        <ele>2573.60009765625</ele>
        <time>2021-08-09T08:00:08.000Z</time>
      </trkpt>
      <trkpt lat="42.68470183946192264556884765625" lon="0.535951964557170867919921875">
        <ele>2573.60009765625</ele>
        <time>2021-08-09T08:00:09.000Z</time>
      </trkpt>
      <trkpt lat="42.6847049407660961151123046875" lon="0.535911060869693756103515625">
        <ele>2575.60009765625</ele>
        <time>2021-08-09T08:00:20.000Z</time>
      </trkpt>
      <trkpt lat="42.6847495324909687042236328125" lon="0.53584995679557323455810546875">
        <ele>2580.60009765625</ele>
        <time>2021-08-09T08:00:43.000Z</time>
      </trkpt>
      <trkpt lat="42.68476353026926517486572265625" lon="0.5358129926025867462158203125">
        <ele>2582.60009765625</ele>
        <time>2021-08-09T08:00:47.000Z</time>
      </trkpt>
      <trkpt lat="42.68477551639080047607421875" lon="0.53580586798489093780517578125">
        <ele>2583.39990234375</ele>
        <time>2021-08-09T08:00:50.000Z</time>
      </trkpt>
      <trkpt lat="42.6847936213016510009765625" lon="0.53581676445901393890380859375">
        <ele>2583.800048828125</ele>
        <time>2021-08-09T08:00:59.000Z</time>
      </trkpt>
      <trkpt lat="42.68480275757610797882080078125" lon="0.535829924046993255615234375">
        <ele>2583.800048828125</ele>
        <time>2021-08-09T08:01:02.000Z</time>
      </trkpt>
      <trkpt lat="42.68481331877410411834716796875" lon="0.5358475260436534881591796875">
        <ele>2583.60009765625</ele>
        <time>2021-08-09T08:01:17.000Z</time>
      </trkpt>
      <trkpt lat="42.6848266460001468658447265625" lon="0.53585180081427097320556640625">
        <ele>2584</ele>
        <time>2021-08-09T08:01:31.000Z</time>
      </trkpt>
      <trkpt lat="42.68481231294572353363037109375" lon="0.53595925681293010711669921875">
        <ele>2579</ele>
        <time>2021-08-09T08:01:40.000Z</time>
      </trkpt>
      <trkpt lat="42.68482002429664134979248046875" lon="0.53597199730575084686279296875">
        <ele>2578.800048828125</ele>
        <time>2021-08-09T08:01:48.000Z</time>
      </trkpt>
      <trkpt lat="42.68489361740648746490478515625" lon="0.53602262400090694427490234375">
        <ele>2580.39990234375</ele>
        <time>2021-08-09T08:02:36.000Z</time>
      </trkpt>
      <trkpt lat="42.68491172231733798980712890625" lon="0.5360339395701885223388671875">
        <ele>2580.800048828125</ele>
        <time>2021-08-09T08:02:39.000Z</time>
      </trkpt>
      <trkpt lat="42.68491054885089397430419921875" lon="0.53605346940457820892333984375">
        <ele>2579.800048828125</ele>
        <time>2021-08-09T08:02:42.000Z</time>
      </trkpt>
      <trkpt lat="42.68490233458578586578369140625" lon="0.5360756814479827880859375">
        <ele>2578.39990234375</ele>
        <time>2021-08-09T08:03:24.000Z</time>
      </trkpt>
      <trkpt lat="42.6849097944796085357666015625" lon="0.53607509471476078033447265625">
        <ele>2578.800048828125</ele>
        <time>2021-08-09T08:03:37.000Z</time>
      </trkpt>
      <trkpt lat="42.68490300513803958892822265625" lon="0.53605631925165653228759765625">
        <ele>2579.39990234375</ele>
        <time>2021-08-09T08:03:56.000Z</time>
      </trkpt>
      <trkpt lat="42.68490023910999298095703125" lon="0.536055900156497955322265625">
        <ele>2579.199951171875</ele>
        <time>2021-08-09T08:04:18.000Z</time>
      </trkpt>
      <trkpt lat="42.68490049056708812713623046875" lon="0.536057911813259124755859375">
        <ele>2579.199951171875</ele>
        <time>2021-08-09T08:04:27.000Z</time>
      </trkpt>
      <trkpt lat="42.6849175058305263519287109375" lon="0.536065958440303802490234375">
        <ele>2579.60009765625</ele>
        <time>2021-08-09T08:04:52.000Z</time>
      </trkpt>
      <trkpt lat="42.6849143207073211669921875" lon="0.53608632646501064300537109375">
        <ele>2578.60009765625</ele>
        <time>2021-08-09T08:05:14.000Z</time>
      </trkpt>
      <trkpt lat="42.684923708438873291015625" lon="0.53611046634614467620849609375">
        <ele>2578</ele>
        <time>2021-08-09T08:05:27.000Z</time>
      </trkpt>
      <trkpt lat="42.6849245466291904449462890625" lon="0.5361113883554935455322265625">
        <ele>2578</ele>
        <time>2021-08-09T08:05:28.000Z</time>
      </trkpt>
      <trkpt lat="42.6849275641143321990966796875" lon="0.53611080162227153778076171875">
        <ele>2578.199951171875</ele>
        <time>2021-08-09T08:05:30.000Z</time>
      </trkpt>
      <trkpt lat="42.68492882139980792999267578125" lon="0.5361060239374637603759765625">
        <ele>2578.39990234375</ele>
        <time>2021-08-09T08:05:35.000Z</time>
      </trkpt>
      <trkpt lat="42.684932090342044830322265625" lon="0.53610811941325664520263671875">
        <ele>2578.60009765625</ele>
        <time>2021-08-09T08:05:37.000Z</time>
      </trkpt>
      <trkpt lat="42.68499872647225856781005859375" lon="0.5361080355942249298095703125">
        <ele>2582</ele>
        <time>2021-08-09T08:05:49.000Z</time>
      </trkpt>
      <trkpt lat="42.68503812141716480255126953125" lon="0.5361184291541576385498046875">
        <ele>2583.39990234375</ele>
        <time>2021-08-09T08:05:54.000Z</time>
      </trkpt>
      <trkpt lat="42.685068883001804351806640625" lon="0.536118932068347930908203125">
        <ele>2585.199951171875</ele>
        <time>2021-08-09T08:06:00.000Z</time>
      </trkpt>
      <trkpt lat="42.68508153967559337615966796875" lon="0.5360728316009044647216796875">
        <ele>2587.60009765625</ele>
        <time>2021-08-09T08:06:08.000Z</time>
      </trkpt>
      <trkpt lat="42.68507994711399078369140625" lon="0.5360268987715244293212890625">
        <ele>2589.199951171875</ele>
        <time>2021-08-09T08:06:20.000Z</time>
      </trkpt>
      <trkpt lat="42.6850804500281810760498046875" lon="0.536023713648319244384765625">
        <ele>2589.199951171875</ele>
        <time>2021-08-09T08:06:22.000Z</time>
      </trkpt>
      <trkpt lat="42.68504549749195575714111328125" lon="0.5359635315835475921630859375">
        <ele>2589.39990234375</ele>
        <time>2021-08-09T08:06:33.000Z</time>
      </trkpt>
      <trkpt lat="42.68505404703319072723388671875" lon="0.535921789705753326416015625">
        <ele>2591.39990234375</ele>
        <time>2021-08-09T08:06:44.000Z</time>
      </trkpt>
      <trkpt lat="42.685056813061237335205078125" lon="0.5358825623989105224609375">
        <ele>2593</ele>
        <time>2021-08-09T08:06:51.000Z</time>
      </trkpt>
      <trkpt lat="42.68510408699512481689453125" lon="0.53583084605634212493896484375">
        <ele>2597.800048828125</ele>
        <time>2021-08-09T08:07:09.000Z</time>
      </trkpt>
      <trkpt lat="42.68508489243686199188232421875" lon="0.53570327349007129669189453125">
        <ele>2602.60009765625</ele>
        <time>2021-08-09T08:07:26.000Z</time>
      </trkpt>
      <trkpt lat="42.68506377004086971282958984375" lon="0.53561124019324779510498046875">
        <ele>2605.60009765625</ele>
        <time>2021-08-09T08:07:42.000Z</time>
      </trkpt>
      <trkpt lat="42.68506393767893314361572265625" lon="0.53558793850243091583251953125">
        <ele>2606.800048828125</ele>
        <time>2021-08-09T08:07:46.000Z</time>
      </trkpt>
      <trkpt lat="42.685042060911655426025390625" lon="0.53555726073682308197021484375">
        <ele>2606.800048828125</ele>
        <time>2021-08-09T08:07:53.000Z</time>
      </trkpt>
      <trkpt lat="42.6850214414298534393310546875" lon="0.5355083942413330078125">
        <ele>2608</ele>
        <time>2021-08-09T08:08:02.000Z</time>
      </trkpt>
      <trkpt lat="42.685009874403476715087890625" lon="0.5354787223041057586669921875">
        <ele>2608.800048828125</ele>
        <time>2021-08-09T08:08:15.000Z</time>
      </trkpt>
      <trkpt lat="42.68501766957342624664306640625" lon="0.53537872619926929473876953125">
        <ele>2615.60009765625</ele>
        <time>2021-08-09T08:08:37.000Z</time>
      </trkpt>
      <trkpt lat="42.68501465208828449249267578125" lon="0.535343773663043975830078125">
        <ele>2617.60009765625</ele>
        <time>2021-08-09T08:08:47.000Z</time>
      </trkpt>
      <trkpt lat="42.68500627018511295318603515625" lon="0.5352862738072872161865234375">
        <ele>2620.39990234375</ele>
        <time>2021-08-09T08:08:55.000Z</time>
      </trkpt>
      <trkpt lat="42.685048095881938934326171875" lon="0.53528032265603542327880859375">
        <ele>2624.199951171875</ele>
        <time>2021-08-09T08:09:07.000Z</time>
      </trkpt>
      <trkpt lat="42.68510819412767887115478515625" lon="0.53532407619059085845947265625">
        <ele>2624.800048828125</ele>
        <time>2021-08-09T08:09:28.000Z</time>
      </trkpt>
      <trkpt lat="42.68516711890697479248046875" lon="0.5352581106126308441162109375">
        <ele>2632</ele>
        <time>2021-08-09T08:09:56.000Z</time>
      </trkpt>
      <trkpt lat="42.6851696334779262542724609375" lon="0.53524243645370006561279296875">
        <ele>2633.199951171875</ele>
        <time>2021-08-09T08:10:00.000Z</time>
      </trkpt>
      <trkpt lat="42.68516980111598968505859375" lon="0.53523925133049488067626953125">
        <ele>2633.39990234375</ele>
        <time>2021-08-09T08:10:02.000Z</time>
      </trkpt>
      <trkpt lat="42.685170471668243408203125" lon="0.5352299474179744720458984375">
        <ele>2634.199951171875</ele>
        <time>2021-08-09T08:10:05.000Z</time>
      </trkpt>
      <trkpt lat="42.68513359129428863525390625" lon="0.53511050529778003692626953125">
        <ele>2640.800048828125</ele>
        <time>2021-08-09T08:10:24.000Z</time>
      </trkpt>
      <trkpt lat="42.68513266928493976593017578125" lon="0.53509860299527645111083984375">
        <ele>2641.60009765625</ele>
        <time>2021-08-09T08:10:38.000Z</time>
      </trkpt>
      <trkpt lat="42.6851277239620685577392578125" lon="0.53508217446506023406982421875">
        <ele>2642.60009765625</ele>
        <time>2021-08-09T08:10:44.000Z</time>
      </trkpt>
      <trkpt lat="42.6851324178278446197509765625" lon="0.53506381809711456298828125">
        <ele>2644</ele>
        <time>2021-08-09T08:10:48.000Z</time>
      </trkpt>
      <trkpt lat="42.68513149581849575042724609375" lon="0.53504730574786663055419921875">
        <ele>2645</ele>
        <time>2021-08-09T08:10:53.000Z</time>
      </trkpt>
      <trkpt lat="42.68515530042350292205810546875" lon="0.53501914255321025848388671875">
        <ele>2647.800048828125</ele>
        <time>2021-08-09T08:11:01.000Z</time>
      </trkpt>
      <trkpt lat="42.68517843447625637054443359375" lon="0.53502350114285945892333984375">
        <ele>2648.60009765625</ele>
        <time>2021-08-09T08:11:08.000Z</time>
      </trkpt>
      <trkpt lat="42.68520844168961048126220703125" lon="0.53505350835621356964111328125">
        <ele>2648</ele>
        <time>2021-08-09T08:11:19.000Z</time>
      </trkpt>
      <trkpt lat="42.68530047498643398284912109375" lon="0.53510849364101886749267578125">
        <ele>2648.39990234375</ele>
        <time>2021-08-09T08:11:48.000Z</time>
      </trkpt>
      <trkpt lat="42.68531656824052333831787109375" lon="0.53511151112616062164306640625">
        <ele>2648.800048828125</ele>
        <time>2021-08-09T08:11:53.000Z</time>
      </trkpt>
      <trkpt lat="42.68533970229327678680419921875" lon="0.5351216532289981842041015625">
        <ele>2649.199951171875</ele>
        <time>2021-08-09T08:11:59.000Z</time>
      </trkpt>
      <trkpt lat="42.6853449828922748565673828125" lon="0.5351045541465282440185546875">
        <ele>2650.39990234375</ele>
        <time>2021-08-09T08:12:25.000Z</time>
      </trkpt>
      <trkpt lat="42.68534003756940364837646484375" lon="0.53508770652115345001220703125">
        <ele>2651.39990234375</ele>
        <time>2021-08-09T08:12:30.000Z</time>
      </trkpt>
      <trkpt lat="42.68533417023718357086181640625" lon="0.5350713618099689483642578125">
        <ele>2652.199951171875</ele>
        <time>2021-08-09T08:12:33.000Z</time>
      </trkpt>
      <trkpt lat="42.6853407919406890869140625" lon="0.53502467460930347442626953125">
        <ele>2655.39990234375</ele>
        <time>2021-08-09T08:12:42.000Z</time>
      </trkpt>
      <trkpt lat="42.68535613082349300384521484375" lon="0.53502132184803485870361328125">
        <ele>2655.800048828125</ele>
        <time>2021-08-09T08:12:45.000Z</time>
      </trkpt>
      <trkpt lat="42.68537088297307491302490234375" lon="0.53501763381063938140869140625">
        <ele>2656.199951171875</ele>
        <time>2021-08-09T08:12:48.000Z</time>
      </trkpt>
      <trkpt lat="42.6853832043707370758056640625" lon="0.5350214056670665740966796875">
        <ele>2656.199951171875</ele>
        <time>2021-08-09T08:12:52.000Z</time>
      </trkpt>
      <trkpt lat="42.6853925921022891998291015625" lon="0.53503557108342647552490234375">
        <ele>2655.60009765625</ele>
        <time>2021-08-09T08:12:55.000Z</time>
      </trkpt>
      <trkpt lat="42.685404829680919647216796875" lon="0.5350376665592193603515625">
        <ele>2655.800048828125</ele>
        <time>2021-08-09T08:13:02.000Z</time>
      </trkpt>
      <trkpt lat="42.68541597761213779449462890625" lon="0.53503096103668212890625">
        <ele>2656</ele>
        <time>2021-08-09T08:13:05.000Z</time>
      </trkpt>
      <trkpt lat="42.68546325154602527618408203125" lon="0.5349875427782535552978515625">
        <ele>2658.60009765625</ele>
        <time>2021-08-09T08:13:26.000Z</time>
      </trkpt>
      <trkpt lat="42.6854844577610492706298828125" lon="0.53499273955821990966796875">
        <ele>2658.60009765625</ele>
        <time>2021-08-09T08:13:30.000Z</time>
      </trkpt>
      <trkpt lat="42.68549728207290172576904296875" lon="0.5350053124129772186279296875">
        <ele>2658</ele>
        <time>2021-08-09T08:13:32.000Z</time>
      </trkpt>
      <trkpt lat="42.685504071414470672607421875" lon="0.53501025773584842681884765625">
        <ele>2657.800048828125</ele>
        <time>2021-08-09T08:13:35.000Z</time>
      </trkpt>
      <trkpt lat="42.68550641834735870361328125" lon="0.53501578979194164276123046875">
        <ele>2657.60009765625</ele>
        <time>2021-08-09T08:13:39.000Z</time>
      </trkpt>
      <trkpt lat="42.68565234728157520294189453125" lon="0.535074882209300994873046875">
        <ele>2658.39990234375</ele>
        <time>2021-08-09T08:14:15.000Z</time>
      </trkpt>
      <trkpt lat="42.6856966875493526458740234375" lon="0.535094998776912689208984375">
        <ele>2659.39990234375</ele>
        <time>2021-08-09T08:14:50.000Z</time>
      </trkpt>
      <trkpt lat="42.68571722321212291717529296875" lon="0.53508770652115345001220703125">
        <ele>2660.60009765625</ele>
        <time>2021-08-09T08:14:54.000Z</time>
      </trkpt>
      <trkpt lat="42.68573977053165435791015625" lon="0.5350832641124725341796875">
        <ele>2661.60009765625</ele>
        <time>2021-08-09T08:14:58.000Z</time>
      </trkpt>
      <trkpt lat="42.68577388487756252288818359375" lon="0.535076893866062164306640625">
        <ele>2663.199951171875</ele>
        <time>2021-08-09T08:15:05.000Z</time>
      </trkpt>
      <trkpt lat="42.68578679300844669342041015625" lon="0.535065829753875732421875">
        <ele>2664</ele>
        <time>2021-08-09T08:15:09.000Z</time>
      </trkpt>
      <trkpt lat="42.68579483963549137115478515625" lon="0.53507043980062007904052734375">
        <ele>2664.199951171875</ele>
        <time>2021-08-09T08:15:32.000Z</time>
      </trkpt>
      <trkpt lat="42.68579165451228618621826171875" lon="0.5350780673325061798095703125">
        <ele>2663.800048828125</ele>
        <time>2021-08-09T08:15:36.000Z</time>
      </trkpt>
      <trkpt lat="42.68580255098640918731689453125" lon="0.53511972539126873016357421875">
        <ele>2662.800048828125</ele>
        <time>2021-08-09T08:15:57.000Z</time>
      </trkpt>
      <trkpt lat="42.68579634837806224822998046875" lon="0.5350861139595508575439453125">
        <ele>2663.800048828125</ele>
        <time>2021-08-09T08:16:01.000Z</time>
      </trkpt>
      <trkpt lat="42.68577338196337223052978515625" lon="0.53500925190746784210205078125">
        <ele>2665.60009765625</ele>
        <time>2021-08-09T08:16:38.000Z</time>
      </trkpt>
      <trkpt lat="42.68577019684016704559326171875" lon="0.53502987138926982879638671875">
        <ele>2664.800048828125</ele>
        <time>2021-08-09T08:16:43.000Z</time>
      </trkpt>
      <trkpt lat="42.6857634074985980987548828125" lon="0.53503506816923618316650390625">
        <ele>2664.199951171875</ele>
        <time>2021-08-09T08:16:52.000Z</time>
      </trkpt>
      <trkpt lat="42.68574354238808155059814453125" lon="0.53495225496590137481689453125">
        <ele>2668.39990234375</ele>
        <time>2021-08-09T08:17:06.000Z</time>
      </trkpt>
      <trkpt lat="42.685678415000438690185546875" lon="0.5348705314099788665771484375">
        <ele>2671.39990234375</ele>
        <time>2021-08-09T08:17:21.000Z</time>
      </trkpt>
      <trkpt lat="42.68557489849627017974853515625" lon="0.53474740125238895416259765625">
        <ele>2676</ele>
        <time>2021-08-09T08:17:41.000Z</time>
      </trkpt>
      <trkpt lat="42.6855541951954364776611328125" lon="0.534680597484111785888671875">
        <ele>2680.39990234375</ele>
        <time>2021-08-09T08:17:51.000Z</time>
      </trkpt>
      <trkpt lat="42.68551823683083057403564453125" lon="0.5346460640430450439453125">
        <ele>2682</ele>
        <time>2021-08-09T08:17:57.000Z</time>
      </trkpt>
      <trkpt lat="42.6854485832154750823974609375" lon="0.53459585644304752349853515625">
        <ele>2683.800048828125</ele>
        <time>2021-08-09T08:18:10.000Z</time>
      </trkpt>
      <trkpt lat="42.68541580997407436370849609375" lon="0.534556545317173004150390625">
        <ele>2685.800048828125</ele>
        <time>2021-08-09T08:18:17.000Z</time>
      </trkpt>
      <trkpt lat="42.68531237728893756866455078125" lon="0.5343917571008205413818359375">
        <ele>2694.800048828125</ele>
        <time>2021-08-09T08:18:39.000Z</time>
      </trkpt>
      <trkpt lat="42.68529091961681842803955078125" lon="0.53437423892319202423095703125">
        <ele>2695</ele>
        <time>2021-08-09T08:18:46.000Z</time>
      </trkpt>
      <trkpt lat="42.68521799705922603607177734375" lon="0.53431875072419643402099609375">
        <ele>2696</ele>
        <time>2021-08-09T08:19:01.000Z</time>
      </trkpt>
      <trkpt lat="42.6850797794759273529052734375" lon="0.53418799303472042083740234375">
        <ele>2699.39990234375</ele>
        <time>2021-08-09T08:19:32.000Z</time>
      </trkpt>
      <trkpt lat="42.68506628461182117462158203125" lon="0.5341594107449054718017578125">
        <ele>2700</ele>
        <time>2021-08-09T08:19:37.000Z</time>
      </trkpt>
      <trkpt lat="42.68505220301449298858642578125" lon="0.53415128029882907867431640625">
        <ele>2699.60009765625</ele>
        <time>2021-08-09T08:19:40.000Z</time>
      </trkpt>
      <trkpt lat="42.68505069427192211151123046875" lon="0.5341456644237041473388671875">
        <ele>2699.800048828125</ele>
        <time>2021-08-09T08:19:41.000Z</time>
      </trkpt>
      <trkpt lat="42.6850469224154949188232421875" lon="0.53413937799632549285888671875">
        <ele>2699.800048828125</ele>
        <time>2021-08-09T08:19:43.000Z</time>
      </trkpt>
      <trkpt lat="42.68504239618778228759765625" lon="0.53413577377796173095703125">
        <ele>2699.60009765625</ele>
        <time>2021-08-09T08:19:44.000Z</time>
      </trkpt>
      <trkpt lat="42.68503979779779911041259765625" lon="0.53412831388413906097412109375">
        <ele>2699.800048828125</ele>
        <time>2021-08-09T08:19:45.000Z</time>
      </trkpt>
      <trkpt lat="42.6850269734859466552734375" lon="0.53410367108881473541259765625">
        <ele>2700</ele>
        <time>2021-08-09T08:19:50.000Z</time>
      </trkpt>
      <trkpt lat="42.68501297570765018463134765625" lon="0.53405555896461009979248046875">
        <ele>2700.60009765625</ele>
        <time>2021-08-09T08:20:07.000Z</time>
      </trkpt>
      <trkpt lat="42.68502186052501201629638671875" lon="0.53402773104608058929443359375">
        <ele>2701.60009765625</ele>
        <time>2021-08-09T08:20:12.000Z</time>
      </trkpt>
      <trkpt lat="42.68501465208828449249267578125" lon="0.5340185947716236114501953125">
        <ele>2701.60009765625</ele>
        <time>2021-08-09T08:20:16.000Z</time>
      </trkpt>
      <trkpt lat="42.68499051220715045928955078125" lon="0.53400409407913684844970703125">
        <ele>2701.199951171875</ele>
        <time>2021-08-09T08:20:21.000Z</time>
      </trkpt>
      <trkpt lat="42.68496729433536529541015625" lon="0.5340023338794708251953125">
        <ele>2700.39990234375</ele>
        <time>2021-08-09T08:20:26.000Z</time>
      </trkpt>
      <trkpt lat="42.68494240008294582366943359375" lon="0.533999316394329071044921875">
        <ele>2699.60009765625</ele>
        <time>2021-08-09T08:20:32.000Z</time>
      </trkpt>
      <trkpt lat="42.6849238760769367218017578125" lon="0.53397224284708499908447265625">
        <ele>2699.60009765625</ele>
        <time>2021-08-09T08:20:39.000Z</time>
      </trkpt>
      <trkpt lat="42.684920020401477813720703125" lon="0.53396419622004032135009765625">
        <ele>2699.60009765625</ele>
        <time>2021-08-09T08:20:44.000Z</time>
      </trkpt>
      <trkpt lat="42.68490216694772243499755859375" lon="0.53395044989883899688720703125">
        <ele>2699.39990234375</ele>
        <time>2021-08-09T08:20:52.000Z</time>
      </trkpt>
      <trkpt lat="42.6848947070538997650146484375" lon="0.53391088731586933135986328125">
        <ele>2700</ele>
        <time>2021-08-09T08:21:07.000Z</time>
      </trkpt>
      <trkpt lat="42.6849067769944667816162109375" lon="0.533868558704853057861328125">
        <ele>2702</ele>
        <time>2021-08-09T08:21:15.000Z</time>
      </trkpt>
      <trkpt lat="42.684909962117671966552734375" lon="0.53386311046779155731201171875">
        <ele>2702.39990234375</ele>
        <time>2021-08-09T08:21:16.000Z</time>
      </trkpt>
      <trkpt lat="42.68495296128094196319580078125" lon="0.5338315106928348541259765625">
        <ele>2705.39990234375</ele>
        <time>2021-08-09T08:21:26.000Z</time>
      </trkpt>
      <trkpt lat="42.68487970344722270965576171875" lon="0.53378842771053314208984375">
        <ele>2704.60009765625</ele>
        <time>2021-08-09T08:21:47.000Z</time>
      </trkpt>
      <trkpt lat="42.68482991494238376617431640625" lon="0.53376772440969944000244140625">
        <ele>2703.60009765625</ele>
        <time>2021-08-09T08:22:02.000Z</time>
      </trkpt>
      <trkpt lat="42.68479823134839534759521484375" lon="0.5335857532918453216552734375">
        <ele>2710.199951171875</ele>
        <time>2021-08-09T08:22:36.000Z</time>
      </trkpt>
      <trkpt lat="42.6847877539694309234619140625" lon="0.53357125259935855865478515625">
        <ele>2710.199951171875</ele>
        <time>2021-08-09T08:23:11.000Z</time>
      </trkpt>
      <trkpt lat="42.684785239398479461669921875" lon="0.53357242606580257415771484375">
        <ele>2710</ele>
        <time>2021-08-09T08:23:12.000Z</time>
      </trkpt>
      <trkpt lat="42.684785909950733184814453125" lon="0.53358147852122783660888671875">
        <ele>2709.800048828125</ele>
        <time>2021-08-09T08:23:17.000Z</time>
      </trkpt>
      <trkpt lat="42.684789597988128662109375" lon="0.53358189761638641357421875">
        <ele>2710</ele>
        <time>2021-08-09T08:23:20.000Z</time>
      </trkpt>
      <trkpt lat="42.68478884361684322357177734375" lon="0.53358332253992557525634765625">
        <ele>2709.800048828125</ele>
        <time>2021-08-09T08:23:22.000Z</time>
      </trkpt>
      <trkpt lat="42.68478750251233577728271484375" lon="0.53358784876763820648193359375">
        <ele>2709.60009765625</ele>
        <time>2021-08-09T08:23:24.000Z</time>
      </trkpt>
      <trkpt lat="42.6847958005964756011962890625" lon="0.53357427008450031280517578125">
        <ele>2710.39990234375</ele>
        <time>2021-08-09T08:23:37.000Z</time>
      </trkpt>
      <trkpt lat="42.68479923717677593231201171875" lon="0.53357996977865695953369140625">
        <ele>2710.39990234375</ele>
        <time>2021-08-09T08:23:40.000Z</time>
      </trkpt>
      <trkpt lat="42.68479672260582447052001953125" lon="0.53358013741672039031982421875">
        <ele>2710.39990234375</ele>
        <time>2021-08-09T08:23:42.000Z</time>
      </trkpt>
      <trkpt lat="42.6848004944622516632080078125" lon="0.53357661701738834381103515625">
        <ele>2710.60009765625</ele>
        <time>2021-08-09T08:23:51.000Z</time>
      </trkpt>
      <trkpt lat="42.6847931183874607086181640625" lon="0.53361131809651851654052734375">
        <ele>2709.199951171875</ele>
        <time>2021-08-09T08:24:02.000Z</time>
      </trkpt>
      <trkpt lat="42.68479295074939727783203125" lon="0.533615089952945709228515625">
        <ele>2709</ele>
        <time>2021-08-09T08:24:03.000Z</time>
      </trkpt>
      <trkpt lat="42.68479236401617527008056640625" lon="0.5336155928671360015869140625">
        <ele>2709</ele>
        <time>2021-08-09T08:24:04.000Z</time>
      </trkpt>
      <trkpt lat="42.684789262712001800537109375" lon="0.53360159508883953094482421875">
        <ele>2709.199951171875</ele>
        <time>2021-08-09T08:24:17.000Z</time>
      </trkpt>
      <trkpt lat="42.68479336984455585479736328125" lon="0.5336028523743152618408203125">
        <ele>2709.39990234375</ele>
        <time>2021-08-09T08:24:21.000Z</time>
      </trkpt>
      <trkpt lat="42.6847934536635875701904296875" lon="0.53358835168182849884033203125">
        <ele>2709.800048828125</ele>
        <time>2021-08-09T08:24:31.000Z</time>
      </trkpt>
      <trkpt lat="42.6847944594919681549072265625" lon="0.5335937999188899993896484375">
        <ele>2709.800048828125</ele>
        <time>2021-08-09T08:24:33.000Z</time>
      </trkpt>
      <trkpt lat="42.68478532321751117706298828125" lon="0.53361567668616771697998046875">
        <ele>2708.60009765625</ele>
        <time>2021-08-09T08:24:45.000Z</time>
      </trkpt>
      <trkpt lat="42.68478356301784515380859375" lon="0.53361349739134311676025390625">
        <ele>2708.60009765625</ele>
        <time>2021-08-09T08:24:46.000Z</time>
      </trkpt>
      <trkpt lat="42.6847964711487293243408203125" lon="0.533609054982662200927734375">
        <ele>2709.39990234375</ele>
        <time>2021-08-09T08:24:59.000Z</time>
      </trkpt>
      <trkpt lat="42.6847404800355434417724609375" lon="0.53352615796029567718505859375">
        <ele>2709.60009765625</ele>
        <time>2021-08-09T08:25:22.000Z</time>
      </trkpt>
      <trkpt lat="42.684710808098316192626953125" lon="0.53352699615061283111572265625">
        <ele>2708.39990234375</ele>
        <time>2021-08-09T08:25:26.000Z</time>
      </trkpt>
      <trkpt lat="42.6847049407660961151123046875" lon="0.53352062590420246124267578125">
        <ele>2708.199951171875</ele>
        <time>2021-08-09T08:25:27.000Z</time>
      </trkpt>
      <trkpt lat="42.68469647504389286041259765625" lon="0.53344787098467350006103515625">
        <ele>2710.199951171875</ele>
        <time>2021-08-09T08:25:36.000Z</time>
      </trkpt>
      <trkpt lat="42.68475665710866451263427734375" lon="0.5334228090941905975341796875">
        <ele>2713.60009765625</ele>
        <time>2021-08-09T08:25:49.000Z</time>
      </trkpt>
      <trkpt lat="42.68476805649697780609130859375" lon="0.53342272527515888214111328125">
        <ele>2714.199951171875</ele>
        <time>2021-08-09T08:25:52.000Z</time>
      </trkpt>
      <trkpt lat="42.68478222191333770751953125" lon="0.533415935933589935302734375">
        <ele>2715</ele>
        <time>2021-08-09T08:25:59.000Z</time>
      </trkpt>
      <trkpt lat="42.68479621969163417816162109375" lon="0.533424317836761474609375">
        <ele>2715.39990234375</ele>
        <time>2021-08-09T08:26:03.000Z</time>
      </trkpt>
      <trkpt lat="42.68482035957276821136474609375" lon="0.5334378965198993682861328125">
        <ele>2716</ele>
        <time>2021-08-09T08:26:07.000Z</time>
      </trkpt>
      <trkpt lat="42.68482823856174945831298828125" lon="0.53344535641372203826904296875">
        <ele>2716</ele>
        <time>2021-08-09T08:26:09.000Z</time>
      </trkpt>
      <trkpt lat="42.68486327491700649261474609375" lon="0.5334187857806682586669921875">
        <ele>2718.39990234375</ele>
        <time>2021-08-09T08:26:24.000Z</time>
      </trkpt>
      <trkpt lat="42.684875763952732086181640625" lon="0.533392466604709625244140625">
        <ele>2719.800048828125</ele>
        <time>2021-08-09T08:26:29.000Z</time>
      </trkpt>
      <trkpt lat="42.68491071648895740509033203125" lon="0.53338601253926753997802734375">
        <ele>2721.60009765625</ele>
        <time>2021-08-09T08:26:37.000Z</time>
      </trkpt>
      <trkpt lat="42.6849188469350337982177734375" lon="0.5333939753472805023193359375">
        <ele>2721.60009765625</ele>
        <time>2021-08-09T08:26:48.000Z</time>
      </trkpt>
      <trkpt lat="42.68493116833269596099853515625" lon="0.533372350037097930908203125">
        <ele>2722.800048828125</ele>
        <time>2021-08-09T08:26:55.000Z</time>
      </trkpt>
      <trkpt lat="42.68493234179913997650146484375" lon="0.53336472250521183013916015625">
        <ele>2723.199951171875</ele>
        <time>2021-08-09T08:27:02.000Z</time>
      </trkpt>
      <trkpt lat="42.68493686802685260772705078125" lon="0.533323399722576141357421875">
        <ele>2724.800048828125</ele>
        <time>2021-08-09T08:27:07.000Z</time>
      </trkpt>
      <trkpt lat="42.684941478073596954345703125" lon="0.53331107832491397857666015625">
        <ele>2725.39990234375</ele>
        <time>2021-08-09T08:27:09.000Z</time>
      </trkpt>
      <trkpt lat="42.68494592048227787017822265625" lon="0.5333051271736621856689453125">
        <ele>2725.800048828125</ele>
        <time>2021-08-09T08:27:12.000Z</time>
      </trkpt>
      <trkpt lat="42.68496016971766948699951171875" lon="0.5332980863749980926513671875">
        <ele>2726.60009765625</ele>
        <time>2021-08-09T08:27:18.000Z</time>
      </trkpt>
      <trkpt lat="42.68496955744922161102294921875" lon="0.53332717157900333404541015625">
        <ele>2726</ele>
        <time>2021-08-09T08:27:25.000Z</time>
      </trkpt>
      <trkpt lat="42.684977017343044281005859375" lon="0.53332842886447906494140625">
        <ele>2726.199951171875</ele>
        <time>2021-08-09T08:27:27.000Z</time>
      </trkpt>
      <trkpt lat="42.684954889118671417236328125" lon="0.53321099840104579925537109375">
        <ele>2729.60009765625</ele>
        <time>2021-08-09T08:27:40.000Z</time>
      </trkpt>
      <trkpt lat="42.6849491894245147705078125" lon="0.53319289349019527435302734375">
        <ele>2730</ele>
        <time>2021-08-09T08:27:42.000Z</time>
      </trkpt>
      <trkpt lat="42.68495799042284488677978515625" lon="0.5331197194755077362060546875">
        <ele>2733</ele>
        <time>2021-08-09T08:27:58.000Z</time>
      </trkpt>
      <trkpt lat="42.68497525714337825775146484375" lon="0.53310823626816272735595703125">
        <ele>2734.199951171875</ele>
        <time>2021-08-09T08:28:07.000Z</time>
      </trkpt>
      <trkpt lat="42.68497223965823650360107421875" lon="0.5330442823469638824462890625">
        <ele>2736.39990234375</ele>
        <time>2021-08-09T08:28:17.000Z</time>
      </trkpt>
      <trkpt lat="42.68497542478144168853759765625" lon="0.53302424959838390350341796875">
        <ele>2737.199951171875</ele>
        <time>2021-08-09T08:28:22.000Z</time>
      </trkpt>
      <trkpt lat="42.68500618636608123779296875" lon="0.53297697566449642181396484375">
        <ele>2739.800048828125</ele>
        <time>2021-08-09T08:28:38.000Z</time>
      </trkpt>
      <trkpt lat="42.68501532264053821563720703125" lon="0.532979406416416168212890625">
        <ele>2740.199951171875</ele>
        <time>2021-08-09T08:28:40.000Z</time>
      </trkpt>
      <trkpt lat="42.6850187592208385467529296875" lon="0.53298376500606536865234375">
        <ele>2740.199951171875</ele>
        <time>2021-08-09T08:28:41.000Z</time>
      </trkpt>
      <trkpt lat="42.6850194297730922698974609375" lon="0.5329886265099048614501953125">
        <ele>2740</ele>
        <time>2021-08-09T08:28:42.000Z</time>
      </trkpt>
      <trkpt lat="42.68503812141716480255126953125" lon="0.5329725332558155059814453125">
        <ele>2741.199951171875</ele>
        <time>2021-08-09T08:28:46.000Z</time>
      </trkpt>
      <trkpt lat="42.6850103773176670074462890625" lon="0.5328910611569881439208984375">
        <ele>2742.60009765625</ele>
        <time>2021-08-09T08:28:49.000Z</time>
      </trkpt>
      <trkpt lat="42.68500082194805145263671875" lon="0.5328662507236003875732421875">
        <ele>2742.800048828125</ele>
        <time>2021-08-09T08:28:51.000Z</time>
      </trkpt>
      <trkpt lat="42.6849932782351970672607421875" lon="0.53285007365047931671142578125">
        <ele>2743</ele>
        <time>2021-08-09T08:28:57.000Z</time>
      </trkpt>
      <trkpt lat="42.685054" lon="0.532545">
        <ele>2810.011</ele>
        <time>2021-08-09T10:28:24Z</time>
      </trkpt>
      <trkpt lat="42.685058" lon="0.532482">
        <ele>2810.021</ele>
        <time>2021-08-09T10:28:38Z</time>
      </trkpt>
      <trkpt lat="42.685079" lon="0.532423">
        <ele>2810.003</ele>
        <time>2021-08-09T10:28:52Z</time>
      </trkpt>
      <trkpt lat="42.685125" lon="0.532442">
        <ele>2810.008</ele>
        <time>2021-08-09T10:29:03Z</time>
      </trkpt>
      <trkpt lat="42.685171" lon="0.532451">
        <ele>2810.089</ele>
        <time>2021-08-09T10:29:11Z</time>
      </trkpt>
      <trkpt lat="42.685217" lon="0.532470">
        <ele>2810.041</ele>
        <time>2021-08-09T10:29:22Z</time>
      </trkpt>
      <trkpt lat="42.685266" lon="0.532482">
        <ele>2810.085</ele>
        <time>2021-08-09T10:29:41Z</time>
      </trkpt>
      <trkpt lat="42.685311" lon="0.532499">
        <ele>2810.050</ele>
        <time>2021-08-09T10:29:53Z</time>
      </trkpt>
      <trkpt lat="42.685357" lon="0.532498">
        <ele>2810.097</ele>
        <time>2021-08-09T10:30:13Z</time>
      </trkpt>
      <trkpt lat="42.685404" lon="0.532479">
        <ele>2810.074</ele>
        <time>2021-08-09T10:30:23Z</time>
      </trkpt>
      <trkpt lat="42.685449" lon="0.532477">
        <ele>2810.064</ele>
        <time>2021-08-09T10:30:35Z</time>
      </trkpt>
      <trkpt lat="42.685494" lon="0.532435">
        <ele>2828.232</ele>
        <time>2021-08-09T10:31:00Z</time>
      </trkpt>
      <trkpt lat="42.685565" lon="0.532448">
        <ele>2834.059</ele>
        <time>2021-08-09T10:31:12Z</time>
      </trkpt>
      <trkpt lat="42.685610" lon="0.532457">
        <ele>2834.003</ele>
        <time>2021-08-09T10:31:18Z</time>
      </trkpt>
      <trkpt lat="42.685659" lon="0.532494">
        <ele>2835.023</ele>
        <time>2021-08-09T10:31:30Z</time>
      </trkpt>
      <trkpt lat="42.685704" lon="0.532502">
        <ele>2838.008</ele>
        <time>2021-08-09T10:31:55Z</time>
      </trkpt>
      <trkpt lat="42.685750" lon="0.532500">
        <ele>2839.023</ele>
        <time>2021-08-09T10:32:07Z</time>
      </trkpt>
      <trkpt lat="42.685805" lon="0.532498">
        <ele>2841.025</ele>
        <time>2021-08-09T10:32:22Z</time>
      </trkpt>
      <trkpt lat="42.685861" lon="0.532522">
        <ele>2843.029</ele>
        <time>2021-08-09T10:32:36Z</time>
      </trkpt>
      <trkpt lat="42.685896" lon="0.532479">
        <ele>2846.014</ele>
        <time>2021-08-09T10:32:49Z</time>
      </trkpt>
      <trkpt lat="42.685901" lon="0.532417">
        <ele>2848.011</ele>
        <time>2021-08-09T10:32:59Z</time>
      </trkpt>
      <trkpt lat="42.685913" lon="0.532357">
        <ele>2852.058</ele>
        <time>2021-08-09T10:33:14Z</time>
      </trkpt>
      <trkpt lat="42.685931" lon="0.532296">
        <ele>2855.068</ele>
        <time>2021-08-09T10:33:38Z</time>
      </trkpt>
      <trkpt lat="42.685958" lon="0.532236">
        <ele>2858.036</ele>
        <time>2021-08-09T10:33:55Z</time>
      </trkpt>
      <trkpt lat="42.686005" lon="0.532226">
        <ele>2858.055</ele>
        <time>2021-08-09T10:34:00Z</time>
      </trkpt>
      <trkpt lat="42.686052" lon="0.532225">
        <ele>2861.007</ele>
        <time>2021-08-09T10:34:08Z</time>
      </trkpt>
      <trkpt lat="42.686098" lon="0.532261">
        <ele>2862.017</ele>
        <time>2021-08-09T10:34:15Z</time>
      </trkpt>
      <trkpt lat="42.686135" lon="0.532295">
        <ele>2862.008</ele>
        <time>2021-08-09T10:34:20Z</time>
      </trkpt>
      <trkpt lat="42.686172" lon="0.532338">
        <ele>2862.033</ele>
        <time>2021-08-09T10:34:27Z</time>
      </trkpt>
      <trkpt lat="42.686221" lon="0.532338">
        <ele>2862.065</ele>
        <time>2021-08-09T10:34:36Z</time>
      </trkpt>
      <trkpt lat="42.686276" lon="0.532363">
        <ele>2864.079</ele>
        <time>2021-08-09T10:34:47Z</time>
      </trkpt>
      <trkpt lat="42.686302" lon="0.532310">
        <ele>2874.074</ele>
        <time>2021-08-09T10:35:23Z</time>
      </trkpt>
      <trkpt lat="42.686318" lon="0.532248">
        <ele>2875.061</ele>
        <time>2021-08-09T10:35:40Z</time>
      </trkpt>
      <trkpt lat="42.686363" lon="0.532239">
        <ele>2876.078</ele>
        <time>2021-08-09T10:35:46Z</time>
      </trkpt>
      <trkpt lat="42.686402" lon="0.532207">
        <ele>2877.058</ele>
        <time>2021-08-09T10:35:58Z</time>
      </trkpt>
      <trkpt lat="42.686437" lon="0.532155">
        <ele>2878.046</ele>
        <time>2021-08-09T10:36:19Z</time>
      </trkpt>
      <trkpt lat="42.686457" lon="0.532092">
        <ele>2879.021</ele>
        <time>2021-08-09T10:36:31Z</time>
      </trkpt>
      <trkpt lat="42.686502" lon="0.532079">
        <ele>2880.041</ele>
        <time>2021-08-09T10:36:42Z</time>
      </trkpt>
      <trkpt lat="42.686546" lon="0.532102">
        <ele>2882.005</ele>
        <time>2021-08-09T10:36:48Z</time>
      </trkpt>
      <trkpt lat="42.686573" lon="0.532049">
        <ele>2883.008</ele>
        <time>2021-08-09T10:37:02Z</time>
      </trkpt>
      <trkpt lat="42.686619" lon="0.532053">
        <ele>2883.010</ele>
        <time>2021-08-09T10:37:06Z</time>
      </trkpt>
      <trkpt lat="42.686666" lon="0.532043">
        <ele>2884.052</ele>
        <time>2021-08-09T10:37:12Z</time>
      </trkpt>
      <trkpt lat="42.686714" lon="0.532029">
        <ele>2884.096</ele>
        <time>2021-08-09T10:37:20Z</time>
      </trkpt>
      <trkpt lat="42.686756" lon="0.531994">
        <ele>2889.061</ele>
        <time>2021-08-09T10:37:52Z</time>
      </trkpt>
      <trkpt lat="42.686805" lon="0.531974">
        <ele>2889.048</ele>
        <time>2021-08-09T10:38:29Z</time>
      </trkpt>
      <trkpt lat="42.686826" lon="0.531919">
        <ele>2894.015</ele>
        <time>2021-08-09T10:38:44Z</time>
      </trkpt>
      <trkpt lat="42.686861" lon="0.531866">
        <ele>2895.045</ele>
        <time>2021-08-09T10:38:54Z</time>
      </trkpt>
      <trkpt lat="42.686894" lon="0.531822">
        <ele>2897.043</ele>
        <time>2021-08-09T10:39:02Z</time>
      </trkpt>
      <trkpt lat="42.686939" lon="0.531850">
        <ele>2899.064</ele>
        <time>2021-08-09T10:39:12Z</time>
      </trkpt>
      <trkpt lat="42.686988" lon="0.531849">
        <ele>2900.006</ele>
        <time>2021-08-09T10:39:20Z</time>
      </trkpt>
      <trkpt lat="42.687037" lon="0.531839">
        <ele>2900.016</ele>
        <time>2021-08-09T10:39:29Z</time>
      </trkpt>
      <trkpt lat="42.687078" lon="0.531813">
        <ele>2900.008</ele>
        <time>2021-08-09T10:39:44Z</time>
      </trkpt>
      <trkpt lat="42.687118" lon="0.531776">
        <ele>2901.074</ele>
        <time>2021-08-09T10:40:02Z</time>
      </trkpt>
      <trkpt lat="42.687163" lon="0.531778">
        <ele>2906.026</ele>
        <time>2021-08-09T10:40:27Z</time>
      </trkpt>
      <trkpt lat="42.687198" lon="0.531729">
        <ele>2902.040</ele>
        <time>2021-08-09T10:40:49Z</time>
      </trkpt>
      <trkpt lat="42.687224" lon="0.531677">
        <ele>2903.045</ele>
        <time>2021-08-09T10:40:56Z</time>
      </trkpt>
      <trkpt lat="42.687239" lon="0.531615">
        <ele>2905.032</ele>
        <time>2021-08-09T10:41:08Z</time>
      </trkpt>
      <trkpt lat="42.687213" lon="0.531562">
        <ele>2907.019</ele>
        <time>2021-08-09T10:41:16Z</time>
      </trkpt>
      <trkpt lat="42.687222" lon="0.531472">
        <ele>2909.019</ele>
        <time>2021-08-09T10:41:39Z</time>
      </trkpt>
      <trkpt lat="42.687202" lon="0.531404">
        <ele>2912.097</ele>
        <time>2021-08-09T10:41:51Z</time>
      </trkpt>
      <trkpt lat="42.687208" lon="0.531336">
        <ele>2916.021</ele>
        <time>2021-08-09T10:42:05Z</time>
      </trkpt>
      <trkpt lat="42.687177" lon="0.531284">
        <ele>2917.041</ele>
        <time>2021-08-09T10:42:18Z</time>
      </trkpt>
      <trkpt lat="42.687223" lon="0.531305">
        <ele>2927.005</ele>
        <time>2021-08-09T10:44:07Z</time>
      </trkpt>
      <trkpt lat="42.687271" lon="0.531285">
        <ele>2926.008</ele>
        <time>2021-08-09T10:44:26Z</time>
      </trkpt>
      <trkpt lat="42.687318" lon="0.531288">
        <ele>2928.090</ele>
        <time>2021-08-09T10:44:55Z</time>
      </trkpt>
      <trkpt lat="42.687363" lon="0.531267">
        <ele>2927.082</ele>
        <time>2021-08-09T10:45:07Z</time>
      </trkpt>
      <trkpt lat="42.687411" lon="0.531272">
        <ele>2926.056</ele>
        <time>2021-08-09T10:45:19Z</time>
      </trkpt>
      <trkpt lat="42.687462" lon="0.531299">
        <ele>2925.091</ele>
        <time>2021-08-09T10:45:29Z</time>
      </trkpt>
      <trkpt lat="42.687506" lon="0.531282">
        <ele>2925.028</ele>
        <time>2021-08-09T10:45:44Z</time>
      </trkpt>
      <trkpt lat="42.687561" lon="0.531296">
        <ele>2926.055</ele>
        <time>2021-08-09T10:45:52Z</time>
      </trkpt>
      <trkpt lat="42.687609" lon="0.531298">
        <ele>2926.045</ele>
        <time>2021-08-09T10:45:59Z</time>
      </trkpt>
      <trkpt lat="42.687666" lon="0.531296">
        <ele>2929.093</ele>
        <time>2021-08-09T10:46:08Z</time>
      </trkpt>
      <trkpt lat="42.687719" lon="0.531271">
        <ele>2929.071</ele>
        <time>2021-08-09T10:46:18Z</time>
      </trkpt>
      <trkpt lat="42.687763" lon="0.531305">
        <ele>2931.041</ele>
        <time>2021-08-09T10:46:28Z</time>
      </trkpt>
      <trkpt lat="42.687795" lon="0.531258">
        <ele>2931.015</ele>
        <time>2021-08-09T10:46:38Z</time>
      </trkpt>
      <trkpt lat="42.687815" lon="0.531199">
        <ele>2932.008</ele>
        <time>2021-08-09T10:46:51Z</time>
      </trkpt>
      <trkpt lat="42.687862" lon="0.531162">
        <ele>2933.085</ele>
        <time>2021-08-09T10:47:17Z</time>
      </trkpt>
      <trkpt lat="42.687902" lon="0.531130">
        <ele>2937.057</ele>
        <time>2021-08-09T10:47:53Z</time>
      </trkpt>
      <trkpt lat="42.687884" lon="0.531071">
        <ele>2939.061</ele>
        <time>2021-08-09T10:48:23Z</time>
      </trkpt>
      <trkpt lat="42.687890" lon="0.531008">
        <ele>2941.096</ele>
        <time>2021-08-09T10:48:33Z</time>
      </trkpt>
      <trkpt lat="42.687876" lon="0.530942">
        <ele>2943.083</ele>
        <time>2021-08-09T10:48:49Z</time>
      </trkpt>
      <trkpt lat="42.687872" lon="0.530877">
        <ele>2947.050</ele>
        <time>2021-08-09T10:49:04Z</time>
      </trkpt>
      <trkpt lat="42.687835" lon="0.530837">
        <ele>2951.070</ele>
        <time>2021-08-09T10:50:14Z</time>
      </trkpt>
      <trkpt lat="42.687790" lon="0.530818">
        <ele>2952.048</ele>
        <time>2021-08-09T10:50:27Z</time>
      </trkpt>
      <trkpt lat="42.687837" lon="0.530824">
        <ele>2956.043</ele>
        <time>2021-08-09T10:52:21Z</time>
      </trkpt>
      <trkpt lat="42.687879" lon="0.530850">
        <ele>2955.064</ele>
        <time>2021-08-09T10:52:32Z</time>
      </trkpt>
      <trkpt lat="42.687923" lon="0.530836">
        <ele>2954.010</ele>
        <time>2021-08-09T10:52:52Z</time>
      </trkpt>
      <trkpt lat="42.687930" lon="0.530768">
        <ele>2955.008</ele>
        <time>2021-08-09T10:53:25Z</time>
      </trkpt>
      <trkpt lat="42.687948" lon="0.530705">
        <ele>2963.052</ele>
        <time>2021-08-09T10:54:23Z</time>
      </trkpt>
      <trkpt lat="42.687988" lon="0.530737">
        <ele>2963.024</ele>
        <time>2021-08-09T11:04:00Z</time>
      </trkpt>
      <trkpt lat="42.687970" lon="0.530797">
        <ele>2962.018</ele>
        <time>2021-08-09T11:04:13Z</time>
      </trkpt>
      <trkpt lat="42.687924" lon="0.530837">
        <ele>2962.023</ele>
        <time>2021-08-09T11:04:38Z</time>
      </trkpt>
      <trkpt lat="42.687876" lon="0.530858">
        <ele>2958.050</ele>
        <time>2021-08-09T11:04:53Z</time>
      </trkpt>
      <trkpt lat="42.687817" lon="0.530857">
        <ele>2956.067</ele>
        <time>2021-08-09T11:05:21Z</time>
      </trkpt>
      <trkpt lat="42.687772" lon="0.530841">
        <ele>2955.097</ele>
        <time>2021-08-09T11:05:56Z</time>
      </trkpt>
      <trkpt lat="42.687709" lon="0.530858">
        <ele>2955.015</ele>
        <time>2021-08-09T11:06:16Z</time>
      </trkpt>
      <trkpt lat="42.687688" lon="0.530801">
        <ele>2954.028</ele>
        <time>2021-08-09T11:06:47Z</time>
      </trkpt>
      <trkpt lat="42.687729" lon="0.530831">
        <ele>2956.089</ele>
        <time>2021-08-09T11:07:36Z</time>
      </trkpt>
      <trkpt lat="42.687769" lon="0.530871">
        <ele>2956.017</ele>
        <time>2021-08-09T11:08:05Z</time>
      </trkpt>
      <trkpt lat="42.687801" lon="0.530815">
        <ele>2955.008</ele>
        <time>2021-08-09T11:08:23Z</time>
      </trkpt>
      <trkpt lat="42.687843" lon="0.530790">
        <ele>2954.080</ele>
        <time>2021-08-09T11:08:36Z</time>
      </trkpt>
      <trkpt lat="42.687867" lon="0.530731">
        <ele>2959.052</ele>
        <time>2021-08-09T11:09:27Z</time>
      </trkpt>
      <trkpt lat="42.687864" lon="0.530670">
        <ele>2960.016</ele>
        <time>2021-08-09T11:10:03Z</time>
      </trkpt>
      <trkpt lat="42.687849" lon="0.530733">
        <ele>2962.041</ele>
        <time>2021-08-09T11:12:15Z</time>
      </trkpt>
      <trkpt lat="42.687814" lon="0.530786">
        <ele>2961.048</ele>
        <time>2021-08-09T11:12:46Z</time>
      </trkpt>
      <trkpt lat="42.687836" lon="0.530845">
        <ele>2957.075</ele>
        <time>2021-08-09T11:13:01Z</time>
      </trkpt>
      <trkpt lat="42.687886" lon="0.530864">
        <ele>2954.065</ele>
        <time>2021-08-09T11:13:15Z</time>
      </trkpt>
      <trkpt lat="42.687889" lon="0.530926">
        <ele>2951.033</ele>
        <time>2021-08-09T11:13:29Z</time>
      </trkpt>
      <trkpt lat="42.687869" lon="0.530981">
        <ele>2947.039</ele>
        <time>2021-08-09T11:13:50Z</time>
      </trkpt>
      <trkpt lat="42.687869" lon="0.531052">
        <ele>2943.001</ele>
        <time>2021-08-09T11:14:35Z</time>
      </trkpt>
      <trkpt lat="42.687909" lon="0.531096">
        <ele>2939.021</ele>
        <time>2021-08-09T11:14:55Z</time>
      </trkpt>
      <trkpt lat="42.687927" lon="0.531152">
        <ele>2938.008</ele>
        <time>2021-08-09T11:15:00Z</time>
      </trkpt>
      <trkpt lat="42.687971" lon="0.531184">
        <ele>2938.091</ele>
        <time>2021-08-09T11:15:07Z</time>
      </trkpt>
      <trkpt lat="42.688018" lon="0.531208">
        <ele>2938.023</ele>
        <time>2021-08-09T11:15:20Z</time>
      </trkpt>
      <trkpt lat="42.688049" lon="0.531260">
        <ele>2934.027</ele>
        <time>2021-08-09T11:15:34Z</time>
      </trkpt>
      <trkpt lat="42.688079" lon="0.531313">
        <ele>2933.082</ele>
        <time>2021-08-09T11:15:38Z</time>
      </trkpt>
      <trkpt lat="42.688121" lon="0.531350">
        <ele>2934.019</ele>
        <time>2021-08-09T11:15:44Z</time>
      </trkpt>
      <trkpt lat="42.688170" lon="0.531371">
        <ele>2936.066</ele>
        <time>2021-08-09T11:16:32Z</time>
      </trkpt>
      <trkpt lat="42.688216" lon="0.531370">
        <ele>2936.076</ele>
        <time>2021-08-09T11:16:37Z</time>
      </trkpt>
      <trkpt lat="42.688262" lon="0.531396">
        <ele>2936.084</ele>
        <time>2021-08-09T11:16:43Z</time>
      </trkpt>
      <trkpt lat="42.688309" lon="0.531405">
        <ele>2937.097</ele>
        <time>2021-08-09T11:16:49Z</time>
      </trkpt>
      <trkpt lat="42.688362" lon="0.531399">
        <ele>2939.023</ele>
        <time>2021-08-09T11:16:56Z</time>
      </trkpt>
      <trkpt lat="42.688410" lon="0.531413">
        <ele>2941.025</ele>
        <time>2021-08-09T11:17:03Z</time>
      </trkpt>
      <trkpt lat="42.688457" lon="0.531426">
        <ele>2940.008</ele>
        <time>2021-08-09T11:17:08Z</time>
      </trkpt>
      <trkpt lat="42.688502" lon="0.531446">
        <ele>2942.087</ele>
        <time>2021-08-09T11:17:28Z</time>
      </trkpt>
      <trkpt lat="42.688550" lon="0.531436">
        <ele>2941.049</ele>
        <time>2021-08-09T11:17:34Z</time>
      </trkpt>
      <trkpt lat="42.688502" lon="0.531413">
        <ele>2941.033</ele>
        <time>2021-08-09T11:18:21Z</time>
      </trkpt>
      <trkpt lat="42.688496" lon="0.531344">
        <ele>2941.028</ele>
        <time>2021-08-09T11:18:27Z</time>
      </trkpt>
      <trkpt lat="42.688529" lon="0.531296">
        <ele>2940.095</ele>
        <time>2021-08-09T11:18:34Z</time>
      </trkpt>
      <trkpt lat="42.688565" lon="0.531243">
        <ele>2939.012</ele>
        <time>2021-08-09T11:18:41Z</time>
      </trkpt>
      <trkpt lat="42.688591" lon="0.531178">
        <ele>2940.092</ele>
        <time>2021-08-09T11:18:46Z</time>
      </trkpt>
      <trkpt lat="42.688631" lon="0.531139">
        <ele>2940.050</ele>
        <time>2021-08-09T11:18:51Z</time>
      </trkpt>
      <trkpt lat="42.688633" lon="0.531066">
        <ele>2941.091</ele>
        <time>2021-08-09T11:19:04Z</time>
      </trkpt>
      <trkpt lat="42.688627" lon="0.531002">
        <ele>2944.081</ele>
        <time>2021-08-09T11:19:21Z</time>
      </trkpt>
      <trkpt lat="42.688631" lon="0.530924">
        <ele>2946.019</ele>
        <time>2021-08-09T11:19:33Z</time>
      </trkpt>
      <trkpt lat="42.688628" lon="0.530862">
        <ele>2947.008</ele>
        <time>2021-08-09T11:19:45Z</time>
      </trkpt>
      <trkpt lat="42.688630" lon="0.530798">
        <ele>2951.087</ele>
        <time>2021-08-09T11:20:04Z</time>
      </trkpt>
      <trkpt lat="42.688628" lon="0.530730">
        <ele>2953.099</ele>
        <time>2021-08-09T11:20:21Z</time>
      </trkpt>
      <trkpt lat="42.688636" lon="0.530670">
        <ele>2956.053</ele>
        <time>2021-08-09T11:20:38Z</time>
      </trkpt>
      <trkpt lat="42.688629" lon="0.530599">
        <ele>2961.048</ele>
        <time>2021-08-09T11:20:54Z</time>
      </trkpt>
      <trkpt lat="42.688615" lon="0.530539">
        <ele>2962.085</ele>
        <time>2021-08-09T11:21:16Z</time>
      </trkpt>
      <trkpt lat="42.688631" lon="0.530478">
        <ele>2965.012</ele>
        <time>2021-08-09T11:21:31Z</time>
      </trkpt>
      <trkpt lat="42.688590" lon="0.530449">
        <ele>2967.062</ele>
        <time>2021-08-09T11:21:47Z</time>
      </trkpt>
      <trkpt lat="42.688584" lon="0.530386">
        <ele>2970.040</ele>
        <time>2021-08-09T11:22:06Z</time>
      </trkpt>
      <trkpt lat="42.688608" lon="0.530329">
        <ele>2976.048</ele>
        <time>2021-08-09T11:22:31Z</time>
      </trkpt>
      <trkpt lat="42.688589" lon="0.530272">
        <ele>2975.061</ele>
        <time>2021-08-09T11:22:46Z</time>
      </trkpt>
      <trkpt lat="42.688601" lon="0.530208">
        <ele>2980.017</ele>
        <time>2021-08-09T11:23:19Z</time>
      </trkpt>
      <trkpt lat="42.688647" lon="0.530171">
        <ele>2984.008</ele>
        <time>2021-08-09T11:23:33Z</time>
      </trkpt>
      <trkpt lat="42.688672" lon="0.530106">
        <ele>2988.012</ele>
        <time>2021-08-09T11:23:54Z</time>
      </trkpt>
      <trkpt lat="42.688652" lon="0.530050">
        <ele>2988.064</ele>
        <time>2021-08-09T11:24:08Z</time>
      </trkpt>
      <trkpt lat="42.688669" lon="0.529991">
        <ele>2993.098</ele>
        <time>2021-08-09T11:25:28Z</time>
      </trkpt>
      <trkpt lat="42.688713" lon="0.529970">
        <ele>2993.033</ele>
        <time>2021-08-09T11:25:47Z</time>
      </trkpt>
      <trkpt lat="42.688695" lon="0.529910">
        <ele>2996.040</ele>
        <time>2021-08-09T11:26:07Z</time>
      </trkpt>
      <trkpt lat="42.688649" lon="0.529880">
        <ele>2995.087</ele>
        <time>2021-08-09T11:26:18Z</time>
      </trkpt>
      <trkpt lat="42.688676" lon="0.529824">
        <ele>3004.067</ele>
        <time>2021-08-09T11:26:55Z</time>
      </trkpt>
      <trkpt lat="42.688701" lon="0.529772">
        <ele>3006.025</ele>
        <time>2021-08-09T11:27:20Z</time>
      </trkpt>
      <trkpt lat="42.688682" lon="0.529712">
        <ele>3008.028</ele>
        <time>2021-08-09T11:27:46Z</time>
      </trkpt>
      <trkpt lat="42.688717" lon="0.529668">
        <ele>3009.089</ele>
        <time>2021-08-09T11:28:01Z</time>
      </trkpt>
      <trkpt lat="42.688762" lon="0.529662">
        <ele>3018.017</ele>
        <time>2021-08-09T11:28:22Z</time>
      </trkpt>
      <trkpt lat="42.688729" lon="0.529619">
        <ele>3018.008</ele>
        <time>2021-08-09T11:28:48Z</time>
      </trkpt>
      <trkpt lat="42.688738" lon="0.529550">
        <ele>3021.060</ele>
        <time>2021-08-09T11:29:17Z</time>
      </trkpt>
      <trkpt lat="42.688766" lon="0.529500">
        <ele>3024.022</ele>
        <time>2021-08-09T11:29:41Z</time>
      </trkpt>
      <trkpt lat="42.688797" lon="0.529455">
        <ele>3027.096</ele>
        <time>2021-08-09T11:29:57Z</time>
      </trkpt>
      <trkpt lat="42.688760" lon="0.529419">
        <ele>3029.061</ele>
        <time>2021-08-09T11:30:14Z</time>
      </trkpt>
      <trkpt lat="42.688800" lon="0.529366">
        <ele>3033.048</ele>
        <time>2021-08-09T11:31:28Z</time>
      </trkpt>
      <trkpt lat="42.688829" lon="0.529314">
        <ele>3037.055</ele>
        <time>2021-08-09T11:31:55Z</time>
      </trkpt>
      <trkpt lat="42.688824" lon="0.529252">
        <ele>3041.045</ele>
        <time>2021-08-09T11:32:17Z</time>
      </trkpt>
      <trkpt lat="42.688873" lon="0.529253">
        <ele>3046.043</ele>
        <time>2021-08-09T11:32:45Z</time>
      </trkpt>
      <trkpt lat="42.688893" lon="0.529194">
        <ele>3045.065</ele>
        <time>2021-08-09T11:33:04Z</time>
      </trkpt>
      <trkpt lat="42.688939" lon="0.529179">
        <ele>3050.068</ele>
        <time>2021-08-09T11:33:35Z</time>
      </trkpt>
      <trkpt lat="42.688990" lon="0.529157">
        <ele>3051.014</ele>
        <time>2021-08-09T11:33:54Z</time>
      </trkpt>
      <trkpt lat="42.689006" lon="0.529097">
        <ele>3052.008</ele>
        <time>2021-08-09T11:34:11Z</time>
      </trkpt>
      <trkpt lat="42.688995" lon="0.529037">
        <ele>3053.074</ele>
        <time>2021-08-09T11:34:52Z</time>
      </trkpt>
      <trkpt lat="42.688971" lon="0.528985">
        <ele>3056.026</ele>
        <time>2021-08-09T11:35:14Z</time>
      </trkpt>
      <trkpt lat="42.688942" lon="0.528937">
        <ele>3058.050</ele>
        <time>2021-08-09T11:35:33Z</time>
      </trkpt>
      <trkpt lat="42.688972" lon="0.528864">
        <ele>3062.065</ele>
        <time>2021-08-09T11:36:10Z</time>
      </trkpt>
      <trkpt lat="42.688953" lon="0.528798">
        <ele>3062.082</ele>
        <time>2021-08-09T11:36:35Z</time>
      </trkpt>
      <trkpt lat="42.688931" lon="0.528738">
        <ele>3065.039</ele>
        <time>2021-08-09T11:36:51Z</time>
      </trkpt>
      <trkpt lat="42.688921" lon="0.528651">
        <ele>3070.059</ele>
        <time>2021-08-09T11:37:53Z</time>
      </trkpt>
      <trkpt lat="42.688926" lon="0.528585">
        <ele>3070.027</ele>
        <time>2021-08-09T11:38:08Z</time>
      </trkpt>
      <trkpt lat="42.688957" lon="0.528532">
        <ele>3070.076</ele>
        <time>2021-08-09T11:38:25Z</time>
      </trkpt>
      <trkpt lat="42.688986" lon="0.528478">
        <ele>3073.090</ele>
        <time>2021-08-09T11:38:38Z</time>
      </trkpt>
      <trkpt lat="42.689007" lon="0.528422">
        <ele>3075.019</ele>
        <time>2021-08-09T11:38:58Z</time>
      </trkpt>
      <trkpt lat="42.689037" lon="0.528362">
        <ele>3077.008</ele>
        <time>2021-08-09T11:39:25Z</time>
      </trkpt>
      <trkpt lat="42.689063" lon="0.528306">
        <ele>3081.085</ele>
        <time>2021-08-09T11:39:43Z</time>
      </trkpt>
      <trkpt lat="42.689101" lon="0.528273">
        <ele>3084.017</ele>
        <time>2021-08-09T11:40:24Z</time>
      </trkpt>
      <trkpt lat="42.689107" lon="0.528212">
        <ele>3084.021</ele>
        <time>2021-08-09T11:40:43Z</time>
      </trkpt>
      <trkpt lat="42.689147" lon="0.528178">
        <ele>3085.026</ele>
        <time>2021-08-09T11:40:58Z</time>
      </trkpt>
      <trkpt lat="42.689173" lon="0.528122">
        <ele>3087.083</ele>
        <time>2021-08-09T11:41:20Z</time>
      </trkpt>
      <trkpt lat="42.689162" lon="0.528058">
        <ele>3089.090</ele>
        <time>2021-08-09T11:41:40Z</time>
      </trkpt>
      <trkpt lat="42.689191" lon="0.528009">
        <ele>3091.040</ele>
        <time>2021-08-09T11:41:51Z</time>
      </trkpt>
      <trkpt lat="42.689217" lon="0.527957">
        <ele>3094.098</ele>
        <time>2021-08-09T11:42:22Z</time>
      </trkpt>
      <trkpt lat="42.689227" lon="0.527896">
        <ele>3094.049</ele>
        <time>2021-08-09T11:42:48Z</time>
      </trkpt>
      <trkpt lat="42.689231" lon="0.527828">
        <ele>3096.002</ele>
        <time>2021-08-09T11:43:08Z</time>
      </trkpt>
      <trkpt lat="42.689273" lon="0.527800">
        <ele>3102.022</ele>
        <time>2021-08-09T11:43:37Z</time>
      </trkpt>
      <trkpt lat="42.689306" lon="0.527749">
        <ele>3104.008</ele>
        <time>2021-08-09T11:44:18Z</time>
      </trkpt>
      <trkpt lat="42.689329" lon="0.527694">
        <ele>3104.012</ele>
        <time>2021-08-09T11:44:34Z</time>
      </trkpt>
      <trkpt lat="42.689336" lon="0.527628">
        <ele>3108.054</ele>
        <time>2021-08-09T11:45:09Z</time>
      </trkpt>
      <trkpt lat="42.689348" lon="0.527563">
        <ele>3109.038</ele>
        <time>2021-08-09T11:45:27Z</time>
      </trkpt>
      <trkpt lat="42.689375" lon="0.527513">
        <ele>3115.073</ele>
        <time>2021-08-09T11:46:17Z</time>
      </trkpt>
      <trkpt lat="42.689391" lon="0.527455">
        <ele>3115.030</ele>
        <time>2021-08-09T11:46:28Z</time>
      </trkpt>
      <trkpt lat="42.689425" lon="0.527409">
        <ele>3117.057</ele>
        <time>2021-08-09T11:46:49Z</time>
      </trkpt>
      <trkpt lat="42.689463" lon="0.527363">
        <ele>3121.047</ele>
        <time>2021-08-09T11:47:01Z</time>
      </trkpt>
      <trkpt lat="42.689461" lon="0.527301">
        <ele>3123.045</ele>
        <time>2021-08-09T11:47:18Z</time>
      </trkpt>
      <trkpt lat="42.689470" lon="0.527239">
        <ele>3124.089</ele>
        <time>2021-08-09T11:47:25Z</time>
      </trkpt>
      <trkpt lat="42.689499" lon="0.527191">
        <ele>3128.006</ele>
        <time>2021-08-09T11:47:36Z</time>
      </trkpt>
      <trkpt lat="42.689544" lon="0.527175">
        <ele>3132.026</ele>
        <time>2021-08-09T11:48:16Z</time>
      </trkpt>
      <trkpt lat="42.689583" lon="0.527145">
        <ele>3135.008</ele>
        <time>2021-08-09T11:48:36Z</time>
      </trkpt>
      <trkpt lat="42.689628" lon="0.527124">
        <ele>3134.016</ele>
        <time>2021-08-09T11:49:09Z</time>
      </trkpt>
      <trkpt lat="42.689645" lon="0.527054">
        <ele>3137.088</ele>
        <time>2021-08-09T11:49:40Z</time>
      </trkpt>
      <trkpt lat="42.689668" lon="0.526999">
        <ele>3138.022</ele>
        <time>2021-08-09T11:49:51Z</time>
      </trkpt>
      <trkpt lat="42.689717" lon="0.526979">
        <ele>3140.087</ele>
        <time>2021-08-09T11:50:13Z</time>
      </trkpt>
      <trkpt lat="42.689712" lon="0.526916">
        <ele>3142.034</ele>
        <time>2021-08-09T11:50:43Z</time>
      </trkpt>
      <trkpt lat="42.689730" lon="0.526860">
        <ele>3140.041</ele>
        <time>2021-08-09T11:51:25Z</time>
      </trkpt>
      <trkpt lat="42.689747" lon="0.526798">
        <ele>3144.061</ele>
        <time>2021-08-09T11:51:45Z</time>
      </trkpt>
      <trkpt lat="42.689752" lon="0.526736">
        <ele>3147.049</ele>
        <time>2021-08-09T11:52:23Z</time>
      </trkpt>
      <trkpt lat="42.689756" lon="0.526671">
        <ele>3150.054</ele>
        <time>2021-08-09T11:52:43Z</time>
      </trkpt>
      <trkpt lat="42.689728" lon="0.526615">
        <ele>3153.056</ele>
        <time>2021-08-09T11:53:02Z</time>
      </trkpt>
      <trkpt lat="42.689708" lon="0.526552">
        <ele>3155.011</ele>
        <time>2021-08-09T11:53:53Z</time>
      </trkpt>
      <trkpt lat="42.689711" lon="0.526482">
        <ele>3160.008</ele>
        <time>2021-08-09T11:54:09Z</time>
      </trkpt>
      <trkpt lat="42.689749" lon="0.526437">
        <ele>3162.073</ele>
        <time>2021-08-09T11:54:24Z</time>
      </trkpt>
      <trkpt lat="42.689775" lon="0.526385">
        <ele>3165.025</ele>
        <time>2021-08-09T11:54:33Z</time>
      </trkpt>
      <trkpt lat="42.689804" lon="0.526333">
        <ele>3166.019</ele>
        <time>2021-08-09T11:55:36Z</time>
      </trkpt>
      <trkpt lat="42.689837" lon="0.526287">
        <ele>3167.074</ele>
        <time>2021-08-09T11:55:55Z</time>
      </trkpt>
      <trkpt lat="42.689837" lon="0.526225">
        <ele>3168.071</ele>
        <time>2021-08-09T11:56:17Z</time>
      </trkpt>
      <trkpt lat="42.689860" lon="0.526172">
        <ele>3171.038</ele>
        <time>2021-08-09T11:56:29Z</time>
      </trkpt>
      <trkpt lat="42.689871" lon="0.526112">
        <ele>3172.078</ele>
        <time>2021-08-09T11:56:37Z</time>
      </trkpt>
      <trkpt lat="42.689894" lon="0.526057">
        <ele>3174.036</ele>
        <time>2021-08-09T11:56:43Z</time>
      </trkpt>
      <trkpt lat="42.689903" lon="0.525980">
        <ele>3174.086</ele>
        <time>2021-08-09T11:56:53Z</time>
      </trkpt>
      <trkpt lat="42.689924" lon="0.525923">
        <ele>3174.060</ele>
        <time>2021-08-09T11:57:02Z</time>
      </trkpt>
      <trkpt lat="42.689952" lon="0.525874">
        <ele>3176.026</ele>
        <time>2021-08-09T11:57:09Z</time>
      </trkpt>
      <trkpt lat="42.689981" lon="0.525826">
        <ele>3177.008</ele>
        <time>2021-08-09T11:57:19Z</time>
      </trkpt>
      <trkpt lat="42.690018" lon="0.525785">
        <ele>3180.066</ele>
        <time>2021-08-09T11:57:28Z</time>
      </trkpt>
      <trkpt lat="42.690043" lon="0.525731">
        <ele>3186.058</ele>
        <time>2021-08-09T11:58:06Z</time>
      </trkpt>
      <trkpt lat="42.690051" lon="0.525662">
        <ele>3185.072</ele>
        <time>2021-08-09T11:58:27Z</time>
      </trkpt>
      <trkpt lat="42.690060" lon="0.525601">
        <ele>3183.067</ele>
        <time>2021-08-09T11:58:33Z</time>
      </trkpt>
      <trkpt lat="42.690056" lon="0.525539">
        <ele>3184.064</ele>
        <time>2021-08-09T11:58:41Z</time>
      </trkpt>
      <trkpt lat="42.690065" lon="0.525474">
        <ele>3183.051</ele>
        <time>2021-08-09T11:58:47Z</time>
      </trkpt>
      <trkpt lat="42.690083" lon="0.525408">
        <ele>3183.031</ele>
        <time>2021-08-09T11:58:53Z</time>
      </trkpt>
      <trkpt lat="42.690089" lon="0.525342">
        <ele>3183.029</ele>
        <time>2021-08-09T11:58:58Z</time>
      </trkpt>
      <trkpt lat="42.690098" lon="0.525277">
        <ele>3182.041</ele>
        <time>2021-08-09T11:59:03Z</time>
      </trkpt>
      <trkpt lat="42.690105" lon="0.525216">
        <ele>3182.081</ele>
        <time>2021-08-09T11:59:09Z</time>
      </trkpt>
      <trkpt lat="42.690121" lon="0.525146">
        <ele>3182.009</ele>
        <time>2021-08-09T11:59:14Z</time>
      </trkpt>
      <trkpt lat="42.690127" lon="0.525072">
        <ele>3182.008</ele>
        <time>2021-08-09T11:59:20Z</time>
      </trkpt>
      <trkpt lat="42.690147" lon="0.525008">
        <ele>3181.062</ele>
        <time>2021-08-09T11:59:25Z</time>
      </trkpt>
      <trkpt lat="42.690171" lon="0.524948">
        <ele>3181.014</ele>
        <time>2021-08-09T11:59:32Z</time>
      </trkpt>
      <trkpt lat="42.690179" lon="0.524887">
        <ele>3181.098</ele>
        <time>2021-08-09T11:59:38Z</time>
      </trkpt>
      <trkpt lat="42.690217" lon="0.524845">
        <ele>3182.063</ele>
        <time>2021-08-09T11:59:43Z</time>
      </trkpt>
      <trkpt lat="42.690244" lon="0.524794">
        <ele>3183.030</ele>
        <time>2021-08-09T11:59:49Z</time>
      </trkpt>
      <trkpt lat="42.690267" lon="0.524733">
        <ele>3185.047</ele>
        <time>2021-08-09T11:59:58Z</time>
      </trkpt>
      <trkpt lat="42.690287" lon="0.524668">
        <ele>3187.017</ele>
        <time>2021-08-09T12:00:06Z</time>
      </trkpt>
      <trkpt lat="42.690299" lon="0.524603">
        <ele>3189.045</ele>
        <time>2021-08-09T12:00:14Z</time>
      </trkpt>
      <trkpt lat="42.690309" lon="0.524536">
        <ele>3190.012</ele>
        <time>2021-08-09T12:00:23Z</time>
      </trkpt>
      <trkpt lat="42.690324" lon="0.524467">
        <ele>3192.032</ele>
        <time>2021-08-09T12:00:51Z</time>
      </trkpt>
      <trkpt lat="42.690339" lon="0.524408">
        <ele>3192.005</ele>
        <time>2021-08-09T12:00:56Z</time>
      </trkpt>
      <trkpt lat="42.690346" lon="0.524345">
        <ele>3191.008</ele>
        <time>2021-08-09T12:01:02Z</time>
      </trkpt>
      <trkpt lat="42.690383" lon="0.524308">
        <ele>3197.079</ele>
        <time>2021-08-09T12:01:55Z</time>
      </trkpt>
      <trkpt lat="42.690418" lon="0.524270">
        <ele>3198.081</ele>
        <time>2021-08-09T12:02:03Z</time>
      </trkpt>
      <trkpt lat="42.690428" lon="0.524208">
        <ele>3197.095</ele>
        <time>2021-08-09T12:02:09Z</time>
      </trkpt>
      <trkpt lat="42.690441" lon="0.524148">
        <ele>3196.080</ele>
        <time>2021-08-09T12:02:14Z</time>
      </trkpt>
      <trkpt lat="42.690457" lon="0.524068">
        <ele>3195.097</ele>
        <time>2021-08-09T12:02:23Z</time>
      </trkpt>
      <trkpt lat="42.690469" lon="0.524007">
        <ele>3195.054</ele>
        <time>2021-08-09T12:02:27Z</time>
      </trkpt>
      <trkpt lat="42.690487" lon="0.523940">
        <ele>3196.034</ele>
        <time>2021-08-09T12:02:33Z</time>
      </trkpt>
      <trkpt lat="42.690508" lon="0.523878">
        <ele>3198.062</ele>
        <time>2021-08-09T12:02:39Z</time>
      </trkpt>
      <trkpt lat="42.690519" lon="0.523808">
        <ele>3199.071</ele>
        <time>2021-08-09T12:02:45Z</time>
      </trkpt>
      <trkpt lat="42.690544" lon="0.523738">
        <ele>3201.041</ele>
        <time>2021-08-09T12:02:58Z</time>
      </trkpt>
      <trkpt lat="42.690540" lon="0.523671">
        <ele>3201.015</ele>
        <time>2021-08-09T12:03:04Z</time>
      </trkpt>
      <trkpt lat="42.690518" lon="0.523609">
        <ele>3201.008</ele>
        <time>2021-08-09T12:03:10Z</time>
      </trkpt>
      <trkpt lat="42.690513" lon="0.523541">
        <ele>3203.015</ele>
        <time>2021-08-09T12:03:17Z</time>
      </trkpt>
      <trkpt lat="42.690547" lon="0.523488">
        <ele>3203.017</ele>
        <time>2021-08-09T12:03:25Z</time>
      </trkpt>
      <trkpt lat="42.690581" lon="0.523420">
        <ele>3205.091</ele>
        <time>2021-08-09T12:03:37Z</time>
      </trkpt>
      <trkpt lat="42.690605" lon="0.523349">
        <ele>3206.076</ele>
        <time>2021-08-09T12:03:48Z</time>
      </trkpt>
      <trkpt lat="42.690596" lon="0.523284">
        <ele>3207.023</ele>
        <time>2021-08-09T12:03:55Z</time>
      </trkpt>
      <trkpt lat="42.690599" lon="0.523220">
        <ele>3207.050</ele>
        <time>2021-08-09T12:04:00Z</time>
      </trkpt>
      <trkpt lat="42.690612" lon="0.523153">
        <ele>3207.040</ele>
        <time>2021-08-09T12:04:05Z</time>
      </trkpt>
      <trkpt lat="42.690618" lon="0.523081">
        <ele>3206.078</ele>
        <time>2021-08-09T12:04:12Z</time>
      </trkpt>
      <trkpt lat="42.690666" lon="0.523040">
        <ele>3209.084</ele>
        <time>2021-08-09T12:04:20Z</time>
      </trkpt>
      <trkpt lat="42.690698" lon="0.522993">
        <ele>3211.007</ele>
        <time>2021-08-09T12:04:36Z</time>
      </trkpt>
      <trkpt lat="42.690717" lon="0.522937">
        <ele>3212.017</ele>
        <time>2021-08-09T12:04:46Z</time>
      </trkpt>
      <trkpt lat="42.690738" lon="0.522876">
        <ele>3213.008</ele>
        <time>2021-08-09T12:04:55Z</time>
      </trkpt>
      <trkpt lat="42.690769" lon="0.522827">
        <ele>3216.056</ele>
        <time>2021-08-09T12:05:32Z</time>
      </trkpt>
      <trkpt lat="42.690766" lon="0.522734">
        <ele>3216.048</ele>
        <time>2021-08-09T12:05:42Z</time>
      </trkpt>
      <trkpt lat="42.690782" lon="0.522675">
        <ele>3216.022</ele>
        <time>2021-08-09T12:05:48Z</time>
      </trkpt>
      <trkpt lat="42.690780" lon="0.522611">
        <ele>3216.087</ele>
        <time>2021-08-09T12:05:58Z</time>
      </trkpt>
      <trkpt lat="42.690792" lon="0.522548">
        <ele>3216.054</ele>
        <time>2021-08-09T12:06:06Z</time>
      </trkpt>
      <trkpt lat="42.690805" lon="0.522482">
        <ele>3214.031</ele>
        <time>2021-08-09T12:06:12Z</time>
      </trkpt>
      <trkpt lat="42.690829" lon="0.522419">
        <ele>3214.091</ele>
        <time>2021-08-09T12:06:18Z</time>
      </trkpt>
      <trkpt lat="42.690856" lon="0.522369">
        <ele>3214.029</ele>
        <time>2021-08-09T12:06:23Z</time>
      </trkpt>
      <trkpt lat="42.690872" lon="0.522305">
        <ele>3215.051</ele>
        <time>2021-08-09T12:06:30Z</time>
      </trkpt>
      <trkpt lat="42.690886" lon="0.522237">
        <ele>3217.001</ele>
        <time>2021-08-09T12:06:38Z</time>
      </trkpt>
      <trkpt lat="42.690899" lon="0.522178">
        <ele>3216.011</ele>
        <time>2021-08-09T12:06:43Z</time>
      </trkpt>
      <trkpt lat="42.690920" lon="0.522112">
        <ele>3215.008</ele>
        <time>2021-08-09T12:06:52Z</time>
      </trkpt>
      <trkpt lat="42.690930" lon="0.522045">
        <ele>3215.093</ele>
        <time>2021-08-09T12:07:02Z</time>
      </trkpt>
      <trkpt lat="42.690946" lon="0.521985">
        <ele>3215.055</ele>
        <time>2021-08-09T12:07:10Z</time>
      </trkpt>
      <trkpt lat="42.690961" lon="0.521925">
        <ele>3215.029</ele>
        <time>2021-08-09T12:07:22Z</time>
      </trkpt>
      <trkpt lat="42.690964" lon="0.521863">
        <ele>3214.084</ele>
        <time>2021-08-09T12:07:32Z</time>
      </trkpt>
      <trkpt lat="42.690993" lon="0.521794">
        <ele>3213.011</ele>
        <time>2021-08-09T12:07:46Z</time>
      </trkpt>
      <trkpt lat="42.690993" lon="0.521728">
        <ele>3213.078</ele>
        <time>2021-08-09T12:07:57Z</time>
      </trkpt>
      <trkpt lat="42.691017" lon="0.521664">
        <ele>3212.078</ele>
        <time>2021-08-09T12:08:11Z</time>
      </trkpt>
      <trkpt lat="42.691030" lon="0.521600">
        <ele>3209.096</ele>
        <time>2021-08-09T12:08:27Z</time>
      </trkpt>
      <trkpt lat="42.691039" lon="0.521531">
        <ele>3208.053</ele>
        <time>2021-08-09T12:08:35Z</time>
      </trkpt>
      <trkpt lat="42.691063" lon="0.521476">
        <ele>3210.004</ele>
        <time>2021-08-09T12:08:44Z</time>
      </trkpt>
      <trkpt lat="42.691092" lon="0.521423">
        <ele>3209.014</ele>
        <time>2021-08-09T12:09:02Z</time>
      </trkpt>
      <trkpt lat="42.691101" lon="0.521358">
        <ele>3212.008</ele>
        <time>2021-08-09T12:09:26Z</time>
      </trkpt>
      <trkpt lat="42.691115" lon="0.521293">
        <ele>3213.093</ele>
        <time>2021-08-09T12:09:40Z</time>
      </trkpt>
      <trkpt lat="42.691117" lon="0.521220">
        <ele>3210.025</ele>
        <time>2021-08-09T12:10:22Z</time>
      </trkpt>
      <trkpt lat="42.691134" lon="0.521162">
        <ele>3209.099</ele>
        <time>2021-08-09T12:10:38Z</time>
      </trkpt>
      <trkpt lat="42.691179" lon="0.521138">
        <ele>3208.054</ele>
        <time>2021-08-09T12:10:47Z</time>
      </trkpt>
      <trkpt lat="42.691196" lon="0.521081">
        <ele>3208.081</ele>
        <time>2021-08-09T12:10:58Z</time>
      </trkpt>
      <trkpt lat="42.691196" lon="0.521015">
        <ele>3210.018</ele>
        <time>2021-08-09T12:11:14Z</time>
      </trkpt>
      <trkpt lat="42.691219" lon="0.520945">
        <ele>3210.028</ele>
        <time>2021-08-09T12:11:26Z</time>
      </trkpt>
      <trkpt lat="42.691228" lon="0.520884">
        <ele>3214.026</ele>
        <time>2021-08-09T12:11:40Z</time>
      </trkpt>
      <trkpt lat="42.691238" lon="0.520824">
        <ele>3213.057</ele>
        <time>2021-08-09T12:11:56Z</time>
      </trkpt>
      <trkpt lat="42.691253" lon="0.520765">
        <ele>3218.000</ele>
        <time>2021-08-09T12:12:36Z</time>
      </trkpt>
      <trkpt lat="42.691269" lon="0.520708">
        <ele>3219.020</ele>
        <time>2021-08-09T12:12:42Z</time>
      </trkpt>
      <trkpt lat="42.691283" lon="0.520642">
        <ele>3218.008</ele>
        <time>2021-08-09T12:12:51Z</time>
      </trkpt>
      <trkpt lat="42.691311" lon="0.520587">
        <ele>3217.053</ele>
        <time>2021-08-09T12:13:00Z</time>
      </trkpt>
      <trkpt lat="42.691311" lon="0.520523">
        <ele>3217.045</ele>
        <time>2021-08-09T12:13:06Z</time>
      </trkpt>
      <trkpt lat="42.691330" lon="0.520453">
        <ele>3217.069</ele>
        <time>2021-08-09T12:13:19Z</time>
      </trkpt>
      <trkpt lat="42.691341" lon="0.520391">
        <ele>3216.024</ele>
        <time>2021-08-09T12:13:31Z</time>
      </trkpt>
      <trkpt lat="42.691370" lon="0.520336">
        <ele>3218.021</ele>
        <time>2021-08-09T12:13:50Z</time>
      </trkpt>
      <trkpt lat="42.691387" lon="0.520263">
        <ele>3218.068</ele>
        <time>2021-08-09T12:13:57Z</time>
      </trkpt>
      <trkpt lat="42.691422" lon="0.520215">
        <ele>3218.038</ele>
        <time>2021-08-09T12:14:03Z</time>
      </trkpt>
      <trkpt lat="42.691444" lon="0.520160">
        <ele>3222.036</ele>
        <time>2021-08-09T12:14:18Z</time>
      </trkpt>
      <trkpt lat="42.691450" lon="0.520091">
        <ele>3224.048</ele>
        <time>2021-08-09T12:14:48Z</time>
      </trkpt>
      <trkpt lat="42.691487" lon="0.520032">
        <ele>3225.061</ele>
        <time>2021-08-09T12:15:00Z</time>
      </trkpt>
      <trkpt lat="42.691482" lon="0.519948">
        <ele>3226.017</ele>
        <time>2021-08-09T12:15:14Z</time>
      </trkpt>
      <trkpt lat="42.691513" lon="0.519899">
        <ele>3227.008</ele>
        <time>2021-08-09T12:15:41Z</time>
      </trkpt>
      <trkpt lat="42.691534" lon="0.519841">
        <ele>3227.082</ele>
        <time>2021-08-09T12:15:49Z</time>
      </trkpt>
      <trkpt lat="42.691535" lon="0.519776">
        <ele>3229.094</ele>
        <time>2021-08-09T12:16:03Z</time>
      </trkpt>
      <trkpt lat="42.691550" lon="0.519717">
        <ele>3230.078</ele>
        <time>2021-08-09T12:16:13Z</time>
      </trkpt>
      <trkpt lat="42.691564" lon="0.519624">
        <ele>3232.033</ele>
        <time>2021-08-09T12:16:24Z</time>
      </trkpt>
      <trkpt lat="42.691585" lon="0.519563">
        <ele>3234.050</ele>
        <time>2021-08-09T12:16:30Z</time>
      </trkpt>
      <trkpt lat="42.691596" lon="0.519487">
        <ele>3234.037</ele>
        <time>2021-08-09T12:16:40Z</time>
      </trkpt>
      <trkpt lat="42.691636" lon="0.519406">
        <ele>3238.057</ele>
        <time>2021-08-09T12:17:03Z</time>
      </trkpt>
      <trkpt lat="42.691639" lon="0.519336">
        <ele>3240.075</ele>
        <time>2021-08-09T12:17:16Z</time>
      </trkpt>
      <trkpt lat="42.691674" lon="0.519282">
        <ele>3242.099</ele>
        <time>2021-08-09T12:17:36Z</time>
      </trkpt>
      <trkpt lat="42.691714" lon="0.519231">
        <ele>3245.007</ele>
        <time>2021-08-09T12:17:55Z</time>
      </trkpt>
      <trkpt lat="42.691740" lon="0.519181">
        <ele>3247.027</ele>
        <time>2021-08-09T12:18:06Z</time>
      </trkpt>
      <trkpt lat="42.691774" lon="0.519137">
        <ele>3249.008</ele>
        <time>2021-08-09T12:18:19Z</time>
      </trkpt>
      <trkpt lat="42.691803" lon="0.519085">
        <ele>3252.087</ele>
        <time>2021-08-09T12:18:42Z</time>
      </trkpt>
      <trkpt lat="42.691817" lon="0.519024">
        <ele>3255.049</ele>
        <time>2021-08-09T12:18:55Z</time>
      </trkpt>
      <trkpt lat="42.691856" lon="0.518984">
        <ele>3257.013</ele>
        <time>2021-08-09T12:19:18Z</time>
      </trkpt>
      <trkpt lat="42.691874" lon="0.518928">
        <ele>3260.018</ele>
        <time>2021-08-09T12:19:38Z</time>
      </trkpt>
      <trkpt lat="42.691888" lon="0.518865">
        <ele>3265.055</ele>
        <time>2021-08-09T12:19:59Z</time>
      </trkpt>
      <trkpt lat="42.691917" lon="0.518809">
        <ele>3265.032</ele>
        <time>2021-08-09T12:20:17Z</time>
      </trkpt>
      <trkpt lat="42.691963" lon="0.518832">
        <ele>3267.072</ele>
        <time>2021-08-09T12:24:11Z</time>
      </trkpt>
      <trkpt lat="42.691918" lon="0.518839">
        <ele>3262.080</ele>
        <time>2021-08-09T12:28:26Z</time>
      </trkpt>
      <trkpt lat="42.691869" lon="0.518817">
        <ele>3259.086</ele>
        <time>2021-08-09T12:29:06Z</time>
      </trkpt>
      <trkpt lat="42.691911" lon="0.518841">
        <ele>3257.060</ele>
        <time>2021-08-09T12:31:26Z</time>
      </trkpt>
      <trkpt lat="42.691964" lon="0.518824">
        <ele>3263.026</ele>
        <time>2021-08-09T12:31:59Z</time>
      </trkpt>
      <trkpt lat="42.691950" lon="0.518883">
        <ele>3269.008</ele>
        <time>2021-08-09T12:34:38Z</time>
      </trkpt>
      <trkpt lat="42.691901" lon="0.518918">
        <ele>3268.036</ele>
        <time>2021-08-09T12:35:23Z</time>
      </trkpt>
      <trkpt lat="42.691871" lon="0.518964">
        <ele>3266.038</ele>
        <time>2021-08-09T12:35:47Z</time>
      </trkpt>
      <trkpt lat="42.691845" lon="0.519016">
        <ele>3262.072</ele>
        <time>2021-08-09T12:36:04Z</time>
      </trkpt>
      <trkpt lat="42.691825" lon="0.519076">
        <ele>3259.067</ele>
        <time>2021-08-09T12:36:22Z</time>
      </trkpt>
      <trkpt lat="42.691790" lon="0.519119">
        <ele>3257.054</ele>
        <time>2021-08-09T12:37:04Z</time>
      </trkpt>
      <trkpt lat="42.691745" lon="0.519093">
        <ele>3257.081</ele>
        <time>2021-08-09T12:37:17Z</time>
      </trkpt>
      <trkpt lat="42.691688" lon="0.519071">
        <ele>3255.091</ele>
        <time>2021-08-09T12:37:30Z</time>
      </trkpt>
      <trkpt lat="42.691629" lon="0.519087">
        <ele>3249.089</ele>
        <time>2021-08-09T12:37:51Z</time>
      </trkpt>
      <trkpt lat="42.691600" lon="0.519153">
        <ele>3243.019</ele>
        <time>2021-08-09T12:38:06Z</time>
      </trkpt>
      <trkpt lat="42.691592" lon="0.519218">
        <ele>3240.009</ele>
        <time>2021-08-09T12:38:13Z</time>
      </trkpt>
      <trkpt lat="42.691553" lon="0.519274">
        <ele>3238.019</ele>
        <time>2021-08-09T12:38:35Z</time>
      </trkpt>
      <trkpt lat="42.691512" lon="0.519325">
        <ele>3236.008</ele>
        <time>2021-08-09T12:39:05Z</time>
      </trkpt>
      <trkpt lat="42.691479" lon="0.519389">
        <ele>3231.089</ele>
        <time>2021-08-09T12:39:20Z</time>
      </trkpt>
      <trkpt lat="42.691468" lon="0.519454">
        <ele>3228.011</ele>
        <time>2021-08-09T12:39:28Z</time>
      </trkpt>
      <trkpt lat="42.691465" lon="0.519529">
        <ele>3226.075</ele>
        <time>2021-08-09T12:39:54Z</time>
      </trkpt>
      <trkpt lat="42.691483" lon="0.519588">
        <ele>3225.020</ele>
        <time>2021-08-09T12:40:04Z</time>
      </trkpt>
      <trkpt lat="42.691487" lon="0.519653">
        <ele>3223.047</ele>
        <time>2021-08-09T12:40:14Z</time>
      </trkpt>
      <trkpt lat="42.691494" lon="0.519726">
        <ele>3223.014</ele>
        <time>2021-08-09T12:40:26Z</time>
      </trkpt>
      <trkpt lat="42.691497" lon="0.519794">
        <ele>3224.024</ele>
        <time>2021-08-09T12:40:42Z</time>
      </trkpt>
      <trkpt lat="42.691496" lon="0.519858">
        <ele>3223.092</ele>
        <time>2021-08-09T12:41:06Z</time>
      </trkpt>
      <trkpt lat="42.691487" lon="0.519920">
        <ele>3223.087</ele>
        <time>2021-08-09T12:41:23Z</time>
      </trkpt>
      <trkpt lat="42.691470" lon="0.519990">
        <ele>3224.042</ele>
        <time>2021-08-09T12:41:35Z</time>
      </trkpt>
      <trkpt lat="42.691468" lon="0.520053">
        <ele>3222.026</ele>
        <time>2021-08-09T12:41:48Z</time>
      </trkpt>
      <trkpt lat="42.691447" lon="0.520122">
        <ele>3220.008</ele>
        <time>2021-08-09T12:42:17Z</time>
      </trkpt>
      <trkpt lat="42.691428" lon="0.520184">
        <ele>3218.056</ele>
        <time>2021-08-09T12:42:28Z</time>
      </trkpt>
      <trkpt lat="42.691403" lon="0.520236">
        <ele>3218.018</ele>
        <time>2021-08-09T12:42:38Z</time>
      </trkpt>
      <trkpt lat="42.691380" lon="0.520289">
        <ele>3218.082</ele>
        <time>2021-08-09T12:42:48Z</time>
      </trkpt>
      <trkpt lat="42.691371" lon="0.520358">
        <ele>3217.027</ele>
        <time>2021-08-09T12:42:59Z</time>
      </trkpt>
      <trkpt lat="42.691371" lon="0.520423">
        <ele>3216.044</ele>
        <time>2021-08-09T12:43:11Z</time>
      </trkpt>
      <trkpt lat="42.691360" lon="0.520488">
        <ele>3215.021</ele>
        <time>2021-08-09T12:43:17Z</time>
      </trkpt>
      <trkpt lat="42.691335" lon="0.520546">
        <ele>3214.011</ele>
        <time>2021-08-09T12:43:25Z</time>
      </trkpt>
      <trkpt lat="42.691304" lon="0.520600">
        <ele>3214.029</ele>
        <time>2021-08-09T12:43:33Z</time>
      </trkpt>
      <trkpt lat="42.691287" lon="0.520660">
        <ele>3214.028</ele>
        <time>2021-08-09T12:43:39Z</time>
      </trkpt>
      <trkpt lat="42.691272" lon="0.520721">
        <ele>3214.089</ele>
        <time>2021-08-09T12:43:47Z</time>
      </trkpt>
      <trkpt lat="42.691250" lon="0.520778">
        <ele>3214.017</ele>
        <time>2021-08-09T12:43:58Z</time>
      </trkpt>
      <trkpt lat="42.691255" lon="0.520852">
        <ele>3211.008</ele>
        <time>2021-08-09T12:44:11Z</time>
      </trkpt>
      <trkpt lat="42.691224" lon="0.520920">
        <ele>3210.080</ele>
        <time>2021-08-09T12:44:30Z</time>
      </trkpt>
      <trkpt lat="42.691228" lon="0.520994">
        <ele>3210.032</ele>
        <time>2021-08-09T12:44:39Z</time>
      </trkpt>
      <trkpt lat="42.691223" lon="0.521058">
        <ele>3211.096</ele>
        <time>2021-08-09T12:44:47Z</time>
      </trkpt>
      <trkpt lat="42.691206" lon="0.521117">
        <ele>3209.051</ele>
        <time>2021-08-09T12:45:05Z</time>
      </trkpt>
      <trkpt lat="42.691180" lon="0.521169">
        <ele>3208.058</ele>
        <time>2021-08-09T12:45:22Z</time>
      </trkpt>
      <trkpt lat="42.691141" lon="0.521213">
        <ele>3211.015</ele>
        <time>2021-08-09T12:46:08Z</time>
      </trkpt>
      <trkpt lat="42.691095" lon="0.521197">
        <ele>3212.085</ele>
        <time>2021-08-09T12:46:34Z</time>
      </trkpt>
      <trkpt lat="42.691056" lon="0.521236">
        <ele>3212.033</ele>
        <time>2021-08-09T12:46:45Z</time>
      </trkpt>
      <trkpt lat="42.691083" lon="0.521291">
        <ele>3210.088</ele>
        <time>2021-08-09T12:47:17Z</time>
      </trkpt>
      <trkpt lat="42.691082" lon="0.521359">
        <ele>3209.024</ele>
        <time>2021-08-09T12:47:38Z</time>
      </trkpt>
      <trkpt lat="42.691074" lon="0.521420">
        <ele>3209.026</ele>
        <time>2021-08-09T12:47:49Z</time>
      </trkpt>
      <trkpt lat="42.691064" lon="0.521481">
        <ele>3210.008</ele>
        <time>2021-08-09T12:48:23Z</time>
      </trkpt>
      <trkpt lat="42.691047" lon="0.521542">
        <ele>3208.026</ele>
        <time>2021-08-09T12:48:34Z</time>
      </trkpt>
      <trkpt lat="42.691044" lon="0.521608">
        <ele>3206.068</ele>
        <time>2021-08-09T12:48:41Z</time>
      </trkpt>
      <trkpt lat="42.691007" lon="0.521658">
        <ele>3209.032</ele>
        <time>2021-08-09T12:48:50Z</time>
      </trkpt>
      <trkpt lat="42.690974" lon="0.521704">
        <ele>3210.097</ele>
        <time>2021-08-09T12:48:58Z</time>
      </trkpt>
      <trkpt lat="42.690990" lon="0.521766">
        <ele>3209.044</ele>
        <time>2021-08-09T12:49:06Z</time>
      </trkpt>
      <trkpt lat="42.690979" lon="0.521842">
        <ele>3209.011</ele>
        <time>2021-08-09T12:49:24Z</time>
      </trkpt>
      <trkpt lat="42.690978" lon="0.521909">
        <ele>3209.091</ele>
        <time>2021-08-09T12:49:36Z</time>
      </trkpt>
      <trkpt lat="42.690948" lon="0.521959">
        <ele>3211.029</ele>
        <time>2021-08-09T12:49:54Z</time>
      </trkpt>
      <trkpt lat="42.690937" lon="0.522027">
        <ele>3212.017</ele>
        <time>2021-08-09T12:50:03Z</time>
      </trkpt>
      <trkpt lat="42.690929" lon="0.522090">
        <ele>3212.087</ele>
        <time>2021-08-09T12:50:09Z</time>
      </trkpt>
      <trkpt lat="42.690917" lon="0.522151">
        <ele>3211.015</ele>
        <time>2021-08-09T12:50:14Z</time>
      </trkpt>
      <trkpt lat="42.690897" lon="0.522208">
        <ele>3211.008</ele>
        <time>2021-08-09T12:50:20Z</time>
      </trkpt>
      <trkpt lat="42.690885" lon="0.522271">
        <ele>3211.059</ele>
        <time>2021-08-09T12:50:27Z</time>
      </trkpt>
      <trkpt lat="42.690873" lon="0.522339">
        <ele>3212.011</ele>
        <time>2021-08-09T12:50:33Z</time>
      </trkpt>
      <trkpt lat="42.690853" lon="0.522395">
        <ele>3212.085</ele>
        <time>2021-08-09T12:50:40Z</time>
      </trkpt>
      <trkpt lat="42.690831" lon="0.522455">
        <ele>3212.040</ele>
        <time>2021-08-09T12:50:44Z</time>
      </trkpt>
      <trkpt lat="42.690815" lon="0.522520">
        <ele>3212.057</ele>
        <time>2021-08-09T12:50:51Z</time>
      </trkpt>
      <trkpt lat="42.690802" lon="0.522579">
        <ele>3211.084</ele>
        <time>2021-08-09T12:50:58Z</time>
      </trkpt>
      <trkpt lat="42.690781" lon="0.522640">
        <ele>3210.054</ele>
        <time>2021-08-09T12:51:04Z</time>
      </trkpt>
      <trkpt lat="42.690759" lon="0.522698">
        <ele>3211.052</ele>
        <time>2021-08-09T12:51:09Z</time>
      </trkpt>
      <trkpt lat="42.690767" lon="0.522775">
        <ele>3210.016</ele>
        <time>2021-08-09T12:51:15Z</time>
      </trkpt>
      <trkpt lat="42.690769" lon="0.522842">
        <ele>3210.076</ele>
        <time>2021-08-09T12:51:21Z</time>
      </trkpt>
      <trkpt lat="42.690734" lon="0.522898">
        <ele>3212.013</ele>
        <time>2021-08-09T12:51:38Z</time>
      </trkpt>
      <trkpt lat="42.690726" lon="0.522977">
        <ele>3212.008</ele>
        <time>2021-08-09T12:51:46Z</time>
      </trkpt>
      <trkpt lat="42.690705" lon="0.523059">
        <ele>3210.099</ele>
        <time>2021-08-09T12:51:55Z</time>
      </trkpt>
      <trkpt lat="42.690671" lon="0.523102">
        <ele>3209.021</ele>
        <time>2021-08-09T12:52:02Z</time>
      </trkpt>
      <trkpt lat="42.690670" lon="0.523164">
        <ele>3207.055</ele>
        <time>2021-08-09T12:52:08Z</time>
      </trkpt>
      <trkpt lat="42.690640" lon="0.523220">
        <ele>3205.090</ele>
        <time>2021-08-09T12:52:16Z</time>
      </trkpt>
      <trkpt lat="42.690631" lon="0.523289">
        <ele>3203.017</ele>
        <time>2021-08-09T12:52:23Z</time>
      </trkpt>
      <trkpt lat="42.690630" lon="0.523364">
        <ele>3204.074</ele>
        <time>2021-08-09T12:52:31Z</time>
      </trkpt>
      <trkpt lat="42.690633" lon="0.523425">
        <ele>3204.054</ele>
        <time>2021-08-09T12:52:37Z</time>
      </trkpt>
      <trkpt lat="42.690632" lon="0.523487">
        <ele>3204.062</ele>
        <time>2021-08-09T12:52:44Z</time>
      </trkpt>
      <trkpt lat="42.690622" lon="0.523568">
        <ele>3202.026</ele>
        <time>2021-08-09T12:53:20Z</time>
      </trkpt>
      <trkpt lat="42.690626" lon="0.523631">
        <ele>3202.047</ele>
        <time>2021-08-09T12:53:27Z</time>
      </trkpt>
      <trkpt lat="42.690620" lon="0.523698">
        <ele>3201.011</ele>
        <time>2021-08-09T12:53:33Z</time>
      </trkpt>
      <trkpt lat="42.690596" lon="0.523752">
        <ele>3200.008</ele>
        <time>2021-08-09T12:53:41Z</time>
      </trkpt>
      <trkpt lat="42.690553" lon="0.523770">
        <ele>3201.090</ele>
        <time>2021-08-09T12:53:47Z</time>
      </trkpt>
      <trkpt lat="42.690536" lon="0.523833">
        <ele>3199.042</ele>
        <time>2021-08-09T12:53:53Z</time>
      </trkpt>
      <trkpt lat="42.690516" lon="0.523897">
        <ele>3198.026</ele>
        <time>2021-08-09T12:53:59Z</time>
      </trkpt>
      <trkpt lat="42.690504" lon="0.523967">
        <ele>3198.091</ele>
        <time>2021-08-09T12:54:05Z</time>
      </trkpt>
      <trkpt lat="42.690489" lon="0.524034">
        <ele>3197.098</ele>
        <time>2021-08-09T12:54:10Z</time>
      </trkpt>
      <trkpt lat="42.690482" lon="0.524102">
        <ele>3196.065</ele>
        <time>2021-08-09T12:54:15Z</time>
      </trkpt>
      <trkpt lat="42.690478" lon="0.524167">
        <ele>3195.015</ele>
        <time>2021-08-09T12:54:20Z</time>
      </trkpt>
      <trkpt lat="42.690450" lon="0.524215">
        <ele>3196.033</ele>
        <time>2021-08-09T12:54:26Z</time>
      </trkpt>
      <trkpt lat="42.690426" lon="0.524268">
        <ele>3195.048</ele>
        <time>2021-08-09T12:54:33Z</time>
      </trkpt>
      <trkpt lat="42.690392" lon="0.524313">
        <ele>3194.061</ele>
        <time>2021-08-09T12:54:41Z</time>
      </trkpt>
      <trkpt lat="42.690362" lon="0.524393">
        <ele>3194.017</ele>
        <time>2021-08-09T12:54:50Z</time>
      </trkpt>
      <trkpt lat="42.690332" lon="0.524445">
        <ele>3191.008</ele>
        <time>2021-08-09T12:55:07Z</time>
      </trkpt>
      <trkpt lat="42.690312" lon="0.524507">
        <ele>3191.052</ele>
        <time>2021-08-09T12:55:18Z</time>
      </trkpt>
      <trkpt lat="42.690302" lon="0.524572">
        <ele>3189.094</ele>
        <time>2021-08-09T12:55:25Z</time>
      </trkpt>
      <trkpt lat="42.690323" lon="0.524638">
        <ele>3188.048</ele>
        <time>2021-08-09T12:55:32Z</time>
      </trkpt>
      <trkpt lat="42.690316" lon="0.524704">
        <ele>3188.013</ele>
        <time>2021-08-09T12:55:39Z</time>
      </trkpt>
      <trkpt lat="42.690287" lon="0.524756">
        <ele>3187.030</ele>
        <time>2021-08-09T12:55:44Z</time>
      </trkpt>
      <trkpt lat="42.690258" lon="0.524809">
        <ele>3185.027</ele>
        <time>2021-08-09T12:55:50Z</time>
      </trkpt>
      <trkpt lat="42.690233" lon="0.524863">
        <ele>3185.057</ele>
        <time>2021-08-09T12:55:57Z</time>
      </trkpt>
      <trkpt lat="42.690210" lon="0.524920">
        <ele>3186.015</ele>
        <time>2021-08-09T12:56:01Z</time>
      </trkpt>
      <trkpt lat="42.690184" lon="0.524979">
        <ele>3184.076</ele>
        <time>2021-08-09T12:56:09Z</time>
      </trkpt>
      <trkpt lat="42.690156" lon="0.525034">
        <ele>3183.090</ele>
        <time>2021-08-09T12:56:15Z</time>
      </trkpt>
      <trkpt lat="42.690134" lon="0.525097">
        <ele>3183.019</ele>
        <time>2021-08-09T12:56:20Z</time>
      </trkpt>
      <trkpt lat="42.690124" lon="0.525166">
        <ele>3181.008</ele>
        <time>2021-08-09T12:56:25Z</time>
      </trkpt>
      <trkpt lat="42.690111" lon="0.525228">
        <ele>3181.095</ele>
        <time>2021-08-09T12:56:31Z</time>
      </trkpt>
      <trkpt lat="42.690100" lon="0.525291">
        <ele>3180.017</ele>
        <time>2021-08-09T12:56:37Z</time>
      </trkpt>
      <trkpt lat="42.690096" lon="0.525362">
        <ele>3180.081</ele>
        <time>2021-08-09T12:56:43Z</time>
      </trkpt>
      <trkpt lat="42.690097" lon="0.525424">
        <ele>3180.026</ele>
        <time>2021-08-09T12:56:47Z</time>
      </trkpt>
      <trkpt lat="42.690092" lon="0.525485">
        <ele>3180.043</ele>
        <time>2021-08-09T12:56:53Z</time>
      </trkpt>
      <trkpt lat="42.690091" lon="0.525553">
        <ele>3180.060</ele>
        <time>2021-08-09T12:56:58Z</time>
      </trkpt>
      <trkpt lat="42.690069" lon="0.525609">
        <ele>3180.040</ele>
        <time>2021-08-09T12:57:06Z</time>
      </trkpt>
      <trkpt lat="42.690055" lon="0.525677">
        <ele>3181.068</ele>
        <time>2021-08-09T12:57:16Z</time>
      </trkpt>
      <trkpt lat="42.690059" lon="0.525747">
        <ele>3181.027</ele>
        <time>2021-08-09T12:57:22Z</time>
      </trkpt>
      <trkpt lat="42.690027" lon="0.525796">
        <ele>3189.068</ele>
        <time>2021-08-09T12:58:29Z</time>
      </trkpt>
      <trkpt lat="42.689983" lon="0.525825">
        <ele>3185.014</ele>
        <time>2021-08-09T12:59:12Z</time>
      </trkpt>
      <trkpt lat="42.689951" lon="0.525869">
        <ele>3184.008</ele>
        <time>2021-08-09T12:59:18Z</time>
      </trkpt>
      <trkpt lat="42.689923" lon="0.525947">
        <ele>3181.070</ele>
        <time>2021-08-09T12:59:29Z</time>
      </trkpt>
      <trkpt lat="42.689906" lon="0.526013">
        <ele>3178.022</ele>
        <time>2021-08-09T12:59:37Z</time>
      </trkpt>
      <trkpt lat="42.689886" lon="0.526072">
        <ele>3179.056</ele>
        <time>2021-08-09T12:59:43Z</time>
      </trkpt>
      <trkpt lat="42.689866" lon="0.526128">
        <ele>3178.011</ele>
        <time>2021-08-09T12:59:53Z</time>
      </trkpt>
      <trkpt lat="42.689834" lon="0.526177">
        <ele>3178.068</ele>
        <time>2021-08-09T12:59:59Z</time>
      </trkpt>
      <trkpt lat="42.689787" lon="0.526229">
        <ele>3175.055</ele>
        <time>2021-08-09T13:00:11Z</time>
      </trkpt>
      <trkpt lat="42.689745" lon="0.526263">
        <ele>3173.035</ele>
        <time>2021-08-09T13:00:20Z</time>
      </trkpt>
      <trkpt lat="42.689753" lon="0.526329">
        <ele>3171.043</ele>
        <time>2021-08-09T13:00:30Z</time>
      </trkpt>
      <trkpt lat="42.689720" lon="0.526371">
        <ele>3169.022</ele>
        <time>2021-08-09T13:00:53Z</time>
      </trkpt>
      <trkpt lat="42.689707" lon="0.526446">
        <ele>3163.062</ele>
        <time>2021-08-09T13:01:26Z</time>
      </trkpt>
      <trkpt lat="42.689712" lon="0.526513">
        <ele>3156.008</ele>
        <time>2021-08-09T13:02:00Z</time>
      </trkpt>
      <trkpt lat="42.689700" lon="0.526580">
        <ele>3157.008</ele>
        <time>2021-08-09T13:02:19Z</time>
      </trkpt>
      <trkpt lat="42.689691" lon="0.526642">
        <ele>3154.030</ele>
        <time>2021-08-09T13:02:37Z</time>
      </trkpt>
      <trkpt lat="42.689698" lon="0.526707">
        <ele>3154.032</ele>
        <time>2021-08-09T13:03:05Z</time>
      </trkpt>
      <trkpt lat="42.689683" lon="0.526765">
        <ele>3151.086</ele>
        <time>2021-08-09T13:03:32Z</time>
      </trkpt>
      <trkpt lat="42.689692" lon="0.526826">
        <ele>3144.051</ele>
        <time>2021-08-09T13:04:00Z</time>
      </trkpt>
      <trkpt lat="42.689698" lon="0.526889">
        <ele>3137.048</ele>
        <time>2021-08-09T13:04:51Z</time>
      </trkpt>
      <trkpt lat="42.689677" lon="0.526946">
        <ele>3135.015</ele>
        <time>2021-08-09T13:05:21Z</time>
      </trkpt>
      <trkpt lat="42.689639" lon="0.526986">
        <ele>3132.015</ele>
        <time>2021-08-09T13:06:02Z</time>
      </trkpt>
      <trkpt lat="42.689618" lon="0.527045">
        <ele>3129.033</ele>
        <time>2021-08-09T13:06:23Z</time>
      </trkpt>
      <trkpt lat="42.689583" lon="0.527089">
        <ele>3128.021</ele>
        <time>2021-08-09T13:06:41Z</time>
      </trkpt>
      <trkpt lat="42.689536" lon="0.527127">
        <ele>3128.041</ele>
        <time>2021-08-09T13:06:51Z</time>
      </trkpt>
      <trkpt lat="42.689481" lon="0.527179">
        <ele>3128.005</ele>
        <time>2021-08-09T13:07:05Z</time>
      </trkpt>
      <trkpt lat="42.689454" lon="0.527248">
        <ele>3123.008</ele>
        <time>2021-08-09T13:07:16Z</time>
      </trkpt>
      <trkpt lat="42.689457" lon="0.527309">
        <ele>3122.050</ele>
        <time>2021-08-09T13:07:28Z</time>
      </trkpt>
      <trkpt lat="42.689427" lon="0.527361">
        <ele>3118.062</ele>
        <time>2021-08-09T13:07:42Z</time>
      </trkpt>
      <trkpt lat="42.689401" lon="0.527415">
        <ele>3113.056</ele>
        <time>2021-08-09T13:07:54Z</time>
      </trkpt>
      <trkpt lat="42.689374" lon="0.527472">
        <ele>3111.051</ele>
        <time>2021-08-09T13:08:03Z</time>
      </trkpt>
      <trkpt lat="42.689336" lon="0.527509">
        <ele>3111.098</ele>
        <time>2021-08-09T13:08:09Z</time>
      </trkpt>
      <trkpt lat="42.689333" lon="0.527575">
        <ele>3108.075</ele>
        <time>2021-08-09T13:08:20Z</time>
      </trkpt>
      <trkpt lat="42.689305" lon="0.527633">
        <ele>3106.055</ele>
        <time>2021-08-09T13:08:44Z</time>
      </trkpt>
      <trkpt lat="42.689268" lon="0.527668">
        <ele>3106.073</ele>
        <time>2021-08-09T13:09:00Z</time>
      </trkpt>
      <trkpt lat="42.689237" lon="0.527727">
        <ele>3106.022</ele>
        <time>2021-08-09T13:09:18Z</time>
      </trkpt>
      <trkpt lat="42.689245" lon="0.527797">
        <ele>3097.062</ele>
        <time>2021-08-09T13:10:21Z</time>
      </trkpt>
      <trkpt lat="42.689226" lon="0.527860">
        <ele>3097.008</ele>
        <time>2021-08-09T13:10:32Z</time>
      </trkpt>
      <trkpt lat="42.689201" lon="0.527917">
        <ele>3099.008</ele>
        <time>2021-08-09T13:10:47Z</time>
      </trkpt>
      <trkpt lat="42.689172" lon="0.527969">
        <ele>3098.040</ele>
        <time>2021-08-09T13:11:03Z</time>
      </trkpt>
      <trkpt lat="42.689179" lon="0.528032">
        <ele>3095.062</ele>
        <time>2021-08-09T13:11:17Z</time>
      </trkpt>
      <trkpt lat="42.689206" lon="0.528082">
        <ele>3094.056</ele>
        <time>2021-08-09T13:11:26Z</time>
      </trkpt>
      <trkpt lat="42.689202" lon="0.528156">
        <ele>3091.011</ele>
        <time>2021-08-09T13:11:46Z</time>
      </trkpt>
      <trkpt lat="42.689181" lon="0.528211">
        <ele>3089.018</ele>
        <time>2021-08-09T13:12:04Z</time>
      </trkpt>
      <trkpt lat="42.689144" lon="0.528274">
        <ele>3084.025</ele>
        <time>2021-08-09T13:12:25Z</time>
      </trkpt>
      <trkpt lat="42.689101" lon="0.528317">
        <ele>3081.095</ele>
        <time>2021-08-09T13:12:37Z</time>
      </trkpt>
      <trkpt lat="42.689041" lon="0.528372">
        <ele>3077.013</ele>
        <time>2021-08-09T13:12:55Z</time>
      </trkpt>
      <trkpt lat="42.688998" lon="0.528430">
        <ele>3078.028</ele>
        <time>2021-08-09T13:13:13Z</time>
      </trkpt>
      <trkpt lat="42.688968" lon="0.528480">
        <ele>3074.089</ele>
        <time>2021-08-09T13:13:46Z</time>
      </trkpt>
      <trkpt lat="42.688945" lon="0.528537">
        <ele>3074.017</ele>
        <time>2021-08-09T13:13:57Z</time>
      </trkpt>
      <trkpt lat="42.688910" lon="0.528583">
        <ele>3073.008</ele>
        <time>2021-08-09T13:14:12Z</time>
      </trkpt>
      <trkpt lat="42.688900" lon="0.528651">
        <ele>3072.020</ele>
        <time>2021-08-09T13:14:34Z</time>
      </trkpt>
      <trkpt lat="42.688907" lon="0.528732">
        <ele>3070.042</ele>
        <time>2021-08-09T13:14:48Z</time>
      </trkpt>
      <trkpt lat="42.688954" lon="0.528787">
        <ele>3068.086</ele>
        <time>2021-08-09T13:15:13Z</time>
      </trkpt>
      <trkpt lat="42.688971" lon="0.528851">
        <ele>3063.061</ele>
        <time>2021-08-09T13:15:40Z</time>
      </trkpt>
      <trkpt lat="42.688993" lon="0.528905">
        <ele>3061.088</ele>
        <time>2021-08-09T13:15:57Z</time>
      </trkpt>
      <trkpt lat="42.689012" lon="0.528962">
        <ele>3056.035</ele>
        <time>2021-08-09T13:16:28Z</time>
      </trkpt>
      <trkpt lat="42.688994" lon="0.529033">
        <ele>3052.085</ele>
        <time>2021-08-09T13:16:53Z</time>
      </trkpt>
      <trkpt lat="42.688989" lon="0.529096">
        <ele>3049.023</ele>
        <time>2021-08-09T13:17:09Z</time>
      </trkpt>
      <trkpt lat="42.688959" lon="0.529148">
        <ele>3047.064</ele>
        <time>2021-08-09T13:17:42Z</time>
      </trkpt>
      <trkpt lat="42.688923" lon="0.529195">
        <ele>3044.006</ele>
        <time>2021-08-09T13:17:57Z</time>
      </trkpt>
      <trkpt lat="42.688880" lon="0.529213">
        <ele>3043.016</ele>
        <time>2021-08-09T13:18:15Z</time>
      </trkpt>
      <trkpt lat="42.688832" lon="0.529219">
        <ele>3039.008</ele>
        <time>2021-08-09T13:18:37Z</time>
      </trkpt>
      <trkpt lat="42.688809" lon="0.529276">
        <ele>3034.064</ele>
        <time>2021-08-09T13:19:45Z</time>
      </trkpt>
      <trkpt lat="42.688770" lon="0.529326">
        <ele>3026.046</ele>
        <time>2021-08-09T13:20:11Z</time>
      </trkpt>
      <trkpt lat="42.688771" lon="0.529387">
        <ele>3019.010</ele>
        <time>2021-08-09T13:20:50Z</time>
      </trkpt>
      <trkpt lat="42.688769" lon="0.529454">
        <ele>3015.045</ele>
        <time>2021-08-09T13:21:04Z</time>
      </trkpt>
      <trkpt lat="42.688719" lon="0.529492">
        <ele>3013.032</ele>
        <time>2021-08-09T13:21:19Z</time>
      </trkpt>
      <trkpt lat="42.688737" lon="0.529555">
        <ele>3008.099</ele>
        <time>2021-08-09T13:22:29Z</time>
      </trkpt>
      <trkpt lat="42.688724" lon="0.529638">
        <ele>3006.079</ele>
        <time>2021-08-09T13:23:09Z</time>
      </trkpt>
      <trkpt lat="42.688747" lon="0.529691">
        <ele>3008.057</ele>
        <time>2021-08-09T13:23:23Z</time>
      </trkpt>
      <trkpt lat="42.688728" lon="0.529749">
        <ele>3005.098</ele>
        <time>2021-08-09T13:23:40Z</time>
      </trkpt>
      <trkpt lat="42.688689" lon="0.529787">
        <ele>3003.015</ele>
        <time>2021-08-09T13:23:58Z</time>
      </trkpt>
      <trkpt lat="42.688641" lon="0.529823">
        <ele>3000.026</ele>
        <time>2021-08-09T13:24:11Z</time>
      </trkpt>
      <trkpt lat="42.688599" lon="0.529852">
        <ele>2997.008</ele>
        <time>2021-08-09T13:24:26Z</time>
      </trkpt>
      <trkpt lat="42.688560" lon="0.529892">
        <ele>2994.027</ele>
        <time>2021-08-09T13:24:35Z</time>
      </trkpt>
      <trkpt lat="42.688533" lon="0.529947">
        <ele>2994.079</ele>
        <time>2021-08-09T13:24:56Z</time>
      </trkpt>
      <trkpt lat="42.688562" lon="0.529994">
        <ele>2994.013</ele>
        <time>2021-08-09T13:25:12Z</time>
      </trkpt>
      <trkpt lat="42.688589" lon="0.530053">
        <ele>2988.078</ele>
        <time>2021-08-09T13:26:03Z</time>
      </trkpt>
      <trkpt lat="42.688569" lon="0.530108">
        <ele>2982.015</ele>
        <time>2021-08-09T13:26:58Z</time>
      </trkpt>
      <trkpt lat="42.688564" lon="0.530187">
        <ele>2977.032</ele>
        <time>2021-08-09T13:27:29Z</time>
      </trkpt>
      <trkpt lat="42.688592" lon="0.530234">
        <ele>2978.062</ele>
        <time>2021-08-09T13:27:37Z</time>
      </trkpt>
      <trkpt lat="42.688628" lon="0.530272">
        <ele>2978.080</ele>
        <time>2021-08-09T13:27:50Z</time>
      </trkpt>
      <trkpt lat="42.688623" lon="0.530343">
        <ele>2972.075</ele>
        <time>2021-08-09T13:28:11Z</time>
      </trkpt>
      <trkpt lat="42.688607" lon="0.530409">
        <ele>2969.028</ele>
        <time>2021-08-09T13:28:20Z</time>
      </trkpt>
      <trkpt lat="42.688582" lon="0.530464">
        <ele>2967.020</ele>
        <time>2021-08-09T13:28:31Z</time>
      </trkpt>
      <trkpt lat="42.688554" lon="0.530513">
        <ele>2965.008</ele>
        <time>2021-08-09T13:28:51Z</time>
      </trkpt>
      <trkpt lat="42.688596" lon="0.530547">
        <ele>2961.095</ele>
        <time>2021-08-09T13:29:10Z</time>
      </trkpt>
      <trkpt lat="42.688634" lon="0.530598">
        <ele>2959.087</ele>
        <time>2021-08-09T13:29:39Z</time>
      </trkpt>
      <trkpt lat="42.688635" lon="0.530664">
        <ele>2954.091</ele>
        <time>2021-08-09T13:29:54Z</time>
      </trkpt>
      <trkpt lat="42.688635" lon="0.530725">
        <ele>2954.066</ele>
        <time>2021-08-09T13:30:02Z</time>
      </trkpt>
      <trkpt lat="42.688656" lon="0.530782">
        <ele>2950.053</ele>
        <time>2021-08-09T13:30:20Z</time>
      </trkpt>
      <trkpt lat="42.688649" lon="0.530847">
        <ele>2947.030</ele>
        <time>2021-08-09T13:30:31Z</time>
      </trkpt>
      <trkpt lat="42.688651" lon="0.530916">
        <ele>2946.060</ele>
        <time>2021-08-09T13:30:38Z</time>
      </trkpt>
      <trkpt lat="42.688615" lon="0.530965">
        <ele>2944.048</ele>
        <time>2021-08-09T13:30:46Z</time>
      </trkpt>
      <trkpt lat="42.688593" lon="0.531027">
        <ele>2942.043</ele>
        <time>2021-08-09T13:30:55Z</time>
      </trkpt>
      <trkpt lat="42.688578" lon="0.531085">
        <ele>2940.064</ele>
        <time>2021-08-09T13:31:10Z</time>
      </trkpt>
      <trkpt lat="42.688592" lon="0.531150">
        <ele>2938.010</ele>
        <time>2021-08-09T13:31:19Z</time>
      </trkpt>
      <trkpt lat="42.688548" lon="0.531175">
        <ele>2937.008</ele>
        <time>2021-08-09T13:31:25Z</time>
      </trkpt>
      <trkpt lat="42.688523" lon="0.531231">
        <ele>2937.022</ele>
        <time>2021-08-09T13:31:30Z</time>
      </trkpt>
      <trkpt lat="42.688490" lon="0.531273">
        <ele>2935.094</ele>
        <time>2021-08-09T13:31:34Z</time>
      </trkpt>
      <trkpt lat="42.688467" lon="0.531331">
        <ele>2933.048</ele>
        <time>2021-08-09T13:31:37Z</time>
      </trkpt>
      <trkpt lat="42.688451" lon="0.531392">
        <ele>2930.023</ele>
        <time>2021-08-09T13:31:43Z</time>
      </trkpt>
      <trkpt lat="42.688448" lon="0.531466">
        <ele>2929.080</ele>
        <time>2021-08-09T13:31:47Z</time>
      </trkpt>
      <trkpt lat="42.688421" lon="0.531518">
        <ele>2928.087</ele>
        <time>2021-08-09T13:32:07Z</time>
      </trkpt>
      <trkpt lat="42.688378" lon="0.531494">
        <ele>2928.057</ele>
        <time>2021-08-09T13:33:05Z</time>
      </trkpt>
      <trkpt lat="42.688326" lon="0.531506">
        <ele>2932.045</ele>
        <time>2021-08-09T13:34:13Z</time>
      </trkpt>
      <trkpt lat="42.688272" lon="0.531478">
        <ele>2930.064</ele>
        <time>2021-08-09T13:34:20Z</time>
      </trkpt>
      <trkpt lat="42.688226" lon="0.531459">
        <ele>2931.006</ele>
        <time>2021-08-09T13:34:35Z</time>
      </trkpt>
      <trkpt lat="42.688174" lon="0.531442">
        <ele>2929.016</ele>
        <time>2021-08-09T13:34:40Z</time>
      </trkpt>
      <trkpt lat="42.688118" lon="0.531432">
        <ele>2928.008</ele>
        <time>2021-08-09T13:34:52Z</time>
      </trkpt>
      <trkpt lat="42.688084" lon="0.531483">
        <ele>2925.064</ele>
        <time>2021-08-09T13:35:01Z</time>
      </trkpt>
      <trkpt lat="42.688032" lon="0.531498">
        <ele>2923.046</ele>
        <time>2021-08-09T13:35:17Z</time>
      </trkpt>
      <trkpt lat="42.687986" lon="0.531495">
        <ele>2920.060</ele>
        <time>2021-08-09T13:35:25Z</time>
      </trkpt>
      <trkpt lat="42.687940" lon="0.531472">
        <ele>2920.045</ele>
        <time>2021-08-09T13:35:35Z</time>
      </trkpt>
      <trkpt lat="42.687878" lon="0.531499">
        <ele>2918.052</ele>
        <time>2021-08-09T13:35:52Z</time>
      </trkpt>
      <trkpt lat="42.687831" lon="0.531525">
        <ele>2916.079</ele>
        <time>2021-08-09T13:35:58Z</time>
      </trkpt>
      <trkpt lat="42.687774" lon="0.531563">
        <ele>2916.019</ele>
        <time>2021-08-09T13:36:10Z</time>
      </trkpt>
      <trkpt lat="42.687730" lon="0.531594">
        <ele>2915.057</ele>
        <time>2021-08-09T13:36:45Z</time>
      </trkpt>
      <trkpt lat="42.687733" lon="0.531656">
        <ele>2910.072</ele>
        <time>2021-08-09T13:37:54Z</time>
      </trkpt>
      <trkpt lat="42.687709" lon="0.531721">
        <ele>2905.013</ele>
        <time>2021-08-09T13:38:07Z</time>
      </trkpt>
      <trkpt lat="42.687662" lon="0.531739">
        <ele>2905.014</ele>
        <time>2021-08-09T13:38:13Z</time>
      </trkpt>
      <trkpt lat="42.687636" lon="0.531799">
        <ele>2902.008</ele>
        <time>2021-08-09T13:38:19Z</time>
      </trkpt>
      <trkpt lat="42.687618" lon="0.531864">
        <ele>2899.085</ele>
        <time>2021-08-09T13:38:26Z</time>
      </trkpt>
      <trkpt lat="42.687601" lon="0.531927">
        <ele>2896.037</ele>
        <time>2021-08-09T13:38:38Z</time>
      </trkpt>
      <trkpt lat="42.687591" lon="0.531988">
        <ele>2895.031</ele>
        <time>2021-08-09T13:38:45Z</time>
      </trkpt>
      <trkpt lat="42.687546" lon="0.531997">
        <ele>2894.026</ele>
        <time>2021-08-09T13:38:52Z</time>
      </trkpt>
      <trkpt lat="42.687494" lon="0.531993">
        <ele>2894.053</ele>
        <time>2021-08-09T13:38:58Z</time>
      </trkpt>
      <trkpt lat="42.687439" lon="0.531988">
        <ele>2893.030</ele>
        <time>2021-08-09T13:39:02Z</time>
      </trkpt>
      <trkpt lat="42.687384" lon="0.531982">
        <ele>2892.010</ele>
        <time>2021-08-09T13:39:08Z</time>
      </trkpt>
      <trkpt lat="42.687329" lon="0.531968">
        <ele>2892.068</ele>
        <time>2021-08-09T13:39:13Z</time>
      </trkpt>
      <trkpt lat="42.687290" lon="0.531934">
        <ele>2890.059</ele>
        <time>2021-08-09T13:39:17Z</time>
      </trkpt>
      <trkpt lat="42.687244" lon="0.531904">
        <ele>2892.003</ele>
        <time>2021-08-09T13:39:28Z</time>
      </trkpt>
      <trkpt lat="42.687198" lon="0.531931">
        <ele>2890.023</ele>
        <time>2021-08-09T13:39:35Z</time>
      </trkpt>
      <trkpt lat="42.687168" lon="0.531989">
        <ele>2888.008</ele>
        <time>2021-08-09T13:39:42Z</time>
      </trkpt>
      <trkpt lat="42.687139" lon="0.532036">
        <ele>2885.063</ele>
        <time>2021-08-09T13:39:47Z</time>
      </trkpt>
      <trkpt lat="42.687096" lon="0.532075">
        <ele>2883.065</ele>
        <time>2021-08-09T13:39:53Z</time>
      </trkpt>
      <trkpt lat="42.687050" lon="0.532076">
        <ele>2882.089</ele>
        <time>2021-08-09T13:39:58Z</time>
      </trkpt>
      <trkpt lat="42.687001" lon="0.532041">
        <ele>2882.024</ele>
        <time>2021-08-09T13:40:03Z</time>
      </trkpt>
      <trkpt lat="42.686955" lon="0.532012">
        <ele>2882.091</ele>
        <time>2021-08-09T13:40:08Z</time>
      </trkpt>
      <trkpt lat="42.686904" lon="0.531963">
        <ele>2882.058</ele>
        <time>2021-08-09T13:40:16Z</time>
      </trkpt>
      <trkpt lat="42.686845" lon="0.531981">
        <ele>2877.048</ele>
        <time>2021-08-09T13:40:33Z</time>
      </trkpt>
      <trkpt lat="42.686792" lon="0.531970">
        <ele>2873.026</ele>
        <time>2021-08-09T13:40:43Z</time>
      </trkpt>
      <trkpt lat="42.686742" lon="0.531965">
        <ele>2872.044</ele>
        <time>2021-08-09T13:40:51Z</time>
      </trkpt>
      <trkpt lat="42.686689" lon="0.531984">
        <ele>2872.005</ele>
        <time>2021-08-09T13:40:54Z</time>
      </trkpt>
      <trkpt lat="42.686640" lon="0.531984">
        <ele>2871.015</ele>
        <time>2021-08-09T13:40:59Z</time>
      </trkpt>
      <trkpt lat="42.686593" lon="0.531978">
        <ele>2869.008</ele>
        <time>2021-08-09T13:41:04Z</time>
      </trkpt>
      <trkpt lat="42.686560" lon="0.531931">
        <ele>2868.062</ele>
        <time>2021-08-09T13:41:15Z</time>
      </trkpt>
      <trkpt lat="42.686510" lon="0.531941">
        <ele>2866.084</ele>
        <time>2021-08-09T13:41:26Z</time>
      </trkpt>
      <trkpt lat="42.686452" lon="0.531950">
        <ele>2867.028</ele>
        <time>2021-08-09T13:41:31Z</time>
      </trkpt>
      <trkpt lat="42.686408" lon="0.531911">
        <ele>2866.023</ele>
        <time>2021-08-09T13:41:36Z</time>
      </trkpt>
      <trkpt lat="42.686396" lon="0.531850">
        <ele>2865.060</ele>
        <time>2021-08-09T13:41:41Z</time>
      </trkpt>
      <trkpt lat="42.686358" lon="0.531814">
        <ele>2864.097</ele>
        <time>2021-08-09T13:41:49Z</time>
      </trkpt>
      <trkpt lat="42.686308" lon="0.531815">
        <ele>2864.027</ele>
        <time>2021-08-09T13:42:08Z</time>
      </trkpt>
      <trkpt lat="42.686276" lon="0.531868">
        <ele>2863.035</ele>
        <time>2021-08-09T13:42:14Z</time>
      </trkpt>
      <trkpt lat="42.686238" lon="0.531926">
        <ele>2861.098</ele>
        <time>2021-08-09T13:42:25Z</time>
      </trkpt>
      <trkpt lat="42.686195" lon="0.531957">
        <ele>2859.015</ele>
        <time>2021-08-09T13:42:34Z</time>
      </trkpt>
      <trkpt lat="42.686166" lon="0.532013">
        <ele>2856.026</ele>
        <time>2021-08-09T13:42:42Z</time>
      </trkpt>
      <trkpt lat="42.686162" lon="0.532079">
        <ele>2854.008</ele>
        <time>2021-08-09T13:42:47Z</time>
      </trkpt>
      <trkpt lat="42.686113" lon="0.532108">
        <ele>2853.057</ele>
        <time>2021-08-09T13:42:53Z</time>
      </trkpt>
      <trkpt lat="42.686077" lon="0.532152">
        <ele>2852.029</ele>
        <time>2021-08-09T13:43:04Z</time>
      </trkpt>
      <trkpt lat="42.686043" lon="0.532204">
        <ele>2850.093</ele>
        <time>2021-08-09T13:43:11Z</time>
      </trkpt>
      <trkpt lat="42.686006" lon="0.532257">
        <ele>2848.018</ele>
        <time>2021-08-09T13:43:17Z</time>
      </trkpt>
      <trkpt lat="42.685975" lon="0.532302">
        <ele>2849.015</ele>
        <time>2021-08-09T13:43:33Z</time>
      </trkpt>
      <trkpt lat="42.685927" lon="0.532296">
        <ele>2846.072</ele>
        <time>2021-08-09T13:43:40Z</time>
      </trkpt>
      <trkpt lat="42.685898" lon="0.532356">
        <ele>2843.042</ele>
        <time>2021-08-09T13:43:53Z</time>
      </trkpt>
      <trkpt lat="42.685888" lon="0.532417">
        <ele>2841.010</ele>
        <time>2021-08-09T13:44:00Z</time>
      </trkpt>
      <trkpt lat="42.685864" lon="0.532470">
        <ele>2838.036</ele>
        <time>2021-08-09T13:44:09Z</time>
      </trkpt>
      <trkpt lat="42.685795" lon="0.532468">
        <ele>2834.017</ele>
        <time>2021-08-09T13:44:25Z</time>
      </trkpt>
      <trkpt lat="42.685748" lon="0.532483">
        <ele>2833.018</ele>
        <time>2021-08-09T13:44:33Z</time>
      </trkpt>
      <trkpt lat="42.685752" lon="0.532549">
        <ele>2830.008</ele>
        <time>2021-08-09T13:44:44Z</time>
      </trkpt>
      <trkpt lat="42.685728" lon="0.532605">
        <ele>2828.061</ele>
        <time>2021-08-09T13:44:56Z</time>
      </trkpt>
      <trkpt lat="42.685678" lon="0.532599">
        <ele>2826.053</ele>
        <time>2021-08-09T13:45:15Z</time>
      </trkpt>
      <trkpt lat="42.685632" lon="0.532604">
        <ele>2825.067</ele>
        <time>2021-08-09T13:45:25Z</time>
      </trkpt>
      <trkpt lat="42.685588" lon="0.532581">
        <ele>2824.062</ele>
        <time>2021-08-09T13:45:32Z</time>
      </trkpt>
      <trkpt lat="42.685549" lon="0.532612">
        <ele>2821.079</ele>
        <time>2021-08-09T13:45:40Z</time>
      </trkpt>
      <trkpt lat="42.685512" lon="0.532577">
        <ele>2819.086</ele>
        <time>2021-08-09T13:46:30Z</time>
      </trkpt>
      <trkpt lat="42.685476" lon="0.532531">
        <ele>2819.026</ele>
        <time>2021-08-09T13:46:37Z</time>
      </trkpt>
      <trkpt lat="42.685431" lon="0.532493">
        <ele>2816.044</ele>
        <time>2021-08-09T13:46:45Z</time>
      </trkpt>
      <trkpt lat="42.685395" lon="0.532454">
        <ele>2816.083</ele>
        <time>2021-08-09T13:46:51Z</time>
      </trkpt>
      <trkpt lat="42.685345" lon="0.532434">
        <ele>2814.025</ele>
        <time>2021-08-09T13:46:59Z</time>
      </trkpt>
      <trkpt lat="42.685312" lon="0.532479">
        <ele>2813.017</ele>
        <time>2021-08-09T13:47:09Z</time>
      </trkpt>
      <trkpt lat="42.685267" lon="0.532499">
        <ele>2811.008</ele>
        <time>2021-08-09T13:47:26Z</time>
      </trkpt>
      <trkpt lat="42.685237" lon="0.532551">
        <ele>2810.096</ele>
        <time>2021-08-09T13:47:43Z</time>
      </trkpt>
      <trkpt lat="42.685195" lon="0.532607">
        <ele>2804.018</ele>
        <time>2021-08-09T13:48:20Z</time>
      </trkpt>
      <trkpt lat="42.685149" lon="0.532619">
        <ele>2803.052</ele>
        <time>2021-08-09T13:48:41Z</time>
      </trkpt>
      <trkpt lat="42.685109" lon="0.532646">
        <ele>2800.097</ele>
        <time>2021-08-09T13:49:02Z</time>
      </trkpt>
      <trkpt lat="42.685056" lon="0.532662">
        <ele>2796.084</ele>
        <time>2021-08-09T13:49:25Z</time>
      </trkpt>
      <trkpt lat="42.685063" lon="0.532736">
        <ele>2789.051</ele>
        <time>2021-08-09T13:49:40Z</time>
      </trkpt>
      <trkpt lat="42.685069" lon="0.532811">
        <ele>2789.071</ele>
        <time>2021-08-09T13:49:44Z</time>
      </trkpt>
      <trkpt lat="42.685066" lon="0.532875">
        <ele>2788.049</ele>
        <time>2021-08-09T13:49:49Z</time>
      </trkpt>
      <trkpt lat="42.685034" lon="0.532925">
        <ele>2787.058</ele>
        <time>2021-08-09T13:50:07Z</time>
      </trkpt>
      <trkpt lat="42.685001" lon="0.532985">
        <ele>2784.052</ele>
        <time>2021-08-09T13:50:23Z</time>
      </trkpt>
      <trkpt lat="42.684968" lon="0.533037">
        <ele>2781.017</ele>
        <time>2021-08-09T13:50:34Z</time>
      </trkpt>
      <trkpt lat="42.684989" lon="0.533103">
        <ele>2781.008</ele>
        <time>2021-08-09T13:50:38Z</time>
      </trkpt>
      <trkpt lat="42.685000" lon="0.533165">
        <ele>2780.073</ele>
        <time>2021-08-09T13:50:48Z</time>
      </trkpt>
      <trkpt lat="42.684961" lon="0.533212">
        <ele>2778.095</ele>
        <time>2021-08-09T13:51:01Z</time>
      </trkpt>
      <trkpt lat="42.684910" lon="0.533253">
        <ele>2773.019</ele>
        <time>2021-08-09T13:51:27Z</time>
      </trkpt>
      <trkpt lat="42.684870" lon="0.533283">
        <ele>2771.094</ele>
        <time>2021-08-09T13:51:48Z</time>
      </trkpt>
      <trkpt lat="42.684824" lon="0.533311">
        <ele>2768.031</ele>
        <time>2021-08-09T13:52:21Z</time>
      </trkpt>
      <trkpt lat="42.684777" lon="0.533311">
        <ele>2765.018</ele>
        <time>2021-08-09T13:52:40Z</time>
      </trkpt>
      <trkpt lat="42.684729" lon="0.533355">
        <ele>2765.098</ele>
        <time>2021-08-09T13:52:48Z</time>
      </trkpt>
      <trkpt lat="42.684697" lon="0.533405">
        <ele>2764.086</ele>
        <time>2021-08-09T13:52:56Z</time>
      </trkpt>
      <trkpt lat="42.684713" lon="0.533482">
        <ele>2762.095</ele>
        <time>2021-08-09T13:53:07Z</time>
      </trkpt>
      <trkpt lat="42.684742" lon="0.533530">
        <ele>2759.049</ele>
        <time>2021-08-09T13:53:19Z</time>
      </trkpt>
      <trkpt lat="42.684775" lon="0.533585">
        <ele>2756.023</ele>
        <time>2021-08-09T13:53:32Z</time>
      </trkpt>
      <trkpt lat="42.684777" lon="0.533651">
        <ele>2754.008</ele>
        <time>2021-08-09T13:53:50Z</time>
      </trkpt>
      <trkpt lat="42.684801" lon="0.533711">
        <ele>2754.077</ele>
        <time>2021-08-09T13:53:55Z</time>
      </trkpt>
      <trkpt lat="42.684837" lon="0.533761">
        <ele>2755.049</ele>
        <time>2021-08-09T13:54:01Z</time>
      </trkpt>
      <trkpt lat="42.684870" lon="0.533807">
        <ele>2755.043</ele>
        <time>2021-08-09T13:54:14Z</time>
      </trkpt>
      <trkpt lat="42.684882" lon="0.533869">
        <ele>2754.058</ele>
        <time>2021-08-09T13:54:38Z</time>
      </trkpt>
      <trkpt lat="42.684857" lon="0.533922">
        <ele>2751.035</ele>
        <time>2021-08-09T13:55:01Z</time>
      </trkpt>
      <trkpt lat="42.684913" lon="0.533951">
        <ele>2749.052</ele>
        <time>2021-08-09T13:55:10Z</time>
      </trkpt>
      <trkpt lat="42.684945" lon="0.533997">
        <ele>2748.012</ele>
        <time>2021-08-09T13:55:17Z</time>
      </trkpt>
      <trkpt lat="42.684990" lon="0.534021">
        <ele>2748.040</ele>
        <time>2021-08-09T13:55:22Z</time>
      </trkpt>
      <trkpt lat="42.684993" lon="0.534088">
        <ele>2743.076</ele>
        <time>2021-08-09T13:55:37Z</time>
      </trkpt>
      <trkpt lat="42.685027" lon="0.534128">
        <ele>2742.090</ele>
        <time>2021-08-09T13:55:45Z</time>
      </trkpt>
      <trkpt lat="42.685045" lon="0.534187">
        <ele>2739.019</ele>
        <time>2021-08-09T13:55:52Z</time>
      </trkpt>
      <trkpt lat="42.685088" lon="0.534206">
        <ele>2739.008</ele>
        <time>2021-08-09T13:58:42Z</time>
      </trkpt>
      <trkpt lat="42.685131" lon="0.534238">
        <ele>2740.055</ele>
        <time>2021-08-09T13:58:47Z</time>
      </trkpt>
      <trkpt lat="42.685150" lon="0.534299">
        <ele>2739.017</ele>
        <time>2021-08-09T13:58:53Z</time>
      </trkpt>
      <trkpt lat="42.685201" lon="0.534328">
        <ele>2737.041</ele>
        <time>2021-08-09T13:58:59Z</time>
      </trkpt>
      <trkpt lat="42.685242" lon="0.534375">
        <ele>2736.086</ele>
        <time>2021-08-09T13:59:05Z</time>
      </trkpt>
      <trkpt lat="42.685273" lon="0.534428">
        <ele>2735.073</ele>
        <time>2021-08-09T13:59:18Z</time>
      </trkpt>
      <trkpt lat="42.685314" lon="0.534481">
        <ele>2734.030</ele>
        <time>2021-08-09T13:59:22Z</time>
      </trkpt>
      <trkpt lat="42.685353" lon="0.534536">
        <ele>2734.020</ele>
        <time>2021-08-09T13:59:25Z</time>
      </trkpt>
      <trkpt lat="42.685383" lon="0.534592">
        <ele>2732.078</ele>
        <time>2021-08-09T13:59:29Z</time>
      </trkpt>
      <trkpt lat="42.685423" lon="0.534628">
        <ele>2730.082</ele>
        <time>2021-08-09T13:59:40Z</time>
      </trkpt>
      <trkpt lat="42.685475" lon="0.534659">
        <ele>2729.043</ele>
        <time>2021-08-09T13:59:44Z</time>
      </trkpt>
      <trkpt lat="42.685519" lon="0.534680">
        <ele>2728.017</ele>
        <time>2021-08-09T13:59:49Z</time>
      </trkpt>
      <trkpt lat="42.685542" lon="0.534740">
        <ele>2726.008</ele>
        <time>2021-08-09T13:59:59Z</time>
      </trkpt>
      <trkpt lat="42.685582" lon="0.534775">
        <ele>2725.056</ele>
        <time>2021-08-09T14:00:08Z</time>
      </trkpt>
      <trkpt lat="42.685628" lon="0.534806">
        <ele>2724.038</ele>
        <time>2021-08-09T14:00:14Z</time>
      </trkpt>
      <trkpt lat="42.685654" lon="0.534860">
        <ele>2723.072</ele>
        <time>2021-08-09T14:00:18Z</time>
      </trkpt>
      <trkpt lat="42.685609" lon="0.534857">
        <ele>2722.087</ele>
        <time>2021-08-09T14:00:37Z</time>
      </trkpt>
      <trkpt lat="42.685582" lon="0.534907">
        <ele>2719.084</ele>
        <time>2021-08-09T14:00:56Z</time>
      </trkpt>
      <trkpt lat="42.685555" lon="0.534957">
        <ele>2713.091</ele>
        <time>2021-08-09T14:01:13Z</time>
      </trkpt>
      <trkpt lat="42.685508" lon="0.534992">
        <ele>2707.031</ele>
        <time>2021-08-09T14:01:52Z</time>
      </trkpt>
      <trkpt lat="42.685469" lon="0.535044">
        <ele>2702.049</ele>
        <time>2021-08-09T14:02:24Z</time>
      </trkpt>
      <trkpt lat="42.685415" lon="0.535037">
        <ele>2698.018</ele>
        <time>2021-08-09T14:02:38Z</time>
      </trkpt>
      <trkpt lat="42.685363" lon="0.535035">
        <ele>2695.098</ele>
        <time>2021-08-09T14:02:50Z</time>
      </trkpt>
      <trkpt lat="42.685316" lon="0.535022">
        <ele>2695.017</ele>
        <time>2021-08-09T14:02:56Z</time>
      </trkpt>
      <trkpt lat="42.685269" lon="0.535018">
        <ele>2692.008</ele>
        <time>2021-08-09T14:03:07Z</time>
      </trkpt>
      <trkpt lat="42.685223" lon="0.535046">
        <ele>2689.049</ele>
        <time>2021-08-09T14:03:15Z</time>
      </trkpt>
      <trkpt lat="42.685253" lon="0.535104">
        <ele>2688.081</ele>
        <time>2021-08-09T14:03:23Z</time>
      </trkpt>
      <trkpt lat="42.685209" lon="0.535082">
        <ele>2686.015</ele>
        <time>2021-08-09T14:03:31Z</time>
      </trkpt>
      <trkpt lat="42.685164" lon="0.535060">
        <ele>2686.030</ele>
        <time>2021-08-09T14:03:36Z</time>
      </trkpt>
      <trkpt lat="42.685115" lon="0.535052">
        <ele>2685.097</ele>
        <time>2021-08-09T14:03:47Z</time>
      </trkpt>
      <trkpt lat="42.685116" lon="0.535115">
        <ele>2681.024</ele>
        <time>2021-08-09T14:03:57Z</time>
      </trkpt>
      <trkpt lat="42.685127" lon="0.535190">
        <ele>2677.034</ele>
        <time>2021-08-09T14:04:19Z</time>
      </trkpt>
      <trkpt lat="42.685145" lon="0.535254">
        <ele>2675.042</ele>
        <time>2021-08-09T14:04:25Z</time>
      </trkpt>
      <trkpt lat="42.685111" lon="0.535308">
        <ele>2673.083</ele>
        <time>2021-08-09T14:04:37Z</time>
      </trkpt>
      <trkpt lat="42.685062" lon="0.535317">
        <ele>2669.025</ele>
        <time>2021-08-09T14:04:52Z</time>
      </trkpt>
      <trkpt lat="42.685016" lon="0.535298">
        <ele>2668.017</ele>
        <time>2021-08-09T14:05:00Z</time>
      </trkpt>
      <trkpt lat="42.684972" lon="0.535268">
        <ele>2666.008</ele>
        <time>2021-08-09T14:05:06Z</time>
      </trkpt>
      <trkpt lat="42.684980" lon="0.535335">
        <ele>2660.016</ele>
        <time>2021-08-09T14:05:18Z</time>
      </trkpt>
      <trkpt lat="42.684989" lon="0.535405">
        <ele>2658.098</ele>
        <time>2021-08-09T14:05:22Z</time>
      </trkpt>
      <trkpt lat="42.684994" lon="0.535474">
        <ele>2655.072</ele>
        <time>2021-08-09T14:05:37Z</time>
      </trkpt>
      <trkpt lat="42.685001" lon="0.535538">
        <ele>2654.027</ele>
        <time>2021-08-09T14:05:43Z</time>
      </trkpt>
      <trkpt lat="42.685009" lon="0.535598">
        <ele>2653.094</ele>
        <time>2021-08-09T14:05:49Z</time>
      </trkpt>
      <trkpt lat="42.685034" lon="0.535662">
        <ele>2652.041</ele>
        <time>2021-08-09T14:05:55Z</time>
      </trkpt>
      <trkpt lat="42.685050" lon="0.535735">
        <ele>2649.041</ele>
        <time>2021-08-09T14:05:59Z</time>
      </trkpt>
      <trkpt lat="42.685059" lon="0.535802">
        <ele>2646.019</ele>
        <time>2021-08-09T14:06:04Z</time>
      </trkpt>
      <trkpt lat="42.685017" lon="0.535835">
        <ele>2645.082</ele>
        <time>2021-08-09T14:06:30Z</time>
      </trkpt>
      <trkpt lat="42.684978" lon="0.535886">
        <ele>2646.043</ele>
        <time>2021-08-09T14:06:39Z</time>
      </trkpt>
      <trkpt lat="42.685029" lon="0.535838">
        <ele>2644.017</ele>
        <time>2021-08-09T14:06:47Z</time>
      </trkpt>
      <trkpt lat="42.684995" lon="0.535880">
        <ele>2642.008</ele>
        <time>2021-08-09T14:07:20Z</time>
      </trkpt>
      <trkpt lat="42.684973" lon="0.535943">
        <ele>2641.086</ele>
        <time>2021-08-09T14:07:29Z</time>
      </trkpt>
      <trkpt lat="42.685010" lon="0.536001">
        <ele>2642.018</ele>
        <time>2021-08-09T14:07:40Z</time>
      </trkpt>
      <trkpt lat="42.684993" lon="0.536065">
        <ele>2642.032</ele>
        <time>2021-08-09T14:07:46Z</time>
      </trkpt>
      <trkpt lat="42.684948" lon="0.536072">
        <ele>2640.027</ele>
        <time>2021-08-09T14:07:53Z</time>
      </trkpt>
      <trkpt lat="42.684901" lon="0.536033">
        <ele>2639.064</ele>
        <time>2021-08-09T14:07:59Z</time>
      </trkpt>
      <trkpt lat="42.684854" lon="0.536015">
        <ele>2637.081</ele>
        <time>2021-08-09T14:08:07Z</time>
      </trkpt>
      <trkpt lat="42.684805" lon="0.535991">
        <ele>2636.071</ele>
        <time>2021-08-09T14:08:16Z</time>
      </trkpt>
      <trkpt lat="42.684759" lon="0.535932">
        <ele>2633.049</ele>
        <time>2021-08-09T14:08:26Z</time>
      </trkpt>
      <trkpt lat="42.684731" lon="0.535882">
        <ele>2631.093</ele>
        <time>2021-08-09T14:08:36Z</time>
      </trkpt>
      <trkpt lat="42.684684" lon="0.535855">
        <ele>2628.065</ele>
        <time>2021-08-09T14:08:55Z</time>
      </trkpt>
      <trkpt lat="42.684651" lon="0.535806">
        <ele>2626.021</ele>
        <time>2021-08-09T14:09:11Z</time>
      </trkpt>
      <trkpt lat="42.684609" lon="0.535832">
        <ele>2624.008</ele>
        <time>2021-08-09T14:09:19Z</time>
      </trkpt>
      <trkpt lat="42.684614" lon="0.535911">
        <ele>2617.017</ele>
        <time>2021-08-09T14:09:52Z</time>
      </trkpt>
      <trkpt lat="42.684621" lon="0.535978">
        <ele>2614.089</ele>
        <time>2021-08-09T14:10:25Z</time>
      </trkpt>
      <trkpt lat="42.684643" lon="0.536034">
        <ele>2611.023</ele>
        <time>2021-08-09T14:10:32Z</time>
      </trkpt>
      <trkpt lat="42.684618" lon="0.536100">
        <ele>2610.018</ele>
        <time>2021-08-09T14:10:52Z</time>
      </trkpt>
      <trkpt lat="42.684609" lon="0.536161">
        <ele>2607.075</ele>
        <time>2021-08-09T14:11:03Z</time>
      </trkpt>
      <trkpt lat="42.684598" lon="0.536229">
        <ele>2609.052</ele>
        <time>2021-08-09T14:11:14Z</time>
      </trkpt>
      <trkpt lat="42.684576" lon="0.536283">
        <ele>2608.022</ele>
        <time>2021-08-09T14:11:28Z</time>
      </trkpt>
      <trkpt lat="42.684532" lon="0.536264">
        <ele>2603.050</ele>
        <time>2021-08-09T14:11:42Z</time>
      </trkpt>
      <trkpt lat="42.684475" lon="0.536280">
        <ele>2601.012</ele>
        <time>2021-08-09T14:11:49Z</time>
      </trkpt>
      <trkpt lat="42.684430" lon="0.536288">
        <ele>2598.032</ele>
        <time>2021-08-09T14:11:56Z</time>
      </trkpt>
      <trkpt lat="42.684373" lon="0.536271">
        <ele>2595.005</ele>
        <time>2021-08-09T14:12:06Z</time>
      </trkpt>
      <trkpt lat="42.684326" lon="0.536282">
        <ele>2593.008</ele>
        <time>2021-08-09T14:12:15Z</time>
      </trkpt>
      <trkpt lat="42.684288" lon="0.536247">
        <ele>2589.059</ele>
        <time>2021-08-09T14:12:45Z</time>
      </trkpt>
      <trkpt lat="42.684241" lon="0.536244">
        <ele>2585.061</ele>
        <time>2021-08-09T14:13:05Z</time>
      </trkpt>
      <trkpt lat="42.684195" lon="0.536259">
        <ele>2582.055</ele>
        <time>2021-08-09T14:13:25Z</time>
      </trkpt>
      <trkpt lat="42.684148" lon="0.536276">
        <ele>2583.030</ele>
        <time>2021-08-09T14:13:37Z</time>
      </trkpt>
      <trkpt lat="42.684088" lon="0.536285">
        <ele>2576.047</ele>
        <time>2021-08-09T14:13:58Z</time>
      </trkpt>
      <trkpt lat="42.684035" lon="0.536283">
        <ele>2578.084</ele>
        <time>2021-08-09T14:14:15Z</time>
      </trkpt>
      <trkpt lat="42.683998" lon="0.536243">
        <ele>2575.094</ele>
        <time>2021-08-09T14:14:28Z</time>
      </trkpt>
      <trkpt lat="42.683976" lon="0.536308">
        <ele>2575.092</ele>
        <time>2021-08-09T14:14:40Z</time>
      </trkpt>
      <trkpt lat="42.683973" lon="0.536372">
        <ele>2573.092</ele>
        <time>2021-08-09T14:14:55Z</time>
      </trkpt>
      <trkpt lat="42.683981" lon="0.536443">
        <ele>2572.073</ele>
        <time>2021-08-09T14:15:07Z</time>
      </trkpt>
      <trkpt lat="42.683939" lon="0.536414">
        <ele>2567.020</ele>
        <time>2021-08-09T14:15:20Z</time>
      </trkpt>
      <trkpt lat="42.683890" lon="0.536402">
        <ele>2564.008</ele>
        <time>2021-08-09T14:15:32Z</time>
      </trkpt>
      <trkpt lat="42.683845" lon="0.536421">
        <ele>2563.047</ele>
        <time>2021-08-09T14:15:40Z</time>
      </trkpt>
      <trkpt lat="42.683832" lon="0.536483">
        <ele>2566.069</ele>
        <time>2021-08-09T14:15:54Z</time>
      </trkpt>
      <trkpt lat="42.683780" lon="0.536526">
        <ele>2565.063</ele>
        <time>2021-08-09T14:16:03Z</time>
      </trkpt>
      <trkpt lat="42.683752" lon="0.536584">
        <ele>2563.028</ele>
        <time>2021-08-09T14:16:20Z</time>
      </trkpt>
      <trkpt lat="42.683707" lon="0.536613">
        <ele>2563.095</ele>
        <time>2021-08-09T14:16:28Z</time>
      </trkpt>
      <trkpt lat="42.683669" lon="0.536663">
        <ele>2557.062</ele>
        <time>2021-08-09T14:16:40Z</time>
      </trkpt>
      <trkpt lat="42.683630" lon="0.536708">
        <ele>2556.092</ele>
        <time>2021-08-09T14:16:50Z</time>
      </trkpt>
      <trkpt lat="42.683602" lon="0.536767">
        <ele>2555.090</ele>
        <time>2021-08-09T14:16:54Z</time>
      </trkpt>
      <trkpt lat="42.683566" lon="0.536813">
        <ele>2553.096</ele>
        <time>2021-08-09T14:17:09Z</time>
      </trkpt>
      <trkpt lat="42.683543" lon="0.536871">
        <ele>2552.031</ele>
        <time>2021-08-09T14:17:14Z</time>
      </trkpt>
      <trkpt lat="42.683549" lon="0.536940">
        <ele>2552.024</ele>
        <time>2021-08-09T14:17:26Z</time>
      </trkpt>
      <trkpt lat="42.683522" lon="0.536998">
        <ele>2552.008</ele>
        <time>2021-08-09T14:17:36Z</time>
      </trkpt>
      <trkpt lat="42.683488" lon="0.537051">
        <ele>2553.037</ele>
        <time>2021-08-09T14:17:48Z</time>
      </trkpt>
      <trkpt lat="42.683467" lon="0.537106">
        <ele>2551.079</ele>
        <time>2021-08-09T14:17:52Z</time>
      </trkpt>
      <trkpt lat="42.683436" lon="0.537156">
        <ele>2549.073</ele>
        <time>2021-08-09T14:18:01Z</time>
      </trkpt>
      <trkpt lat="42.683400" lon="0.537195">
        <ele>2550.018</ele>
        <time>2021-08-09T14:18:09Z</time>
      </trkpt>
      <trkpt lat="42.683361" lon="0.537226">
        <ele>2549.095</ele>
        <time>2021-08-09T14:18:14Z</time>
      </trkpt>
      <trkpt lat="42.683375" lon="0.537289">
        <ele>2545.082</ele>
        <time>2021-08-09T14:18:29Z</time>
      </trkpt>
      <trkpt lat="42.683392" lon="0.537350">
        <ele>2547.072</ele>
        <time>2021-08-09T14:18:52Z</time>
      </trkpt>
      <trkpt lat="42.683374" lon="0.537414">
        <ele>2547.060</ele>
        <time>2021-08-09T14:19:00Z</time>
      </trkpt>
      <trkpt lat="42.683401" lon="0.537468">
        <ele>2547.019</ele>
        <time>2021-08-09T14:19:06Z</time>
      </trkpt>
      <trkpt lat="42.683372" lon="0.537522">
        <ele>2544.009</ele>
        <time>2021-08-09T14:19:11Z</time>
      </trkpt>
      <trkpt lat="42.683353" lon="0.537585">
        <ele>2543.019</ele>
        <time>2021-08-09T14:19:17Z</time>
      </trkpt>
      <trkpt lat="42.683311" lon="0.537619">
        <ele>2542.008</ele>
        <time>2021-08-09T14:19:22Z</time>
      </trkpt>
      <trkpt lat="42.683277" lon="0.537667">
        <ele>2539.099</ele>
        <time>2021-08-09T14:19:27Z</time>
      </trkpt>
      <trkpt lat="42.683237" lon="0.537698">
        <ele>2538.031</ele>
        <time>2021-08-09T14:19:31Z</time>
      </trkpt>
      <trkpt lat="42.683204" lon="0.537754">
        <ele>2536.025</ele>
        <time>2021-08-09T14:19:38Z</time>
      </trkpt>
      <trkpt lat="42.683160" lon="0.537799">
        <ele>2534.010</ele>
        <time>2021-08-09T14:19:45Z</time>
      </trkpt>
      <trkpt lat="42.683111" lon="0.537781">
        <ele>2533.067</ele>
        <time>2021-08-09T14:19:53Z</time>
      </trkpt>
      <trkpt lat="42.683059" lon="0.537789">
        <ele>2534.064</ele>
        <time>2021-08-09T14:20:01Z</time>
      </trkpt>
      <trkpt lat="42.683011" lon="0.537864">
        <ele>2535.084</ele>
        <time>2021-08-09T14:20:10Z</time>
      </trkpt>
      <trkpt lat="42.682970" lon="0.537901">
        <ele>2534.062</ele>
        <time>2021-08-09T14:20:18Z</time>
      </trkpt>
      <trkpt lat="42.682931" lon="0.537944">
        <ele>2534.064</ele>
        <time>2021-08-09T14:20:24Z</time>
      </trkpt>
      <trkpt lat="42.682875" lon="0.537974">
        <ele>2533.006</ele>
        <time>2021-08-09T14:20:36Z</time>
      </trkpt>
      <trkpt lat="42.682830" lon="0.537969">
        <ele>2531.016</ele>
        <time>2021-08-09T14:20:45Z</time>
      </trkpt>
      <trkpt lat="42.682780" lon="0.537968">
        <ele>2529.008</ele>
        <time>2021-08-09T14:20:52Z</time>
      </trkpt>
      <trkpt lat="42.682761" lon="0.538024">
        <ele>2530.024</ele>
        <time>2021-08-09T14:20:58Z</time>
      </trkpt>
      <trkpt lat="42.682714" lon="0.538065">
        <ele>2529.056</ele>
        <time>2021-08-09T14:21:05Z</time>
      </trkpt>
      <trkpt lat="42.682690" lon="0.538123">
        <ele>2527.070</ele>
        <time>2021-08-09T14:21:10Z</time>
      </trkpt>
      <trkpt lat="42.682688" lon="0.538186">
        <ele>2528.035</ele>
        <time>2021-08-09T14:21:16Z</time>
      </trkpt>
      <trkpt lat="42.682700" lon="0.538257">
        <ele>2527.032</ele>
        <time>2021-08-09T14:21:21Z</time>
      </trkpt>
      <trkpt lat="42.682679" lon="0.538312">
        <ele>2525.099</ele>
        <time>2021-08-09T14:21:27Z</time>
      </trkpt>
      <trkpt lat="42.682637" lon="0.538359">
        <ele>2526.099</ele>
        <time>2021-08-09T14:21:41Z</time>
      </trkpt>
      <trkpt lat="42.682579" lon="0.538366">
        <ele>2527.057</ele>
        <time>2021-08-09T14:21:45Z</time>
      </trkpt>
      <trkpt lat="42.682559" lon="0.538428">
        <ele>2528.036</ele>
        <time>2021-08-09T14:21:50Z</time>
      </trkpt>
      <trkpt lat="42.682528" lon="0.538477">
        <ele>2527.017</ele>
        <time>2021-08-09T14:21:55Z</time>
      </trkpt>
      <trkpt lat="42.682489" lon="0.538517">
        <ele>2527.018</ele>
        <time>2021-08-09T14:22:03Z</time>
      </trkpt>
      <trkpt lat="42.682470" lon="0.538578">
        <ele>2526.008</ele>
        <time>2021-08-09T14:22:11Z</time>
      </trkpt>
      <trkpt lat="42.682442" lon="0.538626">
        <ele>2525.091</ele>
        <time>2021-08-09T14:22:16Z</time>
      </trkpt>
      <trkpt lat="42.682393" lon="0.538665">
        <ele>2525.013</ele>
        <time>2021-08-09T14:22:22Z</time>
      </trkpt>
      <trkpt lat="42.682346" lon="0.538701">
        <ele>2523.017</ele>
        <time>2021-08-09T14:22:27Z</time>
      </trkpt>
      <trkpt lat="42.682303" lon="0.538736">
        <ele>2524.052</ele>
        <time>2021-08-09T14:22:34Z</time>
      </trkpt>
      <trkpt lat="42.682291" lon="0.538799">
        <ele>2523.089</ele>
        <time>2021-08-09T14:22:38Z</time>
      </trkpt>
      <trkpt lat="42.682247" lon="0.538840">
        <ele>2524.096</ele>
        <time>2021-08-09T14:22:47Z</time>
      </trkpt>
      <trkpt lat="42.682231" lon="0.538907">
        <ele>2527.076</ele>
        <time>2021-08-09T14:22:55Z</time>
      </trkpt>
      <trkpt lat="42.682208" lon="0.538969">
        <ele>2528.024</ele>
        <time>2021-08-09T14:23:06Z</time>
      </trkpt>
      <trkpt lat="42.682166" lon="0.539015">
        <ele>2527.013</ele>
        <time>2021-08-09T14:23:13Z</time>
      </trkpt>
      <trkpt lat="42.682144" lon="0.539071">
        <ele>2525.043</ele>
        <time>2021-08-09T14:23:19Z</time>
      </trkpt>
      <trkpt lat="42.682115" lon="0.539128">
        <ele>2525.007</ele>
        <time>2021-08-09T14:23:28Z</time>
      </trkpt>
      <trkpt lat="42.682098" lon="0.539185">
        <ele>2523.008</ele>
        <time>2021-08-09T14:23:34Z</time>
      </trkpt>
      <trkpt lat="42.682069" lon="0.539241">
        <ele>2526.039</ele>
        <time>2021-08-09T14:24:13Z</time>
      </trkpt>
      <trkpt lat="42.682063" lon="0.539302">
        <ele>2524.071</ele>
        <time>2021-08-09T14:24:19Z</time>
      </trkpt>
      <trkpt lat="42.682056" lon="0.539371">
        <ele>2522.015</ele>
        <time>2021-08-09T14:24:25Z</time>
      </trkpt>
      <trkpt lat="42.682019" lon="0.539411">
        <ele>2521.070</ele>
        <time>2021-08-09T14:24:31Z</time>
      </trkpt>
      <trkpt lat="42.681995" lon="0.539471">
        <ele>2520.067</ele>
        <time>2021-08-09T14:24:44Z</time>
      </trkpt>
      <trkpt lat="42.681959" lon="0.539514">
        <ele>2520.084</ele>
        <time>2021-08-09T14:24:50Z</time>
      </trkpt>
      <trkpt lat="42.681911" lon="0.539534">
        <ele>2518.034</ele>
        <time>2021-08-09T14:24:55Z</time>
      </trkpt>
      <trkpt lat="42.681883" lon="0.539590">
        <ele>2517.072</ele>
        <time>2021-08-09T14:25:01Z</time>
      </trkpt>
      <trkpt lat="42.681881" lon="0.539662">
        <ele>2515.069</ele>
        <time>2021-08-09T14:25:08Z</time>
      </trkpt>
      <trkpt lat="42.681856" lon="0.539718">
        <ele>2515.004</ele>
        <time>2021-08-09T14:25:12Z</time>
      </trkpt>
      <trkpt lat="42.681819" lon="0.539760">
        <ele>2513.024</ele>
        <time>2021-08-09T14:25:23Z</time>
      </trkpt>
      <trkpt lat="42.681762" lon="0.539753">
        <ele>2516.008</ele>
        <time>2021-08-09T14:25:34Z</time>
      </trkpt>
      <trkpt lat="42.681719" lon="0.539787">
        <ele>2515.024</ele>
        <time>2021-08-09T14:25:40Z</time>
      </trkpt>
      <trkpt lat="42.681678" lon="0.539827">
        <ele>2515.036</ele>
        <time>2021-08-09T14:25:46Z</time>
      </trkpt>
      <trkpt lat="42.681681" lon="0.539899">
        <ele>2516.060</ele>
        <time>2021-08-09T14:25:52Z</time>
      </trkpt>
      <trkpt lat="42.681635" lon="0.539916">
        <ele>2519.055</ele>
        <time>2021-08-09T14:26:03Z</time>
      </trkpt>
      <trkpt lat="42.681585" lon="0.539932">
        <ele>2518.082</ele>
        <time>2021-08-09T14:26:07Z</time>
      </trkpt>
      <trkpt lat="42.681560" lon="0.539990">
        <ele>2518.019</ele>
        <time>2021-08-09T14:26:12Z</time>
      </trkpt>
      <trkpt lat="42.681564" lon="0.540055">
        <ele>2523.029</ele>
        <time>2021-08-09T14:26:19Z</time>
      </trkpt>
      <trkpt lat="42.681563" lon="0.540123">
        <ele>2524.087</ele>
        <time>2021-08-09T14:26:26Z</time>
      </trkpt>
      <trkpt lat="42.681509" lon="0.540127">
        <ele>2523.024</ele>
        <time>2021-08-09T14:26:34Z</time>
      </trkpt>
      <trkpt lat="42.681469" lon="0.540163">
        <ele>2523.004</ele>
        <time>2021-08-09T14:26:40Z</time>
      </trkpt>
      <trkpt lat="42.681490" lon="0.540224">
        <ele>2529.014</ele>
        <time>2021-08-09T14:26:54Z</time>
      </trkpt>
      <trkpt lat="42.681445" lon="0.540267">
        <ele>2527.008</ele>
        <time>2021-08-09T14:27:01Z</time>
      </trkpt>
      <trkpt lat="42.681399" lon="0.540267">
        <ele>2526.030</ele>
        <time>2021-08-09T14:27:05Z</time>
      </trkpt>
      <trkpt lat="42.681373" lon="0.540320">
        <ele>2529.072</ele>
        <time>2021-08-09T14:27:13Z</time>
      </trkpt>
      <trkpt lat="42.681355" lon="0.540379">
        <ele>2530.016</ele>
        <time>2021-08-09T14:27:30Z</time>
      </trkpt>
      <trkpt lat="42.681305" lon="0.540414">
        <ele>2537.031</ele>
        <time>2021-08-09T14:27:47Z</time>
      </trkpt>
      <trkpt lat="42.681278" lon="0.540473">
        <ele>2540.028</ele>
        <time>2021-08-09T14:28:00Z</time>
      </trkpt>
      <trkpt lat="42.681238" lon="0.540507">
        <ele>2541.095</ele>
        <time>2021-08-09T14:28:07Z</time>
      </trkpt>
      <trkpt lat="42.681202" lon="0.540544">
        <ele>2541.065</ele>
        <time>2021-08-09T14:28:14Z</time>
      </trkpt>
      <trkpt lat="42.681165" lon="0.540584">
        <ele>2544.063</ele>
        <time>2021-08-09T14:28:21Z</time>
      </trkpt>
      <trkpt lat="42.681124" lon="0.540614">
        <ele>2542.032</ele>
        <time>2021-08-09T14:28:26Z</time>
      </trkpt>
      <trkpt lat="42.681084" lon="0.540643">
        <ele>2543.092</ele>
        <time>2021-08-09T14:28:30Z</time>
      </trkpt>
      <trkpt lat="42.681041" lon="0.540670">
        <ele>2542.011</ele>
        <time>2021-08-09T14:28:34Z</time>
      </trkpt>
      <trkpt lat="42.681007" lon="0.540722">
        <ele>2543.008</ele>
        <time>2021-08-09T14:28:40Z</time>
      </trkpt>
      <trkpt lat="42.680963" lon="0.540742">
        <ele>2542.091</ele>
        <time>2021-08-09T14:28:46Z</time>
      </trkpt>
      <trkpt lat="42.680914" lon="0.540744">
        <ele>2543.083</ele>
        <time>2021-08-09T14:28:50Z</time>
      </trkpt>
      <trkpt lat="42.680900" lon="0.540804">
        <ele>2546.077</ele>
        <time>2021-08-09T14:29:43Z</time>
      </trkpt>
      <trkpt lat="42.680868" lon="0.540853">
        <ele>2545.052</ele>
        <time>2021-08-09T14:29:47Z</time>
      </trkpt>
      <trkpt lat="42.680822" lon="0.540887">
        <ele>2545.049</ele>
        <time>2021-08-09T14:29:53Z</time>
      </trkpt>
      <trkpt lat="42.680782" lon="0.540921">
        <ele>2546.036</ele>
        <time>2021-08-09T14:30:01Z</time>
      </trkpt>
      <trkpt lat="42.680736" lon="0.540927">
        <ele>2546.046</ele>
        <time>2021-08-09T14:30:05Z</time>
      </trkpt>
      <trkpt lat="42.680690" lon="0.540960">
        <ele>2545.074</ele>
        <time>2021-08-09T14:30:14Z</time>
      </trkpt>
      <trkpt lat="42.680637" lon="0.540983">
        <ele>2544.035</ele>
        <time>2021-08-09T14:30:20Z</time>
      </trkpt>
      <trkpt lat="42.680591" lon="0.540995">
        <ele>2544.086</ele>
        <time>2021-08-09T14:30:24Z</time>
      </trkpt>
      <trkpt lat="42.680540" lon="0.541006">
        <ele>2542.014</ele>
        <time>2021-08-09T14:30:28Z</time>
      </trkpt>
      <trkpt lat="42.680495" lon="0.541016">
        <ele>2541.008</ele>
        <time>2021-08-09T14:30:33Z</time>
      </trkpt>
      <trkpt lat="42.680452" lon="0.541040">
        <ele>2542.081</ele>
        <time>2021-08-09T14:30:40Z</time>
      </trkpt>
      <trkpt lat="42.680402" lon="0.541010">
        <ele>2538.073</ele>
        <time>2021-08-09T14:30:53Z</time>
      </trkpt>
      <trkpt lat="42.680352" lon="0.541006">
        <ele>2537.027</ele>
        <time>2021-08-09T14:31:07Z</time>
      </trkpt>
      <trkpt lat="42.680308" lon="0.540980">
        <ele>2536.032</ele>
        <time>2021-08-09T14:32:22Z</time>
      </trkpt>
      <trkpt lat="42.680264" lon="0.541002">
        <ele>2535.049</ele>
        <time>2021-08-09T14:32:57Z</time>
      </trkpt>
      <trkpt lat="42.680214" lon="0.540999">
        <ele>2535.026</ele>
        <time>2021-08-09T14:33:07Z</time>
      </trkpt>
      <trkpt lat="42.680167" lon="0.540999">
        <ele>2530.056</ele>
        <time>2021-08-09T14:33:17Z</time>
      </trkpt>
      <trkpt lat="42.680125" lon="0.541027">
        <ele>2527.084</ele>
        <time>2021-08-09T14:33:24Z</time>
      </trkpt>
      <trkpt lat="42.680081" lon="0.541061">
        <ele>2524.019</ele>
        <time>2021-08-09T14:33:31Z</time>
      </trkpt>
      <trkpt lat="42.680051" lon="0.541133">
        <ele>2523.009</ele>
        <time>2021-08-09T14:33:45Z</time>
      </trkpt>
      <trkpt lat="42.680029" lon="0.541190">
        <ele>2522.019</ele>
        <time>2021-08-09T14:34:01Z</time>
      </trkpt>
      <trkpt lat="42.679992" lon="0.541232">
        <ele>2521.008</ele>
        <time>2021-08-09T14:34:08Z</time>
      </trkpt>
      <trkpt lat="42.679958" lon="0.541282">
        <ele>2520.069</ele>
        <time>2021-08-09T14:34:12Z</time>
      </trkpt>
      <trkpt lat="42.679943" lon="0.541355">
        <ele>2518.041</ele>
        <time>2021-08-09T14:34:18Z</time>
      </trkpt>
      <trkpt lat="42.679916" lon="0.541418">
        <ele>2514.075</ele>
        <time>2021-08-09T14:34:30Z</time>
      </trkpt>
      <trkpt lat="42.679890" lon="0.541470">
        <ele>2512.070</ele>
        <time>2021-08-09T14:34:35Z</time>
      </trkpt>
      <trkpt lat="42.679882" lon="0.541532">
        <ele>2514.017</ele>
        <time>2021-08-09T14:34:40Z</time>
      </trkpt>
      <trkpt lat="42.679838" lon="0.541574">
        <ele>2512.044</ele>
        <time>2021-08-09T14:34:47Z</time>
      </trkpt>
      <trkpt lat="42.679817" lon="0.541642">
        <ele>2512.094</ele>
        <time>2021-08-09T14:34:51Z</time>
      </trkpt>
      <trkpt lat="42.679782" lon="0.541702">
        <ele>2512.042</ele>
        <time>2021-08-09T14:35:00Z</time>
      </trkpt>
      <trkpt lat="42.679789" lon="0.541778">
        <ele>2513.061</ele>
        <time>2021-08-09T14:35:06Z</time>
      </trkpt>
      <trkpt lat="42.679753" lon="0.541826">
        <ele>2512.021</ele>
        <time>2021-08-09T14:35:11Z</time>
      </trkpt>
      <trkpt lat="42.679719" lon="0.541867">
        <ele>2512.013</ele>
        <time>2021-08-09T14:35:19Z</time>
      </trkpt>
      <trkpt lat="42.679697" lon="0.541922">
        <ele>2511.008</ele>
        <time>2021-08-09T14:35:23Z</time>
      </trkpt>
      <trkpt lat="42.679684" lon="0.541986">
        <ele>2512.014</ele>
        <time>2021-08-09T14:35:28Z</time>
      </trkpt>
      <trkpt lat="42.679684" lon="0.542048">
        <ele>2514.056</ele>
        <time>2021-08-09T14:35:38Z</time>
      </trkpt>
      <trkpt lat="42.679646" lon="0.542090">
        <ele>2514.010</ele>
        <time>2021-08-09T14:35:51Z</time>
      </trkpt>
      <trkpt lat="42.679611" lon="0.542129">
        <ele>2513.055</ele>
        <time>2021-08-09T14:36:00Z</time>
      </trkpt>
      <trkpt lat="42.679595" lon="0.542191">
        <ele>2513.062</ele>
        <time>2021-08-09T14:36:07Z</time>
      </trkpt>
      <trkpt lat="42.679550" lon="0.542232">
        <ele>2512.039</ele>
        <time>2021-08-09T14:36:12Z</time>
      </trkpt>
      <trkpt lat="42.679503" lon="0.542254">
        <ele>2514.049</ele>
        <time>2021-08-09T14:36:19Z</time>
      </trkpt>
      <trkpt lat="42.679484" lon="0.542322">
        <ele>2512.077</ele>
        <time>2021-08-09T14:36:24Z</time>
      </trkpt>
      <trkpt lat="42.679482" lon="0.542384">
        <ele>2511.076</ele>
        <time>2021-08-09T14:36:30Z</time>
      </trkpt>
      <trkpt lat="42.679461" lon="0.542448">
        <ele>2511.090</ele>
        <time>2021-08-09T14:36:38Z</time>
      </trkpt>
      <trkpt lat="42.679417" lon="0.542489">
        <ele>2510.019</ele>
        <time>2021-08-09T14:36:43Z</time>
      </trkpt>
      <trkpt lat="42.679373" lon="0.542531">
        <ele>2508.008</ele>
        <time>2021-08-09T14:36:50Z</time>
      </trkpt>
      <trkpt lat="42.679347" lon="0.542583">
        <ele>2507.015</ele>
        <time>2021-08-09T14:36:54Z</time>
      </trkpt>
      <trkpt lat="42.679315" lon="0.542629">
        <ele>2506.017</ele>
        <time>2021-08-09T14:36:58Z</time>
      </trkpt>
      <trkpt lat="42.679280" lon="0.542678">
        <ele>2505.011</ele>
        <time>2021-08-09T14:37:03Z</time>
      </trkpt>
      <trkpt lat="42.679268" lon="0.542738">
        <ele>2507.036</ele>
        <time>2021-08-09T14:37:11Z</time>
      </trkpt>
      <trkpt lat="42.679223" lon="0.542725">
        <ele>2505.013</ele>
        <time>2021-08-09T14:37:40Z</time>
      </trkpt>
      <trkpt lat="42.679255" lon="0.542816">
        <ele>2510.010</ele>
        <time>2021-08-09T15:03:05Z</time>
      </trkpt>
      <trkpt lat="42.679245" lon="0.542880">
        <ele>2511.080</ele>
        <time>2021-08-09T15:03:11Z</time>
      </trkpt>
      <trkpt lat="42.679232" lon="0.542944">
        <ele>2510.098</ele>
        <time>2021-08-09T15:03:16Z</time>
      </trkpt>
      <trkpt lat="42.679212" lon="0.543005">
        <ele>2511.035</ele>
        <time>2021-08-09T15:03:21Z</time>
      </trkpt>
      <trkpt lat="42.679172" lon="0.543054">
        <ele>2509.086</ele>
        <time>2021-08-09T15:03:27Z</time>
      </trkpt>
      <trkpt lat="42.679154" lon="0.543112">
        <ele>2509.014</ele>
        <time>2021-08-09T15:03:32Z</time>
      </trkpt>
      <trkpt lat="42.679160" lon="0.543176">
        <ele>2510.008</ele>
        <time>2021-08-09T15:03:48Z</time>
      </trkpt>
      <trkpt lat="42.679137" lon="0.543249">
        <ele>2509.011</ele>
        <time>2021-08-09T15:03:53Z</time>
      </trkpt>
      <trkpt lat="42.679110" lon="0.543304">
        <ele>2508.083</ele>
        <time>2021-08-09T15:03:58Z</time>
      </trkpt>
      <trkpt lat="42.679076" lon="0.543345">
        <ele>2508.037</ele>
        <time>2021-08-09T15:04:02Z</time>
      </trkpt>
      <trkpt lat="42.679054" lon="0.543413">
        <ele>2507.082</ele>
        <time>2021-08-09T15:04:06Z</time>
      </trkpt>
      <trkpt lat="42.679031" lon="0.543481">
        <ele>2507.049</ele>
        <time>2021-08-09T15:04:09Z</time>
      </trkpt>
      <trkpt lat="42.679015" lon="0.543545">
        <ele>2507.066</ele>
        <time>2021-08-09T15:04:13Z</time>
      </trkpt>
      <trkpt lat="42.679008" lon="0.543610">
        <ele>2506.086</ele>
        <time>2021-08-09T15:04:17Z</time>
      </trkpt>
      <trkpt lat="42.678998" lon="0.543678">
        <ele>2506.074</ele>
        <time>2021-08-09T15:04:21Z</time>
      </trkpt>
      <trkpt lat="42.678960" lon="0.543727">
        <ele>2506.034</ele>
        <time>2021-08-09T15:04:25Z</time>
      </trkpt>
      <trkpt lat="42.678939" lon="0.543782">
        <ele>2506.055</ele>
        <time>2021-08-09T15:04:28Z</time>
      </trkpt>
      <trkpt lat="42.678906" lon="0.543836">
        <ele>2506.010</ele>
        <time>2021-08-09T15:04:32Z</time>
      </trkpt>
      <trkpt lat="42.678866" lon="0.543880">
        <ele>2505.008</ele>
        <time>2021-08-09T15:04:37Z</time>
      </trkpt>
      <trkpt lat="42.678817" lon="0.543887">
        <ele>2504.081</ele>
        <time>2021-08-09T15:04:41Z</time>
      </trkpt>
      <trkpt lat="42.678762" lon="0.543876">
        <ele>2503.023</ele>
        <time>2021-08-09T15:04:45Z</time>
      </trkpt>
      <trkpt lat="42.678720" lon="0.543923">
        <ele>2502.017</ele>
        <time>2021-08-09T15:04:50Z</time>
      </trkpt>
      <trkpt lat="42.678687" lon="0.543977">
        <ele>2501.032</ele>
        <time>2021-08-09T15:04:55Z</time>
      </trkpt>
      <trkpt lat="42.678638" lon="0.543980">
        <ele>2500.079</ele>
        <time>2021-08-09T15:05:00Z</time>
      </trkpt>
      <trkpt lat="42.678596" lon="0.544018">
        <ele>2499.096</ele>
        <time>2021-08-09T15:05:05Z</time>
      </trkpt>
      <trkpt lat="42.678616" lon="0.544073">
        <ele>2497.056</ele>
        <time>2021-08-09T15:05:10Z</time>
      </trkpt>
      <trkpt lat="42.678594" lon="0.544143">
        <ele>2497.034</ele>
        <time>2021-08-09T15:05:17Z</time>
      </trkpt>
      <trkpt lat="42.678576" lon="0.544212">
        <ele>2497.044</ele>
        <time>2021-08-09T15:05:20Z</time>
      </trkpt>
      <trkpt lat="42.678546" lon="0.544271">
        <ele>2496.005</ele>
        <time>2021-08-09T15:05:25Z</time>
      </trkpt>
      <trkpt lat="42.678536" lon="0.544334">
        <ele>2494.015</ele>
        <time>2021-08-09T15:05:30Z</time>
      </trkpt>
      <trkpt lat="42.678534" lon="0.544406">
        <ele>2495.008</ele>
        <time>2021-08-09T15:05:33Z</time>
      </trkpt>
      <trkpt lat="42.678520" lon="0.544480">
        <ele>2495.082</ele>
        <time>2021-08-09T15:05:37Z</time>
      </trkpt>
      <trkpt lat="42.678502" lon="0.544544">
        <ele>2495.064</ele>
        <time>2021-08-09T15:05:43Z</time>
      </trkpt>
      <trkpt lat="42.678500" lon="0.544608">
        <ele>2493.028</ele>
        <time>2021-08-09T15:05:46Z</time>
      </trkpt>
      <trkpt lat="42.678525" lon="0.544665">
        <ele>2493.013</ele>
        <time>2021-08-09T15:05:51Z</time>
      </trkpt>
      <trkpt lat="42.678518" lon="0.544730">
        <ele>2492.070</ele>
        <time>2021-08-09T15:05:58Z</time>
      </trkpt>
      <trkpt lat="42.678523" lon="0.544801">
        <ele>2490.057</ele>
        <time>2021-08-09T15:06:06Z</time>
      </trkpt>
      <trkpt lat="42.678508" lon="0.544866">
        <ele>2488.087</ele>
        <time>2021-08-09T15:06:18Z</time>
      </trkpt>
      <trkpt lat="42.678477" lon="0.544923">
        <ele>2484.035</ele>
        <time>2021-08-09T15:06:32Z</time>
      </trkpt>
      <trkpt lat="42.678449" lon="0.544982">
        <ele>2480.074</ele>
        <time>2021-08-09T15:06:41Z</time>
      </trkpt>
      <trkpt lat="42.678470" lon="0.545040">
        <ele>2475.056</ele>
        <time>2021-08-09T15:06:59Z</time>
      </trkpt>
      <trkpt lat="42.678457" lon="0.545103">
        <ele>2472.021</ele>
        <time>2021-08-09T15:07:14Z</time>
      </trkpt>
      <trkpt lat="42.678457" lon="0.545181">
        <ele>2471.008</ele>
        <time>2021-08-09T15:07:19Z</time>
      </trkpt>
      <trkpt lat="42.678423" lon="0.545242">
        <ele>2468.025</ele>
        <time>2021-08-09T15:07:29Z</time>
      </trkpt>
      <trkpt lat="42.678388" lon="0.545283">
        <ele>2466.097</ele>
        <time>2021-08-09T15:07:40Z</time>
      </trkpt>
      <trkpt lat="42.678368" lon="0.545338">
        <ele>2464.031</ele>
        <time>2021-08-09T15:07:48Z</time>
      </trkpt>
      <trkpt lat="42.678356" lon="0.545403">
        <ele>2460.036</ele>
        <time>2021-08-09T15:08:00Z</time>
      </trkpt>
      <trkpt lat="42.678342" lon="0.545464">
        <ele>2458.013</ele>
        <time>2021-08-09T15:08:13Z</time>
      </trkpt>
      <trkpt lat="42.678319" lon="0.545529">
        <ele>2452.020</ele>
        <time>2021-08-09T15:08:24Z</time>
      </trkpt>
      <trkpt lat="42.678299" lon="0.545596">
        <ele>2449.030</ele>
        <time>2021-08-09T15:08:32Z</time>
      </trkpt>
      <trkpt lat="42.678339" lon="0.545643">
        <ele>2447.028</ele>
        <time>2021-08-09T15:08:51Z</time>
      </trkpt>
      <trkpt lat="42.678335" lon="0.545704">
        <ele>2445.046</ele>
        <time>2021-08-09T15:09:00Z</time>
      </trkpt>
      <trkpt lat="42.678353" lon="0.545762">
        <ele>2445.088</ele>
        <time>2021-08-09T15:09:08Z</time>
      </trkpt>
      <trkpt lat="42.678314" lon="0.545804">
        <ele>2444.016</ele>
        <time>2021-08-09T15:09:26Z</time>
      </trkpt>
      <trkpt lat="42.678318" lon="0.545867">
        <ele>2441.008</ele>
        <time>2021-08-09T15:09:39Z</time>
      </trkpt>
      <trkpt lat="42.678332" lon="0.545926">
        <ele>2438.072</ele>
        <time>2021-08-09T15:09:50Z</time>
      </trkpt>
      <trkpt lat="42.678339" lon="0.545988">
        <ele>2435.014</ele>
        <time>2021-08-09T15:10:13Z</time>
      </trkpt>
      <trkpt lat="42.678355" lon="0.546049">
        <ele>2435.028</ele>
        <time>2021-08-09T15:10:19Z</time>
      </trkpt>
      <trkpt lat="42.678358" lon="0.546120">
        <ele>2434.093</ele>
        <time>2021-08-09T15:10:26Z</time>
      </trkpt>
      <trkpt lat="42.678332" lon="0.546180">
        <ele>2433.080</ele>
        <time>2021-08-09T15:10:34Z</time>
      </trkpt>
      <trkpt lat="42.678296" lon="0.546226">
        <ele>2431.037</ele>
        <time>2021-08-09T15:10:41Z</time>
      </trkpt>
      <trkpt lat="42.678247" lon="0.546225">
        <ele>2423.047</ele>
        <time>2021-08-09T15:10:58Z</time>
      </trkpt>
      <trkpt lat="42.678226" lon="0.546287">
        <ele>2419.045</ele>
        <time>2021-08-09T15:11:07Z</time>
      </trkpt>
      <trkpt lat="42.678227" lon="0.546349">
        <ele>2417.035</ele>
        <time>2021-08-09T15:11:15Z</time>
      </trkpt>
      <trkpt lat="42.678203" lon="0.546406">
        <ele>2414.086</ele>
        <time>2021-08-09T15:11:25Z</time>
      </trkpt>
      <trkpt lat="42.678173" lon="0.546464">
        <ele>2410.014</ele>
        <time>2021-08-09T15:11:34Z</time>
      </trkpt>
      <trkpt lat="42.678130" lon="0.546504">
        <ele>2407.008</ele>
        <time>2021-08-09T15:11:45Z</time>
      </trkpt>
      <trkpt lat="42.678102" lon="0.546555">
        <ele>2405.051</ele>
        <time>2021-08-09T15:11:50Z</time>
      </trkpt>
      <trkpt lat="42.678054" lon="0.546585">
        <ele>2405.073</ele>
        <time>2021-08-09T15:11:59Z</time>
      </trkpt>
      <trkpt lat="42.678054" lon="0.546652">
        <ele>2404.047</ele>
        <time>2021-08-09T15:12:04Z</time>
      </trkpt>
      <trkpt lat="42.678019" lon="0.546710">
        <ele>2403.032</ele>
        <time>2021-08-09T15:12:11Z</time>
      </trkpt>
      <trkpt lat="42.677988" lon="0.546763">
        <ele>2400.079</ele>
        <time>2021-08-09T15:12:16Z</time>
      </trkpt>
      <trkpt lat="42.677947" lon="0.546788">
        <ele>2399.076</ele>
        <time>2021-08-09T15:12:23Z</time>
      </trkpt>
      <trkpt lat="42.677904" lon="0.546824">
        <ele>2398.086</ele>
        <time>2021-08-09T15:12:27Z</time>
      </trkpt>
      <trkpt lat="42.677883" lon="0.546881">
        <ele>2397.014</ele>
        <time>2021-08-09T15:12:31Z</time>
      </trkpt>
      <trkpt lat="42.677838" lon="0.546894">
        <ele>2395.095</ele>
        <time>2021-08-09T15:12:35Z</time>
      </trkpt>
      <trkpt lat="42.677814" lon="0.546954">
        <ele>2394.049</ele>
        <time>2021-08-09T15:12:39Z</time>
      </trkpt>
      <trkpt lat="42.677790" lon="0.547009">
        <ele>2393.023</ele>
        <time>2021-08-09T15:12:43Z</time>
      </trkpt>
      <trkpt lat="42.677775" lon="0.547071">
        <ele>2390.008</ele>
        <time>2021-08-09T15:12:48Z</time>
      </trkpt>
      <trkpt lat="42.677742" lon="0.547127">
        <ele>2391.097</ele>
        <time>2021-08-09T15:12:56Z</time>
      </trkpt>
      <trkpt lat="42.677718" lon="0.547180">
        <ele>2390.089</ele>
        <time>2021-08-09T15:12:59Z</time>
      </trkpt>
      <trkpt lat="42.677703" lon="0.547239">
        <ele>2389.073</ele>
        <time>2021-08-09T15:13:07Z</time>
      </trkpt>
      <trkpt lat="42.677691" lon="0.547303">
        <ele>2387.078</ele>
        <time>2021-08-09T15:13:17Z</time>
      </trkpt>
      <trkpt lat="42.677650" lon="0.547329">
        <ele>2382.085</ele>
        <time>2021-08-09T15:13:27Z</time>
      </trkpt>
      <trkpt lat="42.677626" lon="0.547384">
        <ele>2379.062</ele>
        <time>2021-08-09T15:13:40Z</time>
      </trkpt>
      <trkpt lat="42.677600" lon="0.547435">
        <ele>2377.062</ele>
        <time>2021-08-09T15:13:46Z</time>
      </trkpt>
      <trkpt lat="42.677611" lon="0.547507">
        <ele>2375.090</ele>
        <time>2021-08-09T15:13:51Z</time>
      </trkpt>
      <trkpt lat="42.677569" lon="0.547543">
        <ele>2373.041</ele>
        <time>2021-08-09T15:13:58Z</time>
      </trkpt>
      <trkpt lat="42.677537" lon="0.547596">
        <ele>2371.081</ele>
        <time>2021-08-09T15:14:04Z</time>
      </trkpt>
      <trkpt lat="42.677496" lon="0.547621">
        <ele>2369.009</ele>
        <time>2021-08-09T15:14:13Z</time>
      </trkpt>
      <trkpt lat="42.677459" lon="0.547659">
        <ele>2367.008</ele>
        <time>2021-08-09T15:14:21Z</time>
      </trkpt>
      <trkpt lat="42.677424" lon="0.547719">
        <ele>2362.022</ele>
        <time>2021-08-09T15:14:29Z</time>
      </trkpt>
      <trkpt lat="42.677386" lon="0.547767">
        <ele>2360.014</ele>
        <time>2021-08-09T15:14:34Z</time>
      </trkpt>
      <trkpt lat="42.677349" lon="0.547806">
        <ele>2359.088</ele>
        <time>2021-08-09T15:14:41Z</time>
      </trkpt>
      <trkpt lat="42.677317" lon="0.547855">
        <ele>2355.043</ele>
        <time>2021-08-09T15:14:48Z</time>
      </trkpt>
      <trkpt lat="42.677282" lon="0.547904">
        <ele>2354.070</ele>
        <time>2021-08-09T15:14:56Z</time>
      </trkpt>
      <trkpt lat="42.677235" lon="0.547947">
        <ele>2353.017</ele>
        <time>2021-08-09T15:15:01Z</time>
      </trkpt>
      <trkpt lat="42.677178" lon="0.547935">
        <ele>2351.017</ele>
        <time>2021-08-09T15:15:06Z</time>
      </trkpt>
      <trkpt lat="42.677161" lon="0.547992">
        <ele>2350.025</ele>
        <time>2021-08-09T15:15:13Z</time>
      </trkpt>
      <trkpt lat="42.677123" lon="0.548042">
        <ele>2349.087</ele>
        <time>2021-08-09T15:15:18Z</time>
      </trkpt>
      <trkpt lat="42.677099" lon="0.548094">
        <ele>2348.042</ele>
        <time>2021-08-09T15:15:22Z</time>
      </trkpt>
      <trkpt lat="42.677092" lon="0.548163">
        <ele>2347.026</ele>
        <time>2021-08-09T15:15:27Z</time>
      </trkpt>
      <trkpt lat="42.677074" lon="0.548223">
        <ele>2345.008</ele>
        <time>2021-08-09T15:15:30Z</time>
      </trkpt>
      <trkpt lat="42.677037" lon="0.548280">
        <ele>2344.016</ele>
        <time>2021-08-09T15:15:33Z</time>
      </trkpt>
      <trkpt lat="42.677007" lon="0.548328">
        <ele>2342.018</ele>
        <time>2021-08-09T15:15:38Z</time>
      </trkpt>
      <trkpt lat="42.676967" lon="0.548368">
        <ele>2341.052</ele>
        <time>2021-08-09T15:15:42Z</time>
      </trkpt>
      <trkpt lat="42.676918" lon="0.548377">
        <ele>2340.057</ele>
        <time>2021-08-09T15:15:46Z</time>
      </trkpt>
      <trkpt lat="42.676880" lon="0.548414">
        <ele>2341.094</ele>
        <time>2021-08-09T15:15:52Z</time>
      </trkpt>
      <trkpt lat="42.676834" lon="0.548449">
        <ele>2341.021</ele>
        <time>2021-08-09T15:15:58Z</time>
      </trkpt>
      <trkpt lat="42.676795" lon="0.548489">
        <ele>2340.081</ele>
        <time>2021-08-09T15:16:06Z</time>
      </trkpt>
      <trkpt lat="42.676760" lon="0.548541">
        <ele>2339.039</ele>
        <time>2021-08-09T15:16:11Z</time>
      </trkpt>
      <trkpt lat="42.676718" lon="0.548588">
        <ele>2337.077</ele>
        <time>2021-08-09T15:16:17Z</time>
      </trkpt>
      <trkpt lat="42.676676" lon="0.548621">
        <ele>2336.061</ele>
        <time>2021-08-09T15:16:21Z</time>
      </trkpt>
      <trkpt lat="42.676640" lon="0.548672">
        <ele>2334.027</ele>
        <time>2021-08-09T15:16:28Z</time>
      </trkpt>
      <trkpt lat="42.676591" lon="0.548699">
        <ele>2332.008</ele>
        <time>2021-08-09T15:16:34Z</time>
      </trkpt>
      <trkpt lat="42.676537" lon="0.548705">
        <ele>2333.015</ele>
        <time>2021-08-09T15:16:39Z</time>
      </trkpt>
      <trkpt lat="42.676495" lon="0.548730">
        <ele>2331.027</ele>
        <time>2021-08-09T15:16:48Z</time>
      </trkpt>
      <trkpt lat="42.676448" lon="0.548747">
        <ele>2331.061</ele>
        <time>2021-08-09T15:16:54Z</time>
      </trkpt>
      <trkpt lat="42.676407" lon="0.548789">
        <ele>2329.016</ele>
        <time>2021-08-09T15:16:59Z</time>
      </trkpt>
      <trkpt lat="42.676377" lon="0.548839">
        <ele>2329.023</ele>
        <time>2021-08-09T15:17:03Z</time>
      </trkpt>
      <trkpt lat="42.676359" lon="0.548898">
        <ele>2328.030</ele>
        <time>2021-08-09T15:17:08Z</time>
      </trkpt>
      <trkpt lat="42.676327" lon="0.548943">
        <ele>2327.040</ele>
        <time>2021-08-09T15:17:13Z</time>
      </trkpt>
      <trkpt lat="42.676295" lon="0.548996">
        <ele>2327.098</ele>
        <time>2021-08-09T15:17:20Z</time>
      </trkpt>
      <trkpt lat="42.676253" lon="0.549022">
        <ele>2327.095</ele>
        <time>2021-08-09T15:17:24Z</time>
      </trkpt>
      <trkpt lat="42.676220" lon="0.549077">
        <ele>2325.049</ele>
        <time>2021-08-09T15:17:29Z</time>
      </trkpt>
      <trkpt lat="42.676219" lon="0.549141">
        <ele>2325.023</ele>
        <time>2021-08-09T15:17:34Z</time>
      </trkpt>
      <trkpt lat="42.676193" lon="0.549200">
        <ele>2324.008</ele>
        <time>2021-08-09T15:17:40Z</time>
      </trkpt>
      <trkpt lat="42.676156" lon="0.549237">
        <ele>2325.037</ele>
        <time>2021-08-09T15:17:45Z</time>
      </trkpt>
      <trkpt lat="42.676108" lon="0.549224">
        <ele>2324.079</ele>
        <time>2021-08-09T15:18:11Z</time>
      </trkpt>
      <trkpt lat="42.676065" lon="0.549255">
        <ele>2324.073</ele>
        <time>2021-08-09T15:18:22Z</time>
      </trkpt>
      <trkpt lat="42.676016" lon="0.549257">
        <ele>2320.068</ele>
        <time>2021-08-09T15:18:30Z</time>
      </trkpt>
      <trkpt lat="42.675969" lon="0.549275">
        <ele>2320.085</ele>
        <time>2021-08-09T15:18:36Z</time>
      </trkpt>
      <trkpt lat="42.675923" lon="0.549283">
        <ele>2318.082</ele>
        <time>2021-08-09T15:18:44Z</time>
      </trkpt>
      <trkpt lat="42.675877" lon="0.549309">
        <ele>2316.062</ele>
        <time>2021-08-09T15:19:00Z</time>
      </trkpt>
      <trkpt lat="42.675834" lon="0.549341">
        <ele>2314.030</ele>
        <time>2021-08-09T15:19:07Z</time>
      </trkpt>
      <trkpt lat="42.675783" lon="0.549356">
        <ele>2311.096</ele>
        <time>2021-08-09T15:19:14Z</time>
      </trkpt>
      <trkpt lat="42.675740" lon="0.549336">
        <ele>2309.031</ele>
        <time>2021-08-09T15:19:22Z</time>
      </trkpt>
      <trkpt lat="42.675694" lon="0.549352">
        <ele>2306.024</ele>
        <time>2021-08-09T15:19:31Z</time>
      </trkpt>
      <trkpt lat="42.675652" lon="0.549382">
        <ele>2304.008</ele>
        <time>2021-08-09T15:19:39Z</time>
      </trkpt>
      <trkpt lat="42.675611" lon="0.549407">
        <ele>2302.047</ele>
        <time>2021-08-09T15:19:48Z</time>
      </trkpt>
      <trkpt lat="42.675585" lon="0.549457">
        <ele>2301.079</ele>
        <time>2021-08-09T15:19:53Z</time>
      </trkpt>
      <trkpt lat="42.675563" lon="0.549511">
        <ele>2299.093</ele>
        <time>2021-08-09T15:19:59Z</time>
      </trkpt>
      <trkpt lat="42.675520" lon="0.549549">
        <ele>2298.048</ele>
        <time>2021-08-09T15:20:04Z</time>
      </trkpt>
      <trkpt lat="42.675485" lon="0.549598">
        <ele>2295.065</ele>
        <time>2021-08-09T15:20:14Z</time>
      </trkpt>
      <trkpt lat="42.675447" lon="0.549634">
        <ele>2292.072</ele>
        <time>2021-08-09T15:20:24Z</time>
      </trkpt>
      <trkpt lat="42.675404" lon="0.549610">
        <ele>2292.052</ele>
        <time>2021-08-09T15:20:31Z</time>
      </trkpt>
      <trkpt lat="42.675356" lon="0.549609">
        <ele>2288.080</ele>
        <time>2021-08-09T15:20:42Z</time>
      </trkpt>
      <trkpt lat="42.675308" lon="0.549600">
        <ele>2286.089</ele>
        <time>2021-08-09T15:20:52Z</time>
      </trkpt>
      <trkpt lat="42.675274" lon="0.549556">
        <ele>2285.006</ele>
        <time>2021-08-09T15:21:00Z</time>
      </trkpt>
      <trkpt lat="42.675229" lon="0.549563">
        <ele>2283.026</ele>
        <time>2021-08-09T15:21:06Z</time>
      </trkpt>
      <trkpt lat="42.675218" lon="0.549624">
        <ele>2282.008</ele>
        <time>2021-08-09T15:21:12Z</time>
      </trkpt>
      <trkpt lat="42.675183" lon="0.549673">
        <ele>2280.066</ele>
        <time>2021-08-09T15:21:22Z</time>
      </trkpt>
      <trkpt lat="42.675133" lon="0.549676">
        <ele>2278.098</ele>
        <time>2021-08-09T15:21:31Z</time>
      </trkpt>
      <trkpt lat="42.675089" lon="0.549663">
        <ele>2275.022</ele>
        <time>2021-08-09T15:21:55Z</time>
      </trkpt>
      <trkpt lat="42.675042" lon="0.549665">
        <ele>2273.057</ele>
        <time>2021-08-09T15:22:01Z</time>
      </trkpt>
      <trkpt lat="42.674998" lon="0.549679">
        <ele>2272.064</ele>
        <time>2021-08-09T15:22:12Z</time>
      </trkpt>
      <trkpt lat="42.674963" lon="0.549639">
        <ele>2270.011</ele>
        <time>2021-08-09T15:22:20Z</time>
      </trkpt>
      <trkpt lat="42.674914" lon="0.549659">
        <ele>2267.021</ele>
        <time>2021-08-09T15:22:26Z</time>
      </trkpt>
      <trkpt lat="42.674860" lon="0.549698">
        <ele>2265.079</ele>
        <time>2021-08-09T15:22:33Z</time>
      </trkpt>
      <trkpt lat="42.674816" lon="0.549683">
        <ele>2265.094</ele>
        <time>2021-08-09T15:22:38Z</time>
      </trkpt>
      <trkpt lat="42.674766" lon="0.549702">
        <ele>2264.057</ele>
        <time>2021-08-09T15:22:45Z</time>
      </trkpt>
      <trkpt lat="42.674729" lon="0.549748">
        <ele>2262.022</ele>
        <time>2021-08-09T15:22:49Z</time>
      </trkpt>
      <trkpt lat="42.674679" lon="0.549721">
        <ele>2260.008</ele>
        <time>2021-08-09T15:22:57Z</time>
      </trkpt>
      <trkpt lat="42.674635" lon="0.549694">
        <ele>2258.077</ele>
        <time>2021-08-09T15:23:02Z</time>
      </trkpt>
      <trkpt lat="42.674585" lon="0.549658">
        <ele>2256.089</ele>
        <time>2021-08-09T15:23:10Z</time>
      </trkpt>
      <trkpt lat="42.674540" lon="0.549647">
        <ele>2254.063</ele>
        <time>2021-08-09T15:23:15Z</time>
      </trkpt>
      <trkpt lat="42.674513" lon="0.549705">
        <ele>2253.078</ele>
        <time>2021-08-09T15:23:20Z</time>
      </trkpt>
      <trkpt lat="42.674477" lon="0.549749">
        <ele>2250.075</ele>
        <time>2021-08-09T15:23:29Z</time>
      </trkpt>
      <trkpt lat="42.674433" lon="0.549780">
        <ele>2248.022</ele>
        <time>2021-08-09T15:23:38Z</time>
      </trkpt>
      <trkpt lat="42.674387" lon="0.549782">
        <ele>2246.092</ele>
        <time>2021-08-09T15:23:42Z</time>
      </trkpt>
      <trkpt lat="42.674338" lon="0.549801">
        <ele>2246.070</ele>
        <time>2021-08-09T15:23:48Z</time>
      </trkpt>
      <trkpt lat="42.674287" lon="0.549811">
        <ele>2244.028</ele>
        <time>2021-08-09T15:23:54Z</time>
      </trkpt>
      <trkpt lat="42.674237" lon="0.549847">
        <ele>2243.089</ele>
        <time>2021-08-09T15:23:58Z</time>
      </trkpt>
      <trkpt lat="42.674235" lon="0.549914">
        <ele>2244.017</ele>
        <time>2021-08-09T15:24:05Z</time>
      </trkpt>
      <trkpt lat="42.674188" lon="0.549907">
        <ele>2241.008</ele>
        <time>2021-08-09T15:24:14Z</time>
      </trkpt>
      <trkpt lat="42.674151" lon="0.549868">
        <ele>2239.030</ele>
        <time>2021-08-09T15:24:20Z</time>
      </trkpt>
      <trkpt lat="42.674108" lon="0.549886">
        <ele>2236.022</ele>
        <time>2021-08-09T15:24:24Z</time>
      </trkpt>
      <trkpt lat="42.674105" lon="0.549953">
        <ele>2237.086</ele>
        <time>2021-08-09T15:24:29Z</time>
      </trkpt>
      <trkpt lat="42.674106" lon="0.550020">
        <ele>2237.081</ele>
        <time>2021-08-09T15:24:34Z</time>
      </trkpt>
      <trkpt lat="42.674126" lon="0.550082">
        <ele>2238.098</ele>
        <time>2021-08-09T15:24:39Z</time>
      </trkpt>
      <trkpt lat="42.674115" lon="0.550151">
        <ele>2237.055</ele>
        <time>2021-08-09T15:24:45Z</time>
      </trkpt>
      <trkpt lat="42.674114" lon="0.550216">
        <ele>2237.065</ele>
        <time>2021-08-09T15:24:49Z</time>
      </trkpt>
      <trkpt lat="42.674108" lon="0.550277">
        <ele>2237.013</ele>
        <time>2021-08-09T15:24:57Z</time>
      </trkpt>
      <trkpt lat="42.674068" lon="0.550304">
        <ele>2233.015</ele>
        <time>2021-08-09T15:25:05Z</time>
      </trkpt>
      <trkpt lat="42.674064" lon="0.550366">
        <ele>2232.065</ele>
        <time>2021-08-09T15:25:08Z</time>
      </trkpt>
      <trkpt lat="42.674034" lon="0.550422">
        <ele>2230.011</ele>
        <time>2021-08-09T15:25:16Z</time>
      </trkpt>
      <trkpt lat="42.673987" lon="0.550434">
        <ele>2233.008</ele>
        <time>2021-08-09T15:26:46Z</time>
      </trkpt>
      <trkpt lat="42.673947" lon="0.550466">
        <ele>2231.069</ele>
        <time>2021-08-09T15:26:51Z</time>
      </trkpt>
      <trkpt lat="42.673916" lon="0.550518">
        <ele>2229.061</ele>
        <time>2021-08-09T15:26:55Z</time>
      </trkpt>
      <trkpt lat="42.673875" lon="0.550553">
        <ele>2227.065</ele>
        <time>2021-08-09T15:27:02Z</time>
      </trkpt>
      <trkpt lat="42.673828" lon="0.550575">
        <ele>2224.060</ele>
        <time>2021-08-09T15:27:07Z</time>
      </trkpt>
      <trkpt lat="42.673793" lon="0.550618">
        <ele>2222.017</ele>
        <time>2021-08-09T15:27:12Z</time>
      </trkpt>
      <trkpt lat="42.673775" lon="0.550683">
        <ele>2220.014</ele>
        <time>2021-08-09T15:27:17Z</time>
      </trkpt>
      <trkpt lat="42.673777" lon="0.550747">
        <ele>2219.044</ele>
        <time>2021-08-09T15:27:20Z</time>
      </trkpt>
      <trkpt lat="42.673785" lon="0.550809">
        <ele>2219.062</ele>
        <time>2021-08-09T15:27:25Z</time>
      </trkpt>
      <trkpt lat="42.673770" lon="0.550878">
        <ele>2218.079</ele>
        <time>2021-08-09T15:27:28Z</time>
      </trkpt>
      <trkpt lat="42.673738" lon="0.550921">
        <ele>2217.005</ele>
        <time>2021-08-09T15:27:32Z</time>
      </trkpt>
      <trkpt lat="42.673688" lon="0.550931">
        <ele>2216.025</ele>
        <time>2021-08-09T15:27:39Z</time>
      </trkpt>
      <trkpt lat="42.673666" lon="0.550989">
        <ele>2214.008</ele>
        <time>2021-08-09T15:27:44Z</time>
      </trkpt>
      <trkpt lat="42.673630" lon="0.551040">
        <ele>2213.095</ele>
        <time>2021-08-09T15:27:48Z</time>
      </trkpt>
      <trkpt lat="42.673597" lon="0.551091">
        <ele>2212.037</ele>
        <time>2021-08-09T15:27:53Z</time>
      </trkpt>
      <trkpt lat="42.673564" lon="0.551147">
        <ele>2211.021</ele>
        <time>2021-08-09T15:27:58Z</time>
      </trkpt>
      <trkpt lat="42.673544" lon="0.551205">
        <ele>2210.096</ele>
        <time>2021-08-09T15:28:04Z</time>
      </trkpt>
      <trkpt lat="42.673521" lon="0.551276">
        <ele>2208.083</ele>
        <time>2021-08-09T15:28:08Z</time>
      </trkpt>
      <trkpt lat="42.673501" lon="0.551336">
        <ele>2206.070</ele>
        <time>2021-08-09T15:28:12Z</time>
      </trkpt>
      <trkpt lat="42.673461" lon="0.551389">
        <ele>2204.060</ele>
        <time>2021-08-09T15:28:16Z</time>
      </trkpt>
      <trkpt lat="42.673426" lon="0.551441">
        <ele>2203.088</ele>
        <time>2021-08-09T15:28:19Z</time>
      </trkpt>
      <trkpt lat="42.673400" lon="0.551494">
        <ele>2203.084</ele>
        <time>2021-08-09T15:28:22Z</time>
      </trkpt>
      <trkpt lat="42.673381" lon="0.551567">
        <ele>2203.007</ele>
        <time>2021-08-09T15:28:27Z</time>
      </trkpt>
      <trkpt lat="42.673369" lon="0.551630">
        <ele>2203.017</ele>
        <time>2021-08-09T15:28:30Z</time>
      </trkpt>
      <trkpt lat="42.673323" lon="0.551673">
        <ele>2201.008</ele>
        <time>2021-08-09T15:28:34Z</time>
      </trkpt>
      <trkpt lat="42.673293" lon="0.551719">
        <ele>2201.026</ele>
        <time>2021-08-09T15:28:38Z</time>
      </trkpt>
      <trkpt lat="42.673270" lon="0.551773">
        <ele>2201.038</ele>
        <time>2021-08-09T15:28:41Z</time>
      </trkpt>
      <trkpt lat="42.673238" lon="0.551818">
        <ele>2201.072</ele>
        <time>2021-08-09T15:28:46Z</time>
      </trkpt>
      <trkpt lat="42.673203" lon="0.551866">
        <ele>2200.027</ele>
        <time>2021-08-09T15:28:52Z</time>
      </trkpt>
      <trkpt lat="42.673186" lon="0.551926">
        <ele>2198.014</ele>
        <time>2021-08-09T15:28:56Z</time>
      </trkpt>
      <trkpt lat="42.673148" lon="0.551966">
        <ele>2197.031</ele>
        <time>2021-08-09T15:29:00Z</time>
      </trkpt>
      <trkpt lat="42.673146" lon="0.552037">
        <ele>2196.031</ele>
        <time>2021-08-09T15:29:04Z</time>
      </trkpt>
      <trkpt lat="42.673122" lon="0.552102">
        <ele>2195.099</ele>
        <time>2021-08-09T15:29:09Z</time>
      </trkpt>
      <trkpt lat="42.673109" lon="0.552168">
        <ele>2193.041</ele>
        <time>2021-08-09T15:29:15Z</time>
      </trkpt>
      <trkpt lat="42.673068" lon="0.552211">
        <ele>2192.081</ele>
        <time>2021-08-09T15:29:19Z</time>
      </trkpt>
      <trkpt lat="42.673039" lon="0.552262">
        <ele>2192.009</ele>
        <time>2021-08-09T15:29:23Z</time>
      </trkpt>
      <trkpt lat="42.673015" lon="0.552317">
        <ele>2191.008</ele>
        <time>2021-08-09T15:29:26Z</time>
      </trkpt>
      <trkpt lat="42.672994" lon="0.552381">
        <ele>2192.012</ele>
        <time>2021-08-09T15:29:30Z</time>
      </trkpt>
      <trkpt lat="42.672974" lon="0.552440">
        <ele>2191.064</ele>
        <time>2021-08-09T15:29:33Z</time>
      </trkpt>
      <trkpt lat="42.672937" lon="0.552489">
        <ele>2191.098</ele>
        <time>2021-08-09T15:29:36Z</time>
      </trkpt>
      <trkpt lat="42.672898" lon="0.552535">
        <ele>2192.073</ele>
        <time>2021-08-09T15:29:40Z</time>
      </trkpt>
      <trkpt lat="42.672863" lon="0.552588">
        <ele>2192.080</ele>
        <time>2021-08-09T15:29:43Z</time>
      </trkpt>
      <trkpt lat="42.672818" lon="0.552636">
        <ele>2191.037</ele>
        <time>2021-08-09T15:29:47Z</time>
      </trkpt>
      <trkpt lat="42.672777" lon="0.552673">
        <ele>2191.087</ele>
        <time>2021-08-09T15:29:52Z</time>
      </trkpt>
      <trkpt lat="42.672741" lon="0.552713">
        <ele>2190.065</ele>
        <time>2021-08-09T15:29:56Z</time>
      </trkpt>
      <trkpt lat="42.672697" lon="0.552753">
        <ele>2188.092</ele>
        <time>2021-08-09T15:30:00Z</time>
      </trkpt>
      <trkpt lat="42.672660" lon="0.552813">
        <ele>2188.073</ele>
        <time>2021-08-09T15:30:05Z</time>
      </trkpt>
      <trkpt lat="42.672633" lon="0.552876">
        <ele>2187.020</ele>
        <time>2021-08-09T15:30:09Z</time>
      </trkpt>
      <trkpt lat="42.672598" lon="0.552921">
        <ele>2186.008</ele>
        <time>2021-08-09T15:30:13Z</time>
      </trkpt>
      <trkpt lat="42.672580" lon="0.552993">
        <ele>2185.017</ele>
        <time>2021-08-09T15:30:17Z</time>
      </trkpt>
      <trkpt lat="42.672550" lon="0.553053">
        <ele>2185.049</ele>
        <time>2021-08-09T15:30:23Z</time>
      </trkpt>
      <trkpt lat="42.672543" lon="0.553122">
        <ele>2185.023</ele>
        <time>2021-08-09T15:30:29Z</time>
      </trkpt>
      <trkpt lat="42.672507" lon="0.553172">
        <ele>2183.068</ele>
        <time>2021-08-09T15:30:36Z</time>
      </trkpt>
      <trkpt lat="42.672488" lon="0.553230">
        <ele>2183.035</ele>
        <time>2021-08-09T15:30:48Z</time>
      </trkpt>
      <trkpt lat="42.672450" lon="0.553266">
        <ele>2180.082</ele>
        <time>2021-08-09T15:30:55Z</time>
      </trkpt>
      <trkpt lat="42.672402" lon="0.553269">
        <ele>2177.032</ele>
        <time>2021-08-09T15:31:03Z</time>
      </trkpt>
      <trkpt lat="42.672362" lon="0.553302">
        <ele>2174.070</ele>
        <time>2021-08-09T15:31:19Z</time>
      </trkpt>
      <trkpt lat="42.672327" lon="0.553350">
        <ele>2170.071</ele>
        <time>2021-08-09T15:31:36Z</time>
      </trkpt>
      <trkpt lat="42.672298" lon="0.553421">
        <ele>2169.041</ele>
        <time>2021-08-09T15:31:41Z</time>
      </trkpt>
      <trkpt lat="42.672283" lon="0.553484">
        <ele>2167.015</ele>
        <time>2021-08-09T15:31:52Z</time>
      </trkpt>
      <trkpt lat="42.672269" lon="0.553546">
        <ele>2167.008</ele>
        <time>2021-08-09T15:31:58Z</time>
      </trkpt>
      <trkpt lat="42.672238" lon="0.553595">
        <ele>2165.045</ele>
        <time>2021-08-09T15:32:03Z</time>
      </trkpt>
      <trkpt lat="42.672227" lon="0.553671">
        <ele>2164.037</ele>
        <time>2021-08-09T15:32:08Z</time>
      </trkpt>
      <trkpt lat="42.672194" lon="0.553726">
        <ele>2160.031</ele>
        <time>2021-08-09T15:32:19Z</time>
      </trkpt>
      <trkpt lat="42.672169" lon="0.553780">
        <ele>2159.076</ele>
        <time>2021-08-09T15:32:23Z</time>
      </trkpt>
      <trkpt lat="42.672146" lon="0.553857">
        <ele>2157.023</ele>
        <time>2021-08-09T15:32:30Z</time>
      </trkpt>
      <trkpt lat="42.672150" lon="0.553919">
        <ele>2155.070</ele>
        <time>2021-08-09T15:32:38Z</time>
      </trkpt>
      <trkpt lat="42.672138" lon="0.553986">
        <ele>2155.080</ele>
        <time>2021-08-09T15:32:45Z</time>
      </trkpt>
      <trkpt lat="42.672110" lon="0.554041">
        <ele>2154.038</ele>
        <time>2021-08-09T15:32:50Z</time>
      </trkpt>
      <trkpt lat="42.672066" lon="0.554060">
        <ele>2152.046</ele>
        <time>2021-08-09T15:32:56Z</time>
      </trkpt>
      <trkpt lat="42.672034" lon="0.554116">
        <ele>2149.088</ele>
        <time>2021-08-09T15:33:08Z</time>
      </trkpt>
      <trkpt lat="42.671990" lon="0.554153">
        <ele>2148.016</ele>
        <time>2021-08-09T15:33:13Z</time>
      </trkpt>
      <trkpt lat="42.671977" lon="0.554214">
        <ele>2147.008</ele>
        <time>2021-08-09T15:33:16Z</time>
      </trkpt>
      <trkpt lat="42.671983" lon="0.554277">
        <ele>2147.032</ele>
        <time>2021-08-09T15:33:20Z</time>
      </trkpt>
      <trkpt lat="42.671974" lon="0.554341">
        <ele>2146.084</ele>
        <time>2021-08-09T15:33:24Z</time>
      </trkpt>
      <trkpt lat="42.671959" lon="0.554401">
        <ele>2145.088</ele>
        <time>2021-08-09T15:33:30Z</time>
      </trkpt>
      <trkpt lat="42.671942" lon="0.554462">
        <ele>2144.093</ele>
        <time>2021-08-09T15:33:34Z</time>
      </trkpt>
      <trkpt lat="42.671909" lon="0.554503">
        <ele>2142.010</ele>
        <time>2021-08-09T15:33:41Z</time>
      </trkpt>
      <trkpt lat="42.671876" lon="0.554553">
        <ele>2141.077</ele>
        <time>2021-08-09T15:33:48Z</time>
      </trkpt>
      <trkpt lat="42.671840" lon="0.554592">
        <ele>2139.047</ele>
        <time>2021-08-09T15:33:53Z</time>
      </trkpt>
      <trkpt lat="42.671800" lon="0.554632">
        <ele>2136.065</ele>
        <time>2021-08-09T15:34:00Z</time>
      </trkpt>
      <trkpt lat="42.671775" lon="0.554689">
        <ele>2134.056</ele>
        <time>2021-08-09T15:34:05Z</time>
      </trkpt>
      <trkpt lat="42.671733" lon="0.554727">
        <ele>2132.059</ele>
        <time>2021-08-09T15:34:10Z</time>
      </trkpt>
      <trkpt lat="42.671696" lon="0.554771">
        <ele>2131.014</ele>
        <time>2021-08-09T15:34:14Z</time>
      </trkpt>
      <trkpt lat="42.671661" lon="0.554810">
        <ele>2130.008</ele>
        <time>2021-08-09T15:34:18Z</time>
      </trkpt>
      <trkpt lat="42.671645" lon="0.554873">
        <ele>2129.013</ele>
        <time>2021-08-09T15:34:24Z</time>
      </trkpt>
      <trkpt lat="42.671615" lon="0.554926">
        <ele>2127.095</ele>
        <time>2021-08-09T15:34:28Z</time>
      </trkpt>
      <trkpt lat="42.671598" lon="0.554991">
        <ele>2127.089</ele>
        <time>2021-08-09T15:34:32Z</time>
      </trkpt>
      <trkpt lat="42.671578" lon="0.555057">
        <ele>2126.044</ele>
        <time>2021-08-09T15:34:38Z</time>
      </trkpt>
      <trkpt lat="42.671551" lon="0.555124">
        <ele>2125.061</ele>
        <time>2021-08-09T15:34:42Z</time>
      </trkpt>
      <trkpt lat="42.671538" lon="0.555188">
        <ele>2124.018</ele>
        <time>2021-08-09T15:34:45Z</time>
      </trkpt>
      <trkpt lat="42.671514" lon="0.555253">
        <ele>2124.018</ele>
        <time>2021-08-09T15:34:49Z</time>
      </trkpt>
      <trkpt lat="42.671509" lon="0.555316">
        <ele>2124.056</ele>
        <time>2021-08-09T15:34:54Z</time>
      </trkpt>
      <trkpt lat="42.671494" lon="0.555396">
        <ele>2123.036</ele>
        <time>2021-08-09T15:34:58Z</time>
      </trkpt>
      <trkpt lat="42.671472" lon="0.555471">
        <ele>2122.017</ele>
        <time>2021-08-09T15:35:02Z</time>
      </trkpt>
      <trkpt lat="42.671428" lon="0.555508">
        <ele>2122.018</ele>
        <time>2021-08-09T15:35:05Z</time>
      </trkpt>
      <trkpt lat="42.671402" lon="0.555559">
        <ele>2122.008</ele>
        <time>2021-08-09T15:35:09Z</time>
      </trkpt>
      <trkpt lat="42.671388" lon="0.555625">
        <ele>2120.061</ele>
        <time>2021-08-09T15:35:14Z</time>
      </trkpt>
      <trkpt lat="42.671364" lon="0.555679">
        <ele>2118.043</ele>
        <time>2021-08-09T15:35:18Z</time>
      </trkpt>
      <trkpt lat="42.671312" lon="0.555712">
        <ele>2117.097</ele>
        <time>2021-08-09T15:35:23Z</time>
      </trkpt>
      <trkpt lat="42.671283" lon="0.555759">
        <ele>2115.082</ele>
        <time>2021-08-09T15:35:28Z</time>
      </trkpt>
      <trkpt lat="42.671241" lon="0.555808">
        <ele>2114.089</ele>
        <time>2021-08-09T15:35:33Z</time>
      </trkpt>
      <trkpt lat="42.671210" lon="0.555856">
        <ele>2112.086</ele>
        <time>2021-08-09T15:35:37Z</time>
      </trkpt>
      <trkpt lat="42.671161" lon="0.555856">
        <ele>2111.086</ele>
        <time>2021-08-09T15:35:41Z</time>
      </trkpt>
      <trkpt lat="42.671121" lon="0.555886">
        <ele>2110.074</ele>
        <time>2021-08-09T15:35:47Z</time>
      </trkpt>
      <trkpt lat="42.671084" lon="0.555929">
        <ele>2109.018</ele>
        <time>2021-08-09T15:35:52Z</time>
      </trkpt>
      <trkpt lat="42.671060" lon="0.555981">
        <ele>2107.098</ele>
        <time>2021-08-09T15:35:59Z</time>
      </trkpt>
      <trkpt lat="42.671017" lon="0.556020">
        <ele>2105.017</ele>
        <time>2021-08-09T15:36:05Z</time>
      </trkpt>
      <trkpt lat="42.670966" lon="0.556011">
        <ele>2103.008</ele>
        <time>2021-08-09T15:36:12Z</time>
      </trkpt>
      <trkpt lat="42.670931" lon="0.556066">
        <ele>2102.049</ele>
        <time>2021-08-09T15:36:18Z</time>
      </trkpt>
      <trkpt lat="42.670894" lon="0.556110">
        <ele>2100.071</ele>
        <time>2021-08-09T15:36:22Z</time>
      </trkpt>
      <trkpt lat="42.670854" lon="0.556144">
        <ele>2099.075</ele>
        <time>2021-08-09T15:36:26Z</time>
      </trkpt>
      <trkpt lat="42.670823" lon="0.556193">
        <ele>2098.050</ele>
        <time>2021-08-09T15:36:33Z</time>
      </trkpt>
      <trkpt lat="42.670778" lon="0.556213">
        <ele>2096.017</ele>
        <time>2021-08-09T15:36:38Z</time>
      </trkpt>
      <trkpt lat="42.670749" lon="0.556265">
        <ele>2096.064</ele>
        <time>2021-08-09T15:36:44Z</time>
      </trkpt>
      <trkpt lat="42.670703" lon="0.556308">
        <ele>2095.034</ele>
        <time>2021-08-09T15:36:50Z</time>
      </trkpt>
      <trkpt lat="42.670672" lon="0.556360">
        <ele>2093.082</ele>
        <time>2021-08-09T15:36:55Z</time>
      </trkpt>
      <trkpt lat="42.670654" lon="0.556416">
        <ele>2093.077</ele>
        <time>2021-08-09T15:36:59Z</time>
      </trkpt>
      <trkpt lat="42.670621" lon="0.556464">
        <ele>2092.061</ele>
        <time>2021-08-09T15:37:04Z</time>
      </trkpt>
      <trkpt lat="42.670581" lon="0.556508">
        <ele>2091.027</ele>
        <time>2021-08-09T15:37:07Z</time>
      </trkpt>
      <trkpt lat="42.670567" lon="0.556575">
        <ele>2090.008</ele>
        <time>2021-08-09T15:37:12Z</time>
      </trkpt>
      <trkpt lat="42.670540" lon="0.556636">
        <ele>2090.065</ele>
        <time>2021-08-09T15:37:17Z</time>
      </trkpt>
      <trkpt lat="42.670515" lon="0.556707">
        <ele>2090.097</ele>
        <time>2021-08-09T15:37:22Z</time>
      </trkpt>
      <trkpt lat="42.670475" lon="0.556755">
        <ele>2088.091</ele>
        <time>2021-08-09T15:37:26Z</time>
      </trkpt>
      <trkpt lat="42.670445" lon="0.556814">
        <ele>2087.046</ele>
        <time>2021-08-09T15:37:32Z</time>
      </trkpt>
      <trkpt lat="42.670412" lon="0.556861">
        <ele>2085.043</ele>
        <time>2021-08-09T15:37:38Z</time>
      </trkpt>
      <trkpt lat="42.670388" lon="0.556916">
        <ele>2084.050</ele>
        <time>2021-08-09T15:37:44Z</time>
      </trkpt>
      <trkpt lat="42.670361" lon="0.556979">
        <ele>2084.020</ele>
        <time>2021-08-09T15:37:48Z</time>
      </trkpt>
      <trkpt lat="42.670341" lon="0.557038">
        <ele>2084.038</ele>
        <time>2021-08-09T15:37:53Z</time>
      </trkpt>
      <trkpt lat="42.670316" lon="0.557103">
        <ele>2083.087</ele>
        <time>2021-08-09T15:37:57Z</time>
      </trkpt>
      <trkpt lat="42.670319" lon="0.557178">
        <ele>2083.042</ele>
        <time>2021-08-09T15:38:02Z</time>
      </trkpt>
      <trkpt lat="42.670313" lon="0.557251">
        <ele>2083.026</ele>
        <time>2021-08-09T15:38:06Z</time>
      </trkpt>
      <trkpt lat="42.670315" lon="0.557316">
        <ele>2083.008</ele>
        <time>2021-08-09T15:38:11Z</time>
      </trkpt>
      <trkpt lat="42.670304" lon="0.557381">
        <ele>2083.076</ele>
        <time>2021-08-09T15:38:15Z</time>
      </trkpt>
      <trkpt lat="42.670303" lon="0.557455">
        <ele>2082.018</ele>
        <time>2021-08-09T15:38:19Z</time>
      </trkpt>
      <trkpt lat="42.670304" lon="0.557522">
        <ele>2082.092</ele>
        <time>2021-08-09T15:38:23Z</time>
      </trkpt>
      <trkpt lat="42.670257" lon="0.557553">
        <ele>2081.047</ele>
        <time>2021-08-09T15:38:27Z</time>
      </trkpt>
      <trkpt lat="42.670230" lon="0.557618">
        <ele>2080.094</ele>
        <time>2021-08-09T15:38:31Z</time>
      </trkpt>
      <trkpt lat="42.670196" lon="0.557665">
        <ele>2080.011</ele>
        <time>2021-08-09T15:38:36Z</time>
      </trkpt>
      <trkpt lat="42.670168" lon="0.557716">
        <ele>2078.011</ele>
        <time>2021-08-09T15:38:40Z</time>
      </trkpt>
      <trkpt lat="42.670136" lon="0.557762">
        <ele>2077.029</ele>
        <time>2021-08-09T15:38:45Z</time>
      </trkpt>
      <trkpt lat="42.670126" lon="0.557822">
        <ele>2078.066</ele>
        <time>2021-08-09T15:38:57Z</time>
      </trkpt>
      <trkpt lat="42.670117" lon="0.557885">
        <ele>2078.029</ele>
        <time>2021-08-09T15:39:01Z</time>
      </trkpt>
      <trkpt lat="42.670120" lon="0.557950">
        <ele>2077.021</ele>
        <time>2021-08-09T15:39:05Z</time>
      </trkpt>
      <trkpt lat="42.670093" lon="0.558015">
        <ele>2076.008</ele>
        <time>2021-08-09T15:39:09Z</time>
      </trkpt>
      <trkpt lat="42.670064" lon="0.558083">
        <ele>2075.064</ele>
        <time>2021-08-09T15:39:13Z</time>
      </trkpt>
      <trkpt lat="42.670047" lon="0.558151">
        <ele>2075.046</ele>
        <time>2021-08-09T15:39:19Z</time>
      </trkpt>
      <trkpt lat="42.670037" lon="0.558217">
        <ele>2075.020</ele>
        <time>2021-08-09T15:39:24Z</time>
      </trkpt>
      <trkpt lat="42.670006" lon="0.558276">
        <ele>2075.025</ele>
        <time>2021-08-09T15:39:28Z</time>
      </trkpt>
      <trkpt lat="42.669979" lon="0.558331">
        <ele>2074.032</ele>
        <time>2021-08-09T15:39:32Z</time>
      </trkpt>
      <trkpt lat="42.669967" lon="0.558400">
        <ele>2076.029</ele>
        <time>2021-08-09T15:39:36Z</time>
      </trkpt>
      <trkpt lat="42.669932" lon="0.558457">
        <ele>2076.039</ele>
        <time>2021-08-09T15:39:39Z</time>
      </trkpt>
      <trkpt lat="42.669901" lon="0.558515">
        <ele>2075.027</ele>
        <time>2021-08-09T15:39:42Z</time>
      </trkpt>
      <trkpt lat="42.669863" lon="0.558573">
        <ele>2075.051</ele>
        <time>2021-08-09T15:39:46Z</time>
      </trkpt>
      <trkpt lat="42.669843" lon="0.558633">
        <ele>2075.001</ele>
        <time>2021-08-09T15:39:50Z</time>
      </trkpt>
      <trkpt lat="42.669814" lon="0.558698">
        <ele>2072.011</ele>
        <time>2021-08-09T15:39:56Z</time>
      </trkpt>
      <trkpt lat="42.669782" lon="0.558752">
        <ele>2071.008</ele>
        <time>2021-08-09T15:40:01Z</time>
      </trkpt>
      <trkpt lat="42.669755" lon="0.558814">
        <ele>2071.063</ele>
        <time>2021-08-09T15:40:05Z</time>
      </trkpt>
      <trkpt lat="42.669726" lon="0.558882">
        <ele>2071.035</ele>
        <time>2021-08-09T15:40:09Z</time>
      </trkpt>
      <trkpt lat="42.669712" lon="0.558942">
        <ele>2071.019</ele>
        <time>2021-08-09T15:40:12Z</time>
      </trkpt>
      <trkpt lat="42.669678" lon="0.558998">
        <ele>2070.084</ele>
        <time>2021-08-09T15:40:16Z</time>
      </trkpt>
      <trkpt lat="42.669660" lon="0.559070">
        <ele>2069.071</ele>
        <time>2021-08-09T15:40:19Z</time>
      </trkpt>
      <trkpt lat="42.669633" lon="0.559136">
        <ele>2069.078</ele>
        <time>2021-08-09T15:40:22Z</time>
      </trkpt>
      <trkpt lat="42.669603" lon="0.559186">
        <ele>2068.048</ele>
        <time>2021-08-09T15:40:25Z</time>
      </trkpt>
      <trkpt lat="42.669578" lon="0.559249">
        <ele>2068.086</ele>
        <time>2021-08-09T15:40:31Z</time>
      </trkpt>
      <trkpt lat="42.669564" lon="0.559309">
        <ele>2068.097</ele>
        <time>2021-08-09T15:40:34Z</time>
      </trkpt>
      <trkpt lat="42.669539" lon="0.559383">
        <ele>2067.023</ele>
        <time>2021-08-09T15:40:38Z</time>
      </trkpt>
      <trkpt lat="42.669498" lon="0.559439">
        <ele>2065.025</ele>
        <time>2021-08-09T15:40:41Z</time>
      </trkpt>
      <trkpt lat="42.669472" lon="0.559491">
        <ele>2064.008</ele>
        <time>2021-08-09T15:40:45Z</time>
      </trkpt>
      <trkpt lat="42.669446" lon="0.559557">
        <ele>2063.057</ele>
        <time>2021-08-09T15:40:49Z</time>
      </trkpt>
      <trkpt lat="42.669421" lon="0.559618">
        <ele>2062.069</ele>
        <time>2021-08-09T15:40:53Z</time>
      </trkpt>
      <trkpt lat="42.669412" lon="0.559684">
        <ele>2061.033</ele>
        <time>2021-08-09T15:40:57Z</time>
      </trkpt>
      <trkpt lat="42.669386" lon="0.559751">
        <ele>2061.088</ele>
        <time>2021-08-09T15:41:01Z</time>
      </trkpt>
      <trkpt lat="42.669358" lon="0.559807">
        <ele>2061.085</ele>
        <time>2021-08-09T15:41:05Z</time>
      </trkpt>
      <trkpt lat="42.669344" lon="0.559870">
        <ele>2061.082</ele>
        <time>2021-08-09T15:41:09Z</time>
      </trkpt>
      <trkpt lat="42.669332" lon="0.559936">
        <ele>2061.012</ele>
        <time>2021-08-09T15:41:12Z</time>
      </trkpt>
      <trkpt lat="42.669307" lon="0.560020">
        <ele>2060.060</ele>
        <time>2021-08-09T15:41:17Z</time>
      </trkpt>
      <trkpt lat="42.669298" lon="0.560084">
        <ele>2061.016</ele>
        <time>2021-08-09T15:41:20Z</time>
      </trkpt>
      <trkpt lat="42.669287" lon="0.560145">
        <ele>2060.076</ele>
        <time>2021-08-09T15:41:24Z</time>
      </trkpt>
      <trkpt lat="42.669267" lon="0.560217">
        <ele>2060.013</ele>
        <time>2021-08-09T15:41:26Z</time>
      </trkpt>
      <trkpt lat="42.669249" lon="0.560278">
        <ele>2059.008</ele>
        <time>2021-08-09T15:41:32Z</time>
      </trkpt>
      <trkpt lat="42.669213" lon="0.560319">
        <ele>2059.089</ele>
        <time>2021-08-09T15:41:36Z</time>
      </trkpt>
      <trkpt lat="42.669199" lon="0.560377">
        <ele>2059.071</ele>
        <time>2021-08-09T15:41:39Z</time>
      </trkpt>
      <trkpt lat="42.669176" lon="0.560440">
        <ele>2059.045</ele>
        <time>2021-08-09T15:41:42Z</time>
      </trkpt>
      <trkpt lat="42.669169" lon="0.560511">
        <ele>2058.080</ele>
        <time>2021-08-09T15:41:46Z</time>
      </trkpt>
      <trkpt lat="42.669148" lon="0.560574">
        <ele>2059.047</ele>
        <time>2021-08-09T15:41:52Z</time>
      </trkpt>
      <trkpt lat="42.669122" lon="0.560627">
        <ele>2057.064</ele>
        <time>2021-08-09T15:41:56Z</time>
      </trkpt>
      <trkpt lat="42.669111" lon="0.560703">
        <ele>2057.034</ele>
        <time>2021-08-09T15:42:02Z</time>
      </trkpt>
      <trkpt lat="42.669099" lon="0.560780">
        <ele>2057.072</ele>
        <time>2021-08-09T15:42:06Z</time>
      </trkpt>
      <trkpt lat="42.669122" lon="0.560842">
        <ele>2057.042</ele>
        <time>2021-08-09T15:42:10Z</time>
      </trkpt>
      <trkpt lat="42.669129" lon="0.560909">
        <ele>2056.022</ele>
        <time>2021-08-09T15:42:13Z</time>
      </trkpt>
      <trkpt lat="42.669122" lon="0.560975">
        <ele>2056.014</ele>
        <time>2021-08-09T15:42:18Z</time>
      </trkpt>
      <trkpt lat="42.669125" lon="0.561043">
        <ele>2056.008</ele>
        <time>2021-08-09T15:42:22Z</time>
      </trkpt>
      <trkpt lat="42.669122" lon="0.561110">
        <ele>2056.052</ele>
        <time>2021-08-09T15:42:27Z</time>
      </trkpt>
      <trkpt lat="42.669104" lon="0.561178">
        <ele>2055.084</ele>
        <time>2021-08-09T15:42:32Z</time>
      </trkpt>
      <trkpt lat="42.669107" lon="0.561257">
        <ele>2056.018</ele>
        <time>2021-08-09T15:42:37Z</time>
      </trkpt>
      <trkpt lat="42.669091" lon="0.561328">
        <ele>2055.013</ele>
        <time>2021-08-09T15:42:41Z</time>
      </trkpt>
      <trkpt lat="42.669082" lon="0.561411">
        <ele>2055.040</ele>
        <time>2021-08-09T15:42:46Z</time>
      </trkpt>
      <trkpt lat="42.669067" lon="0.561478">
        <ele>2055.047</ele>
        <time>2021-08-09T15:42:50Z</time>
      </trkpt>
      <trkpt lat="42.669041" lon="0.561539">
        <ele>2054.027</ele>
        <time>2021-08-09T15:42:54Z</time>
      </trkpt>
      <trkpt lat="42.668996" lon="0.561575">
        <ele>2053.035</ele>
        <time>2021-08-09T15:42:59Z</time>
      </trkpt>
      <trkpt lat="42.668964" lon="0.561623">
        <ele>2051.022</ele>
        <time>2021-08-09T15:43:04Z</time>
      </trkpt>
      <trkpt lat="42.668941" lon="0.561677">
        <ele>2050.062</ele>
        <time>2021-08-09T15:43:07Z</time>
      </trkpt>
      <trkpt lat="42.668924" lon="0.561740">
        <ele>2050.008</ele>
        <time>2021-08-09T15:43:11Z</time>
      </trkpt>
      <trkpt lat="42.668903" lon="0.561797">
        <ele>2049.008</ele>
        <time>2021-08-09T15:43:17Z</time>
      </trkpt>
      <trkpt lat="42.668885" lon="0.561856">
        <ele>2047.040</ele>
        <time>2021-08-09T15:43:21Z</time>
      </trkpt>
      <trkpt lat="42.668871" lon="0.561914">
        <ele>2048.032</ele>
        <time>2021-08-09T15:43:25Z</time>
      </trkpt>
      <trkpt lat="42.668859" lon="0.561981">
        <ele>2049.036</ele>
        <time>2021-08-09T15:43:34Z</time>
      </trkpt>
      <trkpt lat="42.668853" lon="0.562042">
        <ele>2049.061</ele>
        <time>2021-08-09T15:43:37Z</time>
      </trkpt>
      <trkpt lat="42.668863" lon="0.562118">
        <ele>2051.058</ele>
        <time>2021-08-09T15:43:44Z</time>
      </trkpt>
      <trkpt lat="42.668869" lon="0.562196">
        <ele>2051.055</ele>
        <time>2021-08-09T15:43:49Z</time>
      </trkpt>
      <trkpt lat="42.668885" lon="0.562257">
        <ele>2052.015</ele>
        <time>2021-08-09T15:43:52Z</time>
      </trkpt>
      <trkpt lat="42.668880" lon="0.562328">
        <ele>2053.063</ele>
        <time>2021-08-09T15:43:59Z</time>
      </trkpt>
      <trkpt lat="42.668862" lon="0.562396">
        <ele>2052.074</ele>
        <time>2021-08-09T15:44:03Z</time>
      </trkpt>
      <trkpt lat="42.668841" lon="0.562460">
        <ele>2051.056</ele>
        <time>2021-08-09T15:44:05Z</time>
      </trkpt>
      <trkpt lat="42.668842" lon="0.562526">
        <ele>2051.021</ele>
        <time>2021-08-09T15:44:10Z</time>
      </trkpt>
      <trkpt lat="42.668813" lon="0.562584">
        <ele>2050.008</ele>
        <time>2021-08-09T15:44:15Z</time>
      </trkpt>
      <trkpt lat="42.668798" lon="0.562651">
        <ele>2051.065</ele>
        <time>2021-08-09T15:44:20Z</time>
      </trkpt>
      <trkpt lat="42.668788" lon="0.562728">
        <ele>2050.077</ele>
        <time>2021-08-09T15:44:24Z</time>
      </trkpt>
      <trkpt lat="42.668801" lon="0.562787">
        <ele>2049.041</ele>
        <time>2021-08-09T15:44:28Z</time>
      </trkpt>
      <trkpt lat="42.668823" lon="0.562849">
        <ele>2049.076</ele>
        <time>2021-08-09T15:44:35Z</time>
      </trkpt>
      <trkpt lat="42.668824" lon="0.562911">
        <ele>2049.053</ele>
        <time>2021-08-09T15:44:39Z</time>
      </trkpt>
      <trkpt lat="42.668845" lon="0.562974">
        <ele>2049.090</ele>
        <time>2021-08-09T15:44:45Z</time>
      </trkpt>
      <trkpt lat="42.668847" lon="0.563045">
        <ele>2048.050</ele>
        <time>2021-08-09T15:44:52Z</time>
      </trkpt>
      <trkpt lat="42.668837" lon="0.563113">
        <ele>2048.068</ele>
        <time>2021-08-09T15:44:59Z</time>
      </trkpt>
      <trkpt lat="42.668795" lon="0.563139">
        <ele>2045.035</ele>
        <time>2021-08-09T15:45:28Z</time>
      </trkpt>
      <trkpt lat="42.668772" lon="0.563198">
        <ele>2043.086</ele>
        <time>2021-08-09T15:45:39Z</time>
      </trkpt>
      <trkpt lat="42.668737" lon="0.563239">
        <ele>2040.014</ele>
        <time>2021-08-09T15:45:50Z</time>
      </trkpt>
      <trkpt lat="42.668706" lon="0.563286">
        <ele>2038.008</ele>
        <time>2021-08-09T15:45:56Z</time>
      </trkpt>
      <trkpt lat="42.668654" lon="0.563310">
        <ele>2036.041</ele>
        <time>2021-08-09T15:46:03Z</time>
      </trkpt>
      <trkpt lat="42.668600" lon="0.563305">
        <ele>2034.083</ele>
        <time>2021-08-09T15:46:08Z</time>
      </trkpt>
      <trkpt lat="42.668579" lon="0.563375">
        <ele>2032.067</ele>
        <time>2021-08-09T15:46:14Z</time>
      </trkpt>
      <trkpt lat="42.668588" lon="0.563448">
        <ele>2033.062</ele>
        <time>2021-08-09T15:46:19Z</time>
      </trkpt>
      <trkpt lat="42.668596" lon="0.563509">
        <ele>2032.049</ele>
        <time>2021-08-09T15:46:23Z</time>
      </trkpt>
      <trkpt lat="42.668626" lon="0.563570">
        <ele>2032.086</ele>
        <time>2021-08-09T15:46:27Z</time>
      </trkpt>
      <trkpt lat="42.668654" lon="0.563625">
        <ele>2031.056</ele>
        <time>2021-08-09T15:46:32Z</time>
      </trkpt>
      <trkpt lat="42.668677" lon="0.563688">
        <ele>2031.074</ele>
        <time>2021-08-09T15:46:36Z</time>
      </trkpt>
      <trkpt lat="42.668686" lon="0.563748">
        <ele>2030.096</ele>
        <time>2021-08-09T15:46:40Z</time>
      </trkpt>
      <trkpt lat="42.668698" lon="0.563807">
        <ele>2029.031</ele>
        <time>2021-08-09T15:46:43Z</time>
      </trkpt>
      <trkpt lat="42.668716" lon="0.563875">
        <ele>2029.024</ele>
        <time>2021-08-09T15:46:47Z</time>
      </trkpt>
      <trkpt lat="42.668727" lon="0.563946">
        <ele>2029.008</ele>
        <time>2021-08-09T15:46:51Z</time>
      </trkpt>
      <trkpt lat="42.668745" lon="0.564010">
        <ele>2027.077</ele>
        <time>2021-08-09T15:46:56Z</time>
      </trkpt>
      <trkpt lat="42.668760" lon="0.564069">
        <ele>2026.079</ele>
        <time>2021-08-09T15:47:03Z</time>
      </trkpt>
      <trkpt lat="42.668738" lon="0.564132">
        <ele>2026.043</ele>
        <time>2021-08-09T15:47:08Z</time>
      </trkpt>
      <trkpt lat="42.668703" lon="0.564174">
        <ele>2023.018</ele>
        <time>2021-08-09T15:47:15Z</time>
      </trkpt>
      <trkpt lat="42.668683" lon="0.564240">
        <ele>2022.065</ele>
        <time>2021-08-09T15:47:22Z</time>
      </trkpt>
      <trkpt lat="42.668673" lon="0.564309">
        <ele>2020.052</ele>
        <time>2021-08-09T15:47:28Z</time>
      </trkpt>
      <trkpt lat="42.668718" lon="0.564305">
        <ele>2016.082</ele>
        <time>2021-08-09T15:47:34Z</time>
      </trkpt>
      <trkpt lat="42.668750" lon="0.564362">
        <ele>2014.070</ele>
        <time>2021-08-09T15:47:43Z</time>
      </trkpt>
      <trkpt lat="42.668741" lon="0.564423">
        <ele>2013.022</ele>
        <time>2021-08-09T15:47:49Z</time>
      </trkpt>
      <trkpt lat="42.668735" lon="0.564494">
        <ele>2012.062</ele>
        <time>2021-08-09T15:47:54Z</time>
      </trkpt>
      <trkpt lat="42.668770" lon="0.564542">
        <ele>2012.008</ele>
        <time>2021-08-09T15:47:58Z</time>
      </trkpt>
      <trkpt lat="42.668813" lon="0.564495">
        <ele>2008.008</ele>
        <time>2021-08-09T15:48:04Z</time>
      </trkpt>
      <trkpt lat="42.668847" lon="0.564448">
        <ele>2005.030</ele>
        <time>2021-08-09T15:48:11Z</time>
      </trkpt>
      <trkpt lat="42.668880" lon="0.564394">
        <ele>2003.062</ele>
        <time>2021-08-09T15:48:16Z</time>
      </trkpt>
      <trkpt lat="42.668911" lon="0.564347">
        <ele>2002.036</ele>
        <time>2021-08-09T15:48:19Z</time>
      </trkpt>
      <trkpt lat="42.668959" lon="0.564357">
        <ele>2002.041</ele>
        <time>2021-08-09T15:48:24Z</time>
      </trkpt>
      <trkpt lat="42.668991" lon="0.564404">
        <ele>2001.058</ele>
        <time>2021-08-09T15:48:31Z</time>
      </trkpt>
      <trkpt lat="42.669012" lon="0.564472">
        <ele>2001.025</ele>
        <time>2021-08-09T15:48:37Z</time>
      </trkpt>
      <trkpt lat="42.669056" lon="0.564497">
        <ele>2001.045</ele>
        <time>2021-08-09T15:48:44Z</time>
      </trkpt>
      <trkpt lat="42.669065" lon="0.564559">
        <ele>2001.023</ele>
        <time>2021-08-09T15:48:49Z</time>
      </trkpt>
      <trkpt lat="42.669077" lon="0.564618">
        <ele>1999.097</ele>
        <time>2021-08-09T15:48:54Z</time>
      </trkpt>
      <trkpt lat="42.669090" lon="0.564684">
        <ele>1998.023</ele>
        <time>2021-08-09T15:48:59Z</time>
      </trkpt>
      <trkpt lat="42.669138" lon="0.564731">
        <ele>1997.025</ele>
        <time>2021-08-09T15:49:03Z</time>
      </trkpt>
      <trkpt lat="42.669154" lon="0.564801">
        <ele>1997.008</ele>
        <time>2021-08-09T15:49:09Z</time>
      </trkpt>
      <trkpt lat="42.669152" lon="0.564888">
        <ele>1996.087</ele>
        <time>2021-08-09T15:49:13Z</time>
      </trkpt>
      <trkpt lat="42.669152" lon="0.564959">
        <ele>1997.029</ele>
        <time>2021-08-09T15:49:18Z</time>
      </trkpt>
      <trkpt lat="42.669162" lon="0.565035">
        <ele>1995.093</ele>
        <time>2021-08-09T15:49:24Z</time>
      </trkpt>
      <trkpt lat="42.669183" lon="0.565091">
        <ele>1995.018</ele>
        <time>2021-08-09T15:49:29Z</time>
      </trkpt>
      <trkpt lat="42.669197" lon="0.565159">
        <ele>1994.095</ele>
        <time>2021-08-09T15:49:35Z</time>
      </trkpt>
      <trkpt lat="42.669191" lon="0.565225">
        <ele>1991.022</ele>
        <time>2021-08-09T15:49:45Z</time>
      </trkpt>
      <trkpt lat="42.669208" lon="0.565297">
        <ele>1988.092</ele>
        <time>2021-08-09T15:49:52Z</time>
      </trkpt>
      <trkpt lat="42.669210" lon="0.565370">
        <ele>1987.020</ele>
        <time>2021-08-09T15:49:56Z</time>
      </trkpt>
      <trkpt lat="42.669209" lon="0.565437">
        <ele>1985.056</ele>
        <time>2021-08-09T15:50:01Z</time>
      </trkpt>
      <trkpt lat="42.669211" lon="0.565514">
        <ele>1983.059</ele>
        <time>2021-08-09T15:50:06Z</time>
      </trkpt>
      <trkpt lat="42.669206" lon="0.565575">
        <ele>1983.014</ele>
        <time>2021-08-09T15:50:10Z</time>
      </trkpt>
      <trkpt lat="42.669188" lon="0.565643">
        <ele>1980.008</ele>
        <time>2021-08-09T15:50:16Z</time>
      </trkpt>
      <trkpt lat="42.669167" lon="0.565703">
        <ele>1978.023</ele>
        <time>2021-08-09T15:50:21Z</time>
      </trkpt>
      <trkpt lat="42.669178" lon="0.565765">
        <ele>1978.065</ele>
        <time>2021-08-09T15:50:27Z</time>
      </trkpt>
      <trkpt lat="42.669192" lon="0.565830">
        <ele>1976.069</ele>
        <time>2021-08-09T15:50:32Z</time>
      </trkpt>
      <trkpt lat="42.669177" lon="0.565898">
        <ele>1975.094</ele>
        <time>2021-08-09T15:50:36Z</time>
      </trkpt>
      <trkpt lat="42.669183" lon="0.565961">
        <ele>1975.051</ele>
        <time>2021-08-09T15:50:40Z</time>
      </trkpt>
      <trkpt lat="42.669183" lon="0.566035">
        <ele>1974.058</ele>
        <time>2021-08-09T15:50:44Z</time>
      </trkpt>
      <trkpt lat="42.669184" lon="0.566097">
        <ele>1972.098</ele>
        <time>2021-08-09T15:50:49Z</time>
      </trkpt>
      <trkpt lat="42.669177" lon="0.566162">
        <ele>1971.066</ele>
        <time>2021-08-09T15:50:53Z</time>
      </trkpt>
      <trkpt lat="42.669192" lon="0.566223">
        <ele>1969.091</ele>
        <time>2021-08-09T15:50:58Z</time>
      </trkpt>
      <trkpt lat="42.669176" lon="0.566287">
        <ele>1968.081</ele>
        <time>2021-08-09T15:51:03Z</time>
      </trkpt>
      <trkpt lat="42.669176" lon="0.566356">
        <ele>1967.019</ele>
        <time>2021-08-09T15:51:08Z</time>
      </trkpt>
      <trkpt lat="42.669171" lon="0.566425">
        <ele>1964.008</ele>
        <time>2021-08-09T15:51:14Z</time>
      </trkpt>
      <trkpt lat="42.669159" lon="0.566490">
        <ele>1963.087</ele>
        <time>2021-08-09T15:51:18Z</time>
      </trkpt>
      <trkpt lat="42.669158" lon="0.566559">
        <ele>1962.079</ele>
        <time>2021-08-09T15:51:21Z</time>
      </trkpt>
      <trkpt lat="42.669158" lon="0.566625">
        <ele>1961.053</ele>
        <time>2021-08-09T15:51:27Z</time>
      </trkpt>
      <trkpt lat="42.669146" lon="0.566699">
        <ele>1959.068</ele>
        <time>2021-08-09T15:51:31Z</time>
      </trkpt>
      <trkpt lat="42.669138" lon="0.566767">
        <ele>1958.055</ele>
        <time>2021-08-09T15:51:35Z</time>
      </trkpt>
      <trkpt lat="42.669125" lon="0.566836">
        <ele>1958.022</ele>
        <time>2021-08-09T15:51:40Z</time>
      </trkpt>
      <trkpt lat="42.669110" lon="0.566899">
        <ele>1957.052</ele>
        <time>2021-08-09T15:51:44Z</time>
      </trkpt>
      <trkpt lat="42.669109" lon="0.566975">
        <ele>1956.070</ele>
        <time>2021-08-09T15:51:48Z</time>
      </trkpt>
      <trkpt lat="42.669086" lon="0.567038">
        <ele>1955.051</ele>
        <time>2021-08-09T15:51:52Z</time>
      </trkpt>
      <trkpt lat="42.669090" lon="0.567104">
        <ele>1954.001</ele>
        <time>2021-08-09T15:51:57Z</time>
      </trkpt>
      <trkpt lat="42.669079" lon="0.567175">
        <ele>1953.011</ele>
        <time>2021-08-09T15:52:02Z</time>
      </trkpt>
      <trkpt lat="42.669085" lon="0.567243">
        <ele>1954.008</ele>
        <time>2021-08-09T15:52:06Z</time>
      </trkpt>
      <trkpt lat="42.669096" lon="0.567315">
        <ele>1953.013</ele>
        <time>2021-08-09T15:52:11Z</time>
      </trkpt>
      <trkpt lat="42.669135" lon="0.567363">
        <ele>1951.095</ele>
        <time>2021-08-09T15:52:16Z</time>
      </trkpt>
      <trkpt lat="42.669179" lon="0.567400">
        <ele>1951.099</ele>
        <time>2021-08-09T15:52:20Z</time>
      </trkpt>
      <trkpt lat="42.669195" lon="0.567467">
        <ele>1950.094</ele>
        <time>2021-08-09T15:52:25Z</time>
      </trkpt>
      <trkpt lat="42.669211" lon="0.567525">
        <ele>1949.021</ele>
        <time>2021-08-09T15:52:29Z</time>
      </trkpt>
      <trkpt lat="42.669211" lon="0.567588">
        <ele>1947.068</ele>
        <time>2021-08-09T15:52:31Z</time>
      </trkpt>
      <trkpt lat="42.669216" lon="0.567661">
        <ele>1945.068</ele>
        <time>2021-08-09T15:52:35Z</time>
      </trkpt>
      <trkpt lat="42.669222" lon="0.567730">
        <ele>1944.026</ele>
        <time>2021-08-09T15:52:42Z</time>
      </trkpt>
      <trkpt lat="42.669230" lon="0.567797">
        <ele>1942.061</ele>
        <time>2021-08-09T15:52:48Z</time>
      </trkpt>
      <trkpt lat="42.669239" lon="0.567866">
        <ele>1943.021</ele>
        <time>2021-08-09T15:52:51Z</time>
      </trkpt>
      <trkpt lat="42.669253" lon="0.567936">
        <ele>1943.013</ele>
        <time>2021-08-09T15:52:56Z</time>
      </trkpt>
      <trkpt lat="42.669254" lon="0.568004">
        <ele>1940.008</ele>
        <time>2021-08-09T15:53:00Z</time>
      </trkpt>
      <trkpt lat="42.669251" lon="0.568072">
        <ele>1938.034</ele>
        <time>2021-08-09T15:53:04Z</time>
      </trkpt>
      <trkpt lat="42.669240" lon="0.568141">
        <ele>1936.046</ele>
        <time>2021-08-09T15:53:08Z</time>
      </trkpt>
      <trkpt lat="42.669235" lon="0.568203">
        <ele>1935.070</ele>
        <time>2021-08-09T15:53:13Z</time>
      </trkpt>
      <trkpt lat="42.669233" lon="0.568270">
        <ele>1934.015</ele>
        <time>2021-08-09T15:53:19Z</time>
      </trkpt>
      <trkpt lat="42.669219" lon="0.568329">
        <ele>1934.032</ele>
        <time>2021-08-09T15:53:25Z</time>
      </trkpt>
      <trkpt lat="42.669221" lon="0.568401">
        <ele>1931.089</ele>
        <time>2021-08-09T15:53:31Z</time>
      </trkpt>
      <trkpt lat="42.669201" lon="0.568457">
        <ele>1930.039</ele>
        <time>2021-08-09T15:53:37Z</time>
      </trkpt>
      <trkpt lat="42.669193" lon="0.568519">
        <ele>1928.087</ele>
        <time>2021-08-09T15:53:41Z</time>
      </trkpt>
      <trkpt lat="42.669190" lon="0.568584">
        <ele>1927.093</ele>
        <time>2021-08-09T15:53:47Z</time>
      </trkpt>
      <trkpt lat="42.669222" lon="0.568636">
        <ele>1925.065</ele>
        <time>2021-08-09T15:53:51Z</time>
      </trkpt>
      <trkpt lat="42.669235" lon="0.568702">
        <ele>1924.021</ele>
        <time>2021-08-09T15:53:57Z</time>
      </trkpt>
      <trkpt lat="42.669244" lon="0.568767">
        <ele>1922.008</ele>
        <time>2021-08-09T15:54:07Z</time>
      </trkpt>
      <trkpt lat="42.669254" lon="0.568833">
        <ele>1919.047</ele>
        <time>2021-08-09T15:54:12Z</time>
      </trkpt>
      <trkpt lat="42.669260" lon="0.568905">
        <ele>1918.069</ele>
        <time>2021-08-09T15:54:16Z</time>
      </trkpt>
      <trkpt lat="42.669274" lon="0.568972">
        <ele>1917.053</ele>
        <time>2021-08-09T15:54:22Z</time>
      </trkpt>
      <trkpt lat="42.669297" lon="0.569029">
        <ele>1916.078</ele>
        <time>2021-08-09T15:54:27Z</time>
      </trkpt>
      <trkpt lat="42.669286" lon="0.569091">
        <ele>1914.085</ele>
        <time>2021-08-09T15:54:34Z</time>
      </trkpt>
      <trkpt lat="42.669268" lon="0.569158">
        <ele>1912.082</ele>
        <time>2021-08-09T15:54:40Z</time>
      </trkpt>
      <trkpt lat="42.669262" lon="0.569222">
        <ele>1910.032</ele>
        <time>2021-08-09T15:54:46Z</time>
      </trkpt>
      <trkpt lat="42.669235" lon="0.569286">
        <ele>1910.010</ele>
        <time>2021-08-09T15:54:53Z</time>
      </trkpt>
      <trkpt lat="42.669195" lon="0.569318">
        <ele>1907.089</ele>
        <time>2021-08-09T15:55:00Z</time>
      </trkpt>
      <trkpt lat="42.669157" lon="0.569355">
        <ele>1906.006</ele>
        <time>2021-08-09T15:55:07Z</time>
      </trkpt>
      <trkpt lat="42.669132" lon="0.569412">
        <ele>1906.026</ele>
        <time>2021-08-09T15:55:12Z</time>
      </trkpt>
      <trkpt lat="42.669109" lon="0.569465">
        <ele>1903.008</ele>
        <time>2021-08-09T15:55:18Z</time>
      </trkpt>
      <trkpt lat="42.669081" lon="0.569521">
        <ele>1901.076</ele>
        <time>2021-08-09T15:55:22Z</time>
      </trkpt>
      <trkpt lat="42.669046" lon="0.569563">
        <ele>1898.098</ele>
        <time>2021-08-09T15:55:28Z</time>
      </trkpt>
      <trkpt lat="42.669036" lon="0.569488">
        <ele>1897.062</ele>
        <time>2021-08-09T15:55:34Z</time>
      </trkpt>
      <trkpt lat="42.668984" lon="0.569501">
        <ele>1894.087</ele>
        <time>2021-08-09T15:55:42Z</time>
      </trkpt>
      <trkpt lat="42.668949" lon="0.569459">
        <ele>1893.044</ele>
        <time>2021-08-09T15:55:47Z</time>
      </trkpt>
      <trkpt lat="42.668910" lon="0.569412">
        <ele>1889.091</ele>
        <time>2021-08-09T15:55:54Z</time>
      </trkpt>
      <trkpt lat="42.668858" lon="0.569431">
        <ele>1886.081</ele>
        <time>2021-08-09T15:56:00Z</time>
      </trkpt>
      <trkpt lat="42.668818" lon="0.569472">
        <ele>1885.099</ele>
        <time>2021-08-09T15:56:06Z</time>
      </trkpt>
      <trkpt lat="42.668781" lon="0.569518">
        <ele>1883.072</ele>
        <time>2021-08-09T15:56:11Z</time>
      </trkpt>
      <trkpt lat="42.668741" lon="0.569486">
        <ele>1880.013</ele>
        <time>2021-08-09T15:56:17Z</time>
      </trkpt>
      <trkpt lat="42.668690" lon="0.569493">
        <ele>1877.014</ele>
        <time>2021-08-09T15:56:25Z</time>
      </trkpt>
      <trkpt lat="42.668647" lon="0.569531">
        <ele>1874.008</ele>
        <time>2021-08-09T15:56:31Z</time>
      </trkpt>
      <trkpt lat="42.668602" lon="0.569549">
        <ele>1874.095</ele>
        <time>2021-08-09T15:56:41Z</time>
      </trkpt>
      <trkpt lat="42.668555" lon="0.569554">
        <ele>1873.067</ele>
        <time>2021-08-09T15:56:47Z</time>
      </trkpt>
      <trkpt lat="42.668515" lon="0.569600">
        <ele>1871.071</ele>
        <time>2021-08-09T15:56:54Z</time>
      </trkpt>
      <trkpt lat="42.668468" lon="0.569617">
        <ele>1870.076</ele>
        <time>2021-08-09T15:56:59Z</time>
      </trkpt>
      <trkpt lat="42.668431" lon="0.569678">
        <ele>1868.033</ele>
        <time>2021-08-09T15:57:04Z</time>
      </trkpt>
      <trkpt lat="42.668382" lon="0.569700">
        <ele>1866.020</ele>
        <time>2021-08-09T15:57:09Z</time>
      </trkpt>
      <trkpt lat="42.668345" lon="0.569747">
        <ele>1865.060</ele>
        <time>2021-08-09T15:57:14Z</time>
      </trkpt>
      <trkpt lat="42.668289" lon="0.569750">
        <ele>1864.038</ele>
        <time>2021-08-09T15:57:18Z</time>
      </trkpt>
      <trkpt lat="42.668242" lon="0.569771">
        <ele>1863.061</ele>
        <time>2021-08-09T15:57:22Z</time>
      </trkpt>
      <trkpt lat="42.668194" lon="0.569773">
        <ele>1862.021</ele>
        <time>2021-08-09T15:57:25Z</time>
      </trkpt>
      <trkpt lat="42.668142" lon="0.569784">
        <ele>1861.013</ele>
        <time>2021-08-09T15:57:30Z</time>
      </trkpt>
      <trkpt lat="42.668082" lon="0.569789">
        <ele>1860.008</ele>
        <time>2021-08-09T15:57:34Z</time>
      </trkpt>
      <trkpt lat="42.668026" lon="0.569795">
        <ele>1858.094</ele>
        <time>2021-08-09T15:57:39Z</time>
      </trkpt>
      <trkpt lat="42.667984" lon="0.569826">
        <ele>1855.026</ele>
        <time>2021-08-09T15:57:45Z</time>
      </trkpt>
      <trkpt lat="42.667927" lon="0.569843">
        <ele>1853.060</ele>
        <time>2021-08-09T15:57:51Z</time>
      </trkpt>
      <trkpt lat="42.667900" lon="0.569896">
        <ele>1850.075</ele>
        <time>2021-08-09T15:57:59Z</time>
      </trkpt>
      <trkpt lat="42.667870" lon="0.569943">
        <ele>1849.092</ele>
        <time>2021-08-09T15:58:05Z</time>
      </trkpt>
      <trkpt lat="42.667831" lon="0.569987">
        <ele>1847.099</ele>
        <time>2021-08-09T15:58:10Z</time>
      </trkpt>
      <trkpt lat="42.667792" lon="0.570028">
        <ele>1846.069</ele>
        <time>2021-08-09T15:58:17Z</time>
      </trkpt>
      <trkpt lat="42.667749" lon="0.570080">
        <ele>1844.077</ele>
        <time>2021-08-09T15:58:24Z</time>
      </trkpt>
      <trkpt lat="42.667756" lon="0.570149">
        <ele>1844.099</ele>
        <time>2021-08-09T15:58:30Z</time>
      </trkpt>
      <trkpt lat="42.667743" lon="0.570221">
        <ele>1844.007</ele>
        <time>2021-08-09T15:58:34Z</time>
      </trkpt>
      <trkpt lat="42.667726" lon="0.570286">
        <ele>1843.027</ele>
        <time>2021-08-09T15:58:39Z</time>
      </trkpt>
      <trkpt lat="42.667732" lon="0.570347">
        <ele>1843.008</ele>
        <time>2021-08-09T15:58:42Z</time>
      </trkpt>
      <trkpt lat="42.667731" lon="0.570422">
        <ele>1844.097</ele>
        <time>2021-08-09T15:58:46Z</time>
      </trkpt>
      <trkpt lat="42.667737" lon="0.570495">
        <ele>1843.039</ele>
        <time>2021-08-09T15:58:50Z</time>
      </trkpt>
      <trkpt lat="42.667778" lon="0.570539">
        <ele>1842.053</ele>
        <time>2021-08-09T15:58:56Z</time>
      </trkpt>
      <trkpt lat="42.667803" lon="0.570599">
        <ele>1841.088</ele>
        <time>2021-08-09T15:59:01Z</time>
      </trkpt>
      <trkpt lat="42.667817" lon="0.570659">
        <ele>1840.065</ele>
        <time>2021-08-09T15:59:05Z</time>
      </trkpt>
      <trkpt lat="42.667810" lon="0.570722">
        <ele>1838.072</ele>
        <time>2021-08-09T15:59:10Z</time>
      </trkpt>
      <trkpt lat="42.667821" lon="0.570788">
        <ele>1837.012</ele>
        <time>2021-08-09T15:59:14Z</time>
      </trkpt>
      <trkpt lat="42.667822" lon="0.570850">
        <ele>1836.030</ele>
        <time>2021-08-09T15:59:17Z</time>
      </trkpt>
      <trkpt lat="42.667832" lon="0.570914">
        <ele>1835.021</ele>
        <time>2021-08-09T15:59:21Z</time>
      </trkpt>
      <trkpt lat="42.667844" lon="0.570983">
        <ele>1834.041</ele>
        <time>2021-08-09T15:59:25Z</time>
      </trkpt>
      <trkpt lat="42.667862" lon="0.571045">
        <ele>1834.005</ele>
        <time>2021-08-09T15:59:30Z</time>
      </trkpt>
      <trkpt lat="42.667893" lon="0.571097">
        <ele>1835.008</ele>
        <time>2021-08-09T15:59:34Z</time>
      </trkpt>
      <trkpt lat="42.667844" lon="0.571129">
        <ele>1833.070</ele>
        <time>2021-08-09T15:59:41Z</time>
      </trkpt>
      <trkpt lat="42.667812" lon="0.571184">
        <ele>1830.052</ele>
        <time>2021-08-09T15:59:48Z</time>
      </trkpt>
      <trkpt lat="42.667832" lon="0.571266">
        <ele>1829.036</ele>
        <time>2021-08-09T15:59:56Z</time>
      </trkpt>
      <trkpt lat="42.667840" lon="0.571339">
        <ele>1829.031</ele>
        <time>2021-08-09T16:00:01Z</time>
      </trkpt>
      <trkpt lat="42.667822" lon="0.571402">
        <ele>1827.098</ele>
        <time>2021-08-09T16:00:05Z</time>
      </trkpt>
      <trkpt lat="42.667821" lon="0.571471">
        <ele>1826.045</ele>
        <time>2021-08-09T16:00:09Z</time>
      </trkpt>
      <trkpt lat="42.667829" lon="0.571538">
        <ele>1825.045</ele>
        <time>2021-08-09T16:00:14Z</time>
      </trkpt>
      <trkpt lat="42.667817" lon="0.571603">
        <ele>1824.053</ele>
        <time>2021-08-09T16:00:17Z</time>
      </trkpt>
      <trkpt lat="42.667805" lon="0.571677">
        <ele>1824.062</ele>
        <time>2021-08-09T16:00:21Z</time>
      </trkpt>
      <trkpt lat="42.667817" lon="0.571740">
        <ele>1823.083</ele>
        <time>2021-08-09T16:00:24Z</time>
      </trkpt>
      <trkpt lat="42.667854" lon="0.571787">
        <ele>1822.011</ele>
        <time>2021-08-09T16:00:32Z</time>
      </trkpt>
      <trkpt lat="42.667820" lon="0.571836">
        <ele>1820.008</ele>
        <time>2021-08-09T16:00:37Z</time>
      </trkpt>
      <trkpt lat="42.667808" lon="0.571901">
        <ele>1818.024</ele>
        <time>2021-08-09T16:00:41Z</time>
      </trkpt>
      <trkpt lat="42.667801" lon="0.571964">
        <ele>1818.016</ele>
        <time>2021-08-09T16:00:44Z</time>
      </trkpt>
      <trkpt lat="42.667814" lon="0.572025">
        <ele>1818.090</ele>
        <time>2021-08-09T16:00:49Z</time>
      </trkpt>
      <trkpt lat="42.667816" lon="0.572093">
        <ele>1817.015</ele>
        <time>2021-08-09T16:00:52Z</time>
      </trkpt>
      <trkpt lat="42.667822" lon="0.572160">
        <ele>1816.032</ele>
        <time>2021-08-09T16:00:56Z</time>
      </trkpt>
      <trkpt lat="42.667824" lon="0.572229">
        <ele>1814.059</ele>
        <time>2021-08-09T16:01:01Z</time>
      </trkpt>
      <trkpt lat="42.667809" lon="0.572288">
        <ele>1814.079</ele>
        <time>2021-08-09T16:01:05Z</time>
      </trkpt>
      <trkpt lat="42.667815" lon="0.572352">
        <ele>1812.047</ele>
        <time>2021-08-09T16:01:10Z</time>
      </trkpt>
      <trkpt lat="42.667808" lon="0.572431">
        <ele>1810.042</ele>
        <time>2021-08-09T16:01:14Z</time>
      </trkpt>
      <trkpt lat="42.667800" lon="0.572507">
        <ele>1808.022</ele>
        <time>2021-08-09T16:01:18Z</time>
      </trkpt>
      <trkpt lat="42.667793" lon="0.572569">
        <ele>1808.014</ele>
        <time>2021-08-09T16:01:21Z</time>
      </trkpt>
      <trkpt lat="42.667796" lon="0.572639">
        <ele>1808.008</ele>
        <time>2021-08-09T16:01:25Z</time>
      </trkpt>
      <trkpt lat="42.667796" lon="0.572706">
        <ele>1807.022</ele>
        <time>2021-08-09T16:01:29Z</time>
      </trkpt>
      <trkpt lat="42.667785" lon="0.572782">
        <ele>1807.084</ele>
        <time>2021-08-09T16:01:33Z</time>
      </trkpt>
      <trkpt lat="42.667801" lon="0.572856">
        <ele>1807.018</ele>
        <time>2021-08-09T16:01:38Z</time>
      </trkpt>
      <trkpt lat="42.667802" lon="0.572932">
        <ele>1806.033</ele>
        <time>2021-08-09T16:01:42Z</time>
      </trkpt>
      <trkpt lat="42.667805" lon="0.573002">
        <ele>1805.010</ele>
        <time>2021-08-09T16:01:46Z</time>
      </trkpt>
      <trkpt lat="42.667786" lon="0.573063">
        <ele>1804.017</ele>
        <time>2021-08-09T16:01:49Z</time>
      </trkpt>
      <trkpt lat="42.667764" lon="0.573126">
        <ele>1801.067</ele>
        <time>2021-08-09T16:01:54Z</time>
      </trkpt>
      <trkpt lat="42.667750" lon="0.573189">
        <ele>1801.025</ele>
        <time>2021-08-09T16:01:58Z</time>
      </trkpt>
      <trkpt lat="42.667730" lon="0.573254">
        <ele>1799.076</ele>
        <time>2021-08-09T16:02:02Z</time>
      </trkpt>
      <trkpt lat="42.667729" lon="0.573320">
        <ele>1800.090</ele>
        <time>2021-08-09T16:02:06Z</time>
      </trkpt>
      <trkpt lat="42.667743" lon="0.573380">
        <ele>1800.019</ele>
        <time>2021-08-09T16:02:10Z</time>
      </trkpt>
      <trkpt lat="42.667748" lon="0.573449">
        <ele>1799.008</ele>
        <time>2021-08-09T16:02:15Z</time>
      </trkpt>
      <trkpt lat="42.667759" lon="0.573530">
        <ele>1798.035</ele>
        <time>2021-08-09T16:02:20Z</time>
      </trkpt>
      <trkpt lat="42.667758" lon="0.573592">
        <ele>1798.037</ele>
        <time>2021-08-09T16:02:24Z</time>
      </trkpt>
      <trkpt lat="42.667748" lon="0.573659">
        <ele>1798.021</ele>
        <time>2021-08-09T16:02:28Z</time>
      </trkpt>
      <trkpt lat="42.667761" lon="0.573718">
        <ele>1798.026</ele>
        <time>2021-08-09T16:02:32Z</time>
      </trkpt>
      <trkpt lat="42.667763" lon="0.573783">
        <ele>1798.063</ele>
        <time>2021-08-09T16:02:36Z</time>
      </trkpt>
      <trkpt lat="42.667782" lon="0.573865">
        <ele>1798.070</ele>
        <time>2021-08-09T16:02:40Z</time>
      </trkpt>
      <trkpt lat="42.667807" lon="0.573924">
        <ele>1798.030</ele>
        <time>2021-08-09T16:02:44Z</time>
      </trkpt>
      <trkpt lat="42.667807" lon="0.573997">
        <ele>1798.068</ele>
        <time>2021-08-09T16:02:48Z</time>
      </trkpt>
      <trkpt lat="42.667828" lon="0.574066">
        <ele>1797.012</ele>
        <time>2021-08-09T16:02:51Z</time>
      </trkpt>
      <trkpt lat="42.667840" lon="0.574141">
        <ele>1796.032</ele>
        <time>2021-08-09T16:02:55Z</time>
      </trkpt>
      <trkpt lat="42.667856" lon="0.574200">
        <ele>1795.005</ele>
        <time>2021-08-09T16:02:58Z</time>
      </trkpt>
      <trkpt lat="42.667831" lon="0.574254">
        <ele>1793.008</ele>
        <time>2021-08-09T16:03:04Z</time>
      </trkpt>
      <trkpt lat="42.667818" lon="0.574317">
        <ele>1793.029</ele>
        <time>2021-08-09T16:03:10Z</time>
      </trkpt>
      <trkpt lat="42.667826" lon="0.574379">
        <ele>1792.081</ele>
        <time>2021-08-09T16:03:14Z</time>
      </trkpt>
      <trkpt lat="42.667829" lon="0.574459">
        <ele>1793.095</ele>
        <time>2021-08-09T16:03:19Z</time>
      </trkpt>
      <trkpt lat="42.667826" lon="0.574527">
        <ele>1793.010</ele>
        <time>2021-08-09T16:03:23Z</time>
      </trkpt>
      <trkpt lat="42.667811" lon="0.574587">
        <ele>1792.017</ele>
        <time>2021-08-09T16:03:29Z</time>
      </trkpt>
      <trkpt lat="42.667776" lon="0.574633">
        <ele>1793.044</ele>
        <time>2021-08-09T16:03:37Z</time>
      </trkpt>
      <trkpt lat="42.667763" lon="0.574704">
        <ele>1792.084</ele>
        <time>2021-08-09T16:03:44Z</time>
      </trkpt>
      <trkpt lat="42.667764" lon="0.574771">
        <ele>1790.092</ele>
        <time>2021-08-09T16:03:47Z</time>
      </trkpt>
      <trkpt lat="42.667758" lon="0.574835">
        <ele>1789.082</ele>
        <time>2021-08-09T16:03:50Z</time>
      </trkpt>
      <trkpt lat="42.667751" lon="0.574898">
        <ele>1786.043</ele>
        <time>2021-08-09T16:03:54Z</time>
      </trkpt>
      <trkpt lat="42.667745" lon="0.574960">
        <ele>1785.017</ele>
        <time>2021-08-09T16:03:58Z</time>
      </trkpt>
      <trkpt lat="42.667750" lon="0.575031">
        <ele>1783.008</ele>
        <time>2021-08-09T16:04:02Z</time>
      </trkpt>
      <trkpt lat="42.667764" lon="0.575098">
        <ele>1782.076</ele>
        <time>2021-08-09T16:04:05Z</time>
      </trkpt>
      <trkpt lat="42.667755" lon="0.575169">
        <ele>1780.058</ele>
        <time>2021-08-09T16:04:10Z</time>
      </trkpt>
      <trkpt lat="42.667750" lon="0.575239">
        <ele>1781.092</ele>
        <time>2021-08-09T16:04:15Z</time>
      </trkpt>
      <trkpt lat="42.667729" lon="0.575304">
        <ele>1780.057</ele>
        <time>2021-08-09T16:04:17Z</time>
      </trkpt>
      <trkpt lat="42.667711" lon="0.575364">
        <ele>1780.024</ele>
        <time>2021-08-09T16:04:21Z</time>
      </trkpt>
      <trkpt lat="42.667700" lon="0.575433">
        <ele>1780.081</ele>
        <time>2021-08-09T16:04:25Z</time>
      </trkpt>
      <trkpt lat="42.667696" lon="0.575502">
        <ele>1780.011</ele>
        <time>2021-08-09T16:04:29Z</time>
      </trkpt>
      <trkpt lat="42.667641" lon="0.575499">
        <ele>1778.069</ele>
        <time>2021-08-09T16:04:35Z</time>
      </trkpt>
      <trkpt lat="42.667595" lon="0.575474">
        <ele>1778.011</ele>
        <time>2021-08-09T16:04:41Z</time>
      </trkpt>
      <trkpt lat="42.667546" lon="0.575478">
        <ele>1777.021</ele>
        <time>2021-08-09T16:04:47Z</time>
      </trkpt>
      <trkpt lat="42.667504" lon="0.575456">
        <ele>1777.003</ele>
        <time>2021-08-09T16:04:52Z</time>
      </trkpt>
      <trkpt lat="42.667464" lon="0.575423">
        <ele>1775.008</ele>
        <time>2021-08-09T16:04:57Z</time>
      </trkpt>
      <trkpt lat="42.667424" lon="0.575388">
        <ele>1774.019</ele>
        <time>2021-08-09T16:05:01Z</time>
      </trkpt>
      <trkpt lat="42.667376" lon="0.575425">
        <ele>1771.021</ele>
        <time>2021-08-09T16:05:08Z</time>
      </trkpt>
      <trkpt lat="42.667331" lon="0.575465">
        <ele>1769.055</ele>
        <time>2021-08-09T16:05:13Z</time>
      </trkpt>
      <trkpt lat="42.667295" lon="0.575502">
        <ele>1769.010</ele>
        <time>2021-08-09T16:05:19Z</time>
      </trkpt>
      <trkpt lat="42.667294" lon="0.575572">
        <ele>1766.037</ele>
        <time>2021-08-09T16:05:25Z</time>
      </trkpt>
      <trkpt lat="42.667285" lon="0.575649">
        <ele>1764.024</ele>
        <time>2021-08-09T16:05:29Z</time>
      </trkpt>
      <trkpt lat="42.667246" lon="0.575687">
        <ele>1764.084</ele>
        <time>2021-08-09T16:05:33Z</time>
      </trkpt>
      <trkpt lat="42.667204" lon="0.575719">
        <ele>1763.022</ele>
        <time>2021-08-09T16:05:37Z</time>
      </trkpt>
      <trkpt lat="42.667208" lon="0.575787">
        <ele>1762.051</ele>
        <time>2021-08-09T16:05:50Z</time>
      </trkpt>
      <trkpt lat="42.667249" lon="0.575820">
        <ele>1762.001</ele>
        <time>2021-08-09T16:05:53Z</time>
      </trkpt>
      <trkpt lat="42.667294" lon="0.575855">
        <ele>1760.011</ele>
        <time>2021-08-09T16:05:59Z</time>
      </trkpt>
      <trkpt lat="42.667332" lon="0.575904">
        <ele>1759.008</ele>
        <time>2021-08-09T16:06:05Z</time>
      </trkpt>
      <trkpt lat="42.667365" lon="0.575957">
        <ele>1757.053</ele>
        <time>2021-08-09T16:06:10Z</time>
      </trkpt>
      <trkpt lat="42.667384" lon="0.576022">
        <ele>1756.015</ele>
        <time>2021-08-09T16:06:14Z</time>
      </trkpt>
      <trkpt lat="42.667418" lon="0.576079">
        <ele>1756.089</ele>
        <time>2021-08-09T16:06:17Z</time>
      </trkpt>
      <trkpt lat="42.667451" lon="0.576132">
        <ele>1755.044</ele>
        <time>2021-08-09T16:06:21Z</time>
      </trkpt>
      <trkpt lat="42.667439" lon="0.576192">
        <ele>1753.091</ele>
        <time>2021-08-09T16:06:32Z</time>
      </trkpt>
      <trkpt lat="42.667406" lon="0.576242">
        <ele>1752.058</ele>
        <time>2021-08-09T16:06:39Z</time>
      </trkpt>
      <trkpt lat="42.667433" lon="0.576295">
        <ele>1751.098</ele>
        <time>2021-08-09T16:06:48Z</time>
      </trkpt>
      <trkpt lat="42.667464" lon="0.576341">
        <ele>1750.026</ele>
        <time>2021-08-09T16:06:54Z</time>
      </trkpt>
      <trkpt lat="42.667490" lon="0.576391">
        <ele>1748.031</ele>
        <time>2021-08-09T16:06:59Z</time>
      </trkpt>
      <trkpt lat="42.667528" lon="0.576428">
        <ele>1746.061</ele>
        <time>2021-08-09T16:07:03Z</time>
      </trkpt>
      <trkpt lat="42.667577" lon="0.576482">
        <ele>1745.007</ele>
        <time>2021-08-09T16:07:09Z</time>
      </trkpt>
      <trkpt lat="42.667555" lon="0.576536">
        <ele>1743.008</ele>
        <time>2021-08-09T16:07:16Z</time>
      </trkpt>
      <trkpt lat="42.667507" lon="0.576546">
        <ele>1743.091</ele>
        <time>2021-08-09T16:07:24Z</time>
      </trkpt>
      <trkpt lat="42.667532" lon="0.576605">
        <ele>1738.073</ele>
        <time>2021-08-09T16:07:30Z</time>
      </trkpt>
      <trkpt lat="42.667570" lon="0.576646">
        <ele>1737.097</ele>
        <time>2021-08-09T16:07:35Z</time>
      </trkpt>
      <trkpt lat="42.667583" lon="0.576708">
        <ele>1735.092</ele>
        <time>2021-08-09T16:07:40Z</time>
      </trkpt>
      <trkpt lat="42.667612" lon="0.576768">
        <ele>1733.089</ele>
        <time>2021-08-09T16:07:45Z</time>
      </trkpt>
      <trkpt lat="42.667628" lon="0.576835">
        <ele>1732.066</ele>
        <time>2021-08-09T16:07:52Z</time>
      </trkpt>
      <trkpt lat="42.667647" lon="0.576914">
        <ele>1730.096</ele>
        <time>2021-08-09T16:08:01Z</time>
      </trkpt>
      <trkpt lat="42.667606" lon="0.576939">
        <ele>1729.044</ele>
        <time>2021-08-09T16:08:06Z</time>
      </trkpt>
      <trkpt lat="42.667555" lon="0.576918">
        <ele>1728.094</ele>
        <time>2021-08-09T16:08:15Z</time>
      </trkpt>
      <trkpt lat="42.667501" lon="0.576922">
        <ele>1726.057</ele>
        <time>2021-08-09T16:08:19Z</time>
      </trkpt>
      <trkpt lat="42.667451" lon="0.576907">
        <ele>1725.022</ele>
        <time>2021-08-09T16:08:24Z</time>
      </trkpt>
      <trkpt lat="42.667418" lon="0.576957">
        <ele>1723.008</ele>
        <time>2021-08-09T16:08:28Z</time>
      </trkpt>
      <trkpt lat="42.667447" lon="0.577024">
        <ele>1721.057</ele>
        <time>2021-08-09T16:08:34Z</time>
      </trkpt>
      <trkpt lat="42.667477" lon="0.577072">
        <ele>1721.069</ele>
        <time>2021-08-09T16:08:40Z</time>
      </trkpt>
      <trkpt lat="42.667508" lon="0.577123">
        <ele>1720.043</ele>
        <time>2021-08-09T16:08:46Z</time>
      </trkpt>
      <trkpt lat="42.667524" lon="0.577190">
        <ele>1719.048</ele>
        <time>2021-08-09T16:08:50Z</time>
      </trkpt>
      <trkpt lat="42.667553" lon="0.577237">
        <ele>1716.045</ele>
        <time>2021-08-09T16:08:53Z</time>
      </trkpt>
      <trkpt lat="42.667574" lon="0.577302">
        <ele>1716.052</ele>
        <time>2021-08-09T16:08:57Z</time>
      </trkpt>
      <trkpt lat="42.667540" lon="0.577355">
        <ele>1714.082</ele>
        <time>2021-08-09T16:09:06Z</time>
      </trkpt>
      <trkpt lat="42.667493" lon="0.577365">
        <ele>1713.020</ele>
        <time>2021-08-09T16:09:13Z</time>
      </trkpt>
      <trkpt lat="42.667514" lon="0.577422">
        <ele>1714.061</ele>
        <time>2021-08-09T16:09:25Z</time>
      </trkpt>
      <trkpt lat="42.667548" lon="0.577464">
        <ele>1713.021</ele>
        <time>2021-08-09T16:09:29Z</time>
      </trkpt>
      <trkpt lat="42.667584" lon="0.577512">
        <ele>1711.013</ele>
        <time>2021-08-09T16:09:34Z</time>
      </trkpt>
      <trkpt lat="42.667609" lon="0.577579">
        <ele>1708.008</ele>
        <time>2021-08-09T16:09:40Z</time>
      </trkpt>
      <trkpt lat="42.667621" lon="0.577649">
        <ele>1708.064</ele>
        <time>2021-08-09T16:09:45Z</time>
      </trkpt>
      <trkpt lat="42.667625" lon="0.577715">
        <ele>1707.056</ele>
        <time>2021-08-09T16:09:50Z</time>
      </trkpt>
      <trkpt lat="42.667640" lon="0.577784">
        <ele>1702.020</ele>
        <time>2021-08-09T16:09:56Z</time>
      </trkpt>
      <trkpt lat="42.667655" lon="0.577846">
        <ele>1702.055</ele>
        <time>2021-08-09T16:10:00Z</time>
      </trkpt>
      <trkpt lat="42.667669" lon="0.577921">
        <ele>1701.072</ele>
        <time>2021-08-09T16:10:05Z</time>
      </trkpt>
      <trkpt lat="42.667714" lon="0.577961">
        <ele>1699.099</ele>
        <time>2021-08-09T16:10:10Z</time>
      </trkpt>
      <trkpt lat="42.667715" lon="0.578039">
        <ele>1698.099</ele>
        <time>2021-08-09T16:10:16Z</time>
      </trkpt>
      <trkpt lat="42.667751" lon="0.578100">
        <ele>1696.097</ele>
        <time>2021-08-09T16:10:22Z</time>
      </trkpt>
      <trkpt lat="42.667747" lon="0.578186">
        <ele>1692.098</ele>
        <time>2021-08-09T16:10:31Z</time>
      </trkpt>
      <trkpt lat="42.667769" lon="0.578255">
        <ele>1690.015</ele>
        <time>2021-08-09T16:10:36Z</time>
      </trkpt>
      <trkpt lat="42.667757" lon="0.578314">
        <ele>1690.026</ele>
        <time>2021-08-09T16:10:40Z</time>
      </trkpt>
      <trkpt lat="42.667788" lon="0.578369">
        <ele>1690.008</ele>
        <time>2021-08-09T16:10:45Z</time>
      </trkpt>
      <trkpt lat="42.667820" lon="0.578430">
        <ele>1690.067</ele>
        <time>2021-08-09T16:10:51Z</time>
      </trkpt>
      <trkpt lat="42.667857" lon="0.578466">
        <ele>1689.039</ele>
        <time>2021-08-09T16:10:54Z</time>
      </trkpt>
      <trkpt lat="42.667895" lon="0.578506">
        <ele>1689.093</ele>
        <time>2021-08-09T16:10:57Z</time>
      </trkpt>
      <trkpt lat="42.667938" lon="0.578524">
        <ele>1690.058</ele>
        <time>2021-08-09T16:11:00Z</time>
      </trkpt>
      <trkpt lat="42.667989" lon="0.578565">
        <ele>1689.075</ele>
        <time>2021-08-09T16:11:04Z</time>
      </trkpt>
      <trkpt lat="42.667998" lon="0.578644">
        <ele>1690.062</ele>
        <time>2021-08-09T16:11:07Z</time>
      </trkpt>
      <trkpt lat="42.668038" lon="0.578698">
        <ele>1690.042</ele>
        <time>2021-08-09T16:11:11Z</time>
      </trkpt>
      <trkpt lat="42.668062" lon="0.578763">
        <ele>1690.020</ele>
        <time>2021-08-09T16:11:15Z</time>
      </trkpt>
      <trkpt lat="42.668085" lon="0.578820">
        <ele>1690.059</ele>
        <time>2021-08-09T16:11:18Z</time>
      </trkpt>
      <trkpt lat="42.668112" lon="0.578889">
        <ele>1690.003</ele>
        <time>2021-08-09T16:11:22Z</time>
      </trkpt>
      <trkpt lat="42.668130" lon="0.578949">
        <ele>1689.023</ele>
        <time>2021-08-09T16:11:25Z</time>
      </trkpt>
      <trkpt lat="42.668144" lon="0.579020">
        <ele>1687.008</ele>
        <time>2021-08-09T16:11:28Z</time>
      </trkpt>
      <trkpt lat="42.668101" lon="0.579049">
        <ele>1687.053</ele>
        <time>2021-08-09T16:11:32Z</time>
      </trkpt>
      <trkpt lat="42.668059" lon="0.579001">
        <ele>1685.065</ele>
        <time>2021-08-09T16:11:39Z</time>
      </trkpt>
      <trkpt lat="42.668049" lon="0.578936">
        <ele>1684.079</ele>
        <time>2021-08-09T16:11:42Z</time>
      </trkpt>
      <trkpt lat="42.668025" lon="0.578877">
        <ele>1681.014</ele>
        <time>2021-08-09T16:11:47Z</time>
      </trkpt>
      <trkpt lat="42.667989" lon="0.578823">
        <ele>1679.071</ele>
        <time>2021-08-09T16:11:49Z</time>
      </trkpt>
      <trkpt lat="42.667953" lon="0.578780">
        <ele>1678.068</ele>
        <time>2021-08-09T16:11:52Z</time>
      </trkpt>
      <trkpt lat="42.667919" lon="0.578729">
        <ele>1676.018</ele>
        <time>2021-08-09T16:11:57Z</time>
      </trkpt>
      <trkpt lat="42.667882" lon="0.578686">
        <ele>1675.046</ele>
        <time>2021-08-09T16:12:00Z</time>
      </trkpt>
      <trkpt lat="42.667835" lon="0.578657">
        <ele>1673.071</ele>
        <time>2021-08-09T16:12:03Z</time>
      </trkpt>
      <trkpt lat="42.667786" lon="0.578642">
        <ele>1670.041</ele>
        <time>2021-08-09T16:12:06Z</time>
      </trkpt>
      <trkpt lat="42.667744" lon="0.578615">
        <ele>1668.015</ele>
        <time>2021-08-09T16:12:09Z</time>
      </trkpt>
      <trkpt lat="42.667699" lon="0.578575">
        <ele>1667.008</ele>
        <time>2021-08-09T16:12:13Z</time>
      </trkpt>
      <trkpt lat="42.667652" lon="0.578549">
        <ele>1666.025</ele>
        <time>2021-08-09T16:12:16Z</time>
      </trkpt>
      <trkpt lat="42.667615" lon="0.578515">
        <ele>1666.067</ele>
        <time>2021-08-09T16:12:20Z</time>
      </trkpt>
      <trkpt lat="42.667571" lon="0.578468">
        <ele>1666.051</ele>
        <time>2021-08-09T16:12:24Z</time>
      </trkpt>
      <trkpt lat="42.667529" lon="0.578433">
        <ele>1665.046</ele>
        <time>2021-08-09T16:12:28Z</time>
      </trkpt>
      <trkpt lat="42.667482" lon="0.578400">
        <ele>1665.023</ele>
        <time>2021-08-09T16:12:32Z</time>
      </trkpt>
      <trkpt lat="42.667434" lon="0.578353">
        <ele>1664.040</ele>
        <time>2021-08-09T16:12:36Z</time>
      </trkpt>
      <trkpt lat="42.667391" lon="0.578323">
        <ele>1663.040</ele>
        <time>2021-08-09T16:12:39Z</time>
      </trkpt>
      <trkpt lat="42.667340" lon="0.578296">
        <ele>1662.068</ele>
        <time>2021-08-09T16:12:44Z</time>
      </trkpt>
    </trkseg>
  </trk>
</gpx>
